<?xml version="1.0" encoding="UTF-8" standalone="no" ?>
<gpx xmlns="http://www.topografix.com/GPX/1/1" xmlns:xsi="http://www.w3.org/2001/XMLSchema-instance" xsi:schemaLocation="http://www.topografix.com/GPX/1/1 http://www.topografix.com/GPX/1/1/gpx.xsd" version="1.1" creator="VisuGPX - https://www.visugpx.com">
  <metadata>
    <name>lundi 2015 06</name>
    <desc><![CDATA[cumul juin 2015]]></desc>
  </metadata>
  <trk>
    <name><![CDATA[2 Place du Châtelet]]></name>
    <extensions>
      <line xmlns="http://www.topografix.com/GPX/gpx_style/0/2">
        <color>000000</color>
      </line>
    </extensions>
    <trkseg>
      <trkpt lat="48.85732" lon="2.34733">
        <ele>107.6</ele>
        <time>2015-06-29T18:18:19.394Z</time>
      </trkpt>
      <trkpt lat="48.85735" lon="2.3473">
        <ele>101.6</ele>
        <time>2015-06-29T18:18:56.854Z</time>
      </trkpt>
      <trkpt lat="48.85735" lon="2.34731">
        <ele>101.6</ele>
        <time>2015-06-29T18:18:57.841Z</time>
      </trkpt>
      <trkpt lat="48.85735" lon="2.34731">
        <ele>101.5</ele>
        <time>2015-06-29T18:18:58.777Z</time>
      </trkpt>
      <trkpt lat="48.85727" lon="2.34733">
        <ele>100</ele>
        <time>2015-06-29T18:19:21.816Z</time>
      </trkpt>
      <trkpt lat="48.85728" lon="2.34733">
        <ele>99.8</ele>
        <time>2015-06-29T18:19:22.826Z</time>
      </trkpt>
      <trkpt lat="48.85728" lon="2.34734">
        <ele>99</ele>
        <time>2015-06-29T18:19:26.795Z</time>
      </trkpt>
      <trkpt lat="48.85729" lon="2.34736">
        <ele>98.3</ele>
        <time>2015-06-29T18:19:27.805Z</time>
      </trkpt>
      <trkpt lat="48.8573" lon="2.34741">
        <ele>97.3</ele>
        <time>2015-06-29T18:19:30.802Z</time>
      </trkpt>
      <trkpt lat="48.85729" lon="2.34742">
        <ele>97.1</ele>
        <time>2015-06-29T18:19:31.806Z</time>
      </trkpt>
      <trkpt lat="48.85729" lon="2.34741">
        <ele>97.1</ele>
        <time>2015-06-29T18:19:32.857Z</time>
      </trkpt>
      <trkpt lat="48.85736" lon="2.34742">
        <ele>96.4</ele>
        <time>2015-06-29T18:20:21.857Z</time>
      </trkpt>
      <trkpt lat="48.85736" lon="2.34742">
        <ele>96</ele>
        <time>2015-06-29T18:20:22.793Z</time>
      </trkpt>
      <trkpt lat="48.85737" lon="2.34741">
        <ele>95.8</ele>
        <time>2015-06-29T18:20:28.805Z</time>
      </trkpt>
      <trkpt lat="48.85737" lon="2.34742">
        <ele>95.6</ele>
        <time>2015-06-29T18:20:29.813Z</time>
      </trkpt>
      <trkpt lat="48.85746" lon="2.34744">
        <ele>95.1</ele>
        <time>2015-06-29T18:20:40.773Z</time>
      </trkpt>
      <trkpt lat="48.85748" lon="2.34742">
        <ele>95.1</ele>
        <time>2015-06-29T18:20:41.873Z</time>
      </trkpt>
      <trkpt lat="48.85756" lon="2.34736">
        <ele>95.3</ele>
        <time>2015-06-29T18:20:45.808Z</time>
      </trkpt>
      <trkpt lat="48.85759" lon="2.34734">
        <ele>95.3</ele>
        <time>2015-06-29T18:20:46.819Z</time>
      </trkpt>
      <trkpt lat="48.85768" lon="2.34731">
        <ele>95.6</ele>
        <time>2015-06-29T18:20:48.792Z</time>
      </trkpt>
      <trkpt lat="48.85771" lon="2.3473">
        <ele>95.6</ele>
        <time>2015-06-29T18:20:49.813Z</time>
      </trkpt>
      <trkpt lat="48.85778" lon="2.34729">
        <ele>95.7</ele>
        <time>2015-06-29T18:20:51.865Z</time>
      </trkpt>
      <trkpt lat="48.85783" lon="2.34726">
        <ele>95.4</ele>
        <time>2015-06-29T18:20:52.810Z</time>
      </trkpt>
      <trkpt lat="48.85791" lon="2.34728">
        <ele>95.6</ele>
        <time>2015-06-29T18:20:54.784Z</time>
      </trkpt>
      <trkpt lat="48.85795" lon="2.34729">
        <ele>95.6</ele>
        <time>2015-06-29T18:20:55.792Z</time>
      </trkpt>
      <trkpt lat="48.85803" lon="2.34729">
        <ele>95.9</ele>
        <time>2015-06-29T18:20:57.804Z</time>
      </trkpt>
      <trkpt lat="48.85808" lon="2.3473">
        <ele>96</ele>
        <time>2015-06-29T18:20:58.809Z</time>
      </trkpt>
      <trkpt lat="48.85812" lon="2.3473">
        <ele>96.1</ele>
        <time>2015-06-29T18:20:59.826Z</time>
      </trkpt>
      <trkpt lat="48.85817" lon="2.3473">
        <ele>96.2</ele>
        <time>2015-06-29T18:21:00.832Z</time>
      </trkpt>
      <trkpt lat="48.85822" lon="2.34731">
        <ele>96.3</ele>
        <time>2015-06-29T18:21:01.845Z</time>
      </trkpt>
      <trkpt lat="48.85826" lon="2.34732">
        <ele>96.4</ele>
        <time>2015-06-29T18:21:02.853Z</time>
      </trkpt>
      <trkpt lat="48.85831" lon="2.34733">
        <ele>96.4</ele>
        <time>2015-06-29T18:21:03.796Z</time>
      </trkpt>
      <trkpt lat="48.85835" lon="2.34734">
        <ele>96.4</ele>
        <time>2015-06-29T18:21:04.794Z</time>
      </trkpt>
      <trkpt lat="48.85843" lon="2.34735">
        <ele>96</ele>
        <time>2015-06-29T18:21:06.831Z</time>
      </trkpt>
      <trkpt lat="48.85847" lon="2.34737">
        <ele>95.7</ele>
        <time>2015-06-29T18:21:07.865Z</time>
      </trkpt>
      <trkpt lat="48.85852" lon="2.34739">
        <ele>95</ele>
        <time>2015-06-29T18:21:08.888Z</time>
      </trkpt>
      <trkpt lat="48.85856" lon="2.3474">
        <ele>94.9</ele>
        <time>2015-06-29T18:21:09.810Z</time>
      </trkpt>
      <trkpt lat="48.85864" lon="2.34741">
        <ele>95.2</ele>
        <time>2015-06-29T18:21:12.808Z</time>
      </trkpt>
      <trkpt lat="48.85868" lon="2.3474">
        <ele>95.4</ele>
        <time>2015-06-29T18:21:13.820Z</time>
      </trkpt>
      <trkpt lat="48.85874" lon="2.34735">
        <ele>95.5</ele>
        <time>2015-06-29T18:21:16.782Z</time>
      </trkpt>
      <trkpt lat="48.85876" lon="2.34732">
        <ele>95.7</ele>
        <time>2015-06-29T18:21:17.820Z</time>
      </trkpt>
      <trkpt lat="48.8588" lon="2.34721">
        <ele>96</ele>
        <time>2015-06-29T18:21:20.797Z</time>
      </trkpt>
      <trkpt lat="48.85882" lon="2.34717">
        <ele>96.2</ele>
        <time>2015-06-29T18:21:21.796Z</time>
      </trkpt>
      <trkpt lat="48.85886" lon="2.34707">
        <ele>96.7</ele>
        <time>2015-06-29T18:21:23.746Z</time>
      </trkpt>
      <trkpt lat="48.85889" lon="2.34701">
        <ele>97</ele>
        <time>2015-06-29T18:21:24.773Z</time>
      </trkpt>
      <trkpt lat="48.85891" lon="2.34696">
        <ele>97.4</ele>
        <time>2015-06-29T18:21:25.783Z</time>
      </trkpt>
      <trkpt lat="48.85894" lon="2.3469">
        <ele>97.8</ele>
        <time>2015-06-29T18:21:26.792Z</time>
      </trkpt>
      <trkpt lat="48.85896" lon="2.34686">
        <ele>98.1</ele>
        <time>2015-06-29T18:21:27.800Z</time>
      </trkpt>
      <trkpt lat="48.85898" lon="2.34678">
        <ele>98.1</ele>
        <time>2015-06-29T18:21:28.813Z</time>
      </trkpt>
      <trkpt lat="48.859" lon="2.34671">
        <ele>97.8</ele>
        <time>2015-06-29T18:21:29.744Z</time>
      </trkpt>
      <trkpt lat="48.85902" lon="2.34665">
        <ele>97.7</ele>
        <time>2015-06-29T18:21:30.724Z</time>
      </trkpt>
      <trkpt lat="48.85906" lon="2.34656">
        <ele>98.3</ele>
        <time>2015-06-29T18:21:32.769Z</time>
      </trkpt>
      <trkpt lat="48.85907" lon="2.34653">
        <ele>98.8</ele>
        <time>2015-06-29T18:21:33.784Z</time>
      </trkpt>
      <trkpt lat="48.85911" lon="2.34643">
        <ele>99.8</ele>
        <time>2015-06-29T18:21:36.819Z</time>
      </trkpt>
      <trkpt lat="48.85911" lon="2.34639">
        <ele>99.9</ele>
        <time>2015-06-29T18:21:37.755Z</time>
      </trkpt>
      <trkpt lat="48.85915" lon="2.34628">
        <ele>100.1</ele>
        <time>2015-06-29T18:21:40.812Z</time>
      </trkpt>
      <trkpt lat="48.85918" lon="2.34623">
        <ele>100.2</ele>
        <time>2015-06-29T18:21:41.926Z</time>
      </trkpt>
      <trkpt lat="48.85922" lon="2.34618">
        <ele>100.3</ele>
        <time>2015-06-29T18:21:42.780Z</time>
      </trkpt>
      <trkpt lat="48.85925" lon="2.34611">
        <ele>100.1</ele>
        <time>2015-06-29T18:21:43.773Z</time>
      </trkpt>
      <trkpt lat="48.85928" lon="2.34605">
        <ele>100</ele>
        <time>2015-06-29T18:21:44.792Z</time>
      </trkpt>
      <trkpt lat="48.85931" lon="2.34599">
        <ele>99.9</ele>
        <time>2015-06-29T18:21:45.793Z</time>
      </trkpt>
      <trkpt lat="48.85933" lon="2.34592">
        <ele>99.6</ele>
        <time>2015-06-29T18:21:46.798Z</time>
      </trkpt>
      <trkpt lat="48.85936" lon="2.34586">
        <ele>99.5</ele>
        <time>2015-06-29T18:21:47.726Z</time>
      </trkpt>
      <trkpt lat="48.85939" lon="2.3458">
        <ele>99.7</ele>
        <time>2015-06-29T18:21:48.732Z</time>
      </trkpt>
      <trkpt lat="48.85941" lon="2.34574">
        <ele>100.1</ele>
        <time>2015-06-29T18:21:49.719Z</time>
      </trkpt>
      <trkpt lat="48.85945" lon="2.34569">
        <ele>100.3</ele>
        <time>2015-06-29T18:21:50.768Z</time>
      </trkpt>
      <trkpt lat="48.85947" lon="2.34563">
        <ele>100.5</ele>
        <time>2015-06-29T18:21:51.775Z</time>
      </trkpt>
      <trkpt lat="48.85948" lon="2.34555">
        <ele>100.5</ele>
        <time>2015-06-29T18:21:52.783Z</time>
      </trkpt>
      <trkpt lat="48.85949" lon="2.34547">
        <ele>100.7</ele>
        <time>2015-06-29T18:21:53.785Z</time>
      </trkpt>
      <trkpt lat="48.85952" lon="2.34541">
        <ele>100.9</ele>
        <time>2015-06-29T18:21:54.805Z</time>
      </trkpt>
      <trkpt lat="48.85955" lon="2.34534">
        <ele>101.2</ele>
        <time>2015-06-29T18:21:55.832Z</time>
      </trkpt>
      <trkpt lat="48.85958" lon="2.34529">
        <ele>101.4</ele>
        <time>2015-06-29T18:21:56.807Z</time>
      </trkpt>
      <trkpt lat="48.85962" lon="2.34524">
        <ele>101.4</ele>
        <time>2015-06-29T18:21:57.730Z</time>
      </trkpt>
      <trkpt lat="48.85964" lon="2.34517">
        <ele>101.1</ele>
        <time>2015-06-29T18:21:58.738Z</time>
      </trkpt>
      <trkpt lat="48.85966" lon="2.34508">
        <ele>100.6</ele>
        <time>2015-06-29T18:21:59.744Z</time>
      </trkpt>
      <trkpt lat="48.85969" lon="2.34501">
        <ele>100.7</ele>
        <time>2015-06-29T18:22:00.751Z</time>
      </trkpt>
      <trkpt lat="48.85971" lon="2.34494">
        <ele>100.8</ele>
        <time>2015-06-29T18:22:01.764Z</time>
      </trkpt>
      <trkpt lat="48.85973" lon="2.34488">
        <ele>100.9</ele>
        <time>2015-06-29T18:22:02.778Z</time>
      </trkpt>
      <trkpt lat="48.85975" lon="2.34481">
        <ele>100.8</ele>
        <time>2015-06-29T18:22:03.788Z</time>
      </trkpt>
      <trkpt lat="48.85976" lon="2.34474">
        <ele>100.7</ele>
        <time>2015-06-29T18:22:04.798Z</time>
      </trkpt>
      <trkpt lat="48.85977" lon="2.34467">
        <ele>100.5</ele>
        <time>2015-06-29T18:22:05.804Z</time>
      </trkpt>
      <trkpt lat="48.85979" lon="2.3446">
        <ele>101.1</ele>
        <time>2015-06-29T18:22:06.810Z</time>
      </trkpt>
      <trkpt lat="48.85981" lon="2.34453">
        <ele>101.7</ele>
        <time>2015-06-29T18:22:07.733Z</time>
      </trkpt>
      <trkpt lat="48.85984" lon="2.34445">
        <ele>102.2</ele>
        <time>2015-06-29T18:22:08.768Z</time>
      </trkpt>
      <trkpt lat="48.85984" lon="2.34435">
        <ele>102.4</ele>
        <time>2015-06-29T18:22:09.775Z</time>
      </trkpt>
      <trkpt lat="48.85985" lon="2.34424">
        <ele>102.5</ele>
        <time>2015-06-29T18:22:10.791Z</time>
      </trkpt>
      <trkpt lat="48.85985" lon="2.34416">
        <ele>102.6</ele>
        <time>2015-06-29T18:22:11.799Z</time>
      </trkpt>
      <trkpt lat="48.85987" lon="2.34408">
        <ele>102.6</ele>
        <time>2015-06-29T18:22:12.807Z</time>
      </trkpt>
      <trkpt lat="48.85989" lon="2.34401">
        <ele>103</ele>
        <time>2015-06-29T18:22:13.813Z</time>
      </trkpt>
      <trkpt lat="48.85992" lon="2.34394">
        <ele>103.1</ele>
        <time>2015-06-29T18:22:14.810Z</time>
      </trkpt>
      <trkpt lat="48.85993" lon="2.34387">
        <ele>103</ele>
        <time>2015-06-29T18:22:15.802Z</time>
      </trkpt>
      <trkpt lat="48.85996" lon="2.3438">
        <ele>103.2</ele>
        <time>2015-06-29T18:22:16.818Z</time>
      </trkpt>
      <trkpt lat="48.85998" lon="2.34371">
        <ele>103.6</ele>
        <time>2015-06-29T18:22:17.842Z</time>
      </trkpt>
      <trkpt lat="48.86" lon="2.34361">
        <ele>103.6</ele>
        <time>2015-06-29T18:22:18.746Z</time>
      </trkpt>
      <trkpt lat="48.86001" lon="2.34352">
        <ele>103.7</ele>
        <time>2015-06-29T18:22:19.767Z</time>
      </trkpt>
      <trkpt lat="48.86003" lon="2.34343">
        <ele>103.7</ele>
        <time>2015-06-29T18:22:20.798Z</time>
      </trkpt>
      <trkpt lat="48.86004" lon="2.34335">
        <ele>103.7</ele>
        <time>2015-06-29T18:22:21.806Z</time>
      </trkpt>
      <trkpt lat="48.86007" lon="2.34327">
        <ele>103.6</ele>
        <time>2015-06-29T18:22:22.899Z</time>
      </trkpt>
      <trkpt lat="48.8601" lon="2.34319">
        <ele>103.7</ele>
        <time>2015-06-29T18:22:23.717Z</time>
      </trkpt>
      <trkpt lat="48.86012" lon="2.34311">
        <ele>103.6</ele>
        <time>2015-06-29T18:22:24.730Z</time>
      </trkpt>
      <trkpt lat="48.86014" lon="2.34304">
        <ele>103.4</ele>
        <time>2015-06-29T18:22:25.761Z</time>
      </trkpt>
      <trkpt lat="48.86017" lon="2.34296">
        <ele>103.5</ele>
        <time>2015-06-29T18:22:26.817Z</time>
      </trkpt>
      <trkpt lat="48.86018" lon="2.34287">
        <ele>103.5</ele>
        <time>2015-06-29T18:22:27.845Z</time>
      </trkpt>
      <trkpt lat="48.8602" lon="2.3428">
        <ele>103.5</ele>
        <time>2015-06-29T18:22:28.742Z</time>
      </trkpt>
      <trkpt lat="48.86023" lon="2.34272">
        <ele>103.6</ele>
        <time>2015-06-29T18:22:29.747Z</time>
      </trkpt>
      <trkpt lat="48.86026" lon="2.34263">
        <ele>103.8</ele>
        <time>2015-06-29T18:22:30.762Z</time>
      </trkpt>
      <trkpt lat="48.86028" lon="2.34255">
        <ele>103.9</ele>
        <time>2015-06-29T18:22:31.763Z</time>
      </trkpt>
      <trkpt lat="48.86032" lon="2.34247">
        <ele>103.9</ele>
        <time>2015-06-29T18:22:32.781Z</time>
      </trkpt>
      <trkpt lat="48.86035" lon="2.34239">
        <ele>103.9</ele>
        <time>2015-06-29T18:22:33.788Z</time>
      </trkpt>
      <trkpt lat="48.86036" lon="2.3423">
        <ele>104.3</ele>
        <time>2015-06-29T18:22:34.796Z</time>
      </trkpt>
      <trkpt lat="48.86038" lon="2.34224">
        <ele>104.3</ele>
        <time>2015-06-29T18:22:35.814Z</time>
      </trkpt>
      <trkpt lat="48.86039" lon="2.34217">
        <ele>104.8</ele>
        <time>2015-06-29T18:22:36.830Z</time>
      </trkpt>
      <trkpt lat="48.86041" lon="2.34209">
        <ele>104.9</ele>
        <time>2015-06-29T18:22:37.752Z</time>
      </trkpt>
      <trkpt lat="48.86043" lon="2.34203">
        <ele>104.9</ele>
        <time>2015-06-29T18:22:38.881Z</time>
      </trkpt>
      <trkpt lat="48.86045" lon="2.34196">
        <ele>104.8</ele>
        <time>2015-06-29T18:22:39.748Z</time>
      </trkpt>
      <trkpt lat="48.86047" lon="2.34188">
        <ele>104.7</ele>
        <time>2015-06-29T18:22:40.756Z</time>
      </trkpt>
      <trkpt lat="48.86049" lon="2.34181">
        <ele>104.6</ele>
        <time>2015-06-29T18:22:41.773Z</time>
      </trkpt>
      <trkpt lat="48.86052" lon="2.34174">
        <ele>104.7</ele>
        <time>2015-06-29T18:22:42.782Z</time>
      </trkpt>
      <trkpt lat="48.86055" lon="2.34167">
        <ele>104.7</ele>
        <time>2015-06-29T18:22:43.791Z</time>
      </trkpt>
      <trkpt lat="48.86057" lon="2.3416">
        <ele>104.8</ele>
        <time>2015-06-29T18:22:44.797Z</time>
      </trkpt>
      <trkpt lat="48.86061" lon="2.34153">
        <ele>104.7</ele>
        <time>2015-06-29T18:22:45.811Z</time>
      </trkpt>
      <trkpt lat="48.86064" lon="2.34146">
        <ele>104.7</ele>
        <time>2015-06-29T18:22:46.819Z</time>
      </trkpt>
      <trkpt lat="48.86068" lon="2.3414">
        <ele>104.5</ele>
        <time>2015-06-29T18:22:47.741Z</time>
      </trkpt>
      <trkpt lat="48.86072" lon="2.34134">
        <ele>104.4</ele>
        <time>2015-06-29T18:22:48.751Z</time>
      </trkpt>
      <trkpt lat="48.86075" lon="2.34128">
        <ele>104.5</ele>
        <time>2015-06-29T18:22:49.760Z</time>
      </trkpt>
      <trkpt lat="48.86078" lon="2.34122">
        <ele>104.4</ele>
        <time>2015-06-29T18:22:50.789Z</time>
      </trkpt>
      <trkpt lat="48.8608" lon="2.34115">
        <ele>104.3</ele>
        <time>2015-06-29T18:22:51.792Z</time>
      </trkpt>
      <trkpt lat="48.86084" lon="2.34107">
        <ele>103.3</ele>
        <time>2015-06-29T18:22:52.808Z</time>
      </trkpt>
      <trkpt lat="48.86086" lon="2.341">
        <ele>102.8</ele>
        <time>2015-06-29T18:22:53.817Z</time>
      </trkpt>
      <trkpt lat="48.8609" lon="2.3409">
        <ele>102.2</ele>
        <time>2015-06-29T18:22:55.744Z</time>
      </trkpt>
      <trkpt lat="48.86091" lon="2.34087">
        <ele>102.4</ele>
        <time>2015-06-29T18:22:56.817Z</time>
      </trkpt>
      <trkpt lat="48.86093" lon="2.34083">
        <ele>101.5</ele>
        <time>2015-06-29T18:22:59.791Z</time>
      </trkpt>
      <trkpt lat="48.86092" lon="2.34083">
        <ele>101.4</ele>
        <time>2015-06-29T18:23:00.804Z</time>
      </trkpt>
      <trkpt lat="48.86092" lon="2.34084">
        <ele>101.2</ele>
        <time>2015-06-29T18:23:06.792Z</time>
      </trkpt>
      <trkpt lat="48.86094" lon="2.34085">
        <ele>100.9</ele>
        <time>2015-06-29T18:23:07.802Z</time>
      </trkpt>
      <trkpt lat="48.86094" lon="2.34087">
        <ele>100.4</ele>
        <time>2015-06-29T18:23:14.819Z</time>
      </trkpt>
      <trkpt lat="48.86093" lon="2.34087">
        <ele>100.3</ele>
        <time>2015-06-29T18:23:15.834Z</time>
      </trkpt>
      <trkpt lat="48.86092" lon="2.34087">
        <ele>100.3</ele>
        <time>2015-06-29T18:23:20.873Z</time>
      </trkpt>
      <trkpt lat="48.86091" lon="2.34085">
        <ele>100.2</ele>
        <time>2015-06-29T18:23:21.796Z</time>
      </trkpt>
      <trkpt lat="48.86095" lon="2.34075">
        <ele>99.5</ele>
        <time>2015-06-29T18:23:24.794Z</time>
      </trkpt>
      <trkpt lat="48.86097" lon="2.3407">
        <ele>98.8</ele>
        <time>2015-06-29T18:23:25.856Z</time>
      </trkpt>
      <trkpt lat="48.861" lon="2.34059">
        <ele>98.7</ele>
        <time>2015-06-29T18:23:27.726Z</time>
      </trkpt>
      <trkpt lat="48.86102" lon="2.34054">
        <ele>98.6</ele>
        <time>2015-06-29T18:23:28.795Z</time>
      </trkpt>
      <trkpt lat="48.86105" lon="2.34043">
        <ele>98.6</ele>
        <time>2015-06-29T18:23:30.776Z</time>
      </trkpt>
      <trkpt lat="48.86107" lon="2.34037">
        <ele>98.4</ele>
        <time>2015-06-29T18:23:31.835Z</time>
      </trkpt>
      <trkpt lat="48.86109" lon="2.3403">
        <ele>98.3</ele>
        <time>2015-06-29T18:23:32.852Z</time>
      </trkpt>
      <trkpt lat="48.8611" lon="2.34024">
        <ele>98.2</ele>
        <time>2015-06-29T18:23:33.733Z</time>
      </trkpt>
      <trkpt lat="48.86112" lon="2.34018">
        <ele>98</ele>
        <time>2015-06-29T18:23:34.731Z</time>
      </trkpt>
      <trkpt lat="48.86114" lon="2.34011">
        <ele>97.9</ele>
        <time>2015-06-29T18:23:35.743Z</time>
      </trkpt>
      <trkpt lat="48.86116" lon="2.34003">
        <ele>97.7</ele>
        <time>2015-06-29T18:23:36.756Z</time>
      </trkpt>
      <trkpt lat="48.86118" lon="2.33996">
        <ele>97.6</ele>
        <time>2015-06-29T18:23:37.760Z</time>
      </trkpt>
      <trkpt lat="48.8612" lon="2.33989">
        <ele>97.5</ele>
        <time>2015-06-29T18:23:38.774Z</time>
      </trkpt>
      <trkpt lat="48.86121" lon="2.33982">
        <ele>97.5</ele>
        <time>2015-06-29T18:23:39.793Z</time>
      </trkpt>
      <trkpt lat="48.86124" lon="2.33975">
        <ele>97.6</ele>
        <time>2015-06-29T18:23:40.811Z</time>
      </trkpt>
      <trkpt lat="48.86126" lon="2.33968">
        <ele>97.6</ele>
        <time>2015-06-29T18:23:41.772Z</time>
      </trkpt>
      <trkpt lat="48.86128" lon="2.3396">
        <ele>97.7</ele>
        <time>2015-06-29T18:23:42.724Z</time>
      </trkpt>
      <trkpt lat="48.86131" lon="2.33953">
        <ele>97.6</ele>
        <time>2015-06-29T18:23:43.726Z</time>
      </trkpt>
      <trkpt lat="48.86133" lon="2.33946">
        <ele>97.5</ele>
        <time>2015-06-29T18:23:44.756Z</time>
      </trkpt>
      <trkpt lat="48.86135" lon="2.33939">
        <ele>97.5</ele>
        <time>2015-06-29T18:23:45.746Z</time>
      </trkpt>
      <trkpt lat="48.86137" lon="2.33932">
        <ele>97.4</ele>
        <time>2015-06-29T18:23:46.760Z</time>
      </trkpt>
      <trkpt lat="48.8614" lon="2.33924">
        <ele>97.4</ele>
        <time>2015-06-29T18:23:47.770Z</time>
      </trkpt>
      <trkpt lat="48.86142" lon="2.33917">
        <ele>97.3</ele>
        <time>2015-06-29T18:23:48.786Z</time>
      </trkpt>
      <trkpt lat="48.86145" lon="2.33909">
        <ele>97.3</ele>
        <time>2015-06-29T18:23:49.795Z</time>
      </trkpt>
      <trkpt lat="48.86147" lon="2.33902">
        <ele>97.3</ele>
        <time>2015-06-29T18:23:50.837Z</time>
      </trkpt>
      <trkpt lat="48.86149" lon="2.33894">
        <ele>97.3</ele>
        <time>2015-06-29T18:23:51.709Z</time>
      </trkpt>
      <trkpt lat="48.86152" lon="2.33887">
        <ele>97.2</ele>
        <time>2015-06-29T18:23:52.754Z</time>
      </trkpt>
      <trkpt lat="48.86154" lon="2.33879">
        <ele>97.2</ele>
        <time>2015-06-29T18:23:53.770Z</time>
      </trkpt>
      <trkpt lat="48.86156" lon="2.33871">
        <ele>97.2</ele>
        <time>2015-06-29T18:23:54.783Z</time>
      </trkpt>
      <trkpt lat="48.86158" lon="2.33864">
        <ele>97.2</ele>
        <time>2015-06-29T18:23:55.802Z</time>
      </trkpt>
      <trkpt lat="48.8616" lon="2.33856">
        <ele>97.3</ele>
        <time>2015-06-29T18:23:56.823Z</time>
      </trkpt>
      <trkpt lat="48.86163" lon="2.33848">
        <ele>97.5</ele>
        <time>2015-06-29T18:23:57.721Z</time>
      </trkpt>
      <trkpt lat="48.86165" lon="2.3384">
        <ele>97.6</ele>
        <time>2015-06-29T18:23:58.725Z</time>
      </trkpt>
      <trkpt lat="48.86167" lon="2.33832">
        <ele>97.7</ele>
        <time>2015-06-29T18:23:59.732Z</time>
      </trkpt>
      <trkpt lat="48.8617" lon="2.33824">
        <ele>97.9</ele>
        <time>2015-06-29T18:24:00.747Z</time>
      </trkpt>
      <trkpt lat="48.86172" lon="2.33817">
        <ele>97.9</ele>
        <time>2015-06-29T18:24:01.762Z</time>
      </trkpt>
      <trkpt lat="48.86174" lon="2.3381">
        <ele>98</ele>
        <time>2015-06-29T18:24:02.785Z</time>
      </trkpt>
      <trkpt lat="48.86177" lon="2.33803">
        <ele>98.1</ele>
        <time>2015-06-29T18:24:03.790Z</time>
      </trkpt>
      <trkpt lat="48.86179" lon="2.33796">
        <ele>98.1</ele>
        <time>2015-06-29T18:24:04.688Z</time>
      </trkpt>
      <trkpt lat="48.86183" lon="2.33789">
        <ele>98.2</ele>
        <time>2015-06-29T18:24:05.705Z</time>
      </trkpt>
      <trkpt lat="48.86186" lon="2.33781">
        <ele>98.1</ele>
        <time>2015-06-29T18:24:06.718Z</time>
      </trkpt>
      <trkpt lat="48.86189" lon="2.33773">
        <ele>98.2</ele>
        <time>2015-06-29T18:24:07.730Z</time>
      </trkpt>
      <trkpt lat="48.86192" lon="2.33765">
        <ele>98.2</ele>
        <time>2015-06-29T18:24:08.735Z</time>
      </trkpt>
      <trkpt lat="48.86207" lon="2.3372">
        <ele>98.3</ele>
        <time>2015-06-29T18:24:14.807Z</time>
      </trkpt>
      <trkpt lat="48.8621" lon="2.33712">
        <ele>98.4</ele>
        <time>2015-06-29T18:24:15.714Z</time>
      </trkpt>
      <trkpt lat="48.86213" lon="2.33706">
        <ele>98.5</ele>
        <time>2015-06-29T18:24:16.725Z</time>
      </trkpt>
      <trkpt lat="48.86216" lon="2.33699">
        <ele>98.6</ele>
        <time>2015-06-29T18:24:17.770Z</time>
      </trkpt>
      <trkpt lat="48.8622" lon="2.33691">
        <ele>98.8</ele>
        <time>2015-06-29T18:24:18.787Z</time>
      </trkpt>
      <trkpt lat="48.86223" lon="2.33685">
        <ele>98.8</ele>
        <time>2015-06-29T18:24:19.786Z</time>
      </trkpt>
      <trkpt lat="48.86225" lon="2.33678">
        <ele>98.8</ele>
        <time>2015-06-29T18:24:20.792Z</time>
      </trkpt>
      <trkpt lat="48.8623" lon="2.33667">
        <ele>99</ele>
        <time>2015-06-29T18:24:22.721Z</time>
      </trkpt>
      <trkpt lat="48.86232" lon="2.33662">
        <ele>98.8</ele>
        <time>2015-06-29T18:24:23.742Z</time>
      </trkpt>
      <trkpt lat="48.86234" lon="2.33656">
        <ele>98.7</ele>
        <time>2015-06-29T18:24:24.772Z</time>
      </trkpt>
      <trkpt lat="48.86237" lon="2.3365">
        <ele>98.8</ele>
        <time>2015-06-29T18:24:25.782Z</time>
      </trkpt>
      <trkpt lat="48.86239" lon="2.33643">
        <ele>99</ele>
        <time>2015-06-29T18:24:26.792Z</time>
      </trkpt>
      <trkpt lat="48.86242" lon="2.33637">
        <ele>99</ele>
        <time>2015-06-29T18:24:27.801Z</time>
      </trkpt>
      <trkpt lat="48.86245" lon="2.3363">
        <ele>99.1</ele>
        <time>2015-06-29T18:24:28.717Z</time>
      </trkpt>
      <trkpt lat="48.86247" lon="2.33623">
        <ele>99.4</ele>
        <time>2015-06-29T18:24:29.719Z</time>
      </trkpt>
      <trkpt lat="48.86249" lon="2.33616">
        <ele>99.5</ele>
        <time>2015-06-29T18:24:30.721Z</time>
      </trkpt>
      <trkpt lat="48.86252" lon="2.33609">
        <ele>99.7</ele>
        <time>2015-06-29T18:24:31.737Z</time>
      </trkpt>
      <trkpt lat="48.86254" lon="2.33602">
        <ele>99.9</ele>
        <time>2015-06-29T18:24:32.738Z</time>
      </trkpt>
      <trkpt lat="48.86256" lon="2.33595">
        <ele>100.1</ele>
        <time>2015-06-29T18:24:33.842Z</time>
      </trkpt>
      <trkpt lat="48.86257" lon="2.33588">
        <ele>100.5</ele>
        <time>2015-06-29T18:24:34.762Z</time>
      </trkpt>
      <trkpt lat="48.86259" lon="2.3358">
        <ele>100.9</ele>
        <time>2015-06-29T18:24:35.786Z</time>
      </trkpt>
      <trkpt lat="48.86261" lon="2.33572">
        <ele>101.1</ele>
        <time>2015-06-29T18:24:36.805Z</time>
      </trkpt>
      <trkpt lat="48.86263" lon="2.33565">
        <ele>101.3</ele>
        <time>2015-06-29T18:24:37.812Z</time>
      </trkpt>
      <trkpt lat="48.86265" lon="2.33558">
        <ele>101.6</ele>
        <time>2015-06-29T18:24:38.842Z</time>
      </trkpt>
      <trkpt lat="48.86268" lon="2.3355">
        <ele>101.5</ele>
        <time>2015-06-29T18:24:39.765Z</time>
      </trkpt>
      <trkpt lat="48.8627" lon="2.33543">
        <ele>101.5</ele>
        <time>2015-06-29T18:24:40.783Z</time>
      </trkpt>
      <trkpt lat="48.86273" lon="2.33535">
        <ele>101.5</ele>
        <time>2015-06-29T18:24:41.782Z</time>
      </trkpt>
      <trkpt lat="48.86276" lon="2.33527">
        <ele>101.5</ele>
        <time>2015-06-29T18:24:42.794Z</time>
      </trkpt>
      <trkpt lat="48.86278" lon="2.33519">
        <ele>101.4</ele>
        <time>2015-06-29T18:24:43.719Z</time>
      </trkpt>
      <trkpt lat="48.86279" lon="2.33512">
        <ele>100.9</ele>
        <time>2015-06-29T18:24:44.738Z</time>
      </trkpt>
      <trkpt lat="48.8628" lon="2.33504">
        <ele>100.6</ele>
        <time>2015-06-29T18:24:45.842Z</time>
      </trkpt>
      <trkpt lat="48.86282" lon="2.33496">
        <ele>100.4</ele>
        <time>2015-06-29T18:24:46.734Z</time>
      </trkpt>
      <trkpt lat="48.86284" lon="2.33488">
        <ele>100.4</ele>
        <time>2015-06-29T18:24:47.746Z</time>
      </trkpt>
      <trkpt lat="48.86284" lon="2.3348">
        <ele>100</ele>
        <time>2015-06-29T18:24:48.749Z</time>
      </trkpt>
      <trkpt lat="48.86285" lon="2.33472">
        <ele>99.7</ele>
        <time>2015-06-29T18:24:49.768Z</time>
      </trkpt>
      <trkpt lat="48.86287" lon="2.33464">
        <ele>99.4</ele>
        <time>2015-06-29T18:24:50.777Z</time>
      </trkpt>
      <trkpt lat="48.8629" lon="2.33457">
        <ele>99.3</ele>
        <time>2015-06-29T18:24:51.777Z</time>
      </trkpt>
      <trkpt lat="48.86293" lon="2.3345">
        <ele>98.9</ele>
        <time>2015-06-29T18:24:52.790Z</time>
      </trkpt>
      <trkpt lat="48.86296" lon="2.33443">
        <ele>98.9</ele>
        <time>2015-06-29T18:24:53.708Z</time>
      </trkpt>
      <trkpt lat="48.86298" lon="2.33436">
        <ele>98.8</ele>
        <time>2015-06-29T18:24:54.707Z</time>
      </trkpt>
      <trkpt lat="48.86299" lon="2.33429">
        <ele>98.6</ele>
        <time>2015-06-29T18:24:55.711Z</time>
      </trkpt>
      <trkpt lat="48.86301" lon="2.33422">
        <ele>98.5</ele>
        <time>2015-06-29T18:24:56.739Z</time>
      </trkpt>
      <trkpt lat="48.86303" lon="2.33416">
        <ele>98.4</ele>
        <time>2015-06-29T18:24:57.729Z</time>
      </trkpt>
      <trkpt lat="48.86305" lon="2.33409">
        <ele>98.4</ele>
        <time>2015-06-29T18:24:58.747Z</time>
      </trkpt>
      <trkpt lat="48.86307" lon="2.33402">
        <ele>98.4</ele>
        <time>2015-06-29T18:24:59.753Z</time>
      </trkpt>
      <trkpt lat="48.8631" lon="2.33396">
        <ele>98.7</ele>
        <time>2015-06-29T18:25:00.766Z</time>
      </trkpt>
      <trkpt lat="48.86312" lon="2.33389">
        <ele>98.8</ele>
        <time>2015-06-29T18:25:01.772Z</time>
      </trkpt>
      <trkpt lat="48.86314" lon="2.33382">
        <ele>98.8</ele>
        <time>2015-06-29T18:25:02.782Z</time>
      </trkpt>
      <trkpt lat="48.86316" lon="2.33375">
        <ele>98.7</ele>
        <time>2015-06-29T18:25:03.790Z</time>
      </trkpt>
      <trkpt lat="48.8632" lon="2.33364">
        <ele>98.8</ele>
        <time>2015-06-29T18:25:05.698Z</time>
      </trkpt>
      <trkpt lat="48.86321" lon="2.33358">
        <ele>98.9</ele>
        <time>2015-06-29T18:25:06.797Z</time>
      </trkpt>
      <trkpt lat="48.86324" lon="2.33345">
        <ele>99.1</ele>
        <time>2015-06-29T18:25:08.830Z</time>
      </trkpt>
      <trkpt lat="48.86325" lon="2.33338">
        <ele>99.3</ele>
        <time>2015-06-29T18:25:09.729Z</time>
      </trkpt>
      <trkpt lat="48.86327" lon="2.33331">
        <ele>99.3</ele>
        <time>2015-06-29T18:25:10.770Z</time>
      </trkpt>
      <trkpt lat="48.86329" lon="2.33325">
        <ele>99.3</ele>
        <time>2015-06-29T18:25:11.769Z</time>
      </trkpt>
      <trkpt lat="48.8633" lon="2.33317">
        <ele>99.5</ele>
        <time>2015-06-29T18:25:12.783Z</time>
      </trkpt>
      <trkpt lat="48.86333" lon="2.3331">
        <ele>99.6</ele>
        <time>2015-06-29T18:25:13.792Z</time>
      </trkpt>
      <trkpt lat="48.86335" lon="2.33303">
        <ele>99.5</ele>
        <time>2015-06-29T18:25:14.803Z</time>
      </trkpt>
      <trkpt lat="48.86338" lon="2.33296">
        <ele>99.8</ele>
        <time>2015-06-29T18:25:15.720Z</time>
      </trkpt>
      <trkpt lat="48.8634" lon="2.3329">
        <ele>99.8</ele>
        <time>2015-06-29T18:25:16.728Z</time>
      </trkpt>
      <trkpt lat="48.86343" lon="2.33283">
        <ele>99.1</ele>
        <time>2015-06-29T18:25:17.730Z</time>
      </trkpt>
      <trkpt lat="48.86347" lon="2.33275">
        <ele>98.7</ele>
        <time>2015-06-29T18:25:19.754Z</time>
      </trkpt>
      <trkpt lat="48.86348" lon="2.33271">
        <ele>98.8</ele>
        <time>2015-06-29T18:25:20.792Z</time>
      </trkpt>
      <trkpt lat="48.8635" lon="2.33263">
        <ele>98.8</ele>
        <time>2015-06-29T18:25:22.729Z</time>
      </trkpt>
      <trkpt lat="48.86352" lon="2.33257">
        <ele>98.8</ele>
        <time>2015-06-29T18:25:23.743Z</time>
      </trkpt>
      <trkpt lat="48.86354" lon="2.33245">
        <ele>98.2</ele>
        <time>2015-06-29T18:25:25.809Z</time>
      </trkpt>
      <trkpt lat="48.86356" lon="2.3324">
        <ele>97.7</ele>
        <time>2015-06-29T18:25:26.813Z</time>
      </trkpt>
      <trkpt lat="48.86355" lon="2.33229">
        <ele>97.4</ele>
        <time>2015-06-29T18:25:29.762Z</time>
      </trkpt>
      <trkpt lat="48.86358" lon="2.33225">
        <ele>95.9</ele>
        <time>2015-06-29T18:25:30.777Z</time>
      </trkpt>
      <trkpt lat="48.8636" lon="2.33213">
        <ele>96.3</ele>
        <time>2015-06-29T18:25:44.816Z</time>
      </trkpt>
      <trkpt lat="48.86359" lon="2.3321">
        <ele>96</ele>
        <time>2015-06-29T18:25:45.769Z</time>
      </trkpt>
      <trkpt lat="48.86364" lon="2.33202">
        <ele>94.1</ele>
        <time>2015-06-29T18:25:47.807Z</time>
      </trkpt>
      <trkpt lat="48.86368" lon="2.33196">
        <ele>93.8</ele>
        <time>2015-06-29T18:25:48.816Z</time>
      </trkpt>
      <trkpt lat="48.86373" lon="2.33191">
        <ele>93.3</ele>
        <time>2015-06-29T18:25:49.858Z</time>
      </trkpt>
      <trkpt lat="48.86376" lon="2.33185">
        <ele>92.6</ele>
        <time>2015-06-29T18:25:50.885Z</time>
      </trkpt>
      <trkpt lat="48.8638" lon="2.33179">
        <ele>92.4</ele>
        <time>2015-06-29T18:25:51.750Z</time>
      </trkpt>
      <trkpt lat="48.86383" lon="2.33174">
        <ele>92.4</ele>
        <time>2015-06-29T18:25:52.762Z</time>
      </trkpt>
      <trkpt lat="48.86385" lon="2.33168">
        <ele>92.7</ele>
        <time>2015-06-29T18:25:53.776Z</time>
      </trkpt>
      <trkpt lat="48.86387" lon="2.33161">
        <ele>92.3</ele>
        <time>2015-06-29T18:25:54.780Z</time>
      </trkpt>
      <trkpt lat="48.86389" lon="2.33155">
        <ele>91.9</ele>
        <time>2015-06-29T18:25:55.792Z</time>
      </trkpt>
      <trkpt lat="48.86392" lon="2.33148">
        <ele>91.9</ele>
        <time>2015-06-29T18:25:56.828Z</time>
      </trkpt>
      <trkpt lat="48.86394" lon="2.33141">
        <ele>91.9</ele>
        <time>2015-06-29T18:25:57.830Z</time>
      </trkpt>
      <trkpt lat="48.86396" lon="2.33135">
        <ele>91.8</ele>
        <time>2015-06-29T18:25:58.836Z</time>
      </trkpt>
      <trkpt lat="48.86398" lon="2.33129">
        <ele>91.3</ele>
        <time>2015-06-29T18:25:59.791Z</time>
      </trkpt>
      <trkpt lat="48.864" lon="2.33123">
        <ele>90.9</ele>
        <time>2015-06-29T18:26:00.771Z</time>
      </trkpt>
      <trkpt lat="48.86403" lon="2.33117">
        <ele>91.1</ele>
        <time>2015-06-29T18:26:01.784Z</time>
      </trkpt>
      <trkpt lat="48.86405" lon="2.33111">
        <ele>91.3</ele>
        <time>2015-06-29T18:26:02.826Z</time>
      </trkpt>
      <trkpt lat="48.86409" lon="2.331">
        <ele>91.5</ele>
        <time>2015-06-29T18:26:04.765Z</time>
      </trkpt>
      <trkpt lat="48.8641" lon="2.33093">
        <ele>91.7</ele>
        <time>2015-06-29T18:26:05.780Z</time>
      </trkpt>
      <trkpt lat="48.86413" lon="2.3308">
        <ele>92.2</ele>
        <time>2015-06-29T18:26:07.767Z</time>
      </trkpt>
      <trkpt lat="48.86414" lon="2.33074">
        <ele>92.3</ele>
        <time>2015-06-29T18:26:08.835Z</time>
      </trkpt>
      <trkpt lat="48.86417" lon="2.33063">
        <ele>92.5</ele>
        <time>2015-06-29T18:26:10.789Z</time>
      </trkpt>
      <trkpt lat="48.86419" lon="2.33057">
        <ele>92.6</ele>
        <time>2015-06-29T18:26:11.758Z</time>
      </trkpt>
      <trkpt lat="48.86422" lon="2.3305">
        <ele>93.1</ele>
        <time>2015-06-29T18:26:12.776Z</time>
      </trkpt>
      <trkpt lat="48.86424" lon="2.33043">
        <ele>93.2</ele>
        <time>2015-06-29T18:26:13.789Z</time>
      </trkpt>
      <trkpt lat="48.86426" lon="2.33037">
        <ele>93.3</ele>
        <time>2015-06-29T18:26:14.817Z</time>
      </trkpt>
      <trkpt lat="48.86429" lon="2.33031">
        <ele>93.1</ele>
        <time>2015-06-29T18:26:15.826Z</time>
      </trkpt>
      <trkpt lat="48.86431" lon="2.33026">
        <ele>93.2</ele>
        <time>2015-06-29T18:26:16.836Z</time>
      </trkpt>
      <trkpt lat="48.86434" lon="2.33019">
        <ele>93.5</ele>
        <time>2015-06-29T18:26:17.751Z</time>
      </trkpt>
      <trkpt lat="48.86435" lon="2.33012">
        <ele>93.6</ele>
        <time>2015-06-29T18:26:18.759Z</time>
      </trkpt>
      <trkpt lat="48.86436" lon="2.33006">
        <ele>93.6</ele>
        <time>2015-06-29T18:26:19.792Z</time>
      </trkpt>
      <trkpt lat="48.86439" lon="2.32993">
        <ele>93.5</ele>
        <time>2015-06-29T18:26:21.823Z</time>
      </trkpt>
      <trkpt lat="48.86441" lon="2.32988">
        <ele>93.6</ele>
        <time>2015-06-29T18:26:22.820Z</time>
      </trkpt>
      <trkpt lat="48.86443" lon="2.32981">
        <ele>93.5</ele>
        <time>2015-06-29T18:26:23.732Z</time>
      </trkpt>
      <trkpt lat="48.86446" lon="2.32974">
        <ele>93.5</ele>
        <time>2015-06-29T18:26:24.752Z</time>
      </trkpt>
      <trkpt lat="48.86448" lon="2.32965">
        <ele>93.5</ele>
        <time>2015-06-29T18:26:25.780Z</time>
      </trkpt>
      <trkpt lat="48.8645" lon="2.32957">
        <ele>93.4</ele>
        <time>2015-06-29T18:26:26.807Z</time>
      </trkpt>
      <trkpt lat="48.86452" lon="2.3295">
        <ele>93.4</ele>
        <time>2015-06-29T18:26:27.809Z</time>
      </trkpt>
      <trkpt lat="48.86455" lon="2.32943">
        <ele>93.3</ele>
        <time>2015-06-29T18:26:28.816Z</time>
      </trkpt>
      <trkpt lat="48.86457" lon="2.32936">
        <ele>93.3</ele>
        <time>2015-06-29T18:26:29.828Z</time>
      </trkpt>
      <trkpt lat="48.86459" lon="2.32929">
        <ele>93.4</ele>
        <time>2015-06-29T18:26:30.832Z</time>
      </trkpt>
      <trkpt lat="48.86461" lon="2.32923">
        <ele>93.4</ele>
        <time>2015-06-29T18:26:31.748Z</time>
      </trkpt>
      <trkpt lat="48.86463" lon="2.32916">
        <ele>93.4</ele>
        <time>2015-06-29T18:26:32.850Z</time>
      </trkpt>
      <trkpt lat="48.86466" lon="2.32909">
        <ele>93.3</ele>
        <time>2015-06-29T18:26:33.756Z</time>
      </trkpt>
      <trkpt lat="48.86467" lon="2.32901">
        <ele>93.3</ele>
        <time>2015-06-29T18:26:34.773Z</time>
      </trkpt>
      <trkpt lat="48.86469" lon="2.32895">
        <ele>93.3</ele>
        <time>2015-06-29T18:26:35.779Z</time>
      </trkpt>
      <trkpt lat="48.86471" lon="2.32888">
        <ele>93.3</ele>
        <time>2015-06-29T18:26:36.781Z</time>
      </trkpt>
      <trkpt lat="48.86473" lon="2.32881">
        <ele>93.4</ele>
        <time>2015-06-29T18:26:37.785Z</time>
      </trkpt>
      <trkpt lat="48.86475" lon="2.32875">
        <ele>93.4</ele>
        <time>2015-06-29T18:26:38.793Z</time>
      </trkpt>
      <trkpt lat="48.86476" lon="2.32867">
        <ele>93.4</ele>
        <time>2015-06-29T18:26:39.799Z</time>
      </trkpt>
      <trkpt lat="48.86479" lon="2.32861">
        <ele>93.5</ele>
        <time>2015-06-29T18:26:40.808Z</time>
      </trkpt>
      <trkpt lat="48.8648" lon="2.32854">
        <ele>93.4</ele>
        <time>2015-06-29T18:26:41.812Z</time>
      </trkpt>
      <trkpt lat="48.86483" lon="2.32847">
        <ele>93.3</ele>
        <time>2015-06-29T18:26:42.813Z</time>
      </trkpt>
      <trkpt lat="48.86485" lon="2.3284">
        <ele>93.3</ele>
        <time>2015-06-29T18:26:43.825Z</time>
      </trkpt>
      <trkpt lat="48.86487" lon="2.32833">
        <ele>93.3</ele>
        <time>2015-06-29T18:26:44.839Z</time>
      </trkpt>
      <trkpt lat="48.86489" lon="2.32827">
        <ele>93.2</ele>
        <time>2015-06-29T18:26:45.777Z</time>
      </trkpt>
      <trkpt lat="48.86492" lon="2.32821">
        <ele>93.2</ele>
        <time>2015-06-29T18:26:46.758Z</time>
      </trkpt>
      <trkpt lat="48.86494" lon="2.32814">
        <ele>93.2</ele>
        <time>2015-06-29T18:26:47.774Z</time>
      </trkpt>
      <trkpt lat="48.86496" lon="2.32807">
        <ele>93.1</ele>
        <time>2015-06-29T18:26:48.779Z</time>
      </trkpt>
      <trkpt lat="48.86499" lon="2.32801">
        <ele>93</ele>
        <time>2015-06-29T18:26:49.797Z</time>
      </trkpt>
      <trkpt lat="48.86502" lon="2.32794">
        <ele>92.9</ele>
        <time>2015-06-29T18:26:50.801Z</time>
      </trkpt>
      <trkpt lat="48.86504" lon="2.32787">
        <ele>92.7</ele>
        <time>2015-06-29T18:26:51.811Z</time>
      </trkpt>
      <trkpt lat="48.86506" lon="2.3278">
        <ele>92.6</ele>
        <time>2015-06-29T18:26:52.820Z</time>
      </trkpt>
      <trkpt lat="48.86509" lon="2.32773">
        <ele>92.5</ele>
        <time>2015-06-29T18:26:53.826Z</time>
      </trkpt>
      <trkpt lat="48.86511" lon="2.32765">
        <ele>92.4</ele>
        <time>2015-06-29T18:26:54.725Z</time>
      </trkpt>
      <trkpt lat="48.86513" lon="2.32758">
        <ele>92.3</ele>
        <time>2015-06-29T18:26:55.746Z</time>
      </trkpt>
      <trkpt lat="48.86515" lon="2.3275">
        <ele>92.3</ele>
        <time>2015-06-29T18:26:56.789Z</time>
      </trkpt>
      <trkpt lat="48.86518" lon="2.32743">
        <ele>92.2</ele>
        <time>2015-06-29T18:26:57.805Z</time>
      </trkpt>
      <trkpt lat="48.8652" lon="2.32736">
        <ele>92</ele>
        <time>2015-06-29T18:26:58.802Z</time>
      </trkpt>
      <trkpt lat="48.86523" lon="2.3273">
        <ele>91.8</ele>
        <time>2015-06-29T18:26:59.823Z</time>
      </trkpt>
      <trkpt lat="48.86525" lon="2.32724">
        <ele>91.5</ele>
        <time>2015-06-29T18:27:00.751Z</time>
      </trkpt>
      <trkpt lat="48.86528" lon="2.32717">
        <ele>91.4</ele>
        <time>2015-06-29T18:27:01.746Z</time>
      </trkpt>
      <trkpt lat="48.8653" lon="2.3271">
        <ele>91.5</ele>
        <time>2015-06-29T18:27:02.830Z</time>
      </trkpt>
      <trkpt lat="48.86533" lon="2.32703">
        <ele>91.5</ele>
        <time>2015-06-29T18:27:03.741Z</time>
      </trkpt>
      <trkpt lat="48.86535" lon="2.32695">
        <ele>91.5</ele>
        <time>2015-06-29T18:27:04.771Z</time>
      </trkpt>
      <trkpt lat="48.86537" lon="2.32688">
        <ele>91.5</ele>
        <time>2015-06-29T18:27:05.793Z</time>
      </trkpt>
      <trkpt lat="48.86539" lon="2.32681">
        <ele>91.4</ele>
        <time>2015-06-29T18:27:06.801Z</time>
      </trkpt>
      <trkpt lat="48.86542" lon="2.32673">
        <ele>91.3</ele>
        <time>2015-06-29T18:27:07.808Z</time>
      </trkpt>
      <trkpt lat="48.86544" lon="2.32666">
        <ele>91.4</ele>
        <time>2015-06-29T18:27:08.815Z</time>
      </trkpt>
      <trkpt lat="48.86546" lon="2.32658">
        <ele>91.3</ele>
        <time>2015-06-29T18:27:09.732Z</time>
      </trkpt>
      <trkpt lat="48.86548" lon="2.32651">
        <ele>91.3</ele>
        <time>2015-06-29T18:27:10.745Z</time>
      </trkpt>
      <trkpt lat="48.86551" lon="2.32644">
        <ele>91.3</ele>
        <time>2015-06-29T18:27:11.758Z</time>
      </trkpt>
      <trkpt lat="48.86553" lon="2.32637">
        <ele>91.3</ele>
        <time>2015-06-29T18:27:12.767Z</time>
      </trkpt>
      <trkpt lat="48.86555" lon="2.3263">
        <ele>91.2</ele>
        <time>2015-06-29T18:27:13.771Z</time>
      </trkpt>
      <trkpt lat="48.86558" lon="2.32623">
        <ele>91.1</ele>
        <time>2015-06-29T18:27:14.806Z</time>
      </trkpt>
      <trkpt lat="48.8656" lon="2.32616">
        <ele>91</ele>
        <time>2015-06-29T18:27:15.931Z</time>
      </trkpt>
      <trkpt lat="48.86563" lon="2.32609">
        <ele>91</ele>
        <time>2015-06-29T18:27:16.743Z</time>
      </trkpt>
      <trkpt lat="48.86565" lon="2.32602">
        <ele>90.9</ele>
        <time>2015-06-29T18:27:17.743Z</time>
      </trkpt>
      <trkpt lat="48.86567" lon="2.32595">
        <ele>90.9</ele>
        <time>2015-06-29T18:27:18.766Z</time>
      </trkpt>
      <trkpt lat="48.8657" lon="2.32588">
        <ele>90.8</ele>
        <time>2015-06-29T18:27:19.771Z</time>
      </trkpt>
      <trkpt lat="48.86572" lon="2.32581">
        <ele>90.7</ele>
        <time>2015-06-29T18:27:20.801Z</time>
      </trkpt>
      <trkpt lat="48.86575" lon="2.32574">
        <ele>90.6</ele>
        <time>2015-06-29T18:27:21.818Z</time>
      </trkpt>
      <trkpt lat="48.86578" lon="2.32567">
        <ele>90.6</ele>
        <time>2015-06-29T18:27:22.821Z</time>
      </trkpt>
      <trkpt lat="48.8658" lon="2.3256">
        <ele>90.6</ele>
        <time>2015-06-29T18:27:23.749Z</time>
      </trkpt>
      <trkpt lat="48.86583" lon="2.32552">
        <ele>90.6</ele>
        <time>2015-06-29T18:27:24.730Z</time>
      </trkpt>
      <trkpt lat="48.86585" lon="2.32545">
        <ele>90.6</ele>
        <time>2015-06-29T18:27:25.751Z</time>
      </trkpt>
      <trkpt lat="48.86588" lon="2.32539">
        <ele>89.7</ele>
        <time>2015-06-29T18:27:26.802Z</time>
      </trkpt>
      <trkpt lat="48.86591" lon="2.32532">
        <ele>89.3</ele>
        <time>2015-06-29T18:27:27.808Z</time>
      </trkpt>
      <trkpt lat="48.86593" lon="2.32526">
        <ele>88.9</ele>
        <time>2015-06-29T18:27:28.810Z</time>
      </trkpt>
      <trkpt lat="48.86596" lon="2.32514">
        <ele>89.1</ele>
        <time>2015-06-29T18:27:30.823Z</time>
      </trkpt>
      <trkpt lat="48.86598" lon="2.32509">
        <ele>89.1</ele>
        <time>2015-06-29T18:27:31.995Z</time>
      </trkpt>
      <trkpt lat="48.86601" lon="2.32498">
        <ele>89.2</ele>
        <time>2015-06-29T18:27:33.833Z</time>
      </trkpt>
      <trkpt lat="48.86602" lon="2.32492">
        <ele>89.2</ele>
        <time>2015-06-29T18:27:34.766Z</time>
      </trkpt>
      <trkpt lat="48.86606" lon="2.3248">
        <ele>89.2</ele>
        <time>2015-06-29T18:27:36.763Z</time>
      </trkpt>
      <trkpt lat="48.86609" lon="2.32474">
        <ele>89.3</ele>
        <time>2015-06-29T18:27:37.800Z</time>
      </trkpt>
      <trkpt lat="48.86611" lon="2.32466">
        <ele>89.5</ele>
        <time>2015-06-29T18:27:38.828Z</time>
      </trkpt>
      <trkpt lat="48.86613" lon="2.3246">
        <ele>89.5</ele>
        <time>2015-06-29T18:27:39.834Z</time>
      </trkpt>
      <trkpt lat="48.86615" lon="2.32453">
        <ele>89.6</ele>
        <time>2015-06-29T18:27:40.754Z</time>
      </trkpt>
      <trkpt lat="48.86617" lon="2.32446">
        <ele>89.7</ele>
        <time>2015-06-29T18:27:41.753Z</time>
      </trkpt>
      <trkpt lat="48.86619" lon="2.3244">
        <ele>89.8</ele>
        <time>2015-06-29T18:27:42.756Z</time>
      </trkpt>
      <trkpt lat="48.8662" lon="2.32434">
        <ele>89.1</ele>
        <time>2015-06-29T18:27:43.762Z</time>
      </trkpt>
      <trkpt lat="48.86624" lon="2.32421">
        <ele>88.1</ele>
        <time>2015-06-29T18:27:45.810Z</time>
      </trkpt>
      <trkpt lat="48.86626" lon="2.32415">
        <ele>87</ele>
        <time>2015-06-29T18:27:46.833Z</time>
      </trkpt>
      <trkpt lat="48.86631" lon="2.32404">
        <ele>85.9</ele>
        <time>2015-06-29T18:27:48.769Z</time>
      </trkpt>
      <trkpt lat="48.86632" lon="2.32398">
        <ele>85.8</ele>
        <time>2015-06-29T18:27:49.783Z</time>
      </trkpt>
      <trkpt lat="48.86637" lon="2.32386">
        <ele>85.7</ele>
        <time>2015-06-29T18:27:51.755Z</time>
      </trkpt>
      <trkpt lat="48.86638" lon="2.3238">
        <ele>85.8</ele>
        <time>2015-06-29T18:27:52.790Z</time>
      </trkpt>
      <trkpt lat="48.86639" lon="2.32369">
        <ele>85.3</ele>
        <time>2015-06-29T18:27:54.814Z</time>
      </trkpt>
      <trkpt lat="48.86639" lon="2.32363">
        <ele>85.1</ele>
        <time>2015-06-29T18:27:55.827Z</time>
      </trkpt>
      <trkpt lat="48.8664" lon="2.32352">
        <ele>85</ele>
        <time>2015-06-29T18:27:57.756Z</time>
      </trkpt>
      <trkpt lat="48.86641" lon="2.32347">
        <ele>84.9</ele>
        <time>2015-06-29T18:27:58.779Z</time>
      </trkpt>
      <trkpt lat="48.86643" lon="2.32336">
        <ele>84.8</ele>
        <time>2015-06-29T18:28:00.793Z</time>
      </trkpt>
      <trkpt lat="48.86644" lon="2.32331">
        <ele>85</ele>
        <time>2015-06-29T18:28:01.821Z</time>
      </trkpt>
      <trkpt lat="48.86647" lon="2.32322">
        <ele>84.7</ele>
        <time>2015-06-29T18:28:03.750Z</time>
      </trkpt>
      <trkpt lat="48.86649" lon="2.32317">
        <ele>84.7</ele>
        <time>2015-06-29T18:28:04.751Z</time>
      </trkpt>
      <trkpt lat="48.86653" lon="2.32307">
        <ele>84.4</ele>
        <time>2015-06-29T18:28:06.785Z</time>
      </trkpt>
      <trkpt lat="48.86655" lon="2.32302">
        <ele>84.4</ele>
        <time>2015-06-29T18:28:07.820Z</time>
      </trkpt>
      <trkpt lat="48.8666" lon="2.32292">
        <ele>84.2</ele>
        <time>2015-06-29T18:28:09.755Z</time>
      </trkpt>
      <trkpt lat="48.86662" lon="2.32287">
        <ele>84.1</ele>
        <time>2015-06-29T18:28:10.837Z</time>
      </trkpt>
      <trkpt lat="48.86667" lon="2.32276">
        <ele>84.3</ele>
        <time>2015-06-29T18:28:12.777Z</time>
      </trkpt>
      <trkpt lat="48.86669" lon="2.32271">
        <ele>84.6</ele>
        <time>2015-06-29T18:28:13.791Z</time>
      </trkpt>
      <trkpt lat="48.86671" lon="2.32259">
        <ele>84.7</ele>
        <time>2015-06-29T18:28:16.827Z</time>
      </trkpt>
      <trkpt lat="48.86671" lon="2.32256">
        <ele>84.7</ele>
        <time>2015-06-29T18:28:17.750Z</time>
      </trkpt>
      <trkpt lat="48.86673" lon="2.32244">
        <ele>84.9</ele>
        <time>2015-06-29T18:28:20.828Z</time>
      </trkpt>
      <trkpt lat="48.86674" lon="2.3224">
        <ele>85.1</ele>
        <time>2015-06-29T18:28:21.765Z</time>
      </trkpt>
      <trkpt lat="48.86677" lon="2.32228">
        <ele>85.2</ele>
        <time>2015-06-29T18:28:27.835Z</time>
      </trkpt>
      <trkpt lat="48.86677" lon="2.32227">
        <ele>85.3</ele>
        <time>2015-06-29T18:28:28.909Z</time>
      </trkpt>
      <trkpt lat="48.86677" lon="2.32227">
        <ele>85.4</ele>
        <time>2015-06-29T18:28:30.761Z</time>
      </trkpt>
      <trkpt lat="48.86677" lon="2.32225">
        <ele>85.5</ele>
        <time>2015-06-29T18:28:31.853Z</time>
      </trkpt>
      <trkpt lat="48.86681" lon="2.32215">
        <ele>86.1</ele>
        <time>2015-06-29T18:28:41.831Z</time>
      </trkpt>
      <trkpt lat="48.86682" lon="2.32212">
        <ele>86.1</ele>
        <time>2015-06-29T18:28:42.845Z</time>
      </trkpt>
      <trkpt lat="48.86686" lon="2.32201">
        <ele>86.1</ele>
        <time>2015-06-29T18:28:45.809Z</time>
      </trkpt>
      <trkpt lat="48.86688" lon="2.32198">
        <ele>86.3</ele>
        <time>2015-06-29T18:28:46.852Z</time>
      </trkpt>
      <trkpt lat="48.86692" lon="2.3219">
        <ele>86.5</ele>
        <time>2015-06-29T18:28:48.764Z</time>
      </trkpt>
      <trkpt lat="48.86694" lon="2.32185">
        <ele>86.6</ele>
        <time>2015-06-29T18:28:49.788Z</time>
      </trkpt>
      <trkpt lat="48.86696" lon="2.32176">
        <ele>86.6</ele>
        <time>2015-06-29T18:28:51.841Z</time>
      </trkpt>
      <trkpt lat="48.86696" lon="2.32172">
        <ele>86.6</ele>
        <time>2015-06-29T18:28:52.846Z</time>
      </trkpt>
      <trkpt lat="48.86697" lon="2.32162">
        <ele>86.6</ele>
        <time>2015-06-29T18:28:55.766Z</time>
      </trkpt>
      <trkpt lat="48.86695" lon="2.32157">
        <ele>86.7</ele>
        <time>2015-06-29T18:28:56.871Z</time>
      </trkpt>
      <trkpt lat="48.86694" lon="2.32148">
        <ele>86.7</ele>
        <time>2015-06-29T18:28:58.771Z</time>
      </trkpt>
      <trkpt lat="48.86695" lon="2.32143">
        <ele>86.8</ele>
        <time>2015-06-29T18:28:59.786Z</time>
      </trkpt>
      <trkpt lat="48.86696" lon="2.32132">
        <ele>86.8</ele>
        <time>2015-06-29T18:29:01.819Z</time>
      </trkpt>
      <trkpt lat="48.86696" lon="2.32126">
        <ele>87</ele>
        <time>2015-06-29T18:29:02.834Z</time>
      </trkpt>
      <trkpt lat="48.86697" lon="2.32114">
        <ele>87.1</ele>
        <time>2015-06-29T18:29:05.764Z</time>
      </trkpt>
      <trkpt lat="48.86698" lon="2.32109">
        <ele>87.4</ele>
        <time>2015-06-29T18:29:06.770Z</time>
      </trkpt>
      <trkpt lat="48.867" lon="2.321">
        <ele>87.4</ele>
        <time>2015-06-29T18:29:08.821Z</time>
      </trkpt>
      <trkpt lat="48.867" lon="2.32095">
        <ele>87.6</ele>
        <time>2015-06-29T18:29:09.839Z</time>
      </trkpt>
      <trkpt lat="48.86701" lon="2.32082">
        <ele>88.3</ele>
        <time>2015-06-29T18:29:12.793Z</time>
      </trkpt>
      <trkpt lat="48.86701" lon="2.32079">
        <ele>88.5</ele>
        <time>2015-06-29T18:29:13.804Z</time>
      </trkpt>
      <trkpt lat="48.86699" lon="2.32067">
        <ele>89.4</ele>
        <time>2015-06-29T18:29:17.821Z</time>
      </trkpt>
      <trkpt lat="48.86699" lon="2.32063">
        <ele>89.5</ele>
        <time>2015-06-29T18:29:18.849Z</time>
      </trkpt>
      <trkpt lat="48.867" lon="2.32052">
        <ele>89.9</ele>
        <time>2015-06-29T18:29:21.803Z</time>
      </trkpt>
      <trkpt lat="48.867" lon="2.32048">
        <ele>90.2</ele>
        <time>2015-06-29T18:29:22.828Z</time>
      </trkpt>
      <trkpt lat="48.86697" lon="2.32035">
        <ele>89.7</ele>
        <time>2015-06-29T18:29:26.844Z</time>
      </trkpt>
      <trkpt lat="48.86696" lon="2.32035">
        <ele>89.1</ele>
        <time>2015-06-29T18:29:27.867Z</time>
      </trkpt>
      <trkpt lat="48.86689" lon="2.32043">
        <ele>89.2</ele>
        <time>2015-06-29T18:29:31.795Z</time>
      </trkpt>
      <trkpt lat="48.86688" lon="2.32045">
        <ele>89.2</ele>
        <time>2015-06-29T18:29:32.847Z</time>
      </trkpt>
      <trkpt lat="48.86689" lon="2.32058">
        <ele>89.1</ele>
        <time>2015-06-29T18:29:36.798Z</time>
      </trkpt>
      <trkpt lat="48.86686" lon="2.3206">
        <ele>89.1</ele>
        <time>2015-06-29T18:29:37.805Z</time>
      </trkpt>
      <trkpt lat="48.8668" lon="2.32062">
        <ele>89.1</ele>
        <time>2015-06-29T18:29:39.787Z</time>
      </trkpt>
      <trkpt lat="48.86676" lon="2.32063">
        <ele>89.1</ele>
        <time>2015-06-29T18:29:40.775Z</time>
      </trkpt>
      <trkpt lat="48.86668" lon="2.32065">
        <ele>88.8</ele>
        <time>2015-06-29T18:29:42.847Z</time>
      </trkpt>
      <trkpt lat="48.86664" lon="2.32066">
        <ele>88.5</ele>
        <time>2015-06-29T18:29:43.786Z</time>
      </trkpt>
      <trkpt lat="48.86657" lon="2.32065">
        <ele>88.3</ele>
        <time>2015-06-29T18:29:45.799Z</time>
      </trkpt>
      <trkpt lat="48.86653" lon="2.32064">
        <ele>88.6</ele>
        <time>2015-06-29T18:29:46.811Z</time>
      </trkpt>
      <trkpt lat="48.86646" lon="2.32061">
        <ele>88.3</ele>
        <time>2015-06-29T18:29:48.844Z</time>
      </trkpt>
      <trkpt lat="48.86643" lon="2.3206">
        <ele>87.8</ele>
        <time>2015-06-29T18:29:49.856Z</time>
      </trkpt>
      <trkpt lat="48.86636" lon="2.32057">
        <ele>87.6</ele>
        <time>2015-06-29T18:29:51.752Z</time>
      </trkpt>
      <trkpt lat="48.86632" lon="2.32054">
        <ele>87.5</ele>
        <time>2015-06-29T18:29:52.766Z</time>
      </trkpt>
      <trkpt lat="48.86625" lon="2.3205">
        <ele>87.1</ele>
        <time>2015-06-29T18:29:54.618Z</time>
      </trkpt>
      <trkpt lat="48.86622" lon="2.32048">
        <ele>86.9</ele>
        <time>2015-06-29T18:29:55.835Z</time>
      </trkpt>
      <trkpt lat="48.86616" lon="2.32044">
        <ele>86.1</ele>
        <time>2015-06-29T18:29:58.599Z</time>
      </trkpt>
      <trkpt lat="48.86614" lon="2.32041">
        <ele>86.2</ele>
        <time>2015-06-29T18:29:58.745Z</time>
      </trkpt>
      <trkpt lat="48.86606" lon="2.32036">
        <ele>85.9</ele>
        <time>2015-06-29T18:30:01.775Z</time>
      </trkpt>
      <trkpt lat="48.86605" lon="2.32034">
        <ele>85.7</ele>
        <time>2015-06-29T18:30:02.883Z</time>
      </trkpt>
      <trkpt lat="48.86602" lon="2.32024">
        <ele>85.3</ele>
        <time>2015-06-29T18:30:04.763Z</time>
      </trkpt>
      <trkpt lat="48.86601" lon="2.3202">
        <ele>85.4</ele>
        <time>2015-06-29T18:30:05.777Z</time>
      </trkpt>
      <trkpt lat="48.86598" lon="2.32008">
        <ele>85.3</ele>
        <time>2015-06-29T18:30:08.890Z</time>
      </trkpt>
      <trkpt lat="48.86598" lon="2.32006">
        <ele>85.3</ele>
        <time>2015-06-29T18:30:09.767Z</time>
      </trkpt>
      <trkpt lat="48.86599" lon="2.32003">
        <ele>85.3</ele>
        <time>2015-06-29T18:30:10.791Z</time>
      </trkpt>
      <trkpt lat="48.866" lon="2.32001">
        <ele>85.2</ele>
        <time>2015-06-29T18:30:11.814Z</time>
      </trkpt>
      <trkpt lat="48.86602" lon="2.31996">
        <ele>83.7</ele>
        <time>2015-06-29T18:30:42.764Z</time>
      </trkpt>
      <trkpt lat="48.86603" lon="2.31989">
        <ele>82.6</ele>
        <time>2015-06-29T18:30:43.793Z</time>
      </trkpt>
      <trkpt lat="48.86603" lon="2.31988">
        <ele>82.6</ele>
        <time>2015-06-29T18:30:45.345Z</time>
      </trkpt>
      <trkpt lat="48.86604" lon="2.31988">
        <ele>82.5</ele>
        <time>2015-06-29T18:30:45.841Z</time>
      </trkpt>
      <trkpt lat="48.86604" lon="2.31987">
        <ele>82.6</ele>
        <time>2015-06-29T18:30:47.854Z</time>
      </trkpt>
      <trkpt lat="48.86604" lon="2.31985">
        <ele>83</ele>
        <time>2015-06-29T18:30:48.862Z</time>
      </trkpt>
      <trkpt lat="48.86596" lon="2.31979">
        <ele>82.7</ele>
        <time>2015-06-29T18:30:53.822Z</time>
      </trkpt>
      <trkpt lat="48.86595" lon="2.31978">
        <ele>82.5</ele>
        <time>2015-06-29T18:30:54.855Z</time>
      </trkpt>
      <trkpt lat="48.86588" lon="2.31974">
        <ele>81.8</ele>
        <time>2015-06-29T18:30:58.839Z</time>
      </trkpt>
      <trkpt lat="48.86586" lon="2.31973">
        <ele>81.8</ele>
        <time>2015-06-29T18:30:59.761Z</time>
      </trkpt>
      <trkpt lat="48.86579" lon="2.31969">
        <ele>81.8</ele>
        <time>2015-06-29T18:31:02.888Z</time>
      </trkpt>
      <trkpt lat="48.86577" lon="2.31967">
        <ele>82</ele>
        <time>2015-06-29T18:31:03.830Z</time>
      </trkpt>
      <trkpt lat="48.86571" lon="2.31962">
        <ele>82.1</ele>
        <time>2015-06-29T18:31:06.829Z</time>
      </trkpt>
      <trkpt lat="48.86568" lon="2.31959">
        <ele>82.1</ele>
        <time>2015-06-29T18:31:07.852Z</time>
      </trkpt>
      <trkpt lat="48.86562" lon="2.31954">
        <ele>82</ele>
        <time>2015-06-29T18:31:09.780Z</time>
      </trkpt>
      <trkpt lat="48.86559" lon="2.31951">
        <ele>81.8</ele>
        <time>2015-06-29T18:31:10.789Z</time>
      </trkpt>
      <trkpt lat="48.86553" lon="2.31946">
        <ele>81.8</ele>
        <time>2015-06-29T18:31:12.813Z</time>
      </trkpt>
      <trkpt lat="48.86549" lon="2.31943">
        <ele>81.7</ele>
        <time>2015-06-29T18:31:13.826Z</time>
      </trkpt>
      <trkpt lat="48.86542" lon="2.31937">
        <ele>81.7</ele>
        <time>2015-06-29T18:31:15.909Z</time>
      </trkpt>
      <trkpt lat="48.8654" lon="2.31935">
        <ele>81.8</ele>
        <time>2015-06-29T18:31:16.788Z</time>
      </trkpt>
      <trkpt lat="48.86533" lon="2.3193">
        <ele>81.8</ele>
        <time>2015-06-29T18:31:19.698Z</time>
      </trkpt>
      <trkpt lat="48.86529" lon="2.31928">
        <ele>81.8</ele>
        <time>2015-06-29T18:31:19.802Z</time>
      </trkpt>
      <trkpt lat="48.86523" lon="2.31924">
        <ele>81.6</ele>
        <time>2015-06-29T18:31:21.779Z</time>
      </trkpt>
      <trkpt lat="48.86519" lon="2.3192">
        <ele>81</ele>
        <time>2015-06-29T18:31:22.812Z</time>
      </trkpt>
      <trkpt lat="48.86513" lon="2.31913">
        <ele>80.8</ele>
        <time>2015-06-29T18:31:24.792Z</time>
      </trkpt>
      <trkpt lat="48.86511" lon="2.3191">
        <ele>80.8</ele>
        <time>2015-06-29T18:31:25.801Z</time>
      </trkpt>
      <trkpt lat="48.86505" lon="2.31901">
        <ele>80.9</ele>
        <time>2015-06-29T18:31:27.865Z</time>
      </trkpt>
      <trkpt lat="48.86502" lon="2.31898">
        <ele>81</ele>
        <time>2015-06-29T18:31:28.786Z</time>
      </trkpt>
      <trkpt lat="48.865" lon="2.31884">
        <ele>81.3</ele>
        <time>2015-06-29T18:31:30.792Z</time>
      </trkpt>
      <trkpt lat="48.865" lon="2.31878">
        <ele>81.4</ele>
        <time>2015-06-29T18:31:31.800Z</time>
      </trkpt>
      <trkpt lat="48.86501" lon="2.31867">
        <ele>81.2</ele>
        <time>2015-06-29T18:31:33.776Z</time>
      </trkpt>
      <trkpt lat="48.86501" lon="2.31862">
        <ele>81.1</ele>
        <time>2015-06-29T18:31:34.905Z</time>
      </trkpt>
      <trkpt lat="48.86504" lon="2.31849">
        <ele>81.2</ele>
        <time>2015-06-29T18:31:37.847Z</time>
      </trkpt>
      <trkpt lat="48.86505" lon="2.31845">
        <ele>81.1</ele>
        <time>2015-06-29T18:31:38.864Z</time>
      </trkpt>
      <trkpt lat="48.86507" lon="2.31835">
        <ele>81</ele>
        <time>2015-06-29T18:31:41.806Z</time>
      </trkpt>
      <trkpt lat="48.86508" lon="2.31831">
        <ele>81.1</ele>
        <time>2015-06-29T18:31:42.806Z</time>
      </trkpt>
      <trkpt lat="48.8651" lon="2.31818">
        <ele>81.7</ele>
        <time>2015-06-29T18:31:45.845Z</time>
      </trkpt>
      <trkpt lat="48.86511" lon="2.31813">
        <ele>81.9</ele>
        <time>2015-06-29T18:31:46.779Z</time>
      </trkpt>
      <trkpt lat="48.86513" lon="2.31802">
        <ele>82.4</ele>
        <time>2015-06-29T18:31:48.818Z</time>
      </trkpt>
      <trkpt lat="48.86513" lon="2.31796">
        <ele>82.5</ele>
        <time>2015-06-29T18:31:49.848Z</time>
      </trkpt>
      <trkpt lat="48.86515" lon="2.31785">
        <ele>82.7</ele>
        <time>2015-06-29T18:31:51.782Z</time>
      </trkpt>
      <trkpt lat="48.86515" lon="2.31779">
        <ele>82.7</ele>
        <time>2015-06-29T18:31:52.789Z</time>
      </trkpt>
      <trkpt lat="48.86515" lon="2.31767">
        <ele>82.8</ele>
        <time>2015-06-29T18:31:55.184Z</time>
      </trkpt>
      <trkpt lat="48.86515" lon="2.3176">
        <ele>83</ele>
        <time>2015-06-29T18:31:55.884Z</time>
      </trkpt>
      <trkpt lat="48.86514" lon="2.31747">
        <ele>83.3</ele>
        <time>2015-06-29T18:31:57.786Z</time>
      </trkpt>
      <trkpt lat="48.86513" lon="2.31738">
        <ele>83.2</ele>
        <time>2015-06-29T18:31:58.795Z</time>
      </trkpt>
      <trkpt lat="48.86513" lon="2.3173">
        <ele>83.3</ele>
        <time>2015-06-29T18:32:00.300Z</time>
      </trkpt>
      <trkpt lat="48.86513" lon="2.31723">
        <ele>83.1</ele>
        <time>2015-06-29T18:32:00.818Z</time>
      </trkpt>
      <trkpt lat="48.86513" lon="2.31715">
        <ele>83.1</ele>
        <time>2015-06-29T18:32:01.830Z</time>
      </trkpt>
      <trkpt lat="48.86513" lon="2.31709">
        <ele>83.2</ele>
        <time>2015-06-29T18:32:02.848Z</time>
      </trkpt>
      <trkpt lat="48.86513" lon="2.31701">
        <ele>83.3</ele>
        <time>2015-06-29T18:32:03.771Z</time>
      </trkpt>
      <trkpt lat="48.86512" lon="2.31693">
        <ele>83.6</ele>
        <time>2015-06-29T18:32:04.744Z</time>
      </trkpt>
      <trkpt lat="48.86512" lon="2.3168">
        <ele>83.4</ele>
        <time>2015-06-29T18:32:06.780Z</time>
      </trkpt>
      <trkpt lat="48.86513" lon="2.31673">
        <ele>83.3</ele>
        <time>2015-06-29T18:32:07.800Z</time>
      </trkpt>
      <trkpt lat="48.86513" lon="2.31661">
        <ele>83.5</ele>
        <time>2015-06-29T18:32:09.860Z</time>
      </trkpt>
      <trkpt lat="48.86513" lon="2.31654">
        <ele>83.4</ele>
        <time>2015-06-29T18:32:10.847Z</time>
      </trkpt>
      <trkpt lat="48.86513" lon="2.31642">
        <ele>83.5</ele>
        <time>2015-06-29T18:32:12.772Z</time>
      </trkpt>
      <trkpt lat="48.86513" lon="2.31636">
        <ele>83.5</ele>
        <time>2015-06-29T18:32:13.799Z</time>
      </trkpt>
      <trkpt lat="48.86512" lon="2.31627">
        <ele>83.5</ele>
        <time>2015-06-29T18:32:15.835Z</time>
      </trkpt>
      <trkpt lat="48.86511" lon="2.31622">
        <ele>83.3</ele>
        <time>2015-06-29T18:32:16.927Z</time>
      </trkpt>
      <trkpt lat="48.86511" lon="2.31612">
        <ele>83.2</ele>
        <time>2015-06-29T18:32:18.766Z</time>
      </trkpt>
      <trkpt lat="48.86511" lon="2.31606">
        <ele>82.9</ele>
        <time>2015-06-29T18:32:19.815Z</time>
      </trkpt>
      <trkpt lat="48.86512" lon="2.31596">
        <ele>82.4</ele>
        <time>2015-06-29T18:32:21.773Z</time>
      </trkpt>
      <trkpt lat="48.86512" lon="2.31591">
        <ele>82.4</ele>
        <time>2015-06-29T18:32:22.799Z</time>
      </trkpt>
      <trkpt lat="48.86511" lon="2.31581">
        <ele>82.6</ele>
        <time>2015-06-29T18:32:24.842Z</time>
      </trkpt>
      <trkpt lat="48.8651" lon="2.31575">
        <ele>82.6</ele>
        <time>2015-06-29T18:32:25.781Z</time>
      </trkpt>
      <trkpt lat="48.86509" lon="2.31565">
        <ele>82.6</ele>
        <time>2015-06-29T18:32:27.842Z</time>
      </trkpt>
      <trkpt lat="48.86508" lon="2.31561">
        <ele>82.5</ele>
        <time>2015-06-29T18:32:28.759Z</time>
      </trkpt>
      <trkpt lat="48.86505" lon="2.31549">
        <ele>82.3</ele>
        <time>2015-06-29T18:32:30.779Z</time>
      </trkpt>
      <trkpt lat="48.86504" lon="2.31542">
        <ele>82.4</ele>
        <time>2015-06-29T18:32:31.790Z</time>
      </trkpt>
      <trkpt lat="48.86504" lon="2.31535">
        <ele>82.3</ele>
        <time>2015-06-29T18:32:32.867Z</time>
      </trkpt>
      <trkpt lat="48.86504" lon="2.31528">
        <ele>82.3</ele>
        <time>2015-06-29T18:32:33.743Z</time>
      </trkpt>
      <trkpt lat="48.86504" lon="2.3152">
        <ele>82.2</ele>
        <time>2015-06-29T18:32:34.804Z</time>
      </trkpt>
      <trkpt lat="48.86503" lon="2.31512">
        <ele>82.2</ele>
        <time>2015-06-29T18:32:35.727Z</time>
      </trkpt>
      <trkpt lat="48.86503" lon="2.31505">
        <ele>82.4</ele>
        <time>2015-06-29T18:32:36.769Z</time>
      </trkpt>
      <trkpt lat="48.86502" lon="2.31498">
        <ele>82.4</ele>
        <time>2015-06-29T18:32:37.779Z</time>
      </trkpt>
      <trkpt lat="48.86502" lon="2.31491">
        <ele>82.6</ele>
        <time>2015-06-29T18:32:38.831Z</time>
      </trkpt>
      <trkpt lat="48.86501" lon="2.31483">
        <ele>82.8</ele>
        <time>2015-06-29T18:32:39.718Z</time>
      </trkpt>
      <trkpt lat="48.86501" lon="2.31475">
        <ele>82.8</ele>
        <time>2015-06-29T18:32:40.781Z</time>
      </trkpt>
      <trkpt lat="48.86501" lon="2.31468">
        <ele>83</ele>
        <time>2015-06-29T18:32:41.787Z</time>
      </trkpt>
      <trkpt lat="48.865" lon="2.31455">
        <ele>82.6</ele>
        <time>2015-06-29T18:32:43.813Z</time>
      </trkpt>
      <trkpt lat="48.865" lon="2.31449">
        <ele>82.6</ele>
        <time>2015-06-29T18:32:44.817Z</time>
      </trkpt>
      <trkpt lat="48.865" lon="2.31436">
        <ele>82.8</ele>
        <time>2015-06-29T18:32:46.740Z</time>
      </trkpt>
      <trkpt lat="48.86501" lon="2.31431">
        <ele>82.9</ele>
        <time>2015-06-29T18:32:47.811Z</time>
      </trkpt>
      <trkpt lat="48.86502" lon="2.31421">
        <ele>82.6</ele>
        <time>2015-06-29T18:32:49.742Z</time>
      </trkpt>
      <trkpt lat="48.86502" lon="2.31416">
        <ele>82.6</ele>
        <time>2015-06-29T18:32:50.764Z</time>
      </trkpt>
      <trkpt lat="48.86502" lon="2.31404">
        <ele>82.1</ele>
        <time>2015-06-29T18:32:53.778Z</time>
      </trkpt>
      <trkpt lat="48.86502" lon="2.314">
        <ele>81.9</ele>
        <time>2015-06-29T18:32:54.792Z</time>
      </trkpt>
      <trkpt lat="48.86503" lon="2.31388">
        <ele>83.4</ele>
        <time>2015-06-29T18:32:58.749Z</time>
      </trkpt>
      <trkpt lat="48.86504" lon="2.31387">
        <ele>83.8</ele>
        <time>2015-06-29T18:32:59.793Z</time>
      </trkpt>
      <trkpt lat="48.86507" lon="2.31383">
        <ele>84.9</ele>
        <time>2015-06-29T18:33:03.771Z</time>
      </trkpt>
      <trkpt lat="48.86507" lon="2.31383">
        <ele>84.9</ele>
        <time>2015-06-29T18:33:04.735Z</time>
      </trkpt>
      <trkpt lat="48.86506" lon="2.31383">
        <ele>85</ele>
        <time>2015-06-29T18:33:12.774Z</time>
      </trkpt>
      <trkpt lat="48.86507" lon="2.31381">
        <ele>85.5</ele>
        <time>2015-06-29T18:33:13.789Z</time>
      </trkpt>
      <trkpt lat="48.86506" lon="2.31381">
        <ele>85</ele>
        <time>2015-06-29T18:33:21.740Z</time>
      </trkpt>
      <trkpt lat="48.86506" lon="2.31381">
        <ele>84.8</ele>
        <time>2015-06-29T18:33:22.781Z</time>
      </trkpt>
      <trkpt lat="48.86506" lon="2.31381">
        <ele>84.7</ele>
        <time>2015-06-29T18:33:23.805Z</time>
      </trkpt>
      <trkpt lat="48.86507" lon="2.31382">
        <ele>83.9</ele>
        <time>2015-06-29T18:33:29.792Z</time>
      </trkpt>
      <trkpt lat="48.86507" lon="2.31383">
        <ele>83.7</ele>
        <time>2015-06-29T18:33:30.863Z</time>
      </trkpt>
      <trkpt lat="48.86507" lon="2.31383">
        <ele>83.7</ele>
        <time>2015-06-29T18:33:31.756Z</time>
      </trkpt>
      <trkpt lat="48.86507" lon="2.31384">
        <ele>83.5</ele>
        <time>2015-06-29T18:33:32.824Z</time>
      </trkpt>
      <trkpt lat="48.86506" lon="2.31385">
        <ele>83.5</ele>
        <time>2015-06-29T18:33:33.829Z</time>
      </trkpt>
      <trkpt lat="48.86506" lon="2.31384">
        <ele>83.5</ele>
        <time>2015-06-29T18:33:34.737Z</time>
      </trkpt>
      <trkpt lat="48.86506" lon="2.31383">
        <ele>83.6</ele>
        <time>2015-06-29T18:33:35.740Z</time>
      </trkpt>
      <trkpt lat="48.86507" lon="2.3137">
        <ele>83.7</ele>
        <time>2015-06-29T18:33:39.768Z</time>
      </trkpt>
      <trkpt lat="48.86507" lon="2.31366">
        <ele>83.6</ele>
        <time>2015-06-29T18:33:40.772Z</time>
      </trkpt>
      <trkpt lat="48.86506" lon="2.31356">
        <ele>83.8</ele>
        <time>2015-06-29T18:33:43.746Z</time>
      </trkpt>
      <trkpt lat="48.86506" lon="2.31352">
        <ele>83.7</ele>
        <time>2015-06-29T18:33:44.783Z</time>
      </trkpt>
      <trkpt lat="48.86505" lon="2.31341">
        <ele>82.2</ele>
        <time>2015-06-29T18:33:47.810Z</time>
      </trkpt>
      <trkpt lat="48.86506" lon="2.31337">
        <ele>82</ele>
        <time>2015-06-29T18:33:48.769Z</time>
      </trkpt>
      <trkpt lat="48.86508" lon="2.31328">
        <ele>81.9</ele>
        <time>2015-06-29T18:33:50.756Z</time>
      </trkpt>
      <trkpt lat="48.86508" lon="2.31322">
        <ele>81.9</ele>
        <time>2015-06-29T18:33:51.816Z</time>
      </trkpt>
      <trkpt lat="48.86507" lon="2.31313">
        <ele>81.8</ele>
        <time>2015-06-29T18:33:53.761Z</time>
      </trkpt>
      <trkpt lat="48.86506" lon="2.31308">
        <ele>81.8</ele>
        <time>2015-06-29T18:33:54.790Z</time>
      </trkpt>
      <trkpt lat="48.86505" lon="2.31302">
        <ele>81.7</ele>
        <time>2015-06-29T18:33:55.742Z</time>
      </trkpt>
      <trkpt lat="48.86504" lon="2.31294">
        <ele>81.5</ele>
        <time>2015-06-29T18:33:56.791Z</time>
      </trkpt>
      <trkpt lat="48.86504" lon="2.31287">
        <ele>81.4</ele>
        <time>2015-06-29T18:33:57.788Z</time>
      </trkpt>
      <trkpt lat="48.86504" lon="2.3128">
        <ele>81.2</ele>
        <time>2015-06-29T18:33:58.805Z</time>
      </trkpt>
      <trkpt lat="48.86504" lon="2.31266">
        <ele>81.1</ele>
        <time>2015-06-29T18:34:00.749Z</time>
      </trkpt>
      <trkpt lat="48.86504" lon="2.31259">
        <ele>81</ele>
        <time>2015-06-29T18:34:01.748Z</time>
      </trkpt>
      <trkpt lat="48.86503" lon="2.31253">
        <ele>81</ele>
        <time>2015-06-29T18:34:02.798Z</time>
      </trkpt>
      <trkpt lat="48.86503" lon="2.31245">
        <ele>80.9</ele>
        <time>2015-06-29T18:34:03.798Z</time>
      </trkpt>
      <trkpt lat="48.86504" lon="2.31232">
        <ele>81.2</ele>
        <time>2015-06-29T18:34:05.808Z</time>
      </trkpt>
      <trkpt lat="48.86504" lon="2.31226">
        <ele>81.1</ele>
        <time>2015-06-29T18:34:06.820Z</time>
      </trkpt>
      <trkpt lat="48.86502" lon="2.31214">
        <ele>81.1</ele>
        <time>2015-06-29T18:34:08.805Z</time>
      </trkpt>
      <trkpt lat="48.86501" lon="2.31207">
        <ele>81.3</ele>
        <time>2015-06-29T18:34:09.806Z</time>
      </trkpt>
      <trkpt lat="48.865" lon="2.31195">
        <ele>81.7</ele>
        <time>2015-06-29T18:34:11.762Z</time>
      </trkpt>
      <trkpt lat="48.865" lon="2.31189">
        <ele>81.9</ele>
        <time>2015-06-29T18:34:12.767Z</time>
      </trkpt>
      <trkpt lat="48.86499" lon="2.31176">
        <ele>82.1</ele>
        <time>2015-06-29T18:34:15.794Z</time>
      </trkpt>
      <trkpt lat="48.86499" lon="2.31173">
        <ele>82</ele>
        <time>2015-06-29T18:34:16.855Z</time>
      </trkpt>
      <trkpt lat="48.86498" lon="2.31164">
        <ele>81.7</ele>
        <time>2015-06-29T18:34:20.825Z</time>
      </trkpt>
      <trkpt lat="48.86498" lon="2.31159">
        <ele>81.6</ele>
        <time>2015-06-29T18:34:21.731Z</time>
      </trkpt>
      <trkpt lat="48.86497" lon="2.31149">
        <ele>81.5</ele>
        <time>2015-06-29T18:34:23.763Z</time>
      </trkpt>
      <trkpt lat="48.86496" lon="2.31145">
        <ele>81.7</ele>
        <time>2015-06-29T18:34:24.763Z</time>
      </trkpt>
      <trkpt lat="48.86493" lon="2.31132">
        <ele>81.8</ele>
        <time>2015-06-29T18:34:28.767Z</time>
      </trkpt>
      <trkpt lat="48.86492" lon="2.3113">
        <ele>82.1</ele>
        <time>2015-06-29T18:34:29.784Z</time>
      </trkpt>
      <trkpt lat="48.86493" lon="2.31122">
        <ele>81.8</ele>
        <time>2015-06-29T18:34:32.816Z</time>
      </trkpt>
      <trkpt lat="48.86494" lon="2.31113">
        <ele>82.3</ele>
        <time>2015-06-29T18:34:33.733Z</time>
      </trkpt>
      <trkpt lat="48.86494" lon="2.31106">
        <ele>82.5</ele>
        <time>2015-06-29T18:34:34.791Z</time>
      </trkpt>
      <trkpt lat="48.86494" lon="2.31099">
        <ele>82.4</ele>
        <time>2015-06-29T18:34:35.801Z</time>
      </trkpt>
      <trkpt lat="48.86495" lon="2.31086">
        <ele>82.2</ele>
        <time>2015-06-29T18:34:37.728Z</time>
      </trkpt>
      <trkpt lat="48.86496" lon="2.31079">
        <ele>82.3</ele>
        <time>2015-06-29T18:34:38.792Z</time>
      </trkpt>
      <trkpt lat="48.86497" lon="2.31068">
        <ele>82.9</ele>
        <time>2015-06-29T18:34:40.726Z</time>
      </trkpt>
      <trkpt lat="48.86497" lon="2.31063">
        <ele>83.2</ele>
        <time>2015-06-29T18:34:41.725Z</time>
      </trkpt>
      <trkpt lat="48.86502" lon="2.31054">
        <ele>83.4</ele>
        <time>2015-06-29T18:34:45.802Z</time>
      </trkpt>
      <trkpt lat="48.86503" lon="2.31052">
        <ele>83.3</ele>
        <time>2015-06-29T18:34:46.704Z</time>
      </trkpt>
      <trkpt lat="48.86506" lon="2.31041">
        <ele>84.9</ele>
        <time>2015-06-29T18:34:51.859Z</time>
      </trkpt>
      <trkpt lat="48.86506" lon="2.31037">
        <ele>84.6</ele>
        <time>2015-06-29T18:34:52.829Z</time>
      </trkpt>
      <trkpt lat="48.86506" lon="2.31026">
        <ele>84.2</ele>
        <time>2015-06-29T18:34:55.770Z</time>
      </trkpt>
      <trkpt lat="48.86506" lon="2.31022">
        <ele>84.1</ele>
        <time>2015-06-29T18:34:56.769Z</time>
      </trkpt>
      <trkpt lat="48.86503" lon="2.3101">
        <ele>84.2</ele>
        <time>2015-06-29T18:34:59.797Z</time>
      </trkpt>
      <trkpt lat="48.86503" lon="2.31006">
        <ele>84.2</ele>
        <time>2015-06-29T18:35:00.805Z</time>
      </trkpt>
      <trkpt lat="48.86501" lon="2.30995">
        <ele>84.5</ele>
        <time>2015-06-29T18:35:03.721Z</time>
      </trkpt>
      <trkpt lat="48.865" lon="2.30991">
        <ele>84.3</ele>
        <time>2015-06-29T18:35:04.718Z</time>
      </trkpt>
      <trkpt lat="48.86496" lon="2.30982">
        <ele>82.7</ele>
        <time>2015-06-29T18:35:07.747Z</time>
      </trkpt>
      <trkpt lat="48.86495" lon="2.30978">
        <ele>83</ele>
        <time>2015-06-29T18:35:08.788Z</time>
      </trkpt>
      <trkpt lat="48.86493" lon="2.30969">
        <ele>82.9</ele>
        <time>2015-06-29T18:35:10.720Z</time>
      </trkpt>
      <trkpt lat="48.86492" lon="2.30964">
        <ele>82.9</ele>
        <time>2015-06-29T18:35:11.736Z</time>
      </trkpt>
      <trkpt lat="48.86492" lon="2.30954">
        <ele>83</ele>
        <time>2015-06-29T18:35:13.791Z</time>
      </trkpt>
      <trkpt lat="48.86492" lon="2.30948">
        <ele>82.9</ele>
        <time>2015-06-29T18:35:14.835Z</time>
      </trkpt>
      <trkpt lat="48.86491" lon="2.30937">
        <ele>83</ele>
        <time>2015-06-29T18:35:16.736Z</time>
      </trkpt>
      <trkpt lat="48.86491" lon="2.30931">
        <ele>83.2</ele>
        <time>2015-06-29T18:35:17.745Z</time>
      </trkpt>
      <trkpt lat="48.86489" lon="2.30919">
        <ele>83.2</ele>
        <time>2015-06-29T18:35:19.757Z</time>
      </trkpt>
      <trkpt lat="48.86489" lon="2.30914">
        <ele>83.2</ele>
        <time>2015-06-29T18:35:20.764Z</time>
      </trkpt>
      <trkpt lat="48.86488" lon="2.309">
        <ele>83</ele>
        <time>2015-06-29T18:35:22.787Z</time>
      </trkpt>
      <trkpt lat="48.86488" lon="2.30893">
        <ele>83</ele>
        <time>2015-06-29T18:35:23.806Z</time>
      </trkpt>
      <trkpt lat="48.86487" lon="2.30886">
        <ele>83</ele>
        <time>2015-06-29T18:35:24.874Z</time>
      </trkpt>
      <trkpt lat="48.86487" lon="2.30879">
        <ele>83.2</ele>
        <time>2015-06-29T18:35:25.722Z</time>
      </trkpt>
      <trkpt lat="48.86487" lon="2.30872">
        <ele>83.3</ele>
        <time>2015-06-29T18:35:26.792Z</time>
      </trkpt>
      <trkpt lat="48.86487" lon="2.30864">
        <ele>83.3</ele>
        <time>2015-06-29T18:35:27.936Z</time>
      </trkpt>
      <trkpt lat="48.86487" lon="2.30857">
        <ele>83.3</ele>
        <time>2015-06-29T18:35:28.752Z</time>
      </trkpt>
      <trkpt lat="48.86487" lon="2.30849">
        <ele>83.4</ele>
        <time>2015-06-29T18:35:29.756Z</time>
      </trkpt>
      <trkpt lat="48.86486" lon="2.30841">
        <ele>83.5</ele>
        <time>2015-06-29T18:35:30.768Z</time>
      </trkpt>
      <trkpt lat="48.86486" lon="2.30832">
        <ele>83.5</ele>
        <time>2015-06-29T18:35:31.778Z</time>
      </trkpt>
      <trkpt lat="48.86486" lon="2.30824">
        <ele>83.6</ele>
        <time>2015-06-29T18:35:32.788Z</time>
      </trkpt>
      <trkpt lat="48.86486" lon="2.30816">
        <ele>83.5</ele>
        <time>2015-06-29T18:35:33.793Z</time>
      </trkpt>
      <trkpt lat="48.86487" lon="2.30808">
        <ele>83.6</ele>
        <time>2015-06-29T18:35:34.802Z</time>
      </trkpt>
      <trkpt lat="48.86487" lon="2.30801">
        <ele>83.6</ele>
        <time>2015-06-29T18:35:35.742Z</time>
      </trkpt>
      <trkpt lat="48.86486" lon="2.30793">
        <ele>83.6</ele>
        <time>2015-06-29T18:35:36.733Z</time>
      </trkpt>
      <trkpt lat="48.86486" lon="2.30786">
        <ele>83.5</ele>
        <time>2015-06-29T18:35:37.736Z</time>
      </trkpt>
      <trkpt lat="48.86486" lon="2.3078">
        <ele>83.5</ele>
        <time>2015-06-29T18:35:38.793Z</time>
      </trkpt>
      <trkpt lat="48.86485" lon="2.30772">
        <ele>83.6</ele>
        <time>2015-06-29T18:35:39.801Z</time>
      </trkpt>
      <trkpt lat="48.86485" lon="2.30765">
        <ele>83.8</ele>
        <time>2015-06-29T18:35:40.826Z</time>
      </trkpt>
      <trkpt lat="48.86485" lon="2.30757">
        <ele>83.8</ele>
        <time>2015-06-29T18:35:41.736Z</time>
      </trkpt>
      <trkpt lat="48.86485" lon="2.3075">
        <ele>83.8</ele>
        <time>2015-06-29T18:35:42.736Z</time>
      </trkpt>
      <trkpt lat="48.86484" lon="2.30742">
        <ele>83.9</ele>
        <time>2015-06-29T18:35:43.739Z</time>
      </trkpt>
      <trkpt lat="48.86484" lon="2.30735">
        <ele>83.9</ele>
        <time>2015-06-29T18:35:44.777Z</time>
      </trkpt>
      <trkpt lat="48.86483" lon="2.30727">
        <ele>84</ele>
        <time>2015-06-29T18:35:45.780Z</time>
      </trkpt>
      <trkpt lat="48.86483" lon="2.30719">
        <ele>84</ele>
        <time>2015-06-29T18:35:46.790Z</time>
      </trkpt>
      <trkpt lat="48.86483" lon="2.30712">
        <ele>84.1</ele>
        <time>2015-06-29T18:35:47.802Z</time>
      </trkpt>
      <trkpt lat="48.86483" lon="2.30705">
        <ele>84.2</ele>
        <time>2015-06-29T18:35:48.697Z</time>
      </trkpt>
      <trkpt lat="48.86482" lon="2.30697">
        <ele>84.2</ele>
        <time>2015-06-29T18:35:49.708Z</time>
      </trkpt>
      <trkpt lat="48.86481" lon="2.3069">
        <ele>84.2</ele>
        <time>2015-06-29T18:35:50.776Z</time>
      </trkpt>
      <trkpt lat="48.86481" lon="2.30682">
        <ele>84.3</ele>
        <time>2015-06-29T18:35:51.764Z</time>
      </trkpt>
      <trkpt lat="48.8648" lon="2.30674">
        <ele>84.4</ele>
        <time>2015-06-29T18:35:52.778Z</time>
      </trkpt>
      <trkpt lat="48.8648" lon="2.30666">
        <ele>84.6</ele>
        <time>2015-06-29T18:35:53.922Z</time>
      </trkpt>
      <trkpt lat="48.8648" lon="2.30658">
        <ele>84.8</ele>
        <time>2015-06-29T18:35:54.803Z</time>
      </trkpt>
      <trkpt lat="48.8648" lon="2.3065">
        <ele>84.9</ele>
        <time>2015-06-29T18:35:55.819Z</time>
      </trkpt>
      <trkpt lat="48.8648" lon="2.30643">
        <ele>85.1</ele>
        <time>2015-06-29T18:35:56.841Z</time>
      </trkpt>
      <trkpt lat="48.8648" lon="2.30635">
        <ele>85.3</ele>
        <time>2015-06-29T18:35:57.730Z</time>
      </trkpt>
      <trkpt lat="48.86479" lon="2.30627">
        <ele>85.4</ele>
        <time>2015-06-29T18:35:58.730Z</time>
      </trkpt>
      <trkpt lat="48.86479" lon="2.30619">
        <ele>85.6</ele>
        <time>2015-06-29T18:35:59.740Z</time>
      </trkpt>
      <trkpt lat="48.86479" lon="2.3061">
        <ele>85.8</ele>
        <time>2015-06-29T18:36:00.754Z</time>
      </trkpt>
      <trkpt lat="48.86478" lon="2.30602">
        <ele>85.8</ele>
        <time>2015-06-29T18:36:01.757Z</time>
      </trkpt>
      <trkpt lat="48.86479" lon="2.30594">
        <ele>85.8</ele>
        <time>2015-06-29T18:36:02.816Z</time>
      </trkpt>
      <trkpt lat="48.86478" lon="2.30586">
        <ele>86</ele>
        <time>2015-06-29T18:36:03.808Z</time>
      </trkpt>
      <trkpt lat="48.86479" lon="2.30577">
        <ele>86.2</ele>
        <time>2015-06-29T18:36:04.769Z</time>
      </trkpt>
      <trkpt lat="48.86479" lon="2.30569">
        <ele>86.3</ele>
        <time>2015-06-29T18:36:05.930Z</time>
      </trkpt>
      <trkpt lat="48.86479" lon="2.30561">
        <ele>86.3</ele>
        <time>2015-06-29T18:36:06.784Z</time>
      </trkpt>
      <trkpt lat="48.86479" lon="2.30553">
        <ele>86.3</ele>
        <time>2015-06-29T18:36:07.778Z</time>
      </trkpt>
      <trkpt lat="48.86479" lon="2.30545">
        <ele>86.6</ele>
        <time>2015-06-29T18:36:08.787Z</time>
      </trkpt>
      <trkpt lat="48.86479" lon="2.30537">
        <ele>86.7</ele>
        <time>2015-06-29T18:36:09.798Z</time>
      </trkpt>
      <trkpt lat="48.86479" lon="2.30529">
        <ele>86.9</ele>
        <time>2015-06-29T18:36:10.823Z</time>
      </trkpt>
      <trkpt lat="48.86479" lon="2.30521">
        <ele>86.8</ele>
        <time>2015-06-29T18:36:11.729Z</time>
      </trkpt>
      <trkpt lat="48.86478" lon="2.30512">
        <ele>86.6</ele>
        <time>2015-06-29T18:36:12.737Z</time>
      </trkpt>
      <trkpt lat="48.86478" lon="2.30504">
        <ele>86.4</ele>
        <time>2015-06-29T18:36:13.745Z</time>
      </trkpt>
      <trkpt lat="48.86478" lon="2.30495">
        <ele>86</ele>
        <time>2015-06-29T18:36:14.795Z</time>
      </trkpt>
      <trkpt lat="48.86478" lon="2.30487">
        <ele>85.8</ele>
        <time>2015-06-29T18:36:15.787Z</time>
      </trkpt>
      <trkpt lat="48.86478" lon="2.30478">
        <ele>85.3</ele>
        <time>2015-06-29T18:36:16.801Z</time>
      </trkpt>
      <trkpt lat="48.86478" lon="2.3047">
        <ele>85.3</ele>
        <time>2015-06-29T18:36:17.805Z</time>
      </trkpt>
      <trkpt lat="48.86477" lon="2.30461">
        <ele>85.2</ele>
        <time>2015-06-29T18:36:18.814Z</time>
      </trkpt>
      <trkpt lat="48.86477" lon="2.30453">
        <ele>85.3</ele>
        <time>2015-06-29T18:36:19.733Z</time>
      </trkpt>
      <trkpt lat="48.86477" lon="2.30444">
        <ele>85.3</ele>
        <time>2015-06-29T18:36:20.833Z</time>
      </trkpt>
      <trkpt lat="48.86476" lon="2.30435">
        <ele>85.2</ele>
        <time>2015-06-29T18:36:21.735Z</time>
      </trkpt>
      <trkpt lat="48.86476" lon="2.30427">
        <ele>84.9</ele>
        <time>2015-06-29T18:36:22.737Z</time>
      </trkpt>
      <trkpt lat="48.86475" lon="2.30419">
        <ele>84.8</ele>
        <time>2015-06-29T18:36:23.747Z</time>
      </trkpt>
      <trkpt lat="48.86475" lon="2.30411">
        <ele>84.8</ele>
        <time>2015-06-29T18:36:24.756Z</time>
      </trkpt>
      <trkpt lat="48.86475" lon="2.30402">
        <ele>85</ele>
        <time>2015-06-29T18:36:25.770Z</time>
      </trkpt>
      <trkpt lat="48.86475" lon="2.30393">
        <ele>85.2</ele>
        <time>2015-06-29T18:36:26.784Z</time>
      </trkpt>
      <trkpt lat="48.86475" lon="2.30384">
        <ele>85.2</ele>
        <time>2015-06-29T18:36:27.801Z</time>
      </trkpt>
      <trkpt lat="48.86474" lon="2.30374">
        <ele>85.3</ele>
        <time>2015-06-29T18:36:28.806Z</time>
      </trkpt>
      <trkpt lat="48.86475" lon="2.30366">
        <ele>85.4</ele>
        <time>2015-06-29T18:36:29.764Z</time>
      </trkpt>
      <trkpt lat="48.86475" lon="2.30357">
        <ele>85.3</ele>
        <time>2015-06-29T18:36:30.741Z</time>
      </trkpt>
      <trkpt lat="48.86475" lon="2.30349">
        <ele>85.1</ele>
        <time>2015-06-29T18:36:31.747Z</time>
      </trkpt>
      <trkpt lat="48.86475" lon="2.30341">
        <ele>84.9</ele>
        <time>2015-06-29T18:36:32.849Z</time>
      </trkpt>
      <trkpt lat="48.86475" lon="2.30333">
        <ele>84.9</ele>
        <time>2015-06-29T18:36:33.712Z</time>
      </trkpt>
      <trkpt lat="48.86475" lon="2.30326">
        <ele>84.9</ele>
        <time>2015-06-29T18:36:34.742Z</time>
      </trkpt>
      <trkpt lat="48.86476" lon="2.30318">
        <ele>84.8</ele>
        <time>2015-06-29T18:36:35.751Z</time>
      </trkpt>
      <trkpt lat="48.86476" lon="2.3031">
        <ele>84.9</ele>
        <time>2015-06-29T18:36:36.793Z</time>
      </trkpt>
      <trkpt lat="48.86477" lon="2.30304">
        <ele>85</ele>
        <time>2015-06-29T18:36:37.798Z</time>
      </trkpt>
      <trkpt lat="48.86476" lon="2.30296">
        <ele>85.2</ele>
        <time>2015-06-29T18:36:38.810Z</time>
      </trkpt>
      <trkpt lat="48.86476" lon="2.30289">
        <ele>85.2</ele>
        <time>2015-06-29T18:36:39.820Z</time>
      </trkpt>
      <trkpt lat="48.86476" lon="2.30282">
        <ele>85.3</ele>
        <time>2015-06-29T18:36:40.740Z</time>
      </trkpt>
      <trkpt lat="48.86476" lon="2.30275">
        <ele>85.3</ele>
        <time>2015-06-29T18:36:41.746Z</time>
      </trkpt>
      <trkpt lat="48.86476" lon="2.30262">
        <ele>85.4</ele>
        <time>2015-06-29T18:36:43.790Z</time>
      </trkpt>
      <trkpt lat="48.86476" lon="2.30257">
        <ele>85.4</ele>
        <time>2015-06-29T18:36:44.920Z</time>
      </trkpt>
      <trkpt lat="48.86476" lon="2.30245">
        <ele>85.3</ele>
        <time>2015-06-29T18:36:46.768Z</time>
      </trkpt>
      <trkpt lat="48.86476" lon="2.3024">
        <ele>85.3</ele>
        <time>2015-06-29T18:36:47.797Z</time>
      </trkpt>
      <trkpt lat="48.86474" lon="2.30231">
        <ele>85.3</ele>
        <time>2015-06-29T18:36:49.821Z</time>
      </trkpt>
      <trkpt lat="48.86472" lon="2.30226">
        <ele>85.3</ele>
        <time>2015-06-29T18:36:50.839Z</time>
      </trkpt>
      <trkpt lat="48.86469" lon="2.30214">
        <ele>84.4</ele>
        <time>2015-06-29T18:36:53.763Z</time>
      </trkpt>
      <trkpt lat="48.86468" lon="2.3021">
        <ele>84.1</ele>
        <time>2015-06-29T18:36:54.791Z</time>
      </trkpt>
      <trkpt lat="48.86465" lon="2.30197">
        <ele>83.8</ele>
        <time>2015-06-29T18:36:57.811Z</time>
      </trkpt>
      <trkpt lat="48.86465" lon="2.30193">
        <ele>84</ele>
        <time>2015-06-29T18:36:58.867Z</time>
      </trkpt>
      <trkpt lat="48.86464" lon="2.30184">
        <ele>83.6</ele>
        <time>2015-06-29T18:37:02.824Z</time>
      </trkpt>
      <trkpt lat="48.86465" lon="2.30186">
        <ele>82</ele>
        <time>2015-06-29T18:37:03.760Z</time>
      </trkpt>
      <trkpt lat="48.86466" lon="2.30187">
        <ele>80.9</ele>
        <time>2015-06-29T18:37:12.016Z</time>
      </trkpt>
      <trkpt lat="48.86467" lon="2.30185">
        <ele>79.1</ele>
        <time>2015-06-29T18:37:12.761Z</time>
      </trkpt>
      <trkpt lat="48.86465" lon="2.30174">
        <ele>78.8</ele>
        <time>2015-06-29T18:37:17.819Z</time>
      </trkpt>
      <trkpt lat="48.86464" lon="2.30171">
        <ele>78.9</ele>
        <time>2015-06-29T18:37:18.831Z</time>
      </trkpt>
      <trkpt lat="48.86467" lon="2.30158">
        <ele>79.8</ele>
        <time>2015-06-29T18:37:23.758Z</time>
      </trkpt>
      <trkpt lat="48.86467" lon="2.30157">
        <ele>79.7</ele>
        <time>2015-06-29T18:37:24.823Z</time>
      </trkpt>
      <trkpt lat="48.8647" lon="2.30146">
        <ele>79.9</ele>
        <time>2015-06-29T18:37:31.797Z</time>
      </trkpt>
      <trkpt lat="48.8647" lon="2.30144">
        <ele>79.8</ele>
        <time>2015-06-29T18:37:32.801Z</time>
      </trkpt>
      <trkpt lat="48.86466" lon="2.30133">
        <ele>79.2</ele>
        <time>2015-06-29T18:37:35.740Z</time>
      </trkpt>
      <trkpt lat="48.86463" lon="2.3013">
        <ele>78.9</ele>
        <time>2015-06-29T18:37:36.734Z</time>
      </trkpt>
      <trkpt lat="48.86457" lon="2.30121">
        <ele>78.3</ele>
        <time>2015-06-29T18:37:39.736Z</time>
      </trkpt>
      <trkpt lat="48.86455" lon="2.30118">
        <ele>78.3</ele>
        <time>2015-06-29T18:37:40.738Z</time>
      </trkpt>
      <trkpt lat="48.86448" lon="2.30113">
        <ele>78.1</ele>
        <time>2015-06-29T18:37:43.776Z</time>
      </trkpt>
      <trkpt lat="48.86445" lon="2.30112">
        <ele>78.1</ele>
        <time>2015-06-29T18:37:44.791Z</time>
      </trkpt>
      <trkpt lat="48.86439" lon="2.3011">
        <ele>78.2</ele>
        <time>2015-06-29T18:37:46.817Z</time>
      </trkpt>
      <trkpt lat="48.86436" lon="2.30107">
        <ele>78.1</ele>
        <time>2015-06-29T18:37:47.759Z</time>
      </trkpt>
      <trkpt lat="48.86429" lon="2.30103">
        <ele>78.1</ele>
        <time>2015-06-29T18:37:49.742Z</time>
      </trkpt>
      <trkpt lat="48.86426" lon="2.30099">
        <ele>78.2</ele>
        <time>2015-06-29T18:37:50.769Z</time>
      </trkpt>
      <trkpt lat="48.86425" lon="2.30092">
        <ele>78.2</ele>
        <time>2015-06-29T18:37:51.784Z</time>
      </trkpt>
      <trkpt lat="48.86426" lon="2.30082">
        <ele>78.1</ele>
        <time>2015-06-29T18:37:52.795Z</time>
      </trkpt>
      <trkpt lat="48.86424" lon="2.30074">
        <ele>77.9</ele>
        <time>2015-06-29T18:37:53.725Z</time>
      </trkpt>
      <trkpt lat="48.86424" lon="2.30065">
        <ele>77.9</ele>
        <time>2015-06-29T18:37:54.722Z</time>
      </trkpt>
      <trkpt lat="48.86423" lon="2.30058">
        <ele>77.9</ele>
        <time>2015-06-29T18:37:55.727Z</time>
      </trkpt>
      <trkpt lat="48.86422" lon="2.30049">
        <ele>77.9</ele>
        <time>2015-06-29T18:37:56.771Z</time>
      </trkpt>
      <trkpt lat="48.86422" lon="2.30041">
        <ele>77.9</ele>
        <time>2015-06-29T18:37:57.764Z</time>
      </trkpt>
      <trkpt lat="48.86421" lon="2.30032">
        <ele>77.9</ele>
        <time>2015-06-29T18:37:58.779Z</time>
      </trkpt>
      <trkpt lat="48.8642" lon="2.30025">
        <ele>78</ele>
        <time>2015-06-29T18:37:59.773Z</time>
      </trkpt>
      <trkpt lat="48.86419" lon="2.30017">
        <ele>78.1</ele>
        <time>2015-06-29T18:38:00.796Z</time>
      </trkpt>
      <trkpt lat="48.86418" lon="2.30009">
        <ele>78.2</ele>
        <time>2015-06-29T18:38:01.719Z</time>
      </trkpt>
      <trkpt lat="48.86416" lon="2.3">
        <ele>78.1</ele>
        <time>2015-06-29T18:38:02.806Z</time>
      </trkpt>
      <trkpt lat="48.86415" lon="2.29992">
        <ele>78.2</ele>
        <time>2015-06-29T18:38:03.736Z</time>
      </trkpt>
      <trkpt lat="48.86413" lon="2.29984">
        <ele>78.3</ele>
        <time>2015-06-29T18:38:04.729Z</time>
      </trkpt>
      <trkpt lat="48.86412" lon="2.29976">
        <ele>78.3</ele>
        <time>2015-06-29T18:38:05.737Z</time>
      </trkpt>
      <trkpt lat="48.8641" lon="2.29968">
        <ele>78.4</ele>
        <time>2015-06-29T18:38:06.749Z</time>
      </trkpt>
      <trkpt lat="48.86409" lon="2.29959">
        <ele>78.6</ele>
        <time>2015-06-29T18:38:07.765Z</time>
      </trkpt>
      <trkpt lat="48.86407" lon="2.29951">
        <ele>78.6</ele>
        <time>2015-06-29T18:38:08.776Z</time>
      </trkpt>
      <trkpt lat="48.86406" lon="2.29944">
        <ele>78.8</ele>
        <time>2015-06-29T18:38:09.783Z</time>
      </trkpt>
      <trkpt lat="48.86404" lon="2.29936">
        <ele>78.9</ele>
        <time>2015-06-29T18:38:10.796Z</time>
      </trkpt>
      <trkpt lat="48.86402" lon="2.29929">
        <ele>78.9</ele>
        <time>2015-06-29T18:38:11.805Z</time>
      </trkpt>
      <trkpt lat="48.86401" lon="2.29921">
        <ele>79</ele>
        <time>2015-06-29T18:38:12.812Z</time>
      </trkpt>
      <trkpt lat="48.86399" lon="2.29913">
        <ele>79.1</ele>
        <time>2015-06-29T18:38:13.756Z</time>
      </trkpt>
      <trkpt lat="48.86396" lon="2.29905">
        <ele>79.5</ele>
        <time>2015-06-29T18:38:14.802Z</time>
      </trkpt>
      <trkpt lat="48.86395" lon="2.29897">
        <ele>79.7</ele>
        <time>2015-06-29T18:38:15.740Z</time>
      </trkpt>
      <trkpt lat="48.86393" lon="2.29889">
        <ele>79.8</ele>
        <time>2015-06-29T18:38:16.742Z</time>
      </trkpt>
      <trkpt lat="48.86391" lon="2.29881">
        <ele>79.8</ele>
        <time>2015-06-29T18:38:17.750Z</time>
      </trkpt>
      <trkpt lat="48.86389" lon="2.29874">
        <ele>79.6</ele>
        <time>2015-06-29T18:38:18.758Z</time>
      </trkpt>
      <trkpt lat="48.86387" lon="2.29868">
        <ele>79.7</ele>
        <time>2015-06-29T18:38:19.765Z</time>
      </trkpt>
      <trkpt lat="48.86385" lon="2.29861">
        <ele>79.8</ele>
        <time>2015-06-29T18:38:20.781Z</time>
      </trkpt>
      <trkpt lat="48.86382" lon="2.29854">
        <ele>79.8</ele>
        <time>2015-06-29T18:38:21.788Z</time>
      </trkpt>
      <trkpt lat="48.86381" lon="2.29847">
        <ele>79.5</ele>
        <time>2015-06-29T18:38:22.793Z</time>
      </trkpt>
      <trkpt lat="48.86379" lon="2.2984">
        <ele>79.4</ele>
        <time>2015-06-29T18:38:23.810Z</time>
      </trkpt>
      <trkpt lat="48.86378" lon="2.29834">
        <ele>79.4</ele>
        <time>2015-06-29T18:38:24.816Z</time>
      </trkpt>
      <trkpt lat="48.86376" lon="2.29827">
        <ele>79.3</ele>
        <time>2015-06-29T18:38:25.742Z</time>
      </trkpt>
      <trkpt lat="48.86374" lon="2.29819">
        <ele>79.3</ele>
        <time>2015-06-29T18:38:26.752Z</time>
      </trkpt>
      <trkpt lat="48.86372" lon="2.29811">
        <ele>79.2</ele>
        <time>2015-06-29T18:38:27.767Z</time>
      </trkpt>
      <trkpt lat="48.86371" lon="2.29803">
        <ele>79.2</ele>
        <time>2015-06-29T18:38:28.767Z</time>
      </trkpt>
      <trkpt lat="48.86369" lon="2.29797">
        <ele>79.2</ele>
        <time>2015-06-29T18:38:29.782Z</time>
      </trkpt>
      <trkpt lat="48.86367" lon="2.2979">
        <ele>79.3</ele>
        <time>2015-06-29T18:38:30.787Z</time>
      </trkpt>
      <trkpt lat="48.86365" lon="2.29784">
        <ele>79.2</ele>
        <time>2015-06-29T18:38:31.789Z</time>
      </trkpt>
      <trkpt lat="48.86363" lon="2.29777">
        <ele>79.3</ele>
        <time>2015-06-29T18:38:32.803Z</time>
      </trkpt>
      <trkpt lat="48.8636" lon="2.29765">
        <ele>79.3</ele>
        <time>2015-06-29T18:38:34.824Z</time>
      </trkpt>
      <trkpt lat="48.86358" lon="2.29759">
        <ele>79.3</ele>
        <time>2015-06-29T18:38:35.733Z</time>
      </trkpt>
      <trkpt lat="48.86357" lon="2.29752">
        <ele>79.2</ele>
        <time>2015-06-29T18:38:36.731Z</time>
      </trkpt>
      <trkpt lat="48.86355" lon="2.29745">
        <ele>79.2</ele>
        <time>2015-06-29T18:38:37.770Z</time>
      </trkpt>
      <trkpt lat="48.86353" lon="2.29737">
        <ele>79.1</ele>
        <time>2015-06-29T18:38:38.810Z</time>
      </trkpt>
      <trkpt lat="48.86351" lon="2.29729">
        <ele>79.1</ele>
        <time>2015-06-29T18:38:39.816Z</time>
      </trkpt>
      <trkpt lat="48.86349" lon="2.29722">
        <ele>79.1</ele>
        <time>2015-06-29T18:38:40.731Z</time>
      </trkpt>
      <trkpt lat="48.86347" lon="2.29714">
        <ele>79</ele>
        <time>2015-06-29T18:38:41.735Z</time>
      </trkpt>
      <trkpt lat="48.86345" lon="2.29707">
        <ele>79.1</ele>
        <time>2015-06-29T18:38:42.743Z</time>
      </trkpt>
      <trkpt lat="48.86343" lon="2.29699">
        <ele>79.1</ele>
        <time>2015-06-29T18:38:43.746Z</time>
      </trkpt>
      <trkpt lat="48.86341" lon="2.29691">
        <ele>79.3</ele>
        <time>2015-06-29T18:38:44.777Z</time>
      </trkpt>
      <trkpt lat="48.86338" lon="2.29683">
        <ele>79.4</ele>
        <time>2015-06-29T18:38:45.784Z</time>
      </trkpt>
      <trkpt lat="48.86336" lon="2.29675">
        <ele>79.4</ele>
        <time>2015-06-29T18:38:46.795Z</time>
      </trkpt>
      <trkpt lat="48.86334" lon="2.29669">
        <ele>79.4</ele>
        <time>2015-06-29T18:38:47.806Z</time>
      </trkpt>
      <trkpt lat="48.86332" lon="2.29662">
        <ele>79.5</ele>
        <time>2015-06-29T18:38:48.713Z</time>
      </trkpt>
      <trkpt lat="48.8633" lon="2.29656">
        <ele>79.5</ele>
        <time>2015-06-29T18:38:49.735Z</time>
      </trkpt>
      <trkpt lat="48.86327" lon="2.29649">
        <ele>79.3</ele>
        <time>2015-06-29T18:38:50.762Z</time>
      </trkpt>
      <trkpt lat="48.86323" lon="2.29642">
        <ele>79.4</ele>
        <time>2015-06-29T18:38:51.772Z</time>
      </trkpt>
      <trkpt lat="48.86321" lon="2.29635">
        <ele>79.5</ele>
        <time>2015-06-29T18:38:52.785Z</time>
      </trkpt>
      <trkpt lat="48.86319" lon="2.29627">
        <ele>79.5</ele>
        <time>2015-06-29T18:38:53.786Z</time>
      </trkpt>
      <trkpt lat="48.86316" lon="2.29619">
        <ele>79.5</ele>
        <time>2015-06-29T18:38:54.790Z</time>
      </trkpt>
      <trkpt lat="48.86314" lon="2.29611">
        <ele>79.7</ele>
        <time>2015-06-29T18:38:55.802Z</time>
      </trkpt>
      <trkpt lat="48.8631" lon="2.29604">
        <ele>79.7</ele>
        <time>2015-06-29T18:38:56.814Z</time>
      </trkpt>
      <trkpt lat="48.86308" lon="2.29597">
        <ele>79.8</ele>
        <time>2015-06-29T18:38:57.730Z</time>
      </trkpt>
      <trkpt lat="48.86305" lon="2.2959">
        <ele>79.8</ele>
        <time>2015-06-29T18:38:58.740Z</time>
      </trkpt>
      <trkpt lat="48.86302" lon="2.29583">
        <ele>79.7</ele>
        <time>2015-06-29T18:38:59.748Z</time>
      </trkpt>
      <trkpt lat="48.863" lon="2.29576">
        <ele>79.6</ele>
        <time>2015-06-29T18:39:00.768Z</time>
      </trkpt>
      <trkpt lat="48.86298" lon="2.29568">
        <ele>79.6</ele>
        <time>2015-06-29T18:39:01.781Z</time>
      </trkpt>
      <trkpt lat="48.86296" lon="2.29561">
        <ele>79.6</ele>
        <time>2015-06-29T18:39:02.816Z</time>
      </trkpt>
      <trkpt lat="48.86294" lon="2.29555">
        <ele>79.6</ele>
        <time>2015-06-29T18:39:03.733Z</time>
      </trkpt>
      <trkpt lat="48.86292" lon="2.29548">
        <ele>79.5</ele>
        <time>2015-06-29T18:39:04.748Z</time>
      </trkpt>
      <trkpt lat="48.8629" lon="2.29542">
        <ele>79.5</ele>
        <time>2015-06-29T18:39:05.751Z</time>
      </trkpt>
      <trkpt lat="48.86287" lon="2.29535">
        <ele>79.6</ele>
        <time>2015-06-29T18:39:06.760Z</time>
      </trkpt>
      <trkpt lat="48.86284" lon="2.29528">
        <ele>79.6</ele>
        <time>2015-06-29T18:39:07.776Z</time>
      </trkpt>
      <trkpt lat="48.86283" lon="2.29521">
        <ele>79.7</ele>
        <time>2015-06-29T18:39:08.796Z</time>
      </trkpt>
      <trkpt lat="48.86281" lon="2.29515">
        <ele>79.8</ele>
        <time>2015-06-29T18:39:09.809Z</time>
      </trkpt>
      <trkpt lat="48.86279" lon="2.29508">
        <ele>79.6</ele>
        <time>2015-06-29T18:39:10.711Z</time>
      </trkpt>
      <trkpt lat="48.86277" lon="2.29501">
        <ele>79.6</ele>
        <time>2015-06-29T18:39:11.727Z</time>
      </trkpt>
      <trkpt lat="48.86276" lon="2.29494">
        <ele>79.6</ele>
        <time>2015-06-29T18:39:12.724Z</time>
      </trkpt>
      <trkpt lat="48.86274" lon="2.29488">
        <ele>79.7</ele>
        <time>2015-06-29T18:39:13.740Z</time>
      </trkpt>
      <trkpt lat="48.86271" lon="2.29481">
        <ele>79.8</ele>
        <time>2015-06-29T18:39:14.784Z</time>
      </trkpt>
      <trkpt lat="48.86269" lon="2.29475">
        <ele>79.9</ele>
        <time>2015-06-29T18:39:15.777Z</time>
      </trkpt>
      <trkpt lat="48.86266" lon="2.29469">
        <ele>79.9</ele>
        <time>2015-06-29T18:39:16.787Z</time>
      </trkpt>
      <trkpt lat="48.86264" lon="2.29463">
        <ele>79.9</ele>
        <time>2015-06-29T18:39:17.800Z</time>
      </trkpt>
      <trkpt lat="48.86262" lon="2.29456">
        <ele>79.8</ele>
        <time>2015-06-29T18:39:18.825Z</time>
      </trkpt>
      <trkpt lat="48.86261" lon="2.29445">
        <ele>79.7</ele>
        <time>2015-06-29T18:39:19.698Z</time>
      </trkpt>
      <trkpt lat="48.86259" lon="2.29438">
        <ele>79.7</ele>
        <time>2015-06-29T18:39:20.738Z</time>
      </trkpt>
      <trkpt lat="48.86257" lon="2.29431">
        <ele>79.7</ele>
        <time>2015-06-29T18:39:21.750Z</time>
      </trkpt>
      <trkpt lat="48.86252" lon="2.2942">
        <ele>79.7</ele>
        <time>2015-06-29T18:39:24.651Z</time>
      </trkpt>
      <trkpt lat="48.8625" lon="2.29413">
        <ele>79.7</ele>
        <time>2015-06-29T18:39:24.807Z</time>
      </trkpt>
      <trkpt lat="48.86247" lon="2.29407">
        <ele>79.9</ele>
        <time>2015-06-29T18:39:25.792Z</time>
      </trkpt>
      <trkpt lat="48.86244" lon="2.29401">
        <ele>79.9</ele>
        <time>2015-06-29T18:39:26.824Z</time>
      </trkpt>
      <trkpt lat="48.86241" lon="2.29395">
        <ele>80</ele>
        <time>2015-06-29T18:39:27.713Z</time>
      </trkpt>
      <trkpt lat="48.86238" lon="2.29389">
        <ele>80.1</ele>
        <time>2015-06-29T18:39:28.732Z</time>
      </trkpt>
      <trkpt lat="48.86233" lon="2.29378">
        <ele>80.3</ele>
        <time>2015-06-29T18:39:30.756Z</time>
      </trkpt>
      <trkpt lat="48.8623" lon="2.29372">
        <ele>80.3</ele>
        <time>2015-06-29T18:39:31.772Z</time>
      </trkpt>
      <trkpt lat="48.86227" lon="2.29366">
        <ele>80.5</ele>
        <time>2015-06-29T18:39:32.819Z</time>
      </trkpt>
      <trkpt lat="48.86223" lon="2.29361">
        <ele>80.6</ele>
        <time>2015-06-29T18:39:33.733Z</time>
      </trkpt>
      <trkpt lat="48.8622" lon="2.29356">
        <ele>80.2</ele>
        <time>2015-06-29T18:39:34.775Z</time>
      </trkpt>
      <trkpt lat="48.86216" lon="2.29351">
        <ele>80.1</ele>
        <time>2015-06-29T18:39:35.787Z</time>
      </trkpt>
      <trkpt lat="48.86215" lon="2.29344">
        <ele>80.2</ele>
        <time>2015-06-29T18:39:36.806Z</time>
      </trkpt>
      <trkpt lat="48.86214" lon="2.29336">
        <ele>80.3</ele>
        <time>2015-06-29T18:39:37.815Z</time>
      </trkpt>
      <trkpt lat="48.86212" lon="2.29328">
        <ele>80.3</ele>
        <time>2015-06-29T18:39:38.812Z</time>
      </trkpt>
      <trkpt lat="48.86211" lon="2.29321">
        <ele>80.2</ele>
        <time>2015-06-29T18:39:39.808Z</time>
      </trkpt>
      <trkpt lat="48.86207" lon="2.29312">
        <ele>79.9</ele>
        <time>2015-06-29T18:39:41.834Z</time>
      </trkpt>
      <trkpt lat="48.86204" lon="2.29309">
        <ele>79.9</ele>
        <time>2015-06-29T18:39:42.768Z</time>
      </trkpt>
      <trkpt lat="48.86196" lon="2.29304">
        <ele>80.3</ele>
        <time>2015-06-29T18:39:44.810Z</time>
      </trkpt>
      <trkpt lat="48.86194" lon="2.29302">
        <ele>80.2</ele>
        <time>2015-06-29T18:39:45.837Z</time>
      </trkpt>
      <trkpt lat="48.86189" lon="2.29295">
        <ele>80.3</ele>
        <time>2015-06-29T18:39:47.760Z</time>
      </trkpt>
      <trkpt lat="48.86186" lon="2.29291">
        <ele>80.2</ele>
        <time>2015-06-29T18:39:48.771Z</time>
      </trkpt>
      <trkpt lat="48.8618" lon="2.29282">
        <ele>80.1</ele>
        <time>2015-06-29T18:39:50.815Z</time>
      </trkpt>
      <trkpt lat="48.86177" lon="2.29278">
        <ele>79.6</ele>
        <time>2015-06-29T18:39:51.832Z</time>
      </trkpt>
      <trkpt lat="48.86171" lon="2.2927">
        <ele>79.2</ele>
        <time>2015-06-29T18:39:53.769Z</time>
      </trkpt>
      <trkpt lat="48.86168" lon="2.29266">
        <ele>79</ele>
        <time>2015-06-29T18:39:54.790Z</time>
      </trkpt>
      <trkpt lat="48.86162" lon="2.29258">
        <ele>78.7</ele>
        <time>2015-06-29T18:39:56.837Z</time>
      </trkpt>
      <trkpt lat="48.86158" lon="2.29254">
        <ele>78.7</ele>
        <time>2015-06-29T18:39:57.772Z</time>
      </trkpt>
      <trkpt lat="48.86152" lon="2.29245">
        <ele>78.3</ele>
        <time>2015-06-29T18:39:59.822Z</time>
      </trkpt>
      <trkpt lat="48.86148" lon="2.29241">
        <ele>78.3</ele>
        <time>2015-06-29T18:40:00.752Z</time>
      </trkpt>
      <trkpt lat="48.86141" lon="2.29232">
        <ele>78.2</ele>
        <time>2015-06-29T18:40:02.857Z</time>
      </trkpt>
      <trkpt lat="48.86138" lon="2.29228">
        <ele>77.9</ele>
        <time>2015-06-29T18:40:03.738Z</time>
      </trkpt>
      <trkpt lat="48.86131" lon="2.29222">
        <ele>77.9</ele>
        <time>2015-06-29T18:40:05.776Z</time>
      </trkpt>
      <trkpt lat="48.86128" lon="2.2922">
        <ele>78</ele>
        <time>2015-06-29T18:40:06.827Z</time>
      </trkpt>
      <trkpt lat="48.86122" lon="2.29212">
        <ele>78.1</ele>
        <time>2015-06-29T18:40:08.864Z</time>
      </trkpt>
      <trkpt lat="48.86119" lon="2.29207">
        <ele>78.1</ele>
        <time>2015-06-29T18:40:09.766Z</time>
      </trkpt>
      <trkpt lat="48.86114" lon="2.292">
        <ele>78.2</ele>
        <time>2015-06-29T18:40:11.831Z</time>
      </trkpt>
      <trkpt lat="48.86112" lon="2.29196">
        <ele>78.1</ele>
        <time>2015-06-29T18:40:12.771Z</time>
      </trkpt>
      <trkpt lat="48.86107" lon="2.29189">
        <ele>78.2</ele>
        <time>2015-06-29T18:40:14.843Z</time>
      </trkpt>
      <trkpt lat="48.86105" lon="2.29186">
        <ele>78.4</ele>
        <time>2015-06-29T18:40:15.789Z</time>
      </trkpt>
      <trkpt lat="48.86103" lon="2.29173">
        <ele>78.1</ele>
        <time>2015-06-29T18:40:18.729Z</time>
      </trkpt>
      <trkpt lat="48.86102" lon="2.29169">
        <ele>78.6</ele>
        <time>2015-06-29T18:40:19.756Z</time>
      </trkpt>
      <trkpt lat="48.86095" lon="2.29167">
        <ele>81.5</ele>
        <time>2015-06-29T18:40:28.734Z</time>
      </trkpt>
      <trkpt lat="48.86093" lon="2.29167">
        <ele>82</ele>
        <time>2015-06-29T18:40:29.779Z</time>
      </trkpt>
      <trkpt lat="48.86086" lon="2.29168">
        <ele>83.3</ele>
        <time>2015-06-29T18:40:32.889Z</time>
      </trkpt>
      <trkpt lat="48.86083" lon="2.29169">
        <ele>83.4</ele>
        <time>2015-06-29T18:40:33.814Z</time>
      </trkpt>
      <trkpt lat="48.86077" lon="2.29174">
        <ele>83.4</ele>
        <time>2015-06-29T18:40:37.601Z</time>
      </trkpt>
      <trkpt lat="48.86074" lon="2.29175">
        <ele>83.4</ele>
        <time>2015-06-29T18:40:37.789Z</time>
      </trkpt>
      <trkpt lat="48.86066" lon="2.29173">
        <ele>83.4</ele>
        <time>2015-06-29T18:40:42.785Z</time>
      </trkpt>
      <trkpt lat="48.86064" lon="2.29172">
        <ele>83.5</ele>
        <time>2015-06-29T18:40:43.770Z</time>
      </trkpt>
      <trkpt lat="48.86058" lon="2.29164">
        <ele>83.2</ele>
        <time>2015-06-29T18:40:48.767Z</time>
      </trkpt>
      <trkpt lat="48.86056" lon="2.29162">
        <ele>83.2</ele>
        <time>2015-06-29T18:40:49.781Z</time>
      </trkpt>
      <trkpt lat="48.86052" lon="2.29154">
        <ele>83.6</ele>
        <time>2015-06-29T18:40:52.848Z</time>
      </trkpt>
      <trkpt lat="48.8605" lon="2.29152">
        <ele>83.7</ele>
        <time>2015-06-29T18:40:53.730Z</time>
      </trkpt>
      <trkpt lat="48.86043" lon="2.29147">
        <ele>84.7</ele>
        <time>2015-06-29T18:41:00.767Z</time>
      </trkpt>
      <trkpt lat="48.86042" lon="2.29146">
        <ele>84.6</ele>
        <time>2015-06-29T18:41:01.780Z</time>
      </trkpt>
      <trkpt lat="48.86036" lon="2.29139">
        <ele>84.3</ele>
        <time>2015-06-29T18:41:04.732Z</time>
      </trkpt>
      <trkpt lat="48.86034" lon="2.29137">
        <ele>84.3</ele>
        <time>2015-06-29T18:41:05.767Z</time>
      </trkpt>
      <trkpt lat="48.86029" lon="2.29131">
        <ele>85.2</ele>
        <time>2015-06-29T18:41:07.956Z</time>
      </trkpt>
      <trkpt lat="48.86027" lon="2.29128">
        <ele>85.1</ele>
        <time>2015-06-29T18:41:08.857Z</time>
      </trkpt>
      <trkpt lat="48.86024" lon="2.29118">
        <ele>85.1</ele>
        <time>2015-06-29T18:41:11.783Z</time>
      </trkpt>
      <trkpt lat="48.86022" lon="2.29114">
        <ele>85.2</ele>
        <time>2015-06-29T18:41:12.794Z</time>
      </trkpt>
      <trkpt lat="48.86017" lon="2.29105">
        <ele>84.8</ele>
        <time>2015-06-29T18:41:15.771Z</time>
      </trkpt>
      <trkpt lat="48.86014" lon="2.29102">
        <ele>84.9</ele>
        <time>2015-06-29T18:41:16.753Z</time>
      </trkpt>
      <trkpt lat="48.86007" lon="2.29094">
        <ele>84.8</ele>
        <time>2015-06-29T18:41:19.731Z</time>
      </trkpt>
      <trkpt lat="48.86005" lon="2.29091">
        <ele>84.8</ele>
        <time>2015-06-29T18:41:20.831Z</time>
      </trkpt>
      <trkpt lat="48.85999" lon="2.29085">
        <ele>84.4</ele>
        <time>2015-06-29T18:41:23.827Z</time>
      </trkpt>
      <trkpt lat="48.85997" lon="2.29083">
        <ele>84.4</ele>
        <time>2015-06-29T18:41:24.732Z</time>
      </trkpt>
      <trkpt lat="48.85997" lon="2.29083">
        <ele>84.4</ele>
        <time>2015-06-29T18:41:24.763Z</time>
      </trkpt>
      <trkpt lat="48.85997" lon="2.29082">
        <ele>84.2</ele>
        <time>2015-06-29T18:41:25.771Z</time>
      </trkpt>
      <trkpt lat="48.85998" lon="2.29081">
        <ele>84</ele>
        <time>2015-06-29T18:41:26.887Z</time>
      </trkpt>
      <trkpt lat="48.85998" lon="2.2908">
        <ele>84.1</ele>
        <time>2015-06-29T18:41:27.803Z</time>
      </trkpt>
      <trkpt lat="48.85999" lon="2.2908">
        <ele>84.4</ele>
        <time>2015-06-29T18:41:28.811Z</time>
      </trkpt>
      <trkpt lat="48.85998" lon="2.29079">
        <ele>84.6</ele>
        <time>2015-06-29T18:41:33.755Z</time>
      </trkpt>
      <trkpt lat="48.85997" lon="2.29075">
        <ele>85.3</ele>
        <time>2015-06-29T18:41:34.775Z</time>
      </trkpt>
      <trkpt lat="48.86001" lon="2.29064">
        <ele>85.5</ele>
        <time>2015-06-29T18:41:39.785Z</time>
      </trkpt>
      <trkpt lat="48.86002" lon="2.29061">
        <ele>85.5</ele>
        <time>2015-06-29T18:41:40.796Z</time>
      </trkpt>
      <trkpt lat="48.86003" lon="2.29048">
        <ele>85</ele>
        <time>2015-06-29T18:41:45.748Z</time>
      </trkpt>
      <trkpt lat="48.86002" lon="2.29045">
        <ele>84.8</ele>
        <time>2015-06-29T18:41:46.790Z</time>
      </trkpt>
      <trkpt lat="48.85997" lon="2.29038">
        <ele>85</ele>
        <time>2015-06-29T18:41:50.208Z</time>
      </trkpt>
      <trkpt lat="48.85994" lon="2.29035">
        <ele>84.9</ele>
        <time>2015-06-29T18:41:50.793Z</time>
      </trkpt>
      <trkpt lat="48.85988" lon="2.29029">
        <ele>84.9</ele>
        <time>2015-06-29T18:41:52.793Z</time>
      </trkpt>
      <trkpt lat="48.85985" lon="2.29026">
        <ele>84.9</ele>
        <time>2015-06-29T18:41:53.712Z</time>
      </trkpt>
      <trkpt lat="48.85979" lon="2.29018">
        <ele>84.8</ele>
        <time>2015-06-29T18:41:55.761Z</time>
      </trkpt>
      <trkpt lat="48.85976" lon="2.29015">
        <ele>84.5</ele>
        <time>2015-06-29T18:41:56.793Z</time>
      </trkpt>
      <trkpt lat="48.85969" lon="2.29007">
        <ele>84.5</ele>
        <time>2015-06-29T18:41:58.822Z</time>
      </trkpt>
      <trkpt lat="48.85965" lon="2.29003">
        <ele>84.3</ele>
        <time>2015-06-29T18:41:59.750Z</time>
      </trkpt>
      <trkpt lat="48.85958" lon="2.28996">
        <ele>84</ele>
        <time>2015-06-29T18:42:01.769Z</time>
      </trkpt>
      <trkpt lat="48.85954" lon="2.28992">
        <ele>83.9</ele>
        <time>2015-06-29T18:42:02.808Z</time>
      </trkpt>
      <trkpt lat="48.85948" lon="2.28984">
        <ele>83.6</ele>
        <time>2015-06-29T18:42:04.740Z</time>
      </trkpt>
      <trkpt lat="48.85944" lon="2.2898">
        <ele>83.3</ele>
        <time>2015-06-29T18:42:05.762Z</time>
      </trkpt>
      <trkpt lat="48.85937" lon="2.28973">
        <ele>83.2</ele>
        <time>2015-06-29T18:42:07.797Z</time>
      </trkpt>
      <trkpt lat="48.85933" lon="2.2897">
        <ele>83.1</ele>
        <time>2015-06-29T18:42:08.794Z</time>
      </trkpt>
      <trkpt lat="48.85926" lon="2.28963">
        <ele>83.2</ele>
        <time>2015-06-29T18:42:10.705Z</time>
      </trkpt>
      <trkpt lat="48.85923" lon="2.28958">
        <ele>83.4</ele>
        <time>2015-06-29T18:42:11.740Z</time>
      </trkpt>
      <trkpt lat="48.85916" lon="2.28951">
        <ele>83.3</ele>
        <time>2015-06-29T18:42:13.773Z</time>
      </trkpt>
      <trkpt lat="48.85911" lon="2.28948">
        <ele>83.1</ele>
        <time>2015-06-29T18:42:14.780Z</time>
      </trkpt>
      <trkpt lat="48.85907" lon="2.28945">
        <ele>83</ele>
        <time>2015-06-29T18:42:15.800Z</time>
      </trkpt>
      <trkpt lat="48.85904" lon="2.2894">
        <ele>83.4</ele>
        <time>2015-06-29T18:42:16.701Z</time>
      </trkpt>
      <trkpt lat="48.859" lon="2.28936">
        <ele>83.3</ele>
        <time>2015-06-29T18:42:17.713Z</time>
      </trkpt>
      <trkpt lat="48.85896" lon="2.28932">
        <ele>83.5</ele>
        <time>2015-06-29T18:42:18.759Z</time>
      </trkpt>
      <trkpt lat="48.85893" lon="2.28928">
        <ele>83.4</ele>
        <time>2015-06-29T18:42:19.759Z</time>
      </trkpt>
      <trkpt lat="48.8589" lon="2.28923">
        <ele>83.1</ele>
        <time>2015-06-29T18:42:20.764Z</time>
      </trkpt>
      <trkpt lat="48.85883" lon="2.28914">
        <ele>83.4</ele>
        <time>2015-06-29T18:42:22.704Z</time>
      </trkpt>
      <trkpt lat="48.8588" lon="2.28911">
        <ele>83.3</ele>
        <time>2015-06-29T18:42:23.724Z</time>
      </trkpt>
      <trkpt lat="48.85874" lon="2.28905">
        <ele>82.8</ele>
        <time>2015-06-29T18:42:25.795Z</time>
      </trkpt>
      <trkpt lat="48.85871" lon="2.28901">
        <ele>82.7</ele>
        <time>2015-06-29T18:42:26.816Z</time>
      </trkpt>
      <trkpt lat="48.85864" lon="2.28895">
        <ele>82.5</ele>
        <time>2015-06-29T18:42:28.830Z</time>
      </trkpt>
      <trkpt lat="48.8586" lon="2.28892">
        <ele>82.3</ele>
        <time>2015-06-29T18:42:29.795Z</time>
      </trkpt>
      <trkpt lat="48.85853" lon="2.28886">
        <ele>81.9</ele>
        <time>2015-06-29T18:42:31.830Z</time>
      </trkpt>
      <trkpt lat="48.8585" lon="2.28882">
        <ele>81.7</ele>
        <time>2015-06-29T18:42:32.836Z</time>
      </trkpt>
      <trkpt lat="48.85842" lon="2.28876">
        <ele>81.2</ele>
        <time>2015-06-29T18:42:34.831Z</time>
      </trkpt>
      <trkpt lat="48.85838" lon="2.28872">
        <ele>81.2</ele>
        <time>2015-06-29T18:42:35.816Z</time>
      </trkpt>
      <trkpt lat="48.85831" lon="2.28865">
        <ele>81</ele>
        <time>2015-06-29T18:42:37.742Z</time>
      </trkpt>
      <trkpt lat="48.85827" lon="2.28862">
        <ele>81.1</ele>
        <time>2015-06-29T18:42:38.748Z</time>
      </trkpt>
      <trkpt lat="48.8582" lon="2.28855">
        <ele>81.2</ele>
        <time>2015-06-29T18:42:40.790Z</time>
      </trkpt>
      <trkpt lat="48.85817" lon="2.28852">
        <ele>81.1</ele>
        <time>2015-06-29T18:42:41.795Z</time>
      </trkpt>
      <trkpt lat="48.85811" lon="2.28843">
        <ele>81.1</ele>
        <time>2015-06-29T18:42:43.745Z</time>
      </trkpt>
      <trkpt lat="48.85808" lon="2.28839">
        <ele>81</ele>
        <time>2015-06-29T18:42:44.788Z</time>
      </trkpt>
      <trkpt lat="48.858" lon="2.28833">
        <ele>81</ele>
        <time>2015-06-29T18:42:46.757Z</time>
      </trkpt>
      <trkpt lat="48.85797" lon="2.28828">
        <ele>80.9</ele>
        <time>2015-06-29T18:42:47.777Z</time>
      </trkpt>
      <trkpt lat="48.85791" lon="2.2882">
        <ele>80.4</ele>
        <time>2015-06-29T18:42:49.797Z</time>
      </trkpt>
      <trkpt lat="48.85788" lon="2.28815">
        <ele>80.4</ele>
        <time>2015-06-29T18:42:50.818Z</time>
      </trkpt>
      <trkpt lat="48.85781" lon="2.28806">
        <ele>80.1</ele>
        <time>2015-06-29T18:42:52.754Z</time>
      </trkpt>
      <trkpt lat="48.85778" lon="2.28801">
        <ele>80.1</ele>
        <time>2015-06-29T18:42:53.772Z</time>
      </trkpt>
      <trkpt lat="48.85774" lon="2.28796">
        <ele>80.1</ele>
        <time>2015-06-29T18:42:54.761Z</time>
      </trkpt>
      <trkpt lat="48.85771" lon="2.28791">
        <ele>80.2</ele>
        <time>2015-06-29T18:42:55.776Z</time>
      </trkpt>
      <trkpt lat="48.85768" lon="2.28784">
        <ele>80.6</ele>
        <time>2015-06-29T18:42:56.836Z</time>
      </trkpt>
      <trkpt lat="48.85765" lon="2.28779">
        <ele>80.6</ele>
        <time>2015-06-29T18:42:57.803Z</time>
      </trkpt>
      <trkpt lat="48.85758" lon="2.2877">
        <ele>81</ele>
        <time>2015-06-29T18:42:59.743Z</time>
      </trkpt>
      <trkpt lat="48.85755" lon="2.28766">
        <ele>81.1</ele>
        <time>2015-06-29T18:43:00.755Z</time>
      </trkpt>
      <trkpt lat="48.85748" lon="2.28756">
        <ele>81.1</ele>
        <time>2015-06-29T18:43:02.815Z</time>
      </trkpt>
      <trkpt lat="48.85745" lon="2.28752">
        <ele>81.2</ele>
        <time>2015-06-29T18:43:03.829Z</time>
      </trkpt>
      <trkpt lat="48.85739" lon="2.28745">
        <ele>81.1</ele>
        <time>2015-06-29T18:43:05.755Z</time>
      </trkpt>
      <trkpt lat="48.85736" lon="2.28742">
        <ele>81.1</ele>
        <time>2015-06-29T18:43:06.763Z</time>
      </trkpt>
      <trkpt lat="48.8573" lon="2.28735">
        <ele>81.3</ele>
        <time>2015-06-29T18:43:08.807Z</time>
      </trkpt>
      <trkpt lat="48.85727" lon="2.28731">
        <ele>81.4</ele>
        <time>2015-06-29T18:43:09.812Z</time>
      </trkpt>
      <trkpt lat="48.85722" lon="2.28723">
        <ele>81.4</ele>
        <time>2015-06-29T18:43:11.747Z</time>
      </trkpt>
      <trkpt lat="48.85719" lon="2.28719">
        <ele>80.9</ele>
        <time>2015-06-29T18:43:12.771Z</time>
      </trkpt>
      <trkpt lat="48.85712" lon="2.28712">
        <ele>80.4</ele>
        <time>2015-06-29T18:43:14.795Z</time>
      </trkpt>
      <trkpt lat="48.85709" lon="2.28708">
        <ele>80.3</ele>
        <time>2015-06-29T18:43:15.807Z</time>
      </trkpt>
      <trkpt lat="48.85704" lon="2.28701">
        <ele>80.1</ele>
        <time>2015-06-29T18:43:17.743Z</time>
      </trkpt>
      <trkpt lat="48.85702" lon="2.28698">
        <ele>80</ele>
        <time>2015-06-29T18:43:18.711Z</time>
      </trkpt>
      <trkpt lat="48.85697" lon="2.28688">
        <ele>80</ele>
        <time>2015-06-29T18:43:21.774Z</time>
      </trkpt>
      <trkpt lat="48.85697" lon="2.28683">
        <ele>80</ele>
        <time>2015-06-29T18:43:22.784Z</time>
      </trkpt>
      <trkpt lat="48.85692" lon="2.28672">
        <ele>80.8</ele>
        <time>2015-06-29T18:43:25.846Z</time>
      </trkpt>
      <trkpt lat="48.85689" lon="2.28669">
        <ele>80.9</ele>
        <time>2015-06-29T18:43:26.853Z</time>
      </trkpt>
      <trkpt lat="48.85683" lon="2.28663">
        <ele>81.1</ele>
        <time>2015-06-29T18:43:28.771Z</time>
      </trkpt>
      <trkpt lat="48.8568" lon="2.2866">
        <ele>81.2</ele>
        <time>2015-06-29T18:43:29.783Z</time>
      </trkpt>
      <trkpt lat="48.85674" lon="2.28653">
        <ele>81.5</ele>
        <time>2015-06-29T18:43:31.736Z</time>
      </trkpt>
      <trkpt lat="48.85671" lon="2.2865">
        <ele>81.6</ele>
        <time>2015-06-29T18:43:32.802Z</time>
      </trkpt>
      <trkpt lat="48.85665" lon="2.2864">
        <ele>82.2</ele>
        <time>2015-06-29T18:43:34.726Z</time>
      </trkpt>
      <trkpt lat="48.85662" lon="2.28635">
        <ele>82.4</ele>
        <time>2015-06-29T18:43:35.756Z</time>
      </trkpt>
      <trkpt lat="48.85658" lon="2.28629">
        <ele>82.4</ele>
        <time>2015-06-29T18:43:36.773Z</time>
      </trkpt>
      <trkpt lat="48.85654" lon="2.28624">
        <ele>82.5</ele>
        <time>2015-06-29T18:43:37.777Z</time>
      </trkpt>
      <trkpt lat="48.8565" lon="2.2862">
        <ele>82.5</ele>
        <time>2015-06-29T18:43:38.782Z</time>
      </trkpt>
      <trkpt lat="48.85646" lon="2.28615">
        <ele>82.7</ele>
        <time>2015-06-29T18:43:39.787Z</time>
      </trkpt>
      <trkpt lat="48.85642" lon="2.28611">
        <ele>82.8</ele>
        <time>2015-06-29T18:43:40.800Z</time>
      </trkpt>
      <trkpt lat="48.85638" lon="2.28606">
        <ele>82.8</ele>
        <time>2015-06-29T18:43:41.809Z</time>
      </trkpt>
      <trkpt lat="48.85635" lon="2.286">
        <ele>82.9</ele>
        <time>2015-06-29T18:43:42.705Z</time>
      </trkpt>
      <trkpt lat="48.85631" lon="2.28594">
        <ele>83.1</ele>
        <time>2015-06-29T18:43:43.724Z</time>
      </trkpt>
      <trkpt lat="48.85627" lon="2.28587">
        <ele>83.2</ele>
        <time>2015-06-29T18:43:44.766Z</time>
      </trkpt>
      <trkpt lat="48.85623" lon="2.28581">
        <ele>83.1</ele>
        <time>2015-06-29T18:43:45.771Z</time>
      </trkpt>
      <trkpt lat="48.85617" lon="2.28575">
        <ele>82.1</ele>
        <time>2015-06-29T18:43:46.783Z</time>
      </trkpt>
      <trkpt lat="48.85612" lon="2.28569">
        <ele>81.7</ele>
        <time>2015-06-29T18:43:47.810Z</time>
      </trkpt>
      <trkpt lat="48.85607" lon="2.28563">
        <ele>81.5</ele>
        <time>2015-06-29T18:43:48.796Z</time>
      </trkpt>
      <trkpt lat="48.85602" lon="2.28558">
        <ele>81.6</ele>
        <time>2015-06-29T18:43:49.799Z</time>
      </trkpt>
      <trkpt lat="48.85597" lon="2.28553">
        <ele>81.6</ele>
        <time>2015-06-29T18:43:50.814Z</time>
      </trkpt>
      <trkpt lat="48.85593" lon="2.28548">
        <ele>81.6</ele>
        <time>2015-06-29T18:43:51.824Z</time>
      </trkpt>
      <trkpt lat="48.8559" lon="2.2854">
        <ele>81.2</ele>
        <time>2015-06-29T18:43:52.742Z</time>
      </trkpt>
      <trkpt lat="48.85587" lon="2.28533">
        <ele>81.2</ele>
        <time>2015-06-29T18:43:53.725Z</time>
      </trkpt>
      <trkpt lat="48.85583" lon="2.28527">
        <ele>81</ele>
        <time>2015-06-29T18:43:54.727Z</time>
      </trkpt>
      <trkpt lat="48.85579" lon="2.28522">
        <ele>80.9</ele>
        <time>2015-06-29T18:43:55.735Z</time>
      </trkpt>
      <trkpt lat="48.85575" lon="2.28517">
        <ele>81</ele>
        <time>2015-06-29T18:43:56.789Z</time>
      </trkpt>
      <trkpt lat="48.8557" lon="2.28512">
        <ele>81.1</ele>
        <time>2015-06-29T18:43:57.922Z</time>
      </trkpt>
      <trkpt lat="48.85566" lon="2.28508">
        <ele>81.1</ele>
        <time>2015-06-29T18:43:58.798Z</time>
      </trkpt>
      <trkpt lat="48.85562" lon="2.28503">
        <ele>81.4</ele>
        <time>2015-06-29T18:43:59.807Z</time>
      </trkpt>
      <trkpt lat="48.85558" lon="2.28498">
        <ele>81.7</ele>
        <time>2015-06-29T18:44:00.807Z</time>
      </trkpt>
      <trkpt lat="48.85553" lon="2.28493">
        <ele>81.8</ele>
        <time>2015-06-29T18:44:01.809Z</time>
      </trkpt>
      <trkpt lat="48.85549" lon="2.28487">
        <ele>81.8</ele>
        <time>2015-06-29T18:44:02.823Z</time>
      </trkpt>
      <trkpt lat="48.85545" lon="2.28482">
        <ele>82.3</ele>
        <time>2015-06-29T18:44:03.736Z</time>
      </trkpt>
      <trkpt lat="48.85541" lon="2.28477">
        <ele>82.4</ele>
        <time>2015-06-29T18:44:04.739Z</time>
      </trkpt>
      <trkpt lat="48.85537" lon="2.28472">
        <ele>82.4</ele>
        <time>2015-06-29T18:44:05.745Z</time>
      </trkpt>
      <trkpt lat="48.85533" lon="2.28466">
        <ele>82.8</ele>
        <time>2015-06-29T18:44:06.753Z</time>
      </trkpt>
      <trkpt lat="48.85529" lon="2.2846">
        <ele>82.6</ele>
        <time>2015-06-29T18:44:07.762Z</time>
      </trkpt>
      <trkpt lat="48.85524" lon="2.28454">
        <ele>83</ele>
        <time>2015-06-29T18:44:08.777Z</time>
      </trkpt>
      <trkpt lat="48.8552" lon="2.28449">
        <ele>83.4</ele>
        <time>2015-06-29T18:44:09.800Z</time>
      </trkpt>
      <trkpt lat="48.85516" lon="2.28443">
        <ele>83.4</ele>
        <time>2015-06-29T18:44:10.816Z</time>
      </trkpt>
      <trkpt lat="48.85511" lon="2.28439">
        <ele>83.5</ele>
        <time>2015-06-29T18:44:11.825Z</time>
      </trkpt>
      <trkpt lat="48.85506" lon="2.28433">
        <ele>83.2</ele>
        <time>2015-06-29T18:44:12.837Z</time>
      </trkpt>
      <trkpt lat="48.85501" lon="2.28427">
        <ele>82.5</ele>
        <time>2015-06-29T18:44:13.742Z</time>
      </trkpt>
      <trkpt lat="48.85497" lon="2.28422">
        <ele>82.6</ele>
        <time>2015-06-29T18:44:14.775Z</time>
      </trkpt>
      <trkpt lat="48.85493" lon="2.28416">
        <ele>82.7</ele>
        <time>2015-06-29T18:44:15.773Z</time>
      </trkpt>
      <trkpt lat="48.85488" lon="2.28411">
        <ele>82.8</ele>
        <time>2015-06-29T18:44:16.759Z</time>
      </trkpt>
      <trkpt lat="48.85484" lon="2.28405">
        <ele>82.7</ele>
        <time>2015-06-29T18:44:17.773Z</time>
      </trkpt>
      <trkpt lat="48.8548" lon="2.284">
        <ele>82.8</ele>
        <time>2015-06-29T18:44:18.745Z</time>
      </trkpt>
      <trkpt lat="48.85475" lon="2.28395">
        <ele>82.5</ele>
        <time>2015-06-29T18:44:19.745Z</time>
      </trkpt>
      <trkpt lat="48.8547" lon="2.28389">
        <ele>81.9</ele>
        <time>2015-06-29T18:44:20.801Z</time>
      </trkpt>
      <trkpt lat="48.85466" lon="2.28383">
        <ele>81.6</ele>
        <time>2015-06-29T18:44:21.783Z</time>
      </trkpt>
      <trkpt lat="48.85462" lon="2.28377">
        <ele>81.4</ele>
        <time>2015-06-29T18:44:22.792Z</time>
      </trkpt>
      <trkpt lat="48.85458" lon="2.28372">
        <ele>81.3</ele>
        <time>2015-06-29T18:44:23.804Z</time>
      </trkpt>
      <trkpt lat="48.85454" lon="2.28366">
        <ele>81.4</ele>
        <time>2015-06-29T18:44:24.808Z</time>
      </trkpt>
      <trkpt lat="48.8545" lon="2.28361">
        <ele>81.4</ele>
        <time>2015-06-29T18:44:25.740Z</time>
      </trkpt>
      <trkpt lat="48.85447" lon="2.28356">
        <ele>81.2</ele>
        <time>2015-06-29T18:44:26.846Z</time>
      </trkpt>
      <trkpt lat="48.85443" lon="2.28348">
        <ele>80.9</ele>
        <time>2015-06-29T18:44:27.744Z</time>
      </trkpt>
      <trkpt lat="48.8544" lon="2.28342">
        <ele>80.7</ele>
        <time>2015-06-29T18:44:28.757Z</time>
      </trkpt>
      <trkpt lat="48.85435" lon="2.28336">
        <ele>80.9</ele>
        <time>2015-06-29T18:44:29.762Z</time>
      </trkpt>
      <trkpt lat="48.85431" lon="2.2833">
        <ele>81</ele>
        <time>2015-06-29T18:44:30.780Z</time>
      </trkpt>
      <trkpt lat="48.85426" lon="2.28325">
        <ele>80.8</ele>
        <time>2015-06-29T18:44:31.787Z</time>
      </trkpt>
      <trkpt lat="48.85422" lon="2.2832">
        <ele>80.7</ele>
        <time>2015-06-29T18:44:32.789Z</time>
      </trkpt>
      <trkpt lat="48.85417" lon="2.28314">
        <ele>80.6</ele>
        <time>2015-06-29T18:44:33.801Z</time>
      </trkpt>
      <trkpt lat="48.85413" lon="2.28307">
        <ele>80.8</ele>
        <time>2015-06-29T18:44:34.803Z</time>
      </trkpt>
      <trkpt lat="48.85409" lon="2.28301">
        <ele>80.7</ele>
        <time>2015-06-29T18:44:35.820Z</time>
      </trkpt>
      <trkpt lat="48.85405" lon="2.28295">
        <ele>80.7</ele>
        <time>2015-06-29T18:44:36.819Z</time>
      </trkpt>
      <trkpt lat="48.854" lon="2.28289">
        <ele>80.7</ele>
        <time>2015-06-29T18:44:37.838Z</time>
      </trkpt>
      <trkpt lat="48.85396" lon="2.28283">
        <ele>80.7</ele>
        <time>2015-06-29T18:44:38.854Z</time>
      </trkpt>
      <trkpt lat="48.85391" lon="2.28276">
        <ele>80.4</ele>
        <time>2015-06-29T18:44:39.742Z</time>
      </trkpt>
      <trkpt lat="48.85386" lon="2.28269">
        <ele>80.1</ele>
        <time>2015-06-29T18:44:40.825Z</time>
      </trkpt>
      <trkpt lat="48.85381" lon="2.28262">
        <ele>80</ele>
        <time>2015-06-29T18:44:41.800Z</time>
      </trkpt>
      <trkpt lat="48.85377" lon="2.28256">
        <ele>80.2</ele>
        <time>2015-06-29T18:44:42.901Z</time>
      </trkpt>
      <trkpt lat="48.85372" lon="2.28249">
        <ele>80.5</ele>
        <time>2015-06-29T18:44:43.780Z</time>
      </trkpt>
      <trkpt lat="48.85368" lon="2.28242">
        <ele>80.6</ele>
        <time>2015-06-29T18:44:44.834Z</time>
      </trkpt>
      <trkpt lat="48.85363" lon="2.28235">
        <ele>80.6</ele>
        <time>2015-06-29T18:44:45.898Z</time>
      </trkpt>
      <trkpt lat="48.85359" lon="2.28228">
        <ele>80.5</ele>
        <time>2015-06-29T18:44:46.765Z</time>
      </trkpt>
      <trkpt lat="48.85355" lon="2.2822">
        <ele>80.7</ele>
        <time>2015-06-29T18:44:47.773Z</time>
      </trkpt>
      <trkpt lat="48.85351" lon="2.28214">
        <ele>80.9</ele>
        <time>2015-06-29T18:44:48.783Z</time>
      </trkpt>
      <trkpt lat="48.85347" lon="2.28207">
        <ele>81</ele>
        <time>2015-06-29T18:44:49.793Z</time>
      </trkpt>
      <trkpt lat="48.85343" lon="2.282">
        <ele>80.8</ele>
        <time>2015-06-29T18:44:50.823Z</time>
      </trkpt>
      <trkpt lat="48.85339" lon="2.28194">
        <ele>80.8</ele>
        <time>2015-06-29T18:44:51.823Z</time>
      </trkpt>
      <trkpt lat="48.85336" lon="2.28188">
        <ele>80.8</ele>
        <time>2015-06-29T18:44:52.840Z</time>
      </trkpt>
      <trkpt lat="48.85332" lon="2.28183">
        <ele>80.7</ele>
        <time>2015-06-29T18:44:53.847Z</time>
      </trkpt>
      <trkpt lat="48.85328" lon="2.28177">
        <ele>80.9</ele>
        <time>2015-06-29T18:44:54.732Z</time>
      </trkpt>
      <trkpt lat="48.85324" lon="2.28171">
        <ele>81.1</ele>
        <time>2015-06-29T18:44:55.755Z</time>
      </trkpt>
      <trkpt lat="48.85321" lon="2.28164">
        <ele>81.2</ele>
        <time>2015-06-29T18:44:56.822Z</time>
      </trkpt>
      <trkpt lat="48.85317" lon="2.28157">
        <ele>81.3</ele>
        <time>2015-06-29T18:44:57.832Z</time>
      </trkpt>
      <trkpt lat="48.85314" lon="2.28149">
        <ele>81.6</ele>
        <time>2015-06-29T18:44:58.856Z</time>
      </trkpt>
      <trkpt lat="48.8531" lon="2.28141">
        <ele>81.3</ele>
        <time>2015-06-29T18:44:59.756Z</time>
      </trkpt>
      <trkpt lat="48.85305" lon="2.28133">
        <ele>80.9</ele>
        <time>2015-06-29T18:45:00.764Z</time>
      </trkpt>
      <trkpt lat="48.85301" lon="2.28125">
        <ele>80.6</ele>
        <time>2015-06-29T18:45:01.778Z</time>
      </trkpt>
      <trkpt lat="48.85297" lon="2.28116">
        <ele>80.5</ele>
        <time>2015-06-29T18:45:02.823Z</time>
      </trkpt>
      <trkpt lat="48.85293" lon="2.28109">
        <ele>80.6</ele>
        <time>2015-06-29T18:45:03.822Z</time>
      </trkpt>
      <trkpt lat="48.85289" lon="2.28101">
        <ele>80.6</ele>
        <time>2015-06-29T18:45:04.823Z</time>
      </trkpt>
      <trkpt lat="48.85285" lon="2.28093">
        <ele>80.7</ele>
        <time>2015-06-29T18:45:05.836Z</time>
      </trkpt>
      <trkpt lat="48.85281" lon="2.28086">
        <ele>80.7</ele>
        <time>2015-06-29T18:45:06.845Z</time>
      </trkpt>
      <trkpt lat="48.85277" lon="2.28078">
        <ele>80.7</ele>
        <time>2015-06-29T18:45:07.756Z</time>
      </trkpt>
      <trkpt lat="48.85272" lon="2.2807">
        <ele>80.8</ele>
        <time>2015-06-29T18:45:08.857Z</time>
      </trkpt>
      <trkpt lat="48.85267" lon="2.28065">
        <ele>80.5</ele>
        <time>2015-06-29T18:45:09.790Z</time>
      </trkpt>
      <trkpt lat="48.85263" lon="2.28058">
        <ele>80.2</ele>
        <time>2015-06-29T18:45:10.805Z</time>
      </trkpt>
      <trkpt lat="48.85258" lon="2.28051">
        <ele>80.1</ele>
        <time>2015-06-29T18:45:11.802Z</time>
      </trkpt>
      <trkpt lat="48.85254" lon="2.28045">
        <ele>80</ele>
        <time>2015-06-29T18:45:12.813Z</time>
      </trkpt>
      <trkpt lat="48.8525" lon="2.28038">
        <ele>80.2</ele>
        <time>2015-06-29T18:45:13.818Z</time>
      </trkpt>
      <trkpt lat="48.85246" lon="2.28031">
        <ele>80</ele>
        <time>2015-06-29T18:45:14.825Z</time>
      </trkpt>
      <trkpt lat="48.85242" lon="2.28024">
        <ele>79.8</ele>
        <time>2015-06-29T18:45:15.838Z</time>
      </trkpt>
      <trkpt lat="48.85238" lon="2.28018">
        <ele>79.7</ele>
        <time>2015-06-29T18:45:16.794Z</time>
      </trkpt>
      <trkpt lat="48.85233" lon="2.28012">
        <ele>79.6</ele>
        <time>2015-06-29T18:45:17.756Z</time>
      </trkpt>
      <trkpt lat="48.85229" lon="2.28006">
        <ele>79.6</ele>
        <time>2015-06-29T18:45:18.791Z</time>
      </trkpt>
      <trkpt lat="48.85225" lon="2.28001">
        <ele>79.8</ele>
        <time>2015-06-29T18:45:19.794Z</time>
      </trkpt>
      <trkpt lat="48.8522" lon="2.27997">
        <ele>79.8</ele>
        <time>2015-06-29T18:45:20.885Z</time>
      </trkpt>
      <trkpt lat="48.85216" lon="2.27992">
        <ele>79.8</ele>
        <time>2015-06-29T18:45:21.828Z</time>
      </trkpt>
      <trkpt lat="48.85211" lon="2.27988">
        <ele>80</ele>
        <time>2015-06-29T18:45:22.835Z</time>
      </trkpt>
      <trkpt lat="48.85206" lon="2.27985">
        <ele>80.1</ele>
        <time>2015-06-29T18:45:23.843Z</time>
      </trkpt>
      <trkpt lat="48.85202" lon="2.2798">
        <ele>80.1</ele>
        <time>2015-06-29T18:45:24.857Z</time>
      </trkpt>
      <trkpt lat="48.85197" lon="2.27975">
        <ele>80.3</ele>
        <time>2015-06-29T18:45:25.767Z</time>
      </trkpt>
      <trkpt lat="48.85193" lon="2.2797">
        <ele>80.4</ele>
        <time>2015-06-29T18:45:26.802Z</time>
      </trkpt>
      <trkpt lat="48.85189" lon="2.27964">
        <ele>80.8</ele>
        <time>2015-06-29T18:45:27.814Z</time>
      </trkpt>
      <trkpt lat="48.85185" lon="2.27957">
        <ele>81.1</ele>
        <time>2015-06-29T18:45:28.814Z</time>
      </trkpt>
      <trkpt lat="48.85183" lon="2.27949">
        <ele>81.2</ele>
        <time>2015-06-29T18:45:29.817Z</time>
      </trkpt>
      <trkpt lat="48.8518" lon="2.2794">
        <ele>81.2</ele>
        <time>2015-06-29T18:45:30.835Z</time>
      </trkpt>
      <trkpt lat="48.85177" lon="2.27932">
        <ele>81.2</ele>
        <time>2015-06-29T18:45:31.762Z</time>
      </trkpt>
      <trkpt lat="48.85174" lon="2.27924">
        <ele>81.3</ele>
        <time>2015-06-29T18:45:32.856Z</time>
      </trkpt>
      <trkpt lat="48.85171" lon="2.27919">
        <ele>81.5</ele>
        <time>2015-06-29T18:45:33.757Z</time>
      </trkpt>
      <trkpt lat="48.85167" lon="2.27913">
        <ele>81.8</ele>
        <time>2015-06-29T18:45:34.756Z</time>
      </trkpt>
      <trkpt lat="48.85164" lon="2.27907">
        <ele>81.7</ele>
        <time>2015-06-29T18:45:35.775Z</time>
      </trkpt>
      <trkpt lat="48.85161" lon="2.27901">
        <ele>81.4</ele>
        <time>2015-06-29T18:45:36.798Z</time>
      </trkpt>
      <trkpt lat="48.85158" lon="2.27895">
        <ele>81.4</ele>
        <time>2015-06-29T18:45:37.806Z</time>
      </trkpt>
      <trkpt lat="48.85155" lon="2.27884">
        <ele>81.8</ele>
        <time>2015-06-29T18:45:39.836Z</time>
      </trkpt>
      <trkpt lat="48.85154" lon="2.27878">
        <ele>81.9</ele>
        <time>2015-06-29T18:45:40.847Z</time>
      </trkpt>
      <trkpt lat="48.8515" lon="2.27867">
        <ele>83.1</ele>
        <time>2015-06-29T18:45:43.791Z</time>
      </trkpt>
      <trkpt lat="48.8515" lon="2.27864">
        <ele>83.5</ele>
        <time>2015-06-29T18:45:44.894Z</time>
      </trkpt>
      <trkpt lat="48.8515" lon="2.27862">
        <ele>83.8</ele>
        <time>2015-06-29T18:45:45.779Z</time>
      </trkpt>
      <trkpt lat="48.8515" lon="2.2786">
        <ele>84.3</ele>
        <time>2015-06-29T18:45:46.787Z</time>
      </trkpt>
      <trkpt lat="48.8515" lon="2.27859">
        <ele>84.9</ele>
        <time>2015-06-29T18:46:04.817Z</time>
      </trkpt>
      <trkpt lat="48.85154" lon="2.27848">
        <ele>87.8</ele>
        <time>2015-06-29T18:46:05.729Z</time>
      </trkpt>
      <trkpt lat="48.85147" lon="2.2784">
        <ele>87.5</ele>
        <time>2015-06-29T18:46:08.835Z</time>
      </trkpt>
      <trkpt lat="48.85144" lon="2.27837">
        <ele>86.9</ele>
        <time>2015-06-29T18:46:09.773Z</time>
      </trkpt>
      <trkpt lat="48.85137" lon="2.2783">
        <ele>86</ele>
        <time>2015-06-29T18:46:11.747Z</time>
      </trkpt>
      <trkpt lat="48.85134" lon="2.27827">
        <ele>86</ele>
        <time>2015-06-29T18:46:12.781Z</time>
      </trkpt>
      <trkpt lat="48.85128" lon="2.2782">
        <ele>85.8</ele>
        <time>2015-06-29T18:46:14.804Z</time>
      </trkpt>
      <trkpt lat="48.85126" lon="2.27816">
        <ele>85.7</ele>
        <time>2015-06-29T18:46:15.838Z</time>
      </trkpt>
      <trkpt lat="48.85122" lon="2.27811">
        <ele>85.4</ele>
        <time>2015-06-29T18:46:16.748Z</time>
      </trkpt>
      <trkpt lat="48.85119" lon="2.27806">
        <ele>85.4</ele>
        <time>2015-06-29T18:46:17.762Z</time>
      </trkpt>
      <trkpt lat="48.85115" lon="2.27801">
        <ele>85.4</ele>
        <time>2015-06-29T18:46:18.814Z</time>
      </trkpt>
      <trkpt lat="48.85111" lon="2.27796">
        <ele>85.2</ele>
        <time>2015-06-29T18:46:19.825Z</time>
      </trkpt>
      <trkpt lat="48.85107" lon="2.27793">
        <ele>85.2</ele>
        <time>2015-06-29T18:46:20.831Z</time>
      </trkpt>
      <trkpt lat="48.85103" lon="2.27789">
        <ele>85.2</ele>
        <time>2015-06-29T18:46:21.845Z</time>
      </trkpt>
      <trkpt lat="48.85099" lon="2.27784">
        <ele>85.3</ele>
        <time>2015-06-29T18:46:22.784Z</time>
      </trkpt>
      <trkpt lat="48.85095" lon="2.27778">
        <ele>85.4</ele>
        <time>2015-06-29T18:46:23.799Z</time>
      </trkpt>
      <trkpt lat="48.85092" lon="2.27773">
        <ele>85.5</ele>
        <time>2015-06-29T18:46:24.804Z</time>
      </trkpt>
      <trkpt lat="48.85088" lon="2.27769">
        <ele>85.6</ele>
        <time>2015-06-29T18:46:25.773Z</time>
      </trkpt>
      <trkpt lat="48.85082" lon="2.2776">
        <ele>85.9</ele>
        <time>2015-06-29T18:46:27.798Z</time>
      </trkpt>
      <trkpt lat="48.85079" lon="2.27756">
        <ele>86.1</ele>
        <time>2015-06-29T18:46:28.721Z</time>
      </trkpt>
      <trkpt lat="48.85075" lon="2.27751">
        <ele>86.3</ele>
        <time>2015-06-29T18:46:29.786Z</time>
      </trkpt>
      <trkpt lat="48.85072" lon="2.27746">
        <ele>86.4</ele>
        <time>2015-06-29T18:46:30.797Z</time>
      </trkpt>
      <trkpt lat="48.85069" lon="2.27742">
        <ele>86.7</ele>
        <time>2015-06-29T18:46:31.805Z</time>
      </trkpt>
      <trkpt lat="48.85065" lon="2.27737">
        <ele>86.9</ele>
        <time>2015-06-29T18:46:32.818Z</time>
      </trkpt>
      <trkpt lat="48.85062" lon="2.27732">
        <ele>86.9</ele>
        <time>2015-06-29T18:46:33.723Z</time>
      </trkpt>
      <trkpt lat="48.85058" lon="2.27727">
        <ele>86.9</ele>
        <time>2015-06-29T18:46:34.966Z</time>
      </trkpt>
      <trkpt lat="48.85054" lon="2.27722">
        <ele>87</ele>
        <time>2015-06-29T18:46:35.777Z</time>
      </trkpt>
      <trkpt lat="48.85051" lon="2.27716">
        <ele>87</ele>
        <time>2015-06-29T18:46:36.803Z</time>
      </trkpt>
      <trkpt lat="48.85048" lon="2.27711">
        <ele>87</ele>
        <time>2015-06-29T18:46:37.726Z</time>
      </trkpt>
      <trkpt lat="48.85044" lon="2.27706">
        <ele>87</ele>
        <time>2015-06-29T18:46:38.752Z</time>
      </trkpt>
      <trkpt lat="48.85041" lon="2.277">
        <ele>86.9</ele>
        <time>2015-06-29T18:46:39.765Z</time>
      </trkpt>
      <trkpt lat="48.85038" lon="2.27694">
        <ele>86.9</ele>
        <time>2015-06-29T18:46:40.814Z</time>
      </trkpt>
      <trkpt lat="48.85035" lon="2.2769">
        <ele>86.9</ele>
        <time>2015-06-29T18:46:41.796Z</time>
      </trkpt>
      <trkpt lat="48.85031" lon="2.27686">
        <ele>87</ele>
        <time>2015-06-29T18:46:42.726Z</time>
      </trkpt>
      <trkpt lat="48.85024" lon="2.2768">
        <ele>87.1</ele>
        <time>2015-06-29T18:46:45.509Z</time>
      </trkpt>
      <trkpt lat="48.85021" lon="2.27677">
        <ele>87.3</ele>
        <time>2015-06-29T18:46:45.778Z</time>
      </trkpt>
      <trkpt lat="48.85016" lon="2.27674">
        <ele>87.4</ele>
        <time>2015-06-29T18:46:46.694Z</time>
      </trkpt>
      <trkpt lat="48.85012" lon="2.2767">
        <ele>87.5</ele>
        <time>2015-06-29T18:46:47.764Z</time>
      </trkpt>
      <trkpt lat="48.85007" lon="2.27665">
        <ele>87.6</ele>
        <time>2015-06-29T18:46:48.770Z</time>
      </trkpt>
      <trkpt lat="48.85002" lon="2.2766">
        <ele>87.7</ele>
        <time>2015-06-29T18:46:49.703Z</time>
      </trkpt>
      <trkpt lat="48.84996" lon="2.27655">
        <ele>87.8</ele>
        <time>2015-06-29T18:46:50.743Z</time>
      </trkpt>
      <trkpt lat="48.84991" lon="2.2765">
        <ele>87.9</ele>
        <time>2015-06-29T18:46:51.745Z</time>
      </trkpt>
      <trkpt lat="48.84985" lon="2.27645">
        <ele>87.9</ele>
        <time>2015-06-29T18:46:52.751Z</time>
      </trkpt>
      <trkpt lat="48.8498" lon="2.2764">
        <ele>88</ele>
        <time>2015-06-29T18:46:53.763Z</time>
      </trkpt>
      <trkpt lat="48.84973" lon="2.27634">
        <ele>88.2</ele>
        <time>2015-06-29T18:46:54.790Z</time>
      </trkpt>
      <trkpt lat="48.84966" lon="2.27628">
        <ele>88.4</ele>
        <time>2015-06-29T18:46:55.681Z</time>
      </trkpt>
      <trkpt lat="48.8496" lon="2.27622">
        <ele>88.4</ele>
        <time>2015-06-29T18:46:56.772Z</time>
      </trkpt>
      <trkpt lat="48.84953" lon="2.27617">
        <ele>88.6</ele>
        <time>2015-06-29T18:46:57.803Z</time>
      </trkpt>
      <trkpt lat="48.84946" lon="2.27611">
        <ele>88.8</ele>
        <time>2015-06-29T18:46:58.789Z</time>
      </trkpt>
      <trkpt lat="48.84939" lon="2.27605">
        <ele>89.1</ele>
        <time>2015-06-29T18:46:59.710Z</time>
      </trkpt>
      <trkpt lat="48.84932" lon="2.27599">
        <ele>89.3</ele>
        <time>2015-06-29T18:47:00.709Z</time>
      </trkpt>
      <trkpt lat="48.84925" lon="2.27592">
        <ele>89.5</ele>
        <time>2015-06-29T18:47:01.714Z</time>
      </trkpt>
      <trkpt lat="48.8492" lon="2.27586">
        <ele>89.6</ele>
        <time>2015-06-29T18:47:02.763Z</time>
      </trkpt>
      <trkpt lat="48.84914" lon="2.27579">
        <ele>89.7</ele>
        <time>2015-06-29T18:47:03.776Z</time>
      </trkpt>
      <trkpt lat="48.84908" lon="2.27572">
        <ele>89.9</ele>
        <time>2015-06-29T18:47:04.879Z</time>
      </trkpt>
      <trkpt lat="48.84901" lon="2.27566">
        <ele>89.9</ele>
        <time>2015-06-29T18:47:05.721Z</time>
      </trkpt>
      <trkpt lat="48.84895" lon="2.2756">
        <ele>89.9</ele>
        <time>2015-06-29T18:47:06.747Z</time>
      </trkpt>
      <trkpt lat="48.84889" lon="2.27553">
        <ele>89.9</ele>
        <time>2015-06-29T18:47:07.751Z</time>
      </trkpt>
      <trkpt lat="48.84885" lon="2.27547">
        <ele>89.9</ele>
        <time>2015-06-29T18:47:08.760Z</time>
      </trkpt>
      <trkpt lat="48.8488" lon="2.2754">
        <ele>89.9</ele>
        <time>2015-06-29T18:47:09.789Z</time>
      </trkpt>
      <trkpt lat="48.84874" lon="2.27535">
        <ele>89.9</ele>
        <time>2015-06-29T18:47:10.782Z</time>
      </trkpt>
      <trkpt lat="48.8487" lon="2.27529">
        <ele>90.1</ele>
        <time>2015-06-29T18:47:11.791Z</time>
      </trkpt>
      <trkpt lat="48.84866" lon="2.27523">
        <ele>90.3</ele>
        <time>2015-06-29T18:47:12.802Z</time>
      </trkpt>
      <trkpt lat="48.84861" lon="2.27518">
        <ele>90.4</ele>
        <time>2015-06-29T18:47:13.699Z</time>
      </trkpt>
      <trkpt lat="48.84856" lon="2.27512">
        <ele>90.4</ele>
        <time>2015-06-29T18:47:15.230Z</time>
      </trkpt>
      <trkpt lat="48.84851" lon="2.27505">
        <ele>90.2</ele>
        <time>2015-06-29T18:47:15.775Z</time>
      </trkpt>
      <trkpt lat="48.84847" lon="2.27499">
        <ele>90.1</ele>
        <time>2015-06-29T18:47:16.780Z</time>
      </trkpt>
      <trkpt lat="48.84841" lon="2.27494">
        <ele>90</ele>
        <time>2015-06-29T18:47:17.791Z</time>
      </trkpt>
      <trkpt lat="48.84836" lon="2.27489">
        <ele>89.9</ele>
        <time>2015-06-29T18:47:18.700Z</time>
      </trkpt>
      <trkpt lat="48.84831" lon="2.27484">
        <ele>90</ele>
        <time>2015-06-29T18:47:19.718Z</time>
      </trkpt>
      <trkpt lat="48.84826" lon="2.2748">
        <ele>90</ele>
        <time>2015-06-29T18:47:20.819Z</time>
      </trkpt>
      <trkpt lat="48.84821" lon="2.27475">
        <ele>89.9</ele>
        <time>2015-06-29T18:47:21.715Z</time>
      </trkpt>
      <trkpt lat="48.84817" lon="2.2747">
        <ele>89.8</ele>
        <time>2015-06-29T18:47:22.718Z</time>
      </trkpt>
      <trkpt lat="48.84812" lon="2.27464">
        <ele>89.7</ele>
        <time>2015-06-29T18:47:23.732Z</time>
      </trkpt>
      <trkpt lat="48.84807" lon="2.27459">
        <ele>89.6</ele>
        <time>2015-06-29T18:47:24.736Z</time>
      </trkpt>
      <trkpt lat="48.84802" lon="2.27454">
        <ele>89.7</ele>
        <time>2015-06-29T18:47:25.744Z</time>
      </trkpt>
      <trkpt lat="48.84798" lon="2.27449">
        <ele>89.8</ele>
        <time>2015-06-29T18:47:26.773Z</time>
      </trkpt>
      <trkpt lat="48.84794" lon="2.27443">
        <ele>89.7</ele>
        <time>2015-06-29T18:47:27.787Z</time>
      </trkpt>
      <trkpt lat="48.84789" lon="2.27438">
        <ele>89.6</ele>
        <time>2015-06-29T18:47:28.798Z</time>
      </trkpt>
      <trkpt lat="48.84785" lon="2.27433">
        <ele>89.4</ele>
        <time>2015-06-29T18:47:29.739Z</time>
      </trkpt>
      <trkpt lat="48.8478" lon="2.2743">
        <ele>89.5</ele>
        <time>2015-06-29T18:47:30.730Z</time>
      </trkpt>
      <trkpt lat="48.84776" lon="2.27425">
        <ele>89.5</ele>
        <time>2015-06-29T18:47:31.735Z</time>
      </trkpt>
      <trkpt lat="48.84772" lon="2.27419">
        <ele>89.4</ele>
        <time>2015-06-29T18:47:32.778Z</time>
      </trkpt>
      <trkpt lat="48.84768" lon="2.27414">
        <ele>89.1</ele>
        <time>2015-06-29T18:47:33.785Z</time>
      </trkpt>
      <trkpt lat="48.84765" lon="2.27409">
        <ele>88.7</ele>
        <time>2015-06-29T18:47:34.792Z</time>
      </trkpt>
      <trkpt lat="48.84761" lon="2.27405">
        <ele>88.6</ele>
        <time>2015-06-29T18:47:35.802Z</time>
      </trkpt>
      <trkpt lat="48.84755" lon="2.274">
        <ele>88.1</ele>
        <time>2015-06-29T18:47:37.764Z</time>
      </trkpt>
      <trkpt lat="48.84753" lon="2.27397">
        <ele>88</ele>
        <time>2015-06-29T18:47:38.816Z</time>
      </trkpt>
      <trkpt lat="48.8475" lon="2.27385">
        <ele>87.7</ele>
        <time>2015-06-29T18:47:43.803Z</time>
      </trkpt>
      <trkpt lat="48.84751" lon="2.27378">
        <ele>87.8</ele>
        <time>2015-06-29T18:47:44.905Z</time>
      </trkpt>
      <trkpt lat="48.84749" lon="2.2737">
        <ele>87.3</ele>
        <time>2015-06-29T18:47:52.742Z</time>
      </trkpt>
      <trkpt lat="48.84749" lon="2.2737">
        <ele>87.2</ele>
        <time>2015-06-29T18:47:53.776Z</time>
      </trkpt>
      <trkpt lat="48.8475" lon="2.2737">
        <ele>87.3</ele>
        <time>2015-06-29T18:48:55.749Z</time>
      </trkpt>
      <trkpt lat="48.8475" lon="2.27358">
        <ele>87.5</ele>
        <time>2015-06-29T18:48:56.909Z</time>
      </trkpt>
      <trkpt lat="48.84742" lon="2.27354">
        <ele>87.4</ele>
        <time>2015-06-29T18:49:02.885Z</time>
      </trkpt>
      <trkpt lat="48.8474" lon="2.27354">
        <ele>87.9</ele>
        <time>2015-06-29T18:49:03.810Z</time>
      </trkpt>
      <trkpt lat="48.84739" lon="2.27352">
        <ele>88.7</ele>
        <time>2015-06-29T18:49:07.788Z</time>
      </trkpt>
      <trkpt lat="48.84739" lon="2.27351">
        <ele>88.3</ele>
        <time>2015-06-29T18:49:08.802Z</time>
      </trkpt>
      <trkpt lat="48.8474" lon="2.27351">
        <ele>87.8</ele>
        <time>2015-06-29T18:49:20.886Z</time>
      </trkpt>
      <trkpt lat="48.84737" lon="2.27362">
        <ele>90.7</ele>
        <time>2015-06-29T18:49:21.832Z</time>
      </trkpt>
      <trkpt lat="48.84729" lon="2.27366">
        <ele>93.1</ele>
        <time>2015-06-29T18:49:31.756Z</time>
      </trkpt>
      <trkpt lat="48.84728" lon="2.27364">
        <ele>93.4</ele>
        <time>2015-06-29T18:49:32.838Z</time>
      </trkpt>
      <trkpt lat="48.84726" lon="2.27363">
        <ele>94.1</ele>
        <time>2015-06-29T18:49:33.716Z</time>
      </trkpt>
      <trkpt lat="48.84726" lon="2.27362">
        <ele>94.4</ele>
        <time>2015-06-29T18:50:33.785Z</time>
      </trkpt>
      <trkpt lat="48.84723" lon="2.2736">
        <ele>97.3</ele>
        <time>2015-06-29T18:50:34.797Z</time>
      </trkpt>
      <trkpt lat="48.84716" lon="2.27353">
        <ele>97.6</ele>
        <time>2015-06-29T18:50:40.775Z</time>
      </trkpt>
      <trkpt lat="48.84714" lon="2.27352">
        <ele>97.6</ele>
        <time>2015-06-29T18:50:41.796Z</time>
      </trkpt>
      <trkpt lat="48.84707" lon="2.27348">
        <ele>97.5</ele>
        <time>2015-06-29T18:50:45.760Z</time>
      </trkpt>
      <trkpt lat="48.84704" lon="2.27347">
        <ele>97.5</ele>
        <time>2015-06-29T18:50:46.774Z</time>
      </trkpt>
      <trkpt lat="48.84697" lon="2.27343">
        <ele>96.6</ele>
        <time>2015-06-29T18:50:49.759Z</time>
      </trkpt>
      <trkpt lat="48.84693" lon="2.27341">
        <ele>95.5</ele>
        <time>2015-06-29T18:50:50.792Z</time>
      </trkpt>
      <trkpt lat="48.84687" lon="2.27338">
        <ele>94.1</ele>
        <time>2015-06-29T18:50:52.807Z</time>
      </trkpt>
      <trkpt lat="48.84683" lon="2.27337">
        <ele>93.2</ele>
        <time>2015-06-29T18:50:53.808Z</time>
      </trkpt>
      <trkpt lat="48.84675" lon="2.27333">
        <ele>92.2</ele>
        <time>2015-06-29T18:50:55.831Z</time>
      </trkpt>
      <trkpt lat="48.8467" lon="2.2733">
        <ele>91.9</ele>
        <time>2015-06-29T18:50:56.946Z</time>
      </trkpt>
      <trkpt lat="48.84666" lon="2.27327">
        <ele>91.7</ele>
        <time>2015-06-29T18:50:57.747Z</time>
      </trkpt>
      <trkpt lat="48.84661" lon="2.27324">
        <ele>91.1</ele>
        <time>2015-06-29T18:50:58.762Z</time>
      </trkpt>
      <trkpt lat="48.84657" lon="2.27321">
        <ele>90.6</ele>
        <time>2015-06-29T18:50:59.784Z</time>
      </trkpt>
      <trkpt lat="48.84652" lon="2.27319">
        <ele>90.1</ele>
        <time>2015-06-29T18:51:00.795Z</time>
      </trkpt>
      <trkpt lat="48.84647" lon="2.27315">
        <ele>89.8</ele>
        <time>2015-06-29T18:51:01.721Z</time>
      </trkpt>
      <trkpt lat="48.84642" lon="2.27311">
        <ele>89.7</ele>
        <time>2015-06-29T18:51:02.808Z</time>
      </trkpt>
      <trkpt lat="48.84638" lon="2.27306">
        <ele>89.4</ele>
        <time>2015-06-29T18:51:03.731Z</time>
      </trkpt>
      <trkpt lat="48.84633" lon="2.273">
        <ele>89.3</ele>
        <time>2015-06-29T18:51:04.733Z</time>
      </trkpt>
      <trkpt lat="48.84629" lon="2.27295">
        <ele>89.3</ele>
        <time>2015-06-29T18:51:05.753Z</time>
      </trkpt>
      <trkpt lat="48.84625" lon="2.27288">
        <ele>89.5</ele>
        <time>2015-06-29T18:51:06.770Z</time>
      </trkpt>
      <trkpt lat="48.84621" lon="2.27282">
        <ele>89.6</ele>
        <time>2015-06-29T18:51:07.785Z</time>
      </trkpt>
      <trkpt lat="48.84617" lon="2.27277">
        <ele>89.4</ele>
        <time>2015-06-29T18:51:08.791Z</time>
      </trkpt>
      <trkpt lat="48.84613" lon="2.27271">
        <ele>89.4</ele>
        <time>2015-06-29T18:51:09.801Z</time>
      </trkpt>
      <trkpt lat="48.84608" lon="2.27266">
        <ele>89.5</ele>
        <time>2015-06-29T18:51:10.753Z</time>
      </trkpt>
      <trkpt lat="48.84603" lon="2.27261">
        <ele>89.3</ele>
        <time>2015-06-29T18:51:11.770Z</time>
      </trkpt>
      <trkpt lat="48.84598" lon="2.27257">
        <ele>89.3</ele>
        <time>2015-06-29T18:51:12.774Z</time>
      </trkpt>
      <trkpt lat="48.84593" lon="2.27252">
        <ele>89.3</ele>
        <time>2015-06-29T18:51:13.791Z</time>
      </trkpt>
      <trkpt lat="48.84589" lon="2.27248">
        <ele>89.4</ele>
        <time>2015-06-29T18:51:14.802Z</time>
      </trkpt>
      <trkpt lat="48.84584" lon="2.27243">
        <ele>89.4</ele>
        <time>2015-06-29T18:51:15.723Z</time>
      </trkpt>
      <trkpt lat="48.84579" lon="2.27238">
        <ele>89.2</ele>
        <time>2015-06-29T18:51:16.752Z</time>
      </trkpt>
      <trkpt lat="48.84575" lon="2.27234">
        <ele>89</ele>
        <time>2015-06-29T18:51:17.730Z</time>
      </trkpt>
      <trkpt lat="48.8457" lon="2.27229">
        <ele>88.9</ele>
        <time>2015-06-29T18:51:18.752Z</time>
      </trkpt>
      <trkpt lat="48.84565" lon="2.27224">
        <ele>88.8</ele>
        <time>2015-06-29T18:51:19.758Z</time>
      </trkpt>
      <trkpt lat="48.84561" lon="2.27218">
        <ele>88.6</ele>
        <time>2015-06-29T18:51:20.777Z</time>
      </trkpt>
      <trkpt lat="48.84557" lon="2.27213">
        <ele>88.4</ele>
        <time>2015-06-29T18:51:21.787Z</time>
      </trkpt>
      <trkpt lat="48.84553" lon="2.27208">
        <ele>88.1</ele>
        <time>2015-06-29T18:51:22.792Z</time>
      </trkpt>
      <trkpt lat="48.84549" lon="2.27203">
        <ele>87.9</ele>
        <time>2015-06-29T18:51:23.734Z</time>
      </trkpt>
      <trkpt lat="48.84545" lon="2.27198">
        <ele>87.7</ele>
        <time>2015-06-29T18:51:24.729Z</time>
      </trkpt>
      <trkpt lat="48.84541" lon="2.27194">
        <ele>87.9</ele>
        <time>2015-06-29T18:51:25.729Z</time>
      </trkpt>
      <trkpt lat="48.84537" lon="2.2719">
        <ele>87.9</ele>
        <time>2015-06-29T18:51:26.774Z</time>
      </trkpt>
      <trkpt lat="48.84533" lon="2.27185">
        <ele>87.8</ele>
        <time>2015-06-29T18:51:27.760Z</time>
      </trkpt>
      <trkpt lat="48.84529" lon="2.27181">
        <ele>87.8</ele>
        <time>2015-06-29T18:51:28.765Z</time>
      </trkpt>
      <trkpt lat="48.84524" lon="2.27177">
        <ele>87.9</ele>
        <time>2015-06-29T18:51:29.785Z</time>
      </trkpt>
      <trkpt lat="48.8452" lon="2.27173">
        <ele>88</ele>
        <time>2015-06-29T18:51:30.795Z</time>
      </trkpt>
      <trkpt lat="48.84515" lon="2.27168">
        <ele>88</ele>
        <time>2015-06-29T18:51:31.806Z</time>
      </trkpt>
      <trkpt lat="48.8451" lon="2.27164">
        <ele>88</ele>
        <time>2015-06-29T18:51:32.831Z</time>
      </trkpt>
      <trkpt lat="48.84505" lon="2.2716">
        <ele>88.1</ele>
        <time>2015-06-29T18:51:33.719Z</time>
      </trkpt>
      <trkpt lat="48.84499" lon="2.27156">
        <ele>88</ele>
        <time>2015-06-29T18:51:34.730Z</time>
      </trkpt>
      <trkpt lat="48.84494" lon="2.27152">
        <ele>88</ele>
        <time>2015-06-29T18:51:35.725Z</time>
      </trkpt>
      <trkpt lat="48.8449" lon="2.27148">
        <ele>88</ele>
        <time>2015-06-29T18:51:36.738Z</time>
      </trkpt>
      <trkpt lat="48.84485" lon="2.27143">
        <ele>88</ele>
        <time>2015-06-29T18:51:37.752Z</time>
      </trkpt>
      <trkpt lat="48.8448" lon="2.2714">
        <ele>88</ele>
        <time>2015-06-29T18:51:38.787Z</time>
      </trkpt>
      <trkpt lat="48.84474" lon="2.27137">
        <ele>87.9</ele>
        <time>2015-06-29T18:51:39.784Z</time>
      </trkpt>
      <trkpt lat="48.84468" lon="2.27135">
        <ele>87.8</ele>
        <time>2015-06-29T18:51:40.796Z</time>
      </trkpt>
      <trkpt lat="48.84462" lon="2.27133">
        <ele>88</ele>
        <time>2015-06-29T18:51:41.711Z</time>
      </trkpt>
      <trkpt lat="48.84456" lon="2.27131">
        <ele>87.9</ele>
        <time>2015-06-29T18:51:42.730Z</time>
      </trkpt>
      <trkpt lat="48.84449" lon="2.27128">
        <ele>87.1</ele>
        <time>2015-06-29T18:51:43.716Z</time>
      </trkpt>
      <trkpt lat="48.84443" lon="2.27125">
        <ele>87</ele>
        <time>2015-06-29T18:51:44.751Z</time>
      </trkpt>
      <trkpt lat="48.84436" lon="2.27121">
        <ele>86.3</ele>
        <time>2015-06-29T18:51:45.762Z</time>
      </trkpt>
      <trkpt lat="48.8443" lon="2.27118">
        <ele>86.1</ele>
        <time>2015-06-29T18:51:46.768Z</time>
      </trkpt>
      <trkpt lat="48.84424" lon="2.27115">
        <ele>86</ele>
        <time>2015-06-29T18:51:47.778Z</time>
      </trkpt>
      <trkpt lat="48.84417" lon="2.27112">
        <ele>84.7</ele>
        <time>2015-06-29T18:51:48.799Z</time>
      </trkpt>
      <trkpt lat="48.84411" lon="2.27108">
        <ele>84.6</ele>
        <time>2015-06-29T18:51:49.805Z</time>
      </trkpt>
      <trkpt lat="48.84406" lon="2.27104">
        <ele>84.7</ele>
        <time>2015-06-29T18:51:50.830Z</time>
      </trkpt>
      <trkpt lat="48.844" lon="2.271">
        <ele>84.7</ele>
        <time>2015-06-29T18:51:51.724Z</time>
      </trkpt>
      <trkpt lat="48.84396" lon="2.27095">
        <ele>84.9</ele>
        <time>2015-06-29T18:51:52.724Z</time>
      </trkpt>
      <trkpt lat="48.84391" lon="2.27091">
        <ele>85.1</ele>
        <time>2015-06-29T18:51:53.731Z</time>
      </trkpt>
      <trkpt lat="48.84386" lon="2.27085">
        <ele>85.4</ele>
        <time>2015-06-29T18:51:54.736Z</time>
      </trkpt>
      <trkpt lat="48.84382" lon="2.27081">
        <ele>85.6</ele>
        <time>2015-06-29T18:51:55.751Z</time>
      </trkpt>
      <trkpt lat="48.84377" lon="2.27078">
        <ele>85.6</ele>
        <time>2015-06-29T18:51:56.776Z</time>
      </trkpt>
      <trkpt lat="48.84372" lon="2.27074">
        <ele>85.7</ele>
        <time>2015-06-29T18:51:57.780Z</time>
      </trkpt>
      <trkpt lat="48.84367" lon="2.2707">
        <ele>86</ele>
        <time>2015-06-29T18:51:58.840Z</time>
      </trkpt>
      <trkpt lat="48.84362" lon="2.27066">
        <ele>86.2</ele>
        <time>2015-06-29T18:51:59.788Z</time>
      </trkpt>
      <trkpt lat="48.84357" lon="2.27061">
        <ele>86.4</ele>
        <time>2015-06-29T18:52:00.709Z</time>
      </trkpt>
      <trkpt lat="48.84352" lon="2.27055">
        <ele>86.5</ele>
        <time>2015-06-29T18:52:01.721Z</time>
      </trkpt>
      <trkpt lat="48.84347" lon="2.2705">
        <ele>86.7</ele>
        <time>2015-06-29T18:52:02.808Z</time>
      </trkpt>
      <trkpt lat="48.84342" lon="2.27044">
        <ele>87.1</ele>
        <time>2015-06-29T18:52:03.733Z</time>
      </trkpt>
      <trkpt lat="48.84337" lon="2.27037">
        <ele>87.5</ele>
        <time>2015-06-29T18:52:04.727Z</time>
      </trkpt>
      <trkpt lat="48.84332" lon="2.27031">
        <ele>88.2</ele>
        <time>2015-06-29T18:52:05.730Z</time>
      </trkpt>
      <trkpt lat="48.84326" lon="2.27024">
        <ele>88.7</ele>
        <time>2015-06-29T18:52:06.751Z</time>
      </trkpt>
      <trkpt lat="48.84321" lon="2.27017">
        <ele>89</ele>
        <time>2015-06-29T18:52:07.767Z</time>
      </trkpt>
      <trkpt lat="48.84316" lon="2.2701">
        <ele>89.3</ele>
        <time>2015-06-29T18:52:08.774Z</time>
      </trkpt>
      <trkpt lat="48.84311" lon="2.27003">
        <ele>89.4</ele>
        <time>2015-06-29T18:52:09.697Z</time>
      </trkpt>
      <trkpt lat="48.84305" lon="2.26996">
        <ele>89.6</ele>
        <time>2015-06-29T18:52:10.706Z</time>
      </trkpt>
      <trkpt lat="48.84299" lon="2.26989">
        <ele>90</ele>
        <time>2015-06-29T18:52:11.721Z</time>
      </trkpt>
      <trkpt lat="48.84294" lon="2.26982">
        <ele>90.2</ele>
        <time>2015-06-29T18:52:12.726Z</time>
      </trkpt>
      <trkpt lat="48.84289" lon="2.26974">
        <ele>90.3</ele>
        <time>2015-06-29T18:52:13.736Z</time>
      </trkpt>
      <trkpt lat="48.84283" lon="2.26966">
        <ele>90.6</ele>
        <time>2015-06-29T18:52:14.745Z</time>
      </trkpt>
      <trkpt lat="48.84278" lon="2.26958">
        <ele>90.7</ele>
        <time>2015-06-29T18:52:15.756Z</time>
      </trkpt>
      <trkpt lat="48.84274" lon="2.26951">
        <ele>90.8</ele>
        <time>2015-06-29T18:52:16.767Z</time>
      </trkpt>
      <trkpt lat="48.84269" lon="2.26944">
        <ele>91</ele>
        <time>2015-06-29T18:52:17.790Z</time>
      </trkpt>
      <trkpt lat="48.84264" lon="2.26936">
        <ele>91.2</ele>
        <time>2015-06-29T18:52:18.791Z</time>
      </trkpt>
      <trkpt lat="48.8426" lon="2.26927">
        <ele>91.3</ele>
        <time>2015-06-29T18:52:19.713Z</time>
      </trkpt>
      <trkpt lat="48.84257" lon="2.26919">
        <ele>91.3</ele>
        <time>2015-06-29T18:52:20.754Z</time>
      </trkpt>
      <trkpt lat="48.84254" lon="2.26911">
        <ele>91.4</ele>
        <time>2015-06-29T18:52:21.748Z</time>
      </trkpt>
      <trkpt lat="48.84251" lon="2.26903">
        <ele>91.4</ele>
        <time>2015-06-29T18:52:22.757Z</time>
      </trkpt>
      <trkpt lat="48.84249" lon="2.26895">
        <ele>91.5</ele>
        <time>2015-06-29T18:52:23.715Z</time>
      </trkpt>
      <trkpt lat="48.84246" lon="2.26887">
        <ele>91.6</ele>
        <time>2015-06-29T18:52:24.716Z</time>
      </trkpt>
      <trkpt lat="48.84241" lon="2.26878">
        <ele>91.7</ele>
        <time>2015-06-29T18:52:25.716Z</time>
      </trkpt>
      <trkpt lat="48.84237" lon="2.26869">
        <ele>91.7</ele>
        <time>2015-06-29T18:52:26.753Z</time>
      </trkpt>
      <trkpt lat="48.84233" lon="2.2686">
        <ele>91.8</ele>
        <time>2015-06-29T18:52:27.749Z</time>
      </trkpt>
      <trkpt lat="48.84229" lon="2.2685">
        <ele>91.8</ele>
        <time>2015-06-29T18:52:28.759Z</time>
      </trkpt>
      <trkpt lat="48.84225" lon="2.2684">
        <ele>91.8</ele>
        <time>2015-06-29T18:52:29.769Z</time>
      </trkpt>
      <trkpt lat="48.8422" lon="2.2683">
        <ele>92</ele>
        <time>2015-06-29T18:52:30.781Z</time>
      </trkpt>
      <trkpt lat="48.84216" lon="2.26818">
        <ele>91.8</ele>
        <time>2015-06-29T18:52:31.790Z</time>
      </trkpt>
      <trkpt lat="48.84211" lon="2.26806">
        <ele>91.5</ele>
        <time>2015-06-29T18:52:32.791Z</time>
      </trkpt>
      <trkpt lat="48.84206" lon="2.26795">
        <ele>91.1</ele>
        <time>2015-06-29T18:52:33.684Z</time>
      </trkpt>
      <trkpt lat="48.84201" lon="2.26783">
        <ele>91.8</ele>
        <time>2015-06-29T18:52:34.746Z</time>
      </trkpt>
      <trkpt lat="48.84198" lon="2.26771">
        <ele>93</ele>
        <time>2015-06-29T18:52:35.659Z</time>
      </trkpt>
      <trkpt lat="48.84195" lon="2.26762">
        <ele>92.8</ele>
        <time>2015-06-29T18:52:36.692Z</time>
      </trkpt>
      <trkpt lat="48.84191" lon="2.26752">
        <ele>93.1</ele>
        <time>2015-06-29T18:52:37.704Z</time>
      </trkpt>
      <trkpt lat="48.84187" lon="2.26743">
        <ele>93.2</ele>
        <time>2015-06-29T18:52:38.729Z</time>
      </trkpt>
      <trkpt lat="48.84184" lon="2.26735">
        <ele>93.3</ele>
        <time>2015-06-29T18:52:39.727Z</time>
      </trkpt>
      <trkpt lat="48.8418" lon="2.26726">
        <ele>93.2</ele>
        <time>2015-06-29T18:52:40.742Z</time>
      </trkpt>
      <trkpt lat="48.84176" lon="2.26716">
        <ele>93.6</ele>
        <time>2015-06-29T18:52:41.758Z</time>
      </trkpt>
      <trkpt lat="48.84172" lon="2.26705">
        <ele>94.8</ele>
        <time>2015-06-29T18:52:42.671Z</time>
      </trkpt>
      <trkpt lat="48.84168" lon="2.26696">
        <ele>95.4</ele>
        <time>2015-06-29T18:52:43.706Z</time>
      </trkpt>
      <trkpt lat="48.84164" lon="2.26688">
        <ele>95.2</ele>
        <time>2015-06-29T18:52:44.731Z</time>
      </trkpt>
      <trkpt lat="48.8416" lon="2.2668">
        <ele>95.3</ele>
        <time>2015-06-29T18:52:45.744Z</time>
      </trkpt>
      <trkpt lat="48.84156" lon="2.26672">
        <ele>95.3</ele>
        <time>2015-06-29T18:52:46.750Z</time>
      </trkpt>
      <trkpt lat="48.84152" lon="2.26663">
        <ele>94.5</ele>
        <time>2015-06-29T18:52:47.747Z</time>
      </trkpt>
      <trkpt lat="48.84148" lon="2.26654">
        <ele>92.6</ele>
        <time>2015-06-29T18:52:48.757Z</time>
      </trkpt>
      <trkpt lat="48.84144" lon="2.26646">
        <ele>91.7</ele>
        <time>2015-06-29T18:52:49.773Z</time>
      </trkpt>
      <trkpt lat="48.8414" lon="2.2664">
        <ele>92.2</ele>
        <time>2015-06-29T18:52:50.787Z</time>
      </trkpt>
      <trkpt lat="48.84134" lon="2.26634">
        <ele>90.7</ele>
        <time>2015-06-29T18:52:51.790Z</time>
      </trkpt>
      <trkpt lat="48.84128" lon="2.26627">
        <ele>88.5</ele>
        <time>2015-06-29T18:52:52.842Z</time>
      </trkpt>
      <trkpt lat="48.84125" lon="2.26622">
        <ele>89</ele>
        <time>2015-06-29T18:52:53.760Z</time>
      </trkpt>
      <trkpt lat="48.84122" lon="2.26616">
        <ele>89.8</ele>
        <time>2015-06-29T18:52:54.741Z</time>
      </trkpt>
      <trkpt lat="48.84118" lon="2.26606">
        <ele>90.4</ele>
        <time>2015-06-29T18:52:56.747Z</time>
      </trkpt>
      <trkpt lat="48.84117" lon="2.26603">
        <ele>90.4</ele>
        <time>2015-06-29T18:52:57.756Z</time>
      </trkpt>
      <trkpt lat="48.84112" lon="2.26595">
        <ele>91.2</ele>
        <time>2015-06-29T18:53:00.734Z</time>
      </trkpt>
      <trkpt lat="48.84111" lon="2.2659">
        <ele>91.7</ele>
        <time>2015-06-29T18:53:01.744Z</time>
      </trkpt>
      <trkpt lat="48.84108" lon="2.26582">
        <ele>91.1</ele>
        <time>2015-06-29T18:53:03.717Z</time>
      </trkpt>
      <trkpt lat="48.84105" lon="2.26579">
        <ele>90.6</ele>
        <time>2015-06-29T18:53:04.736Z</time>
      </trkpt>
      <trkpt lat="48.841" lon="2.26571">
        <ele>90</ele>
        <time>2015-06-29T18:53:06.728Z</time>
      </trkpt>
      <trkpt lat="48.84098" lon="2.26567">
        <ele>90.3</ele>
        <time>2015-06-29T18:53:07.761Z</time>
      </trkpt>
      <trkpt lat="48.84094" lon="2.26559">
        <ele>89.6</ele>
        <time>2015-06-29T18:53:09.698Z</time>
      </trkpt>
      <trkpt lat="48.84092" lon="2.26555">
        <ele>89.5</ele>
        <time>2015-06-29T18:53:10.797Z</time>
      </trkpt>
      <trkpt lat="48.8409" lon="2.26544">
        <ele>88</ele>
        <time>2015-06-29T18:55:17.797Z</time>
      </trkpt>
      <trkpt lat="48.84093" lon="2.26534">
        <ele>92.2</ele>
        <time>2015-06-29T18:55:18.702Z</time>
      </trkpt>
      <trkpt lat="48.84088" lon="2.26525">
        <ele>92</ele>
        <time>2015-06-29T18:55:20.772Z</time>
      </trkpt>
      <trkpt lat="48.84086" lon="2.26518">
        <ele>92.1</ele>
        <time>2015-06-29T18:55:21.764Z</time>
      </trkpt>
      <trkpt lat="48.84083" lon="2.26509">
        <ele>92</ele>
        <time>2015-06-29T18:55:23.702Z</time>
      </trkpt>
      <trkpt lat="48.84082" lon="2.26504">
        <ele>92</ele>
        <time>2015-06-29T18:55:24.729Z</time>
      </trkpt>
      <trkpt lat="48.84078" lon="2.26495">
        <ele>91.9</ele>
        <time>2015-06-29T18:55:26.758Z</time>
      </trkpt>
      <trkpt lat="48.84076" lon="2.26491">
        <ele>92.1</ele>
        <time>2015-06-29T18:55:27.764Z</time>
      </trkpt>
      <trkpt lat="48.84073" lon="2.26482">
        <ele>92.5</ele>
        <time>2015-06-29T18:55:29.708Z</time>
      </trkpt>
      <trkpt lat="48.84069" lon="2.26476">
        <ele>92.7</ele>
        <time>2015-06-29T18:55:30.739Z</time>
      </trkpt>
      <trkpt lat="48.84066" lon="2.2647">
        <ele>92.9</ele>
        <time>2015-06-29T18:55:31.746Z</time>
      </trkpt>
      <trkpt lat="48.8406" lon="2.26464">
        <ele>92.9</ele>
        <time>2015-06-29T18:55:32.752Z</time>
      </trkpt>
      <trkpt lat="48.84055" lon="2.26459">
        <ele>92.9</ele>
        <time>2015-06-29T18:55:33.784Z</time>
      </trkpt>
      <trkpt lat="48.84049" lon="2.26453">
        <ele>92.8</ele>
        <time>2015-06-29T18:55:34.952Z</time>
      </trkpt>
      <trkpt lat="48.84043" lon="2.26445">
        <ele>92.8</ele>
        <time>2015-06-29T18:55:35.745Z</time>
      </trkpt>
      <trkpt lat="48.84037" lon="2.26436">
        <ele>92.8</ele>
        <time>2015-06-29T18:55:36.767Z</time>
      </trkpt>
      <trkpt lat="48.8403" lon="2.26427">
        <ele>92.9</ele>
        <time>2015-06-29T18:55:37.723Z</time>
      </trkpt>
      <trkpt lat="48.84026" lon="2.26419">
        <ele>93</ele>
        <time>2015-06-29T18:55:38.767Z</time>
      </trkpt>
      <trkpt lat="48.84021" lon="2.2641">
        <ele>93.4</ele>
        <time>2015-06-29T18:55:39.761Z</time>
      </trkpt>
      <trkpt lat="48.84014" lon="2.26403">
        <ele>93.8</ele>
        <time>2015-06-29T18:55:40.671Z</time>
      </trkpt>
      <trkpt lat="48.84003" lon="2.26395">
        <ele>93.9</ele>
        <time>2015-06-29T18:55:41.718Z</time>
      </trkpt>
      <trkpt lat="48.83996" lon="2.26388">
        <ele>93.8</ele>
        <time>2015-06-29T18:55:42.812Z</time>
      </trkpt>
      <trkpt lat="48.83992" lon="2.26382">
        <ele>93.6</ele>
        <time>2015-06-29T18:55:43.720Z</time>
      </trkpt>
      <trkpt lat="48.83988" lon="2.26375">
        <ele>93.5</ele>
        <time>2015-06-29T18:55:45.111Z</time>
      </trkpt>
      <trkpt lat="48.83984" lon="2.26367">
        <ele>93.7</ele>
        <time>2015-06-29T18:55:45.767Z</time>
      </trkpt>
      <trkpt lat="48.83981" lon="2.26359">
        <ele>93.5</ele>
        <time>2015-06-29T18:55:46.793Z</time>
      </trkpt>
      <trkpt lat="48.83977" lon="2.26355">
        <ele>92.8</ele>
        <time>2015-06-29T18:55:47.825Z</time>
      </trkpt>
      <trkpt lat="48.83971" lon="2.26352">
        <ele>92.6</ele>
        <time>2015-06-29T18:55:48.700Z</time>
      </trkpt>
      <trkpt lat="48.83967" lon="2.26347">
        <ele>92</ele>
        <time>2015-06-29T18:55:49.708Z</time>
      </trkpt>
      <trkpt lat="48.83963" lon="2.2634">
        <ele>92.1</ele>
        <time>2015-06-29T18:55:50.737Z</time>
      </trkpt>
      <trkpt lat="48.8396" lon="2.26333">
        <ele>92.3</ele>
        <time>2015-06-29T18:55:51.731Z</time>
      </trkpt>
      <trkpt lat="48.83957" lon="2.26324">
        <ele>92.5</ele>
        <time>2015-06-29T18:55:52.856Z</time>
      </trkpt>
      <trkpt lat="48.83956" lon="2.26314">
        <ele>92.5</ele>
        <time>2015-06-29T18:55:53.743Z</time>
      </trkpt>
      <trkpt lat="48.83954" lon="2.26305">
        <ele>92.7</ele>
        <time>2015-06-29T18:55:54.758Z</time>
      </trkpt>
      <trkpt lat="48.83952" lon="2.26296">
        <ele>92.8</ele>
        <time>2015-06-29T18:55:55.773Z</time>
      </trkpt>
      <trkpt lat="48.8395" lon="2.26287">
        <ele>92.5</ele>
        <time>2015-06-29T18:55:56.798Z</time>
      </trkpt>
      <trkpt lat="48.83948" lon="2.26277">
        <ele>92.5</ele>
        <time>2015-06-29T18:55:57.681Z</time>
      </trkpt>
      <trkpt lat="48.83946" lon="2.26269">
        <ele>92.5</ele>
        <time>2015-06-29T18:55:58.715Z</time>
      </trkpt>
      <trkpt lat="48.83944" lon="2.2626">
        <ele>92.5</ele>
        <time>2015-06-29T18:55:59.717Z</time>
      </trkpt>
      <trkpt lat="48.83941" lon="2.26251">
        <ele>92.4</ele>
        <time>2015-06-29T18:56:00.725Z</time>
      </trkpt>
      <trkpt lat="48.83939" lon="2.26242">
        <ele>92.6</ele>
        <time>2015-06-29T18:56:01.731Z</time>
      </trkpt>
      <trkpt lat="48.83936" lon="2.26233">
        <ele>92.6</ele>
        <time>2015-06-29T18:56:02.763Z</time>
      </trkpt>
      <trkpt lat="48.83933" lon="2.26224">
        <ele>92.7</ele>
        <time>2015-06-29T18:56:03.756Z</time>
      </trkpt>
      <trkpt lat="48.83931" lon="2.26214">
        <ele>92.9</ele>
        <time>2015-06-29T18:56:04.756Z</time>
      </trkpt>
      <trkpt lat="48.83929" lon="2.26203">
        <ele>92.7</ele>
        <time>2015-06-29T18:56:05.764Z</time>
      </trkpt>
      <trkpt lat="48.83926" lon="2.26193">
        <ele>92.8</ele>
        <time>2015-06-29T18:56:06.789Z</time>
      </trkpt>
      <trkpt lat="48.83924" lon="2.26185">
        <ele>92.6</ele>
        <time>2015-06-29T18:56:07.794Z</time>
      </trkpt>
      <trkpt lat="48.83921" lon="2.26175">
        <ele>92.3</ele>
        <time>2015-06-29T18:56:08.810Z</time>
      </trkpt>
      <trkpt lat="48.83918" lon="2.26166">
        <ele>92.3</ele>
        <time>2015-06-29T18:56:09.726Z</time>
      </trkpt>
      <trkpt lat="48.83915" lon="2.26156">
        <ele>92.3</ele>
        <time>2015-06-29T18:56:10.734Z</time>
      </trkpt>
      <trkpt lat="48.83913" lon="2.26146">
        <ele>92.3</ele>
        <time>2015-06-29T18:56:11.747Z</time>
      </trkpt>
      <trkpt lat="48.8391" lon="2.26137">
        <ele>92</ele>
        <time>2015-06-29T18:56:12.789Z</time>
      </trkpt>
      <trkpt lat="48.83907" lon="2.26129">
        <ele>92.1</ele>
        <time>2015-06-29T18:56:13.793Z</time>
      </trkpt>
      <trkpt lat="48.83904" lon="2.26121">
        <ele>92.1</ele>
        <time>2015-06-29T18:56:14.874Z</time>
      </trkpt>
      <trkpt lat="48.83902" lon="2.26111">
        <ele>92</ele>
        <time>2015-06-29T18:56:15.732Z</time>
      </trkpt>
      <trkpt lat="48.83901" lon="2.26102">
        <ele>92.1</ele>
        <time>2015-06-29T18:56:16.746Z</time>
      </trkpt>
      <trkpt lat="48.83899" lon="2.26092">
        <ele>92.1</ele>
        <time>2015-06-29T18:56:17.759Z</time>
      </trkpt>
      <trkpt lat="48.83897" lon="2.26082">
        <ele>92.6</ele>
        <time>2015-06-29T18:56:18.803Z</time>
      </trkpt>
      <trkpt lat="48.83895" lon="2.26074">
        <ele>92.6</ele>
        <time>2015-06-29T18:56:19.807Z</time>
      </trkpt>
      <trkpt lat="48.83893" lon="2.26064">
        <ele>92.9</ele>
        <time>2015-06-29T18:56:20.814Z</time>
      </trkpt>
      <trkpt lat="48.8389" lon="2.26055">
        <ele>93.3</ele>
        <time>2015-06-29T18:56:21.727Z</time>
      </trkpt>
      <trkpt lat="48.83889" lon="2.26045">
        <ele>93.8</ele>
        <time>2015-06-29T18:56:22.733Z</time>
      </trkpt>
      <trkpt lat="48.83882" lon="2.26035">
        <ele>93.7</ele>
        <time>2015-06-29T18:56:23.744Z</time>
      </trkpt>
      <trkpt lat="48.83879" lon="2.26025">
        <ele>93.6</ele>
        <time>2015-06-29T18:56:24.748Z</time>
      </trkpt>
      <trkpt lat="48.83874" lon="2.26014">
        <ele>94.1</ele>
        <time>2015-06-29T18:56:25.755Z</time>
      </trkpt>
      <trkpt lat="48.83871" lon="2.26003">
        <ele>93.9</ele>
        <time>2015-06-29T18:56:26.778Z</time>
      </trkpt>
      <trkpt lat="48.83866" lon="2.25992">
        <ele>94.4</ele>
        <time>2015-06-29T18:56:27.792Z</time>
      </trkpt>
      <trkpt lat="48.83863" lon="2.2598">
        <ele>94.8</ele>
        <time>2015-06-29T18:56:28.725Z</time>
      </trkpt>
      <trkpt lat="48.8386" lon="2.25969">
        <ele>94.9</ele>
        <time>2015-06-29T18:56:29.723Z</time>
      </trkpt>
      <trkpt lat="48.83857" lon="2.25958">
        <ele>95.4</ele>
        <time>2015-06-29T18:56:30.724Z</time>
      </trkpt>
      <trkpt lat="48.83855" lon="2.25946">
        <ele>95.4</ele>
        <time>2015-06-29T18:56:31.728Z</time>
      </trkpt>
      <trkpt lat="48.83852" lon="2.25934">
        <ele>96.3</ele>
        <time>2015-06-29T18:56:32.767Z</time>
      </trkpt>
      <trkpt lat="48.83849" lon="2.25922">
        <ele>96.3</ele>
        <time>2015-06-29T18:56:33.772Z</time>
      </trkpt>
      <trkpt lat="48.83846" lon="2.25912">
        <ele>96.7</ele>
        <time>2015-06-29T18:56:34.791Z</time>
      </trkpt>
      <trkpt lat="48.83844" lon="2.25902">
        <ele>97.2</ele>
        <time>2015-06-29T18:56:35.800Z</time>
      </trkpt>
      <trkpt lat="48.8384" lon="2.25892">
        <ele>97.3</ele>
        <time>2015-06-29T18:56:36.703Z</time>
      </trkpt>
      <trkpt lat="48.83837" lon="2.25879">
        <ele>97.2</ele>
        <time>2015-06-29T18:56:37.719Z</time>
      </trkpt>
      <trkpt lat="48.83834" lon="2.25867">
        <ele>97.4</ele>
        <time>2015-06-29T18:56:38.776Z</time>
      </trkpt>
      <trkpt lat="48.8383" lon="2.25855">
        <ele>96.5</ele>
        <time>2015-06-29T18:56:39.765Z</time>
      </trkpt>
      <trkpt lat="48.83824" lon="2.25842">
        <ele>94.3</ele>
        <time>2015-06-29T18:56:40.792Z</time>
      </trkpt>
      <trkpt lat="48.83821" lon="2.25831">
        <ele>93.9</ele>
        <time>2015-06-29T18:56:41.795Z</time>
      </trkpt>
      <trkpt lat="48.83817" lon="2.2582">
        <ele>93.3</ele>
        <time>2015-06-29T18:56:42.810Z</time>
      </trkpt>
      <trkpt lat="48.83815" lon="2.2581">
        <ele>93.1</ele>
        <time>2015-06-29T18:56:43.735Z</time>
      </trkpt>
      <trkpt lat="48.83812" lon="2.25801">
        <ele>92.8</ele>
        <time>2015-06-29T18:56:44.820Z</time>
      </trkpt>
      <trkpt lat="48.83809" lon="2.25793">
        <ele>91.7</ele>
        <time>2015-06-29T18:56:45.763Z</time>
      </trkpt>
      <trkpt lat="48.83807" lon="2.25784">
        <ele>91</ele>
        <time>2015-06-29T18:56:46.766Z</time>
      </trkpt>
      <trkpt lat="48.83806" lon="2.25775">
        <ele>90.8</ele>
        <time>2015-06-29T18:56:47.778Z</time>
      </trkpt>
      <trkpt lat="48.83808" lon="2.25767">
        <ele>90.7</ele>
        <time>2015-06-29T18:56:48.788Z</time>
      </trkpt>
      <trkpt lat="48.83811" lon="2.2576">
        <ele>91.1</ele>
        <time>2015-06-29T18:56:49.808Z</time>
      </trkpt>
      <trkpt lat="48.83815" lon="2.25755">
        <ele>91.3</ele>
        <time>2015-06-29T18:56:50.819Z</time>
      </trkpt>
      <trkpt lat="48.83819" lon="2.25752">
        <ele>91.6</ele>
        <time>2015-06-29T18:56:51.738Z</time>
      </trkpt>
      <trkpt lat="48.83823" lon="2.25748">
        <ele>91.7</ele>
        <time>2015-06-29T18:56:52.834Z</time>
      </trkpt>
      <trkpt lat="48.83827" lon="2.25738">
        <ele>92</ele>
        <time>2015-06-29T18:56:54.740Z</time>
      </trkpt>
      <trkpt lat="48.83829" lon="2.25734">
        <ele>91.9</ele>
        <time>2015-06-29T18:56:55.754Z</time>
      </trkpt>
      <trkpt lat="48.83833" lon="2.25726">
        <ele>92.3</ele>
        <time>2015-06-29T18:56:57.741Z</time>
      </trkpt>
      <trkpt lat="48.83835" lon="2.25723">
        <ele>92.3</ele>
        <time>2015-06-29T18:56:58.765Z</time>
      </trkpt>
      <trkpt lat="48.83839" lon="2.25713">
        <ele>92.4</ele>
        <time>2015-06-29T18:57:01.759Z</time>
      </trkpt>
      <trkpt lat="48.8384" lon="2.25711">
        <ele>92.8</ele>
        <time>2015-06-29T18:57:02.793Z</time>
      </trkpt>
      <trkpt lat="48.83844" lon="2.257">
        <ele>90.7</ele>
        <time>2015-06-29T18:57:50.817Z</time>
      </trkpt>
      <trkpt lat="48.83843" lon="2.25695">
        <ele>90.6</ele>
        <time>2015-06-29T18:57:51.714Z</time>
      </trkpt>
      <trkpt lat="48.83841" lon="2.25684">
        <ele>90.4</ele>
        <time>2015-06-29T18:57:53.739Z</time>
      </trkpt>
      <trkpt lat="48.83839" lon="2.25678">
        <ele>90.5</ele>
        <time>2015-06-29T18:57:54.719Z</time>
      </trkpt>
      <trkpt lat="48.83836" lon="2.25666">
        <ele>90.7</ele>
        <time>2015-06-29T18:57:56.796Z</time>
      </trkpt>
      <trkpt lat="48.83833" lon="2.2566">
        <ele>90.6</ele>
        <time>2015-06-29T18:57:57.804Z</time>
      </trkpt>
      <trkpt lat="48.83831" lon="2.25654">
        <ele>90.4</ele>
        <time>2015-06-29T18:57:58.747Z</time>
      </trkpt>
      <trkpt lat="48.83828" lon="2.25647">
        <ele>90.6</ele>
        <time>2015-06-29T18:57:59.740Z</time>
      </trkpt>
      <trkpt lat="48.83826" lon="2.2564">
        <ele>90.4</ele>
        <time>2015-06-29T18:58:00.752Z</time>
      </trkpt>
      <trkpt lat="48.83825" lon="2.25632">
        <ele>90.2</ele>
        <time>2015-06-29T18:58:01.761Z</time>
      </trkpt>
      <trkpt lat="48.83825" lon="2.25624">
        <ele>90.1</ele>
        <time>2015-06-29T18:58:02.827Z</time>
      </trkpt>
      <trkpt lat="48.83827" lon="2.25617">
        <ele>89.9</ele>
        <time>2015-06-29T18:58:03.808Z</time>
      </trkpt>
      <trkpt lat="48.83828" lon="2.2561">
        <ele>90.1</ele>
        <time>2015-06-29T18:58:04.750Z</time>
      </trkpt>
      <trkpt lat="48.8383" lon="2.25603">
        <ele>90.2</ele>
        <time>2015-06-29T18:58:05.757Z</time>
      </trkpt>
      <trkpt lat="48.83831" lon="2.25597">
        <ele>90.5</ele>
        <time>2015-06-29T18:58:06.766Z</time>
      </trkpt>
      <trkpt lat="48.83832" lon="2.2559">
        <ele>90.6</ele>
        <time>2015-06-29T18:58:07.782Z</time>
      </trkpt>
      <trkpt lat="48.83833" lon="2.25583">
        <ele>90.5</ele>
        <time>2015-06-29T18:58:08.801Z</time>
      </trkpt>
      <trkpt lat="48.83834" lon="2.25576">
        <ele>90.3</ele>
        <time>2015-06-29T18:58:09.804Z</time>
      </trkpt>
      <trkpt lat="48.83834" lon="2.25569">
        <ele>90.3</ele>
        <time>2015-06-29T18:58:10.728Z</time>
      </trkpt>
      <trkpt lat="48.83835" lon="2.25562">
        <ele>90.4</ele>
        <time>2015-06-29T18:58:11.750Z</time>
      </trkpt>
      <trkpt lat="48.83836" lon="2.25555">
        <ele>90.3</ele>
        <time>2015-06-29T18:58:12.754Z</time>
      </trkpt>
      <trkpt lat="48.83837" lon="2.25548">
        <ele>90.2</ele>
        <time>2015-06-29T18:58:13.793Z</time>
      </trkpt>
      <trkpt lat="48.8384" lon="2.25541">
        <ele>90.1</ele>
        <time>2015-06-29T18:58:14.805Z</time>
      </trkpt>
      <trkpt lat="48.83842" lon="2.25535">
        <ele>90</ele>
        <time>2015-06-29T18:58:15.820Z</time>
      </trkpt>
      <trkpt lat="48.83845" lon="2.2553">
        <ele>90.2</ele>
        <time>2015-06-29T18:58:17.095Z</time>
      </trkpt>
      <trkpt lat="48.83847" lon="2.25523">
        <ele>90.7</ele>
        <time>2015-06-29T18:58:17.739Z</time>
      </trkpt>
      <trkpt lat="48.83849" lon="2.25517">
        <ele>90.8</ele>
        <time>2015-06-29T18:58:18.732Z</time>
      </trkpt>
      <trkpt lat="48.83852" lon="2.2551">
        <ele>90.8</ele>
        <time>2015-06-29T18:58:19.746Z</time>
      </trkpt>
      <trkpt lat="48.83855" lon="2.25504">
        <ele>90.9</ele>
        <time>2015-06-29T18:58:20.795Z</time>
      </trkpt>
      <trkpt lat="48.83857" lon="2.25498">
        <ele>90.9</ele>
        <time>2015-06-29T18:58:21.787Z</time>
      </trkpt>
      <trkpt lat="48.8386" lon="2.25486">
        <ele>91</ele>
        <time>2015-06-29T18:58:23.818Z</time>
      </trkpt>
      <trkpt lat="48.83862" lon="2.2548">
        <ele>91</ele>
        <time>2015-06-29T18:58:24.830Z</time>
      </trkpt>
      <trkpt lat="48.83866" lon="2.2547">
        <ele>90.5</ele>
        <time>2015-06-29T18:58:26.851Z</time>
      </trkpt>
      <trkpt lat="48.83867" lon="2.25466">
        <ele>90.6</ele>
        <time>2015-06-29T18:58:27.730Z</time>
      </trkpt>
      <trkpt lat="48.83868" lon="2.25453">
        <ele>91.2</ele>
        <time>2015-06-29T18:58:30.814Z</time>
      </trkpt>
      <trkpt lat="48.83868" lon="2.25449">
        <ele>91</ele>
        <time>2015-06-29T18:58:31.765Z</time>
      </trkpt>
      <trkpt lat="48.83869" lon="2.25437">
        <ele>90</ele>
        <time>2015-06-29T18:58:34.760Z</time>
      </trkpt>
      <trkpt lat="48.8387" lon="2.25433">
        <ele>89.7</ele>
        <time>2015-06-29T18:58:35.785Z</time>
      </trkpt>
      <trkpt lat="48.83871" lon="2.25423">
        <ele>89.4</ele>
        <time>2015-06-29T18:58:37.717Z</time>
      </trkpt>
      <trkpt lat="48.83872" lon="2.25419">
        <ele>89.5</ele>
        <time>2015-06-29T18:58:38.822Z</time>
      </trkpt>
      <trkpt lat="48.83872" lon="2.25409">
        <ele>89.8</ele>
        <time>2015-06-29T18:58:40.742Z</time>
      </trkpt>
      <trkpt lat="48.83872" lon="2.25404">
        <ele>89.8</ele>
        <time>2015-06-29T18:58:41.761Z</time>
      </trkpt>
      <trkpt lat="48.83871" lon="2.25391">
        <ele>90.1</ele>
        <time>2015-06-29T18:58:44.815Z</time>
      </trkpt>
      <trkpt lat="48.8387" lon="2.25387">
        <ele>90.2</ele>
        <time>2015-06-29T18:58:45.763Z</time>
      </trkpt>
      <trkpt lat="48.83867" lon="2.25377">
        <ele>90.2</ele>
        <time>2015-06-29T18:58:47.752Z</time>
      </trkpt>
      <trkpt lat="48.83866" lon="2.25372">
        <ele>90.4</ele>
        <time>2015-06-29T18:58:48.765Z</time>
      </trkpt>
      <trkpt lat="48.83863" lon="2.2536">
        <ele>90.8</ele>
        <time>2015-06-29T18:58:50.818Z</time>
      </trkpt>
      <trkpt lat="48.83862" lon="2.25354">
        <ele>90.8</ele>
        <time>2015-06-29T18:58:51.833Z</time>
      </trkpt>
      <trkpt lat="48.83861" lon="2.25347">
        <ele>90.7</ele>
        <time>2015-06-29T18:58:52.736Z</time>
      </trkpt>
      <trkpt lat="48.8386" lon="2.25341">
        <ele>90.6</ele>
        <time>2015-06-29T18:58:53.753Z</time>
      </trkpt>
      <trkpt lat="48.83859" lon="2.25333">
        <ele>90.6</ele>
        <time>2015-06-29T18:58:54.760Z</time>
      </trkpt>
      <trkpt lat="48.83859" lon="2.25327">
        <ele>90.6</ele>
        <time>2015-06-29T18:58:55.772Z</time>
      </trkpt>
      <trkpt lat="48.83858" lon="2.2532">
        <ele>90.3</ele>
        <time>2015-06-29T18:58:56.792Z</time>
      </trkpt>
      <trkpt lat="48.83857" lon="2.25312">
        <ele>90.4</ele>
        <time>2015-06-29T18:58:57.808Z</time>
      </trkpt>
      <trkpt lat="48.83857" lon="2.25305">
        <ele>90.8</ele>
        <time>2015-06-29T18:58:58.737Z</time>
      </trkpt>
      <trkpt lat="48.83857" lon="2.25298">
        <ele>90.9</ele>
        <time>2015-06-29T18:58:59.739Z</time>
      </trkpt>
      <trkpt lat="48.83858" lon="2.25291">
        <ele>90.9</ele>
        <time>2015-06-29T18:59:00.750Z</time>
      </trkpt>
      <trkpt lat="48.83858" lon="2.25284">
        <ele>91.1</ele>
        <time>2015-06-29T18:59:01.762Z</time>
      </trkpt>
      <trkpt lat="48.83859" lon="2.25277">
        <ele>91.2</ele>
        <time>2015-06-29T18:59:02.798Z</time>
      </trkpt>
      <trkpt lat="48.8386" lon="2.2527">
        <ele>91.1</ele>
        <time>2015-06-29T18:59:03.801Z</time>
      </trkpt>
      <trkpt lat="48.83861" lon="2.25256">
        <ele>90.7</ele>
        <time>2015-06-29T18:59:05.739Z</time>
      </trkpt>
      <trkpt lat="48.83861" lon="2.2525">
        <ele>90.8</ele>
        <time>2015-06-29T18:59:06.762Z</time>
      </trkpt>
      <trkpt lat="48.83862" lon="2.25243">
        <ele>91.1</ele>
        <time>2015-06-29T18:59:07.763Z</time>
      </trkpt>
      <trkpt lat="48.83863" lon="2.25236">
        <ele>91</ele>
        <time>2015-06-29T18:59:08.797Z</time>
      </trkpt>
      <trkpt lat="48.83864" lon="2.25228">
        <ele>91.1</ele>
        <time>2015-06-29T18:59:09.939Z</time>
      </trkpt>
      <trkpt lat="48.83865" lon="2.25222">
        <ele>91.2</ele>
        <time>2015-06-29T18:59:10.764Z</time>
      </trkpt>
      <trkpt lat="48.83865" lon="2.25214">
        <ele>92</ele>
        <time>2015-06-29T18:59:11.772Z</time>
      </trkpt>
      <trkpt lat="48.83865" lon="2.25207">
        <ele>92.5</ele>
        <time>2015-06-29T18:59:12.738Z</time>
      </trkpt>
      <trkpt lat="48.83863" lon="2.25199">
        <ele>93.1</ele>
        <time>2015-06-29T18:59:13.744Z</time>
      </trkpt>
      <trkpt lat="48.83863" lon="2.25193">
        <ele>93</ele>
        <time>2015-06-29T18:59:14.833Z</time>
      </trkpt>
      <trkpt lat="48.83861" lon="2.25179">
        <ele>93.4</ele>
        <time>2015-06-29T18:59:16.835Z</time>
      </trkpt>
      <trkpt lat="48.83861" lon="2.25172">
        <ele>93.8</ele>
        <time>2015-06-29T18:59:17.760Z</time>
      </trkpt>
      <trkpt lat="48.83859" lon="2.25159">
        <ele>94.7</ele>
        <time>2015-06-29T18:59:19.751Z</time>
      </trkpt>
      <trkpt lat="48.8386" lon="2.25152">
        <ele>94.8</ele>
        <time>2015-06-29T18:59:20.870Z</time>
      </trkpt>
      <trkpt lat="48.83861" lon="2.25139">
        <ele>94.9</ele>
        <time>2015-06-29T18:59:22.732Z</time>
      </trkpt>
      <trkpt lat="48.83862" lon="2.25133">
        <ele>94.8</ele>
        <time>2015-06-29T18:59:23.820Z</time>
      </trkpt>
      <trkpt lat="48.83864" lon="2.25121">
        <ele>95.2</ele>
        <time>2015-06-29T18:59:25.739Z</time>
      </trkpt>
      <trkpt lat="48.83866" lon="2.25116">
        <ele>95.3</ele>
        <time>2015-06-29T18:59:26.775Z</time>
      </trkpt>
      <trkpt lat="48.83871" lon="2.25107">
        <ele>96.2</ele>
        <time>2015-06-29T18:59:29.729Z</time>
      </trkpt>
      <trkpt lat="48.83872" lon="2.25105">
        <ele>96.6</ele>
        <time>2015-06-29T18:59:30.728Z</time>
      </trkpt>
      <trkpt lat="48.8388" lon="2.25101">
        <ele>96.4</ele>
        <time>2015-06-29T18:59:32.797Z</time>
      </trkpt>
      <trkpt lat="48.83882" lon="2.25097">
        <ele>96.7</ele>
        <time>2015-06-29T18:59:33.805Z</time>
      </trkpt>
      <trkpt lat="48.83885" lon="2.25092">
        <ele>96.4</ele>
        <time>2015-06-29T18:59:34.820Z</time>
      </trkpt>
      <trkpt lat="48.83888" lon="2.25086">
        <ele>96.3</ele>
        <time>2015-06-29T18:59:35.725Z</time>
      </trkpt>
      <trkpt lat="48.8389" lon="2.25079">
        <ele>96.1</ele>
        <time>2015-06-29T18:59:36.752Z</time>
      </trkpt>
      <trkpt lat="48.83893" lon="2.25073">
        <ele>96.1</ele>
        <time>2015-06-29T18:59:37.758Z</time>
      </trkpt>
      <trkpt lat="48.83896" lon="2.25068">
        <ele>96.2</ele>
        <time>2015-06-29T18:59:38.781Z</time>
      </trkpt>
      <trkpt lat="48.83898" lon="2.25061">
        <ele>96.2</ele>
        <time>2015-06-29T18:59:39.796Z</time>
      </trkpt>
      <trkpt lat="48.839" lon="2.25055">
        <ele>96.3</ele>
        <time>2015-06-29T18:59:40.728Z</time>
      </trkpt>
      <trkpt lat="48.83902" lon="2.25048">
        <ele>96.5</ele>
        <time>2015-06-29T18:59:41.731Z</time>
      </trkpt>
      <trkpt lat="48.83905" lon="2.25041">
        <ele>96.4</ele>
        <time>2015-06-29T18:59:42.740Z</time>
      </trkpt>
      <trkpt lat="48.83909" lon="2.25035">
        <ele>96.7</ele>
        <time>2015-06-29T18:59:43.743Z</time>
      </trkpt>
      <trkpt lat="48.83914" lon="2.25029">
        <ele>96.6</ele>
        <time>2015-06-29T18:59:44.788Z</time>
      </trkpt>
      <trkpt lat="48.83916" lon="2.25022">
        <ele>96.4</ele>
        <time>2015-06-29T18:59:45.792Z</time>
      </trkpt>
      <trkpt lat="48.83917" lon="2.25014">
        <ele>95.8</ele>
        <time>2015-06-29T18:59:46.800Z</time>
      </trkpt>
      <trkpt lat="48.83919" lon="2.25006">
        <ele>95.7</ele>
        <time>2015-06-29T18:59:47.727Z</time>
      </trkpt>
      <trkpt lat="48.8392" lon="2.24998">
        <ele>95.3</ele>
        <time>2015-06-29T18:59:48.723Z</time>
      </trkpt>
      <trkpt lat="48.83921" lon="2.2499">
        <ele>94.9</ele>
        <time>2015-06-29T18:59:49.722Z</time>
      </trkpt>
      <trkpt lat="48.83922" lon="2.24983">
        <ele>95</ele>
        <time>2015-06-29T18:59:50.767Z</time>
      </trkpt>
      <trkpt lat="48.83924" lon="2.24975">
        <ele>95</ele>
        <time>2015-06-29T18:59:51.775Z</time>
      </trkpt>
      <trkpt lat="48.83926" lon="2.24968">
        <ele>95.3</ele>
        <time>2015-06-29T18:59:52.782Z</time>
      </trkpt>
      <trkpt lat="48.83928" lon="2.2496">
        <ele>95.6</ele>
        <time>2015-06-29T18:59:53.797Z</time>
      </trkpt>
      <trkpt lat="48.8393" lon="2.24953">
        <ele>95.6</ele>
        <time>2015-06-29T18:59:54.699Z</time>
      </trkpt>
      <trkpt lat="48.83932" lon="2.24945">
        <ele>95.6</ele>
        <time>2015-06-29T18:59:55.726Z</time>
      </trkpt>
      <trkpt lat="48.83932" lon="2.24937">
        <ele>95.7</ele>
        <time>2015-06-29T18:59:56.771Z</time>
      </trkpt>
      <trkpt lat="48.83932" lon="2.24929">
        <ele>95.9</ele>
        <time>2015-06-29T18:59:57.781Z</time>
      </trkpt>
      <trkpt lat="48.83933" lon="2.24921">
        <ele>95.9</ele>
        <time>2015-06-29T18:59:58.788Z</time>
      </trkpt>
      <trkpt lat="48.83934" lon="2.24914">
        <ele>96.1</ele>
        <time>2015-06-29T18:59:59.794Z</time>
      </trkpt>
      <trkpt lat="48.83935" lon="2.24908">
        <ele>96</ele>
        <time>2015-06-29T19:00:00.812Z</time>
      </trkpt>
      <trkpt lat="48.83937" lon="2.24901">
        <ele>96.1</ele>
        <time>2015-06-29T19:00:01.763Z</time>
      </trkpt>
      <trkpt lat="48.8394" lon="2.24894">
        <ele>96.1</ele>
        <time>2015-06-29T19:00:02.773Z</time>
      </trkpt>
      <trkpt lat="48.83938" lon="2.24885">
        <ele>97.1</ele>
        <time>2015-06-29T19:00:03.787Z</time>
      </trkpt>
      <trkpt lat="48.83939" lon="2.24878">
        <ele>96.7</ele>
        <time>2015-06-29T19:00:04.795Z</time>
      </trkpt>
      <trkpt lat="48.8394" lon="2.2487">
        <ele>96.5</ele>
        <time>2015-06-29T19:00:05.802Z</time>
      </trkpt>
      <trkpt lat="48.83943" lon="2.24863">
        <ele>95.7</ele>
        <time>2015-06-29T19:00:06.727Z</time>
      </trkpt>
      <trkpt lat="48.83946" lon="2.24856">
        <ele>95.4</ele>
        <time>2015-06-29T19:00:07.729Z</time>
      </trkpt>
      <trkpt lat="48.83949" lon="2.24848">
        <ele>95.3</ele>
        <time>2015-06-29T19:00:08.798Z</time>
      </trkpt>
      <trkpt lat="48.83952" lon="2.24842">
        <ele>95.2</ele>
        <time>2015-06-29T19:00:09.725Z</time>
      </trkpt>
      <trkpt lat="48.83953" lon="2.24835">
        <ele>95.4</ele>
        <time>2015-06-29T19:00:10.716Z</time>
      </trkpt>
      <trkpt lat="48.83953" lon="2.24827">
        <ele>95.5</ele>
        <time>2015-06-29T19:00:11.753Z</time>
      </trkpt>
      <trkpt lat="48.83957" lon="2.24821">
        <ele>96.3</ele>
        <time>2015-06-29T19:00:12.762Z</time>
      </trkpt>
      <trkpt lat="48.83959" lon="2.24814">
        <ele>96.7</ele>
        <time>2015-06-29T19:00:13.777Z</time>
      </trkpt>
      <trkpt lat="48.83962" lon="2.24808">
        <ele>97.4</ele>
        <time>2015-06-29T19:00:14.785Z</time>
      </trkpt>
      <trkpt lat="48.83964" lon="2.24801">
        <ele>97.7</ele>
        <time>2015-06-29T19:00:15.789Z</time>
      </trkpt>
      <trkpt lat="48.83966" lon="2.24793">
        <ele>97.4</ele>
        <time>2015-06-29T19:00:16.753Z</time>
      </trkpt>
      <trkpt lat="48.83967" lon="2.24786">
        <ele>97.3</ele>
        <time>2015-06-29T19:00:17.986Z</time>
      </trkpt>
      <trkpt lat="48.83968" lon="2.24779">
        <ele>97.2</ele>
        <time>2015-06-29T19:00:18.736Z</time>
      </trkpt>
      <trkpt lat="48.83969" lon="2.24772">
        <ele>97</ele>
        <time>2015-06-29T19:00:19.743Z</time>
      </trkpt>
      <trkpt lat="48.83971" lon="2.24765">
        <ele>96.8</ele>
        <time>2015-06-29T19:00:20.778Z</time>
      </trkpt>
      <trkpt lat="48.83972" lon="2.24757">
        <ele>96.1</ele>
        <time>2015-06-29T19:00:21.786Z</time>
      </trkpt>
      <trkpt lat="48.8397" lon="2.24749">
        <ele>96.5</ele>
        <time>2015-06-29T19:00:22.796Z</time>
      </trkpt>
      <trkpt lat="48.83971" lon="2.24742">
        <ele>96.4</ele>
        <time>2015-06-29T19:00:23.709Z</time>
      </trkpt>
      <trkpt lat="48.83973" lon="2.24731">
        <ele>96.5</ele>
        <time>2015-06-29T19:00:25.752Z</time>
      </trkpt>
      <trkpt lat="48.83975" lon="2.24726">
        <ele>96.6</ele>
        <time>2015-06-29T19:00:26.784Z</time>
      </trkpt>
      <trkpt lat="48.83971" lon="2.24719">
        <ele>97.6</ele>
        <time>2015-06-29T19:00:42.762Z</time>
      </trkpt>
      <trkpt lat="48.83971" lon="2.24713">
        <ele>97.4</ele>
        <time>2015-06-29T19:00:43.760Z</time>
      </trkpt>
      <trkpt lat="48.83974" lon="2.24701">
        <ele>97.2</ele>
        <time>2015-06-29T19:00:45.732Z</time>
      </trkpt>
      <trkpt lat="48.83976" lon="2.24695">
        <ele>96.6</ele>
        <time>2015-06-29T19:00:46.735Z</time>
      </trkpt>
      <trkpt lat="48.83978" lon="2.24687">
        <ele>96.1</ele>
        <time>2015-06-29T19:00:47.755Z</time>
      </trkpt>
      <trkpt lat="48.83979" lon="2.2468">
        <ele>95.9</ele>
        <time>2015-06-29T19:00:48.793Z</time>
      </trkpt>
      <trkpt lat="48.83982" lon="2.24672">
        <ele>95.7</ele>
        <time>2015-06-29T19:00:49.753Z</time>
      </trkpt>
      <trkpt lat="48.83981" lon="2.24664">
        <ele>96.4</ele>
        <time>2015-06-29T19:00:50.820Z</time>
      </trkpt>
      <trkpt lat="48.83983" lon="2.24657">
        <ele>96.4</ele>
        <time>2015-06-29T19:00:51.789Z</time>
      </trkpt>
      <trkpt lat="48.83985" lon="2.24649">
        <ele>96</ele>
        <time>2015-06-29T19:00:52.788Z</time>
      </trkpt>
      <trkpt lat="48.83987" lon="2.24641">
        <ele>95.9</ele>
        <time>2015-06-29T19:00:53.793Z</time>
      </trkpt>
      <trkpt lat="48.83989" lon="2.24633">
        <ele>95.6</ele>
        <time>2015-06-29T19:00:54.803Z</time>
      </trkpt>
      <trkpt lat="48.8399" lon="2.24626">
        <ele>95.5</ele>
        <time>2015-06-29T19:00:55.812Z</time>
      </trkpt>
      <trkpt lat="48.83992" lon="2.24619">
        <ele>95.5</ele>
        <time>2015-06-29T19:00:56.828Z</time>
      </trkpt>
      <trkpt lat="48.83993" lon="2.24612">
        <ele>95.7</ele>
        <time>2015-06-29T19:00:57.727Z</time>
      </trkpt>
      <trkpt lat="48.83995" lon="2.24605">
        <ele>95.6</ele>
        <time>2015-06-29T19:00:58.768Z</time>
      </trkpt>
      <trkpt lat="48.83996" lon="2.24598">
        <ele>95.4</ele>
        <time>2015-06-29T19:00:59.740Z</time>
      </trkpt>
      <trkpt lat="48.83997" lon="2.24591">
        <ele>95.2</ele>
        <time>2015-06-29T19:01:00.764Z</time>
      </trkpt>
      <trkpt lat="48.83999" lon="2.24583">
        <ele>95.2</ele>
        <time>2015-06-29T19:01:01.784Z</time>
      </trkpt>
      <trkpt lat="48.84001" lon="2.24576">
        <ele>95.2</ele>
        <time>2015-06-29T19:01:02.827Z</time>
      </trkpt>
      <trkpt lat="48.84" lon="2.24569">
        <ele>95.5</ele>
        <time>2015-06-29T19:01:03.707Z</time>
      </trkpt>
      <trkpt lat="48.84" lon="2.2456">
        <ele>96</ele>
        <time>2015-06-29T19:01:04.714Z</time>
      </trkpt>
      <trkpt lat="48.84002" lon="2.24552">
        <ele>96.1</ele>
        <time>2015-06-29T19:01:05.746Z</time>
      </trkpt>
      <trkpt lat="48.84003" lon="2.24544">
        <ele>96.2</ele>
        <time>2015-06-29T19:01:06.758Z</time>
      </trkpt>
      <trkpt lat="48.84005" lon="2.24537">
        <ele>96.3</ele>
        <time>2015-06-29T19:01:07.790Z</time>
      </trkpt>
      <trkpt lat="48.84005" lon="2.24529">
        <ele>96.2</ele>
        <time>2015-06-29T19:01:08.807Z</time>
      </trkpt>
      <trkpt lat="48.84005" lon="2.24522">
        <ele>96.4</ele>
        <time>2015-06-29T19:01:09.712Z</time>
      </trkpt>
      <trkpt lat="48.84004" lon="2.24515">
        <ele>96.8</ele>
        <time>2015-06-29T19:01:10.709Z</time>
      </trkpt>
      <trkpt lat="48.84008" lon="2.24505">
        <ele>97.4</ele>
        <time>2015-06-29T19:01:12.714Z</time>
      </trkpt>
      <trkpt lat="48.84009" lon="2.24501">
        <ele>97.6</ele>
        <time>2015-06-29T19:01:13.723Z</time>
      </trkpt>
      <trkpt lat="48.84014" lon="2.24493">
        <ele>97.8</ele>
        <time>2015-06-29T19:01:15.844Z</time>
      </trkpt>
      <trkpt lat="48.84015" lon="2.24489">
        <ele>97.8</ele>
        <time>2015-06-29T19:01:16.789Z</time>
      </trkpt>
      <trkpt lat="48.8402" lon="2.24479">
        <ele>98.4</ele>
        <time>2015-06-29T19:01:18.760Z</time>
      </trkpt>
      <trkpt lat="48.84021" lon="2.24473">
        <ele>98.7</ele>
        <time>2015-06-29T19:01:19.775Z</time>
      </trkpt>
      <trkpt lat="48.84023" lon="2.24466">
        <ele>98.8</ele>
        <time>2015-06-29T19:01:20.793Z</time>
      </trkpt>
      <trkpt lat="48.84025" lon="2.2446">
        <ele>99.1</ele>
        <time>2015-06-29T19:01:21.704Z</time>
      </trkpt>
      <trkpt lat="48.84028" lon="2.24454">
        <ele>99.3</ele>
        <time>2015-06-29T19:01:22.744Z</time>
      </trkpt>
      <trkpt lat="48.8403" lon="2.24448">
        <ele>99.9</ele>
        <time>2015-06-29T19:01:23.754Z</time>
      </trkpt>
      <trkpt lat="48.84031" lon="2.24439">
        <ele>100.2</ele>
        <time>2015-06-29T19:01:24.770Z</time>
      </trkpt>
      <trkpt lat="48.84034" lon="2.24432">
        <ele>100.2</ele>
        <time>2015-06-29T19:01:25.784Z</time>
      </trkpt>
      <trkpt lat="48.84038" lon="2.2442">
        <ele>100.9</ele>
        <time>2015-06-29T19:01:27.720Z</time>
      </trkpt>
      <trkpt lat="48.8404" lon="2.24414">
        <ele>100.9</ele>
        <time>2015-06-29T19:01:28.736Z</time>
      </trkpt>
      <trkpt lat="48.84041" lon="2.24402">
        <ele>101.3</ele>
        <time>2015-06-29T19:01:30.746Z</time>
      </trkpt>
      <trkpt lat="48.84041" lon="2.24396">
        <ele>101.6</ele>
        <time>2015-06-29T19:01:31.933Z</time>
      </trkpt>
      <trkpt lat="48.84041" lon="2.24384">
        <ele>100.5</ele>
        <time>2015-06-29T19:01:33.710Z</time>
      </trkpt>
      <trkpt lat="48.8404" lon="2.24378">
        <ele>99.5</ele>
        <time>2015-06-29T19:01:34.734Z</time>
      </trkpt>
      <trkpt lat="48.84043" lon="2.24367">
        <ele>98.9</ele>
        <time>2015-06-29T19:01:36.781Z</time>
      </trkpt>
      <trkpt lat="48.84044" lon="2.24361">
        <ele>98.2</ele>
        <time>2015-06-29T19:01:37.801Z</time>
      </trkpt>
      <trkpt lat="48.84044" lon="2.24348">
        <ele>96.8</ele>
        <time>2015-06-29T19:01:39.735Z</time>
      </trkpt>
      <trkpt lat="48.84042" lon="2.24341">
        <ele>95.7</ele>
        <time>2015-06-29T19:01:40.756Z</time>
      </trkpt>
      <trkpt lat="48.84043" lon="2.24332">
        <ele>95.3</ele>
        <time>2015-06-29T19:01:42.808Z</time>
      </trkpt>
      <trkpt lat="48.84043" lon="2.24326">
        <ele>95.1</ele>
        <time>2015-06-29T19:01:43.758Z</time>
      </trkpt>
      <trkpt lat="48.84044" lon="2.24315">
        <ele>96.1</ele>
        <time>2015-06-29T19:01:45.767Z</time>
      </trkpt>
      <trkpt lat="48.84045" lon="2.2431">
        <ele>95.6</ele>
        <time>2015-06-29T19:01:46.778Z</time>
      </trkpt>
      <trkpt lat="48.84048" lon="2.24298">
        <ele>96.2</ele>
        <time>2015-06-29T19:01:48.924Z</time>
      </trkpt>
      <trkpt lat="48.8405" lon="2.24292">
        <ele>96.2</ele>
        <time>2015-06-29T19:01:49.824Z</time>
      </trkpt>
      <trkpt lat="48.84053" lon="2.2428">
        <ele>95.9</ele>
        <time>2015-06-29T19:01:51.795Z</time>
      </trkpt>
      <trkpt lat="48.84055" lon="2.24275">
        <ele>95.8</ele>
        <time>2015-06-29T19:01:52.832Z</time>
      </trkpt>
      <trkpt lat="48.84056" lon="2.24268">
        <ele>95.9</ele>
        <time>2015-06-29T19:01:53.774Z</time>
      </trkpt>
      <trkpt lat="48.84057" lon="2.24262">
        <ele>95.6</ele>
        <time>2015-06-29T19:01:54.781Z</time>
      </trkpt>
      <trkpt lat="48.84058" lon="2.24254">
        <ele>95.5</ele>
        <time>2015-06-29T19:01:55.751Z</time>
      </trkpt>
      <trkpt lat="48.8406" lon="2.24248">
        <ele>95.5</ele>
        <time>2015-06-29T19:01:56.790Z</time>
      </trkpt>
      <trkpt lat="48.84063" lon="2.24237">
        <ele>95</ele>
        <time>2015-06-29T19:01:58.810Z</time>
      </trkpt>
      <trkpt lat="48.84065" lon="2.24231">
        <ele>94.7</ele>
        <time>2015-06-29T19:01:59.718Z</time>
      </trkpt>
      <trkpt lat="48.84067" lon="2.24226">
        <ele>94.5</ele>
        <time>2015-06-29T19:02:00.906Z</time>
      </trkpt>
      <trkpt lat="48.84071" lon="2.24221">
        <ele>94.7</ele>
        <time>2015-06-29T19:02:01.808Z</time>
      </trkpt>
      <trkpt lat="48.84072" lon="2.24214">
        <ele>94.5</ele>
        <time>2015-06-29T19:02:02.834Z</time>
      </trkpt>
      <trkpt lat="48.84074" lon="2.24208">
        <ele>94.7</ele>
        <time>2015-06-29T19:02:03.728Z</time>
      </trkpt>
      <trkpt lat="48.84078" lon="2.24196">
        <ele>94.5</ele>
        <time>2015-06-29T19:02:05.760Z</time>
      </trkpt>
      <trkpt lat="48.84081" lon="2.24191">
        <ele>94.4</ele>
        <time>2015-06-29T19:02:06.770Z</time>
      </trkpt>
      <trkpt lat="48.84084" lon="2.24179">
        <ele>94.2</ele>
        <time>2015-06-29T19:02:08.791Z</time>
      </trkpt>
      <trkpt lat="48.84086" lon="2.24173">
        <ele>94.1</ele>
        <time>2015-06-29T19:02:09.723Z</time>
      </trkpt>
      <trkpt lat="48.84088" lon="2.24166">
        <ele>94</ele>
        <time>2015-06-29T19:02:10.715Z</time>
      </trkpt>
      <trkpt lat="48.8409" lon="2.24159">
        <ele>94.2</ele>
        <time>2015-06-29T19:02:11.726Z</time>
      </trkpt>
      <trkpt lat="48.84091" lon="2.24152">
        <ele>94.2</ele>
        <time>2015-06-29T19:02:12.742Z</time>
      </trkpt>
      <trkpt lat="48.84093" lon="2.24145">
        <ele>94</ele>
        <time>2015-06-29T19:02:13.753Z</time>
      </trkpt>
      <trkpt lat="48.84095" lon="2.24138">
        <ele>93.8</ele>
        <time>2015-06-29T19:02:14.789Z</time>
      </trkpt>
      <trkpt lat="48.84098" lon="2.24132">
        <ele>93.7</ele>
        <time>2015-06-29T19:02:15.805Z</time>
      </trkpt>
      <trkpt lat="48.841" lon="2.24125">
        <ele>93.5</ele>
        <time>2015-06-29T19:02:16.711Z</time>
      </trkpt>
      <trkpt lat="48.84101" lon="2.24117">
        <ele>93.5</ele>
        <time>2015-06-29T19:02:17.722Z</time>
      </trkpt>
      <trkpt lat="48.84101" lon="2.24109">
        <ele>93.4</ele>
        <time>2015-06-29T19:02:18.730Z</time>
      </trkpt>
      <trkpt lat="48.84102" lon="2.24101">
        <ele>93.4</ele>
        <time>2015-06-29T19:02:19.736Z</time>
      </trkpt>
      <trkpt lat="48.84104" lon="2.24094">
        <ele>93.1</ele>
        <time>2015-06-29T19:02:20.776Z</time>
      </trkpt>
      <trkpt lat="48.84106" lon="2.24085">
        <ele>92.9</ele>
        <time>2015-06-29T19:02:21.767Z</time>
      </trkpt>
      <trkpt lat="48.84108" lon="2.24077">
        <ele>92.6</ele>
        <time>2015-06-29T19:02:22.701Z</time>
      </trkpt>
      <trkpt lat="48.8411" lon="2.24068">
        <ele>92.4</ele>
        <time>2015-06-29T19:02:23.763Z</time>
      </trkpt>
      <trkpt lat="48.84112" lon="2.24061">
        <ele>92.3</ele>
        <time>2015-06-29T19:02:24.776Z</time>
      </trkpt>
      <trkpt lat="48.84115" lon="2.24053">
        <ele>92.2</ele>
        <time>2015-06-29T19:02:25.781Z</time>
      </trkpt>
      <trkpt lat="48.84116" lon="2.24046">
        <ele>91.5</ele>
        <time>2015-06-29T19:02:26.799Z</time>
      </trkpt>
      <trkpt lat="48.84118" lon="2.24038">
        <ele>91.1</ele>
        <time>2015-06-29T19:02:27.921Z</time>
      </trkpt>
      <trkpt lat="48.84117" lon="2.2403">
        <ele>91.2</ele>
        <time>2015-06-29T19:02:28.765Z</time>
      </trkpt>
      <trkpt lat="48.84118" lon="2.24023">
        <ele>91.3</ele>
        <time>2015-06-29T19:02:29.780Z</time>
      </trkpt>
      <trkpt lat="48.84119" lon="2.24016">
        <ele>91.2</ele>
        <time>2015-06-29T19:02:30.794Z</time>
      </trkpt>
      <trkpt lat="48.8412" lon="2.24009">
        <ele>91.2</ele>
        <time>2015-06-29T19:02:31.805Z</time>
      </trkpt>
      <trkpt lat="48.84123" lon="2.23996">
        <ele>90.8</ele>
        <time>2015-06-29T19:02:33.730Z</time>
      </trkpt>
      <trkpt lat="48.84124" lon="2.2399">
        <ele>90.7</ele>
        <time>2015-06-29T19:02:34.750Z</time>
      </trkpt>
      <trkpt lat="48.84128" lon="2.2398">
        <ele>90.5</ele>
        <time>2015-06-29T19:02:36.797Z</time>
      </trkpt>
      <trkpt lat="48.84132" lon="2.23976">
        <ele>90.9</ele>
        <time>2015-06-29T19:02:37.909Z</time>
      </trkpt>
      <trkpt lat="48.84136" lon="2.23964">
        <ele>91</ele>
        <time>2015-06-29T19:02:39.771Z</time>
      </trkpt>
      <trkpt lat="48.84137" lon="2.23957">
        <ele>91</ele>
        <time>2015-06-29T19:02:40.787Z</time>
      </trkpt>
      <trkpt lat="48.84137" lon="2.23944">
        <ele>90.2</ele>
        <time>2015-06-29T19:02:42.730Z</time>
      </trkpt>
      <trkpt lat="48.84136" lon="2.23938">
        <ele>90.2</ele>
        <time>2015-06-29T19:02:43.748Z</time>
      </trkpt>
      <trkpt lat="48.84137" lon="2.23931">
        <ele>90</ele>
        <time>2015-06-29T19:02:44.776Z</time>
      </trkpt>
      <trkpt lat="48.84136" lon="2.23923">
        <ele>90.5</ele>
        <time>2015-06-29T19:02:45.788Z</time>
      </trkpt>
      <trkpt lat="48.84138" lon="2.23911">
        <ele>91.2</ele>
        <time>2015-06-29T19:02:47.734Z</time>
      </trkpt>
      <trkpt lat="48.8414" lon="2.23906">
        <ele>91.4</ele>
        <time>2015-06-29T19:02:48.730Z</time>
      </trkpt>
      <trkpt lat="48.84147" lon="2.23897">
        <ele>92.2</ele>
        <time>2015-06-29T19:02:51.795Z</time>
      </trkpt>
      <trkpt lat="48.84149" lon="2.23896">
        <ele>92.6</ele>
        <time>2015-06-29T19:02:52.800Z</time>
      </trkpt>
      <trkpt lat="48.84157" lon="2.23894">
        <ele>93.7</ele>
        <time>2015-06-29T19:02:55.752Z</time>
      </trkpt>
      <trkpt lat="48.84159" lon="2.23894">
        <ele>94</ele>
        <time>2015-06-29T19:02:56.775Z</time>
      </trkpt>
      <trkpt lat="48.84165" lon="2.23891">
        <ele>94.4</ele>
        <time>2015-06-29T19:02:58.795Z</time>
      </trkpt>
      <trkpt lat="48.84169" lon="2.23889">
        <ele>94.4</ele>
        <time>2015-06-29T19:02:59.812Z</time>
      </trkpt>
      <trkpt lat="48.84173" lon="2.23887">
        <ele>94.2</ele>
        <time>2015-06-29T19:03:00.703Z</time>
      </trkpt>
      <trkpt lat="48.84178" lon="2.23885">
        <ele>93.7</ele>
        <time>2015-06-29T19:03:01.735Z</time>
      </trkpt>
      <trkpt lat="48.84182" lon="2.23881">
        <ele>93.3</ele>
        <time>2015-06-29T19:03:02.786Z</time>
      </trkpt>
      <trkpt lat="48.84187" lon="2.23877">
        <ele>93.1</ele>
        <time>2015-06-29T19:03:03.799Z</time>
      </trkpt>
      <trkpt lat="48.84195" lon="2.23874">
        <ele>93.2</ele>
        <time>2015-06-29T19:03:05.806Z</time>
      </trkpt>
      <trkpt lat="48.842" lon="2.23873">
        <ele>93.2</ele>
        <time>2015-06-29T19:03:06.817Z</time>
      </trkpt>
      <trkpt lat="48.84204" lon="2.23871">
        <ele>93.5</ele>
        <time>2015-06-29T19:03:07.723Z</time>
      </trkpt>
      <trkpt lat="48.84209" lon="2.23868">
        <ele>93.8</ele>
        <time>2015-06-29T19:03:08.788Z</time>
      </trkpt>
      <trkpt lat="48.84213" lon="2.23865">
        <ele>94.1</ele>
        <time>2015-06-29T19:03:09.807Z</time>
      </trkpt>
      <trkpt lat="48.84218" lon="2.23864">
        <ele>94.3</ele>
        <time>2015-06-29T19:03:10.716Z</time>
      </trkpt>
      <trkpt lat="48.84223" lon="2.23862">
        <ele>94.4</ele>
        <time>2015-06-29T19:03:11.724Z</time>
      </trkpt>
      <trkpt lat="48.84228" lon="2.2386">
        <ele>94.5</ele>
        <time>2015-06-29T19:03:12.741Z</time>
      </trkpt>
      <trkpt lat="48.84234" lon="2.23858">
        <ele>94.7</ele>
        <time>2015-06-29T19:03:13.745Z</time>
      </trkpt>
      <trkpt lat="48.84239" lon="2.23856">
        <ele>94.8</ele>
        <time>2015-06-29T19:03:14.786Z</time>
      </trkpt>
      <trkpt lat="48.84244" lon="2.23853">
        <ele>94.8</ele>
        <time>2015-06-29T19:03:15.790Z</time>
      </trkpt>
      <trkpt lat="48.84249" lon="2.2385">
        <ele>94.9</ele>
        <time>2015-06-29T19:03:16.788Z</time>
      </trkpt>
      <trkpt lat="48.84253" lon="2.23846">
        <ele>94.9</ele>
        <time>2015-06-29T19:03:17.800Z</time>
      </trkpt>
      <trkpt lat="48.84257" lon="2.23842">
        <ele>95.1</ele>
        <time>2015-06-29T19:03:18.710Z</time>
      </trkpt>
      <trkpt lat="48.84264" lon="2.23836">
        <ele>95.4</ele>
        <time>2015-06-29T19:03:20.746Z</time>
      </trkpt>
      <trkpt lat="48.84267" lon="2.23833">
        <ele>95.7</ele>
        <time>2015-06-29T19:03:21.744Z</time>
      </trkpt>
      <trkpt lat="48.84275" lon="2.23829">
        <ele>96.1</ele>
        <time>2015-06-29T19:03:23.713Z</time>
      </trkpt>
      <trkpt lat="48.84278" lon="2.23826">
        <ele>96.2</ele>
        <time>2015-06-29T19:03:24.718Z</time>
      </trkpt>
      <trkpt lat="48.84285" lon="2.23821">
        <ele>96.4</ele>
        <time>2015-06-29T19:03:26.744Z</time>
      </trkpt>
      <trkpt lat="48.84291" lon="2.2382">
        <ele>96.6</ele>
        <time>2015-06-29T19:03:27.771Z</time>
      </trkpt>
      <trkpt lat="48.84298" lon="2.2382">
        <ele>96.7</ele>
        <time>2015-06-29T19:03:28.790Z</time>
      </trkpt>
      <trkpt lat="48.84303" lon="2.23819">
        <ele>96.8</ele>
        <time>2015-06-29T19:03:29.699Z</time>
      </trkpt>
      <trkpt lat="48.84309" lon="2.23818">
        <ele>96.9</ele>
        <time>2015-06-29T19:03:30.727Z</time>
      </trkpt>
      <trkpt lat="48.84316" lon="2.23815">
        <ele>97.3</ele>
        <time>2015-06-29T19:03:31.755Z</time>
      </trkpt>
      <trkpt lat="48.84323" lon="2.23811">
        <ele>97.5</ele>
        <time>2015-06-29T19:03:32.782Z</time>
      </trkpt>
      <trkpt lat="48.84331" lon="2.238">
        <ele>97.2</ele>
        <time>2015-06-29T19:03:33.783Z</time>
      </trkpt>
      <trkpt lat="48.84338" lon="2.23795">
        <ele>97</ele>
        <time>2015-06-29T19:03:35.711Z</time>
      </trkpt>
      <trkpt lat="48.84344" lon="2.23796">
        <ele>97.2</ele>
        <time>2015-06-29T19:03:36.752Z</time>
      </trkpt>
      <trkpt lat="48.8435" lon="2.23798">
        <ele>97.5</ele>
        <time>2015-06-29T19:03:37.717Z</time>
      </trkpt>
      <trkpt lat="48.84355" lon="2.23801">
        <ele>98</ele>
        <time>2015-06-29T19:03:38.760Z</time>
      </trkpt>
      <trkpt lat="48.84361" lon="2.23807">
        <ele>98</ele>
        <time>2015-06-29T19:03:40.781Z</time>
      </trkpt>
      <trkpt lat="48.84362" lon="2.23811">
        <ele>98.4</ele>
        <time>2015-06-29T19:03:41.788Z</time>
      </trkpt>
      <trkpt lat="48.84363" lon="2.23823">
        <ele>98.3</ele>
        <time>2015-06-29T19:03:43.730Z</time>
      </trkpt>
      <trkpt lat="48.84366" lon="2.23829">
        <ele>98.3</ele>
        <time>2015-06-29T19:03:44.787Z</time>
      </trkpt>
      <trkpt lat="48.84372" lon="2.23836">
        <ele>98.2</ele>
        <time>2015-06-29T19:03:45.697Z</time>
      </trkpt>
      <trkpt lat="48.84376" lon="2.23842">
        <ele>98</ele>
        <time>2015-06-29T19:03:46.711Z</time>
      </trkpt>
      <trkpt lat="48.84379" lon="2.23851">
        <ele>98</ele>
        <time>2015-06-29T19:03:48.742Z</time>
      </trkpt>
      <trkpt lat="48.8438" lon="2.23857">
        <ele>98.2</ele>
        <time>2015-06-29T19:03:49.744Z</time>
      </trkpt>
      <trkpt lat="48.84381" lon="2.23866">
        <ele>98.5</ele>
        <time>2015-06-29T19:03:51.993Z</time>
      </trkpt>
      <trkpt lat="48.84381" lon="2.23872">
        <ele>98.7</ele>
        <time>2015-06-29T19:03:52.685Z</time>
      </trkpt>
      <trkpt lat="48.8438" lon="2.23884">
        <ele>99.8</ele>
        <time>2015-06-29T19:03:54.722Z</time>
      </trkpt>
      <trkpt lat="48.84379" lon="2.2389">
        <ele>99.9</ele>
        <time>2015-06-29T19:03:55.744Z</time>
      </trkpt>
      <trkpt lat="48.84378" lon="2.23902">
        <ele>100</ele>
        <time>2015-06-29T19:03:57.747Z</time>
      </trkpt>
      <trkpt lat="48.84377" lon="2.23908">
        <ele>99.8</ele>
        <time>2015-06-29T19:03:58.812Z</time>
      </trkpt>
      <trkpt lat="48.84376" lon="2.23915">
        <ele>100</ele>
        <time>2015-06-29T19:03:59.696Z</time>
      </trkpt>
      <trkpt lat="48.84375" lon="2.23922">
        <ele>99.8</ele>
        <time>2015-06-29T19:04:00.794Z</time>
      </trkpt>
      <trkpt lat="48.84376" lon="2.23933">
        <ele>99.9</ele>
        <time>2015-06-29T19:04:02.818Z</time>
      </trkpt>
      <trkpt lat="48.84377" lon="2.23937">
        <ele>100.3</ele>
        <time>2015-06-29T19:04:03.818Z</time>
      </trkpt>
      <trkpt lat="48.84379" lon="2.23944">
        <ele>100.9</ele>
        <time>2015-06-29T19:04:06.772Z</time>
      </trkpt>
      <trkpt lat="48.84382" lon="2.2395">
        <ele>101</ele>
        <time>2015-06-29T19:04:07.725Z</time>
      </trkpt>
      <trkpt lat="48.84386" lon="2.23957">
        <ele>99.8</ele>
        <time>2015-06-29T19:04:08.782Z</time>
      </trkpt>
      <trkpt lat="48.8439" lon="2.23962">
        <ele>98.9</ele>
        <time>2015-06-29T19:04:09.785Z</time>
      </trkpt>
      <trkpt lat="48.84394" lon="2.23971">
        <ele>97.7</ele>
        <time>2015-06-29T19:04:11.807Z</time>
      </trkpt>
      <trkpt lat="48.84395" lon="2.23975">
        <ele>97.9</ele>
        <time>2015-06-29T19:04:12.800Z</time>
      </trkpt>
      <trkpt lat="48.84398" lon="2.23986">
        <ele>98.8</ele>
        <time>2015-06-29T19:04:16.728Z</time>
      </trkpt>
      <trkpt lat="48.84399" lon="2.2399">
        <ele>98.8</ele>
        <time>2015-06-29T19:04:17.726Z</time>
      </trkpt>
      <trkpt lat="48.84403" lon="2.24">
        <ele>98.4</ele>
        <time>2015-06-29T19:04:20.857Z</time>
      </trkpt>
      <trkpt lat="48.84406" lon="2.24004">
        <ele>98.1</ele>
        <time>2015-06-29T19:04:21.747Z</time>
      </trkpt>
      <trkpt lat="48.84414" lon="2.24011">
        <ele>97.6</ele>
        <time>2015-06-29T19:04:23.723Z</time>
      </trkpt>
      <trkpt lat="48.84419" lon="2.24016">
        <ele>96.9</ele>
        <time>2015-06-29T19:04:24.745Z</time>
      </trkpt>
      <trkpt lat="48.84423" lon="2.24021">
        <ele>96.8</ele>
        <time>2015-06-29T19:04:25.754Z</time>
      </trkpt>
      <trkpt lat="48.84426" lon="2.24024">
        <ele>96.8</ele>
        <time>2015-06-29T19:04:26.773Z</time>
      </trkpt>
      <trkpt lat="48.84434" lon="2.24031">
        <ele>97.1</ele>
        <time>2015-06-29T19:04:28.771Z</time>
      </trkpt>
      <trkpt lat="48.84438" lon="2.24035">
        <ele>97.3</ele>
        <time>2015-06-29T19:04:29.786Z</time>
      </trkpt>
      <trkpt lat="48.84444" lon="2.24044">
        <ele>97.4</ele>
        <time>2015-06-29T19:04:31.736Z</time>
      </trkpt>
      <trkpt lat="48.84447" lon="2.24047">
        <ele>97.2</ele>
        <time>2015-06-29T19:04:32.834Z</time>
      </trkpt>
      <trkpt lat="48.84454" lon="2.2405">
        <ele>97.9</ele>
        <time>2015-06-29T19:04:34.693Z</time>
      </trkpt>
      <trkpt lat="48.84458" lon="2.24049">
        <ele>98</ele>
        <time>2015-06-29T19:04:35.732Z</time>
      </trkpt>
      <trkpt lat="48.84462" lon="2.24051">
        <ele>98.2</ele>
        <time>2015-06-29T19:04:36.732Z</time>
      </trkpt>
      <trkpt lat="48.84468" lon="2.24052">
        <ele>98.6</ele>
        <time>2015-06-29T19:04:37.746Z</time>
      </trkpt>
      <trkpt lat="48.84473" lon="2.24053">
        <ele>99.3</ele>
        <time>2015-06-29T19:04:38.771Z</time>
      </trkpt>
      <trkpt lat="48.84478" lon="2.24053">
        <ele>100.1</ele>
        <time>2015-06-29T19:04:39.770Z</time>
      </trkpt>
      <trkpt lat="48.84484" lon="2.24054">
        <ele>100.9</ele>
        <time>2015-06-29T19:04:40.872Z</time>
      </trkpt>
      <trkpt lat="48.84489" lon="2.24056">
        <ele>101.6</ele>
        <time>2015-06-29T19:04:41.790Z</time>
      </trkpt>
      <trkpt lat="48.84493" lon="2.24056">
        <ele>102.1</ele>
        <time>2015-06-29T19:04:42.796Z</time>
      </trkpt>
      <trkpt lat="48.84498" lon="2.24056">
        <ele>102.7</ele>
        <time>2015-06-29T19:04:43.733Z</time>
      </trkpt>
      <trkpt lat="48.84503" lon="2.24056">
        <ele>103</ele>
        <time>2015-06-29T19:04:44.765Z</time>
      </trkpt>
      <trkpt lat="48.84508" lon="2.24057">
        <ele>103</ele>
        <time>2015-06-29T19:04:45.766Z</time>
      </trkpt>
      <trkpt lat="48.84514" lon="2.24059">
        <ele>103</ele>
        <time>2015-06-29T19:04:46.714Z</time>
      </trkpt>
      <trkpt lat="48.8452" lon="2.24061">
        <ele>103</ele>
        <time>2015-06-29T19:04:47.723Z</time>
      </trkpt>
      <trkpt lat="48.84525" lon="2.24063">
        <ele>103.2</ele>
        <time>2015-06-29T19:04:48.731Z</time>
      </trkpt>
      <trkpt lat="48.84529" lon="2.24063">
        <ele>103.4</ele>
        <time>2015-06-29T19:04:49.743Z</time>
      </trkpt>
      <trkpt lat="48.84534" lon="2.24064">
        <ele>103.2</ele>
        <time>2015-06-29T19:04:50.769Z</time>
      </trkpt>
      <trkpt lat="48.84539" lon="2.24066">
        <ele>102.9</ele>
        <time>2015-06-29T19:04:51.782Z</time>
      </trkpt>
      <trkpt lat="48.84544" lon="2.24067">
        <ele>102.6</ele>
        <time>2015-06-29T19:04:52.797Z</time>
      </trkpt>
      <trkpt lat="48.84549" lon="2.2407">
        <ele>102.3</ele>
        <time>2015-06-29T19:04:53.685Z</time>
      </trkpt>
      <trkpt lat="48.84554" lon="2.24071">
        <ele>102</ele>
        <time>2015-06-29T19:04:54.712Z</time>
      </trkpt>
      <trkpt lat="48.8456" lon="2.24074">
        <ele>101.7</ele>
        <time>2015-06-29T19:04:55.717Z</time>
      </trkpt>
      <trkpt lat="48.84567" lon="2.24076">
        <ele>100.7</ele>
        <time>2015-06-29T19:04:56.773Z</time>
      </trkpt>
      <trkpt lat="48.84573" lon="2.2408">
        <ele>99.2</ele>
        <time>2015-06-29T19:04:57.771Z</time>
      </trkpt>
      <trkpt lat="48.84578" lon="2.24081">
        <ele>98.6</ele>
        <time>2015-06-29T19:04:58.784Z</time>
      </trkpt>
      <trkpt lat="48.84583" lon="2.24082">
        <ele>98.1</ele>
        <time>2015-06-29T19:04:59.783Z</time>
      </trkpt>
      <trkpt lat="48.84588" lon="2.24083">
        <ele>98.2</ele>
        <time>2015-06-29T19:05:00.799Z</time>
      </trkpt>
      <trkpt lat="48.84592" lon="2.24084">
        <ele>98.3</ele>
        <time>2015-06-29T19:05:01.804Z</time>
      </trkpt>
      <trkpt lat="48.846" lon="2.24087">
        <ele>98.1</ele>
        <time>2015-06-29T19:05:03.710Z</time>
      </trkpt>
      <trkpt lat="48.84605" lon="2.24088">
        <ele>98</ele>
        <time>2015-06-29T19:05:04.860Z</time>
      </trkpt>
      <trkpt lat="48.84609" lon="2.2409">
        <ele>98</ele>
        <time>2015-06-29T19:05:05.742Z</time>
      </trkpt>
      <trkpt lat="48.84613" lon="2.24093">
        <ele>98.2</ele>
        <time>2015-06-29T19:05:06.745Z</time>
      </trkpt>
      <trkpt lat="48.84619" lon="2.24096">
        <ele>97.8</ele>
        <time>2015-06-29T19:05:07.773Z</time>
      </trkpt>
      <trkpt lat="48.84624" lon="2.24099">
        <ele>97.7</ele>
        <time>2015-06-29T19:05:08.797Z</time>
      </trkpt>
      <trkpt lat="48.84629" lon="2.24101">
        <ele>97.5</ele>
        <time>2015-06-29T19:05:09.723Z</time>
      </trkpt>
      <trkpt lat="48.84634" lon="2.24104">
        <ele>97.2</ele>
        <time>2015-06-29T19:05:10.741Z</time>
      </trkpt>
      <trkpt lat="48.8464" lon="2.24106">
        <ele>97.3</ele>
        <time>2015-06-29T19:05:11.753Z</time>
      </trkpt>
      <trkpt lat="48.84645" lon="2.24109">
        <ele>97.1</ele>
        <time>2015-06-29T19:05:12.765Z</time>
      </trkpt>
      <trkpt lat="48.84651" lon="2.24113">
        <ele>96.4</ele>
        <time>2015-06-29T19:05:13.775Z</time>
      </trkpt>
      <trkpt lat="48.84658" lon="2.24116">
        <ele>95</ele>
        <time>2015-06-29T19:05:14.783Z</time>
      </trkpt>
      <trkpt lat="48.84665" lon="2.2412">
        <ele>94.4</ele>
        <time>2015-06-29T19:05:15.784Z</time>
      </trkpt>
      <trkpt lat="48.84672" lon="2.24124">
        <ele>93.6</ele>
        <time>2015-06-29T19:05:16.806Z</time>
      </trkpt>
      <trkpt lat="48.84678" lon="2.24128">
        <ele>93.2</ele>
        <time>2015-06-29T19:05:17.724Z</time>
      </trkpt>
      <trkpt lat="48.84682" lon="2.24135">
        <ele>92.8</ele>
        <time>2015-06-29T19:05:18.694Z</time>
      </trkpt>
      <trkpt lat="48.84685" lon="2.24142">
        <ele>92.9</ele>
        <time>2015-06-29T19:05:19.715Z</time>
      </trkpt>
      <trkpt lat="48.84689" lon="2.24147">
        <ele>92.3</ele>
        <time>2015-06-29T19:05:20.728Z</time>
      </trkpt>
      <trkpt lat="48.84693" lon="2.24153">
        <ele>91.7</ele>
        <time>2015-06-29T19:05:21.738Z</time>
      </trkpt>
      <trkpt lat="48.84697" lon="2.24159">
        <ele>91.2</ele>
        <time>2015-06-29T19:05:22.746Z</time>
      </trkpt>
      <trkpt lat="48.84702" lon="2.24168">
        <ele>90.4</ele>
        <time>2015-06-29T19:05:24.780Z</time>
      </trkpt>
      <trkpt lat="48.84704" lon="2.24173">
        <ele>90.6</ele>
        <time>2015-06-29T19:05:25.691Z</time>
      </trkpt>
      <trkpt lat="48.8471" lon="2.24182">
        <ele>90.3</ele>
        <time>2015-06-29T19:05:29.791Z</time>
      </trkpt>
      <trkpt lat="48.84712" lon="2.24183">
        <ele>90.8</ele>
        <time>2015-06-29T19:05:30.799Z</time>
      </trkpt>
      <trkpt lat="48.84716" lon="2.24182">
        <ele>91.4</ele>
        <time>2015-06-29T19:05:31.728Z</time>
      </trkpt>
      <trkpt lat="48.84721" lon="2.24184">
        <ele>91.4</ele>
        <time>2015-06-29T19:05:32.796Z</time>
      </trkpt>
      <trkpt lat="48.84726" lon="2.24184">
        <ele>92.1</ele>
        <time>2015-06-29T19:05:33.699Z</time>
      </trkpt>
      <trkpt lat="48.84731" lon="2.24183">
        <ele>92.5</ele>
        <time>2015-06-29T19:05:34.695Z</time>
      </trkpt>
      <trkpt lat="48.8474" lon="2.24186">
        <ele>92.6</ele>
        <time>2015-06-29T19:05:36.717Z</time>
      </trkpt>
      <trkpt lat="48.84744" lon="2.24188">
        <ele>92.5</ele>
        <time>2015-06-29T19:05:37.884Z</time>
      </trkpt>
      <trkpt lat="48.84752" lon="2.24191">
        <ele>92.5</ele>
        <time>2015-06-29T19:05:39.782Z</time>
      </trkpt>
      <trkpt lat="48.84756" lon="2.24192">
        <ele>92</ele>
        <time>2015-06-29T19:05:40.763Z</time>
      </trkpt>
      <trkpt lat="48.84762" lon="2.24193">
        <ele>91.9</ele>
        <time>2015-06-29T19:05:42.711Z</time>
      </trkpt>
      <trkpt lat="48.84765" lon="2.24193">
        <ele>92.2</ele>
        <time>2015-06-29T19:05:43.788Z</time>
      </trkpt>
      <trkpt lat="48.84772" lon="2.24193">
        <ele>91.8</ele>
        <time>2015-06-29T19:06:14.809Z</time>
      </trkpt>
      <trkpt lat="48.84782" lon="2.24201">
        <ele>87.6</ele>
        <time>2015-06-29T19:06:15.761Z</time>
      </trkpt>
      <trkpt lat="48.84784" lon="2.24211">
        <ele>86.8</ele>
        <time>2015-06-29T19:06:17.746Z</time>
      </trkpt>
      <trkpt lat="48.84785" lon="2.24216">
        <ele>86.7</ele>
        <time>2015-06-29T19:06:18.820Z</time>
      </trkpt>
      <trkpt lat="48.84788" lon="2.24227">
        <ele>86</ele>
        <time>2015-06-29T19:06:20.810Z</time>
      </trkpt>
      <trkpt lat="48.84789" lon="2.24233">
        <ele>85.7</ele>
        <time>2015-06-29T19:06:21.764Z</time>
      </trkpt>
      <trkpt lat="48.84793" lon="2.24245">
        <ele>85.6</ele>
        <time>2015-06-29T19:06:23.723Z</time>
      </trkpt>
      <trkpt lat="48.84796" lon="2.24251">
        <ele>85.3</ele>
        <time>2015-06-29T19:06:24.846Z</time>
      </trkpt>
      <trkpt lat="48.84799" lon="2.24256">
        <ele>85.2</ele>
        <time>2015-06-29T19:06:25.759Z</time>
      </trkpt>
      <trkpt lat="48.84802" lon="2.24261">
        <ele>85.3</ele>
        <time>2015-06-29T19:06:26.809Z</time>
      </trkpt>
      <trkpt lat="48.84809" lon="2.2427">
        <ele>86</ele>
        <time>2015-06-29T19:06:28.738Z</time>
      </trkpt>
      <trkpt lat="48.84813" lon="2.24273">
        <ele>86.2</ele>
        <time>2015-06-29T19:06:29.767Z</time>
      </trkpt>
      <trkpt lat="48.84821" lon="2.24278">
        <ele>86.2</ele>
        <time>2015-06-29T19:06:31.734Z</time>
      </trkpt>
      <trkpt lat="48.84825" lon="2.24278">
        <ele>86.4</ele>
        <time>2015-06-29T19:06:32.797Z</time>
      </trkpt>
      <trkpt lat="48.8483" lon="2.24278">
        <ele>86.2</ele>
        <time>2015-06-29T19:06:33.795Z</time>
      </trkpt>
      <trkpt lat="48.84834" lon="2.24276">
        <ele>86.3</ele>
        <time>2015-06-29T19:06:34.714Z</time>
      </trkpt>
      <trkpt lat="48.84842" lon="2.24273">
        <ele>86.3</ele>
        <time>2015-06-29T19:06:36.739Z</time>
      </trkpt>
      <trkpt lat="48.84845" lon="2.24273">
        <ele>86.2</ele>
        <time>2015-06-29T19:06:37.753Z</time>
      </trkpt>
      <trkpt lat="48.84851" lon="2.24276">
        <ele>86.3</ele>
        <time>2015-06-29T19:06:39.789Z</time>
      </trkpt>
      <trkpt lat="48.84854" lon="2.24277">
        <ele>86.5</ele>
        <time>2015-06-29T19:06:40.807Z</time>
      </trkpt>
      <trkpt lat="48.8486" lon="2.24281">
        <ele>86.5</ele>
        <time>2015-06-29T19:06:43.797Z</time>
      </trkpt>
      <trkpt lat="48.84862" lon="2.24282">
        <ele>86.5</ele>
        <time>2015-06-29T19:06:44.814Z</time>
      </trkpt>
      <trkpt lat="48.84869" lon="2.24289">
        <ele>86.5</ele>
        <time>2015-06-29T19:06:47.747Z</time>
      </trkpt>
      <trkpt lat="48.84873" lon="2.24292">
        <ele>86.2</ele>
        <time>2015-06-29T19:06:48.701Z</time>
      </trkpt>
      <trkpt lat="48.84878" lon="2.24296">
        <ele>85.9</ele>
        <time>2015-06-29T19:06:50.786Z</time>
      </trkpt>
      <trkpt lat="48.84881" lon="2.24298">
        <ele>86</ele>
        <time>2015-06-29T19:06:51.788Z</time>
      </trkpt>
      <trkpt lat="48.84888" lon="2.24303">
        <ele>86.5</ele>
        <time>2015-06-29T19:06:53.736Z</time>
      </trkpt>
      <trkpt lat="48.84891" lon="2.24305">
        <ele>86.4</ele>
        <time>2015-06-29T19:06:54.752Z</time>
      </trkpt>
      <trkpt lat="48.84897" lon="2.24312">
        <ele>86.7</ele>
        <time>2015-06-29T19:06:56.789Z</time>
      </trkpt>
      <trkpt lat="48.849" lon="2.24316">
        <ele>87.1</ele>
        <time>2015-06-29T19:06:57.807Z</time>
      </trkpt>
      <trkpt lat="48.84904" lon="2.24322">
        <ele>87.5</ele>
        <time>2015-06-29T19:06:59.720Z</time>
      </trkpt>
      <trkpt lat="48.84908" lon="2.24325">
        <ele>87.7</ele>
        <time>2015-06-29T19:07:00.732Z</time>
      </trkpt>
      <trkpt lat="48.84914" lon="2.24331">
        <ele>88.1</ele>
        <time>2015-06-29T19:07:02.755Z</time>
      </trkpt>
      <trkpt lat="48.84918" lon="2.24333">
        <ele>88.5</ele>
        <time>2015-06-29T19:07:03.758Z</time>
      </trkpt>
      <trkpt lat="48.84924" lon="2.24339">
        <ele>89.1</ele>
        <time>2015-06-29T19:07:05.733Z</time>
      </trkpt>
      <trkpt lat="48.84927" lon="2.24341">
        <ele>89.2</ele>
        <time>2015-06-29T19:07:06.739Z</time>
      </trkpt>
      <trkpt lat="48.84933" lon="2.24347">
        <ele>89.8</ele>
        <time>2015-06-29T19:07:08.786Z</time>
      </trkpt>
      <trkpt lat="48.84935" lon="2.2435">
        <ele>89.8</ele>
        <time>2015-06-29T19:07:09.799Z</time>
      </trkpt>
      <trkpt lat="48.84942" lon="2.24356">
        <ele>89.9</ele>
        <time>2015-06-29T19:07:11.833Z</time>
      </trkpt>
      <trkpt lat="48.84945" lon="2.2436">
        <ele>90.2</ele>
        <time>2015-06-29T19:07:12.802Z</time>
      </trkpt>
      <trkpt lat="48.8495" lon="2.24366">
        <ele>90.4</ele>
        <time>2015-06-29T19:07:14.759Z</time>
      </trkpt>
      <trkpt lat="48.84953" lon="2.24369">
        <ele>90.5</ele>
        <time>2015-06-29T19:07:15.774Z</time>
      </trkpt>
      <trkpt lat="48.84957" lon="2.24373">
        <ele>90.9</ele>
        <time>2015-06-29T19:07:16.781Z</time>
      </trkpt>
      <trkpt lat="48.84961" lon="2.24378">
        <ele>91.4</ele>
        <time>2015-06-29T19:07:17.798Z</time>
      </trkpt>
      <trkpt lat="48.84965" lon="2.24384">
        <ele>91.5</ele>
        <time>2015-06-29T19:07:18.880Z</time>
      </trkpt>
      <trkpt lat="48.84968" lon="2.24388">
        <ele>91.4</ele>
        <time>2015-06-29T19:07:19.701Z</time>
      </trkpt>
      <trkpt lat="48.84974" lon="2.24397">
        <ele>91.3</ele>
        <time>2015-06-29T19:07:21.822Z</time>
      </trkpt>
      <trkpt lat="48.84978" lon="2.244">
        <ele>91.5</ele>
        <time>2015-06-29T19:07:22.723Z</time>
      </trkpt>
      <trkpt lat="48.84981" lon="2.24405">
        <ele>91.5</ele>
        <time>2015-06-29T19:07:23.747Z</time>
      </trkpt>
      <trkpt lat="48.84985" lon="2.24408">
        <ele>91.6</ele>
        <time>2015-06-29T19:07:24.740Z</time>
      </trkpt>
      <trkpt lat="48.84989" lon="2.24412">
        <ele>91.6</ele>
        <time>2015-06-29T19:07:25.761Z</time>
      </trkpt>
      <trkpt lat="48.84993" lon="2.24416">
        <ele>91.5</ele>
        <time>2015-06-29T19:07:26.791Z</time>
      </trkpt>
      <trkpt lat="48.84997" lon="2.2442">
        <ele>91.4</ele>
        <time>2015-06-29T19:07:27.816Z</time>
      </trkpt>
      <trkpt lat="48.85001" lon="2.24425">
        <ele>91.3</ele>
        <time>2015-06-29T19:07:28.743Z</time>
      </trkpt>
      <trkpt lat="48.85005" lon="2.24429">
        <ele>91.3</ele>
        <time>2015-06-29T19:07:29.963Z</time>
      </trkpt>
      <trkpt lat="48.85009" lon="2.24432">
        <ele>91.2</ele>
        <time>2015-06-29T19:07:30.742Z</time>
      </trkpt>
      <trkpt lat="48.85013" lon="2.24437">
        <ele>91.2</ele>
        <time>2015-06-29T19:07:31.746Z</time>
      </trkpt>
      <trkpt lat="48.85018" lon="2.2444">
        <ele>90.9</ele>
        <time>2015-06-29T19:07:32.794Z</time>
      </trkpt>
      <trkpt lat="48.85022" lon="2.24443">
        <ele>91</ele>
        <time>2015-06-29T19:07:33.787Z</time>
      </trkpt>
      <trkpt lat="48.85026" lon="2.24447">
        <ele>91.3</ele>
        <time>2015-06-29T19:07:34.746Z</time>
      </trkpt>
      <trkpt lat="48.85032" lon="2.24454">
        <ele>91.6</ele>
        <time>2015-06-29T19:07:36.735Z</time>
      </trkpt>
      <trkpt lat="48.85035" lon="2.24458">
        <ele>91.8</ele>
        <time>2015-06-29T19:07:38.050Z</time>
      </trkpt>
      <trkpt lat="48.85041" lon="2.24465">
        <ele>92</ele>
        <time>2015-06-29T19:07:40.117Z</time>
      </trkpt>
      <trkpt lat="48.85045" lon="2.24469">
        <ele>92.2</ele>
        <time>2015-06-29T19:07:40.712Z</time>
      </trkpt>
      <trkpt lat="48.8505" lon="2.24474">
        <ele>91.6</ele>
        <time>2015-06-29T19:07:41.728Z</time>
      </trkpt>
      <trkpt lat="48.85056" lon="2.2448">
        <ele>91.2</ele>
        <time>2015-06-29T19:07:42.745Z</time>
      </trkpt>
      <trkpt lat="48.85061" lon="2.24485">
        <ele>91.2</ele>
        <time>2015-06-29T19:07:43.753Z</time>
      </trkpt>
      <trkpt lat="48.85065" lon="2.2449">
        <ele>91.2</ele>
        <time>2015-06-29T19:07:44.750Z</time>
      </trkpt>
      <trkpt lat="48.85069" lon="2.24494">
        <ele>91.2</ele>
        <time>2015-06-29T19:07:45.772Z</time>
      </trkpt>
      <trkpt lat="48.85073" lon="2.24499">
        <ele>91.4</ele>
        <time>2015-06-29T19:07:46.788Z</time>
      </trkpt>
      <trkpt lat="48.85077" lon="2.24504">
        <ele>91.3</ele>
        <time>2015-06-29T19:07:47.724Z</time>
      </trkpt>
      <trkpt lat="48.85081" lon="2.24508">
        <ele>91.4</ele>
        <time>2015-06-29T19:07:48.727Z</time>
      </trkpt>
      <trkpt lat="48.85085" lon="2.24513">
        <ele>92</ele>
        <time>2015-06-29T19:07:50.320Z</time>
      </trkpt>
      <trkpt lat="48.85088" lon="2.24516">
        <ele>92</ele>
        <time>2015-06-29T19:07:50.776Z</time>
      </trkpt>
      <trkpt lat="48.85092" lon="2.2452">
        <ele>92.4</ele>
        <time>2015-06-29T19:07:51.777Z</time>
      </trkpt>
      <trkpt lat="48.85096" lon="2.24526">
        <ele>92.7</ele>
        <time>2015-06-29T19:07:52.782Z</time>
      </trkpt>
      <trkpt lat="48.85101" lon="2.24533">
        <ele>92.9</ele>
        <time>2015-06-29T19:07:53.797Z</time>
      </trkpt>
      <trkpt lat="48.85106" lon="2.2454">
        <ele>92.2</ele>
        <time>2015-06-29T19:07:54.807Z</time>
      </trkpt>
      <trkpt lat="48.8511" lon="2.24546">
        <ele>92</ele>
        <time>2015-06-29T19:07:55.687Z</time>
      </trkpt>
      <trkpt lat="48.85116" lon="2.24551">
        <ele>91.9</ele>
        <time>2015-06-29T19:07:56.763Z</time>
      </trkpt>
      <trkpt lat="48.8512" lon="2.24556">
        <ele>91.9</ele>
        <time>2015-06-29T19:07:57.771Z</time>
      </trkpt>
      <trkpt lat="48.85124" lon="2.24561">
        <ele>91.9</ele>
        <time>2015-06-29T19:07:58.719Z</time>
      </trkpt>
      <trkpt lat="48.85128" lon="2.24567">
        <ele>92</ele>
        <time>2015-06-29T19:08:00.463Z</time>
      </trkpt>
      <trkpt lat="48.85131" lon="2.24572">
        <ele>92</ele>
        <time>2015-06-29T19:08:00.750Z</time>
      </trkpt>
      <trkpt lat="48.85135" lon="2.24578">
        <ele>92</ele>
        <time>2015-06-29T19:08:01.761Z</time>
      </trkpt>
      <trkpt lat="48.85139" lon="2.24582">
        <ele>91.9</ele>
        <time>2015-06-29T19:08:02.800Z</time>
      </trkpt>
      <trkpt lat="48.85143" lon="2.24587">
        <ele>92</ele>
        <time>2015-06-29T19:08:03.726Z</time>
      </trkpt>
      <trkpt lat="48.85148" lon="2.24593">
        <ele>91.9</ele>
        <time>2015-06-29T19:08:04.728Z</time>
      </trkpt>
      <trkpt lat="48.85153" lon="2.24597">
        <ele>91.6</ele>
        <time>2015-06-29T19:08:05.730Z</time>
      </trkpt>
      <trkpt lat="48.85157" lon="2.24602">
        <ele>91.6</ele>
        <time>2015-06-29T19:08:06.742Z</time>
      </trkpt>
      <trkpt lat="48.85162" lon="2.24607">
        <ele>91.6</ele>
        <time>2015-06-29T19:08:07.760Z</time>
      </trkpt>
      <trkpt lat="48.85167" lon="2.24611">
        <ele>91.7</ele>
        <time>2015-06-29T19:08:08.785Z</time>
      </trkpt>
      <trkpt lat="48.85172" lon="2.24616">
        <ele>91.7</ele>
        <time>2015-06-29T19:08:09.791Z</time>
      </trkpt>
      <trkpt lat="48.85177" lon="2.24622">
        <ele>91.4</ele>
        <time>2015-06-29T19:08:10.794Z</time>
      </trkpt>
      <trkpt lat="48.85182" lon="2.2463">
        <ele>90.3</ele>
        <time>2015-06-29T19:08:11.801Z</time>
      </trkpt>
      <trkpt lat="48.85188" lon="2.24637">
        <ele>89.7</ele>
        <time>2015-06-29T19:08:12.695Z</time>
      </trkpt>
      <trkpt lat="48.85195" lon="2.24644">
        <ele>89.6</ele>
        <time>2015-06-29T19:08:14.190Z</time>
      </trkpt>
      <trkpt lat="48.852" lon="2.2465">
        <ele>89.6</ele>
        <time>2015-06-29T19:08:14.758Z</time>
      </trkpt>
      <trkpt lat="48.85205" lon="2.24655">
        <ele>89.3</ele>
        <time>2015-06-29T19:08:15.753Z</time>
      </trkpt>
      <trkpt lat="48.85209" lon="2.2466">
        <ele>89.5</ele>
        <time>2015-06-29T19:08:16.760Z</time>
      </trkpt>
      <trkpt lat="48.85212" lon="2.24665">
        <ele>89.7</ele>
        <time>2015-06-29T19:08:17.772Z</time>
      </trkpt>
      <trkpt lat="48.85216" lon="2.24671">
        <ele>89.9</ele>
        <time>2015-06-29T19:08:18.781Z</time>
      </trkpt>
      <trkpt lat="48.85219" lon="2.24676">
        <ele>90.1</ele>
        <time>2015-06-29T19:08:19.713Z</time>
      </trkpt>
      <trkpt lat="48.85223" lon="2.2468">
        <ele>90.3</ele>
        <time>2015-06-29T19:08:20.757Z</time>
      </trkpt>
      <trkpt lat="48.85229" lon="2.24687">
        <ele>90.2</ele>
        <time>2015-06-29T19:08:21.758Z</time>
      </trkpt>
      <trkpt lat="48.85233" lon="2.24692">
        <ele>90.3</ele>
        <time>2015-06-29T19:08:22.767Z</time>
      </trkpt>
      <trkpt lat="48.85238" lon="2.24697">
        <ele>90.4</ele>
        <time>2015-06-29T19:08:23.787Z</time>
      </trkpt>
      <trkpt lat="48.85242" lon="2.24703">
        <ele>90.7</ele>
        <time>2015-06-29T19:08:24.792Z</time>
      </trkpt>
      <trkpt lat="48.85247" lon="2.24708">
        <ele>90.6</ele>
        <time>2015-06-29T19:08:25.730Z</time>
      </trkpt>
      <trkpt lat="48.85251" lon="2.24714">
        <ele>90.7</ele>
        <time>2015-06-29T19:08:26.885Z</time>
      </trkpt>
      <trkpt lat="48.85256" lon="2.24719">
        <ele>90.7</ele>
        <time>2015-06-29T19:08:27.716Z</time>
      </trkpt>
      <trkpt lat="48.85261" lon="2.24724">
        <ele>90.9</ele>
        <time>2015-06-29T19:08:28.729Z</time>
      </trkpt>
      <trkpt lat="48.85265" lon="2.24728">
        <ele>91.2</ele>
        <time>2015-06-29T19:08:29.751Z</time>
      </trkpt>
      <trkpt lat="48.85269" lon="2.24732">
        <ele>91.5</ele>
        <time>2015-06-29T19:08:30.763Z</time>
      </trkpt>
      <trkpt lat="48.85273" lon="2.24735">
        <ele>92.1</ele>
        <time>2015-06-29T19:08:31.769Z</time>
      </trkpt>
      <trkpt lat="48.85277" lon="2.2474">
        <ele>92.6</ele>
        <time>2015-06-29T19:08:32.774Z</time>
      </trkpt>
      <trkpt lat="48.85281" lon="2.24748">
        <ele>93.8</ele>
        <time>2015-06-29T19:08:34.678Z</time>
      </trkpt>
      <trkpt lat="48.85283" lon="2.24752">
        <ele>93.9</ele>
        <time>2015-06-29T19:08:35.732Z</time>
      </trkpt>
      <trkpt lat="48.85287" lon="2.24759">
        <ele>94.5</ele>
        <time>2015-06-29T19:08:37.758Z</time>
      </trkpt>
      <trkpt lat="48.85289" lon="2.24762">
        <ele>94.8</ele>
        <time>2015-06-29T19:08:38.781Z</time>
      </trkpt>
      <trkpt lat="48.85295" lon="2.24769">
        <ele>96.1</ele>
        <time>2015-06-29T19:08:41.735Z</time>
      </trkpt>
      <trkpt lat="48.85297" lon="2.24771">
        <ele>96.2</ele>
        <time>2015-06-29T19:08:42.735Z</time>
      </trkpt>
      <trkpt lat="48.85299" lon="2.24773">
        <ele>96.4</ele>
        <time>2015-06-29T19:08:44.762Z</time>
      </trkpt>
      <trkpt lat="48.85299" lon="2.24774">
        <ele>95.9</ele>
        <time>2015-06-29T19:08:45.766Z</time>
      </trkpt>
      <trkpt lat="48.85297" lon="2.24777">
        <ele>94.5</ele>
        <time>2015-06-29T19:11:21.818Z</time>
      </trkpt>
      <trkpt lat="48.853" lon="2.24767">
        <ele>90.4</ele>
        <time>2015-06-29T19:11:22.822Z</time>
      </trkpt>
      <trkpt lat="48.85309" lon="2.24764">
        <ele>91.9</ele>
        <time>2015-06-29T19:11:26.882Z</time>
      </trkpt>
      <trkpt lat="48.85311" lon="2.24764">
        <ele>91.6</ele>
        <time>2015-06-29T19:11:27.792Z</time>
      </trkpt>
      <trkpt lat="48.85318" lon="2.24763">
        <ele>92.5</ele>
        <time>2015-06-29T19:11:30.747Z</time>
      </trkpt>
      <trkpt lat="48.85322" lon="2.24764">
        <ele>92.9</ele>
        <time>2015-06-29T19:11:31.823Z</time>
      </trkpt>
      <trkpt lat="48.85327" lon="2.24765">
        <ele>93.6</ele>
        <time>2015-06-29T19:11:33.791Z</time>
      </trkpt>
      <trkpt lat="48.85331" lon="2.24766">
        <ele>93.7</ele>
        <time>2015-06-29T19:11:34.805Z</time>
      </trkpt>
      <trkpt lat="48.85337" lon="2.24767">
        <ele>94.2</ele>
        <time>2015-06-29T19:11:35.730Z</time>
      </trkpt>
      <trkpt lat="48.85342" lon="2.24768">
        <ele>94.7</ele>
        <time>2015-06-29T19:11:36.728Z</time>
      </trkpt>
      <trkpt lat="48.85351" lon="2.24769">
        <ele>95.3</ele>
        <time>2015-06-29T19:11:38.781Z</time>
      </trkpt>
      <trkpt lat="48.85356" lon="2.2477">
        <ele>95.5</ele>
        <time>2015-06-29T19:11:39.792Z</time>
      </trkpt>
      <trkpt lat="48.8536" lon="2.2477">
        <ele>95.5</ele>
        <time>2015-06-29T19:11:40.724Z</time>
      </trkpt>
      <trkpt lat="48.85365" lon="2.24771">
        <ele>95.7</ele>
        <time>2015-06-29T19:11:41.730Z</time>
      </trkpt>
      <trkpt lat="48.85373" lon="2.24774">
        <ele>96.1</ele>
        <time>2015-06-29T19:11:43.733Z</time>
      </trkpt>
      <trkpt lat="48.85378" lon="2.24776">
        <ele>96.4</ele>
        <time>2015-06-29T19:11:44.784Z</time>
      </trkpt>
      <trkpt lat="48.85384" lon="2.24778">
        <ele>96.6</ele>
        <time>2015-06-29T19:11:45.788Z</time>
      </trkpt>
      <trkpt lat="48.85389" lon="2.24782">
        <ele>97.1</ele>
        <time>2015-06-29T19:11:46.802Z</time>
      </trkpt>
      <trkpt lat="48.85396" lon="2.24787">
        <ele>96.5</ele>
        <time>2015-06-29T19:11:48.761Z</time>
      </trkpt>
      <trkpt lat="48.854" lon="2.24791">
        <ele>96.7</ele>
        <time>2015-06-29T19:11:49.773Z</time>
      </trkpt>
      <trkpt lat="48.85403" lon="2.24796">
        <ele>96.7</ele>
        <time>2015-06-29T19:11:50.784Z</time>
      </trkpt>
      <trkpt lat="48.85405" lon="2.24802">
        <ele>96.6</ele>
        <time>2015-06-29T19:11:51.807Z</time>
      </trkpt>
      <trkpt lat="48.85408" lon="2.24807">
        <ele>96.2</ele>
        <time>2015-06-29T19:11:52.759Z</time>
      </trkpt>
      <trkpt lat="48.85412" lon="2.24812">
        <ele>96.1</ele>
        <time>2015-06-29T19:11:53.764Z</time>
      </trkpt>
      <trkpt lat="48.85416" lon="2.24818">
        <ele>95.8</ele>
        <time>2015-06-29T19:11:54.780Z</time>
      </trkpt>
      <trkpt lat="48.85421" lon="2.24824">
        <ele>95.8</ele>
        <time>2015-06-29T19:11:55.940Z</time>
      </trkpt>
      <trkpt lat="48.85426" lon="2.24829">
        <ele>95.6</ele>
        <time>2015-06-29T19:11:56.780Z</time>
      </trkpt>
      <trkpt lat="48.85431" lon="2.24835">
        <ele>95.3</ele>
        <time>2015-06-29T19:11:57.726Z</time>
      </trkpt>
      <trkpt lat="48.85437" lon="2.24841">
        <ele>95</ele>
        <time>2015-06-29T19:11:58.730Z</time>
      </trkpt>
      <trkpt lat="48.85442" lon="2.24848">
        <ele>94.9</ele>
        <time>2015-06-29T19:11:59.735Z</time>
      </trkpt>
      <trkpt lat="48.85447" lon="2.24853">
        <ele>94.9</ele>
        <time>2015-06-29T19:12:00.744Z</time>
      </trkpt>
      <trkpt lat="48.85452" lon="2.24859">
        <ele>95.2</ele>
        <time>2015-06-29T19:12:01.750Z</time>
      </trkpt>
      <trkpt lat="48.85457" lon="2.24864">
        <ele>95.4</ele>
        <time>2015-06-29T19:12:02.766Z</time>
      </trkpt>
      <trkpt lat="48.85462" lon="2.24869">
        <ele>95.5</ele>
        <time>2015-06-29T19:12:03.788Z</time>
      </trkpt>
      <trkpt lat="48.85467" lon="2.24873">
        <ele>95.8</ele>
        <time>2015-06-29T19:12:04.715Z</time>
      </trkpt>
      <trkpt lat="48.85471" lon="2.24875">
        <ele>95.6</ele>
        <time>2015-06-29T19:12:05.720Z</time>
      </trkpt>
      <trkpt lat="48.85479" lon="2.24878">
        <ele>95.7</ele>
        <time>2015-06-29T19:12:07.726Z</time>
      </trkpt>
      <trkpt lat="48.85485" lon="2.2488">
        <ele>96</ele>
        <time>2015-06-29T19:12:08.826Z</time>
      </trkpt>
      <trkpt lat="48.85491" lon="2.24881">
        <ele>96.1</ele>
        <time>2015-06-29T19:12:09.721Z</time>
      </trkpt>
      <trkpt lat="48.85496" lon="2.24882">
        <ele>96.2</ele>
        <time>2015-06-29T19:12:10.732Z</time>
      </trkpt>
      <trkpt lat="48.85501" lon="2.24882">
        <ele>96.9</ele>
        <time>2015-06-29T19:12:11.740Z</time>
      </trkpt>
      <trkpt lat="48.85505" lon="2.24883">
        <ele>97.2</ele>
        <time>2015-06-29T19:12:12.752Z</time>
      </trkpt>
      <trkpt lat="48.85513" lon="2.24885">
        <ele>97.6</ele>
        <time>2015-06-29T19:12:14.773Z</time>
      </trkpt>
      <trkpt lat="48.85517" lon="2.24888">
        <ele>97.9</ele>
        <time>2015-06-29T19:12:15.789Z</time>
      </trkpt>
      <trkpt lat="48.85521" lon="2.24891">
        <ele>97.9</ele>
        <time>2015-06-29T19:12:16.721Z</time>
      </trkpt>
      <trkpt lat="48.85529" lon="2.24894">
        <ele>98.5</ele>
        <time>2015-06-29T19:12:17.759Z</time>
      </trkpt>
      <trkpt lat="48.85536" lon="2.24898">
        <ele>98.9</ele>
        <time>2015-06-29T19:12:18.725Z</time>
      </trkpt>
      <trkpt lat="48.85542" lon="2.24902">
        <ele>98.9</ele>
        <time>2015-06-29T19:12:19.722Z</time>
      </trkpt>
      <trkpt lat="48.85546" lon="2.24905">
        <ele>98.8</ele>
        <time>2015-06-29T19:12:20.777Z</time>
      </trkpt>
      <trkpt lat="48.8555" lon="2.24908">
        <ele>98.7</ele>
        <time>2015-06-29T19:12:21.765Z</time>
      </trkpt>
      <trkpt lat="48.85556" lon="2.24917">
        <ele>99.1</ele>
        <time>2015-06-29T19:12:23.203Z</time>
      </trkpt>
      <trkpt lat="48.85559" lon="2.2492">
        <ele>99.1</ele>
        <time>2015-06-29T19:12:24.689Z</time>
      </trkpt>
      <trkpt lat="48.85562" lon="2.24926">
        <ele>99.1</ele>
        <time>2015-06-29T19:12:25.726Z</time>
      </trkpt>
      <trkpt lat="48.85566" lon="2.24932">
        <ele>98.9</ele>
        <time>2015-06-29T19:12:26.773Z</time>
      </trkpt>
      <trkpt lat="48.8557" lon="2.24938">
        <ele>98.7</ele>
        <time>2015-06-29T19:12:27.762Z</time>
      </trkpt>
      <trkpt lat="48.85575" lon="2.24944">
        <ele>98.7</ele>
        <time>2015-06-29T19:12:28.772Z</time>
      </trkpt>
      <trkpt lat="48.85579" lon="2.24949">
        <ele>98.8</ele>
        <time>2015-06-29T19:12:29.927Z</time>
      </trkpt>
      <trkpt lat="48.85584" lon="2.24955">
        <ele>98.6</ele>
        <time>2015-06-29T19:12:30.822Z</time>
      </trkpt>
      <trkpt lat="48.85588" lon="2.24962">
        <ele>98.4</ele>
        <time>2015-06-29T19:12:31.728Z</time>
      </trkpt>
      <trkpt lat="48.85592" lon="2.24968">
        <ele>98.7</ele>
        <time>2015-06-29T19:12:32.766Z</time>
      </trkpt>
      <trkpt lat="48.85596" lon="2.24974">
        <ele>98.9</ele>
        <time>2015-06-29T19:12:33.773Z</time>
      </trkpt>
      <trkpt lat="48.85601" lon="2.24979">
        <ele>99.1</ele>
        <time>2015-06-29T19:12:34.817Z</time>
      </trkpt>
      <trkpt lat="48.85606" lon="2.24983">
        <ele>99.1</ele>
        <time>2015-06-29T19:12:35.727Z</time>
      </trkpt>
      <trkpt lat="48.85612" lon="2.24987">
        <ele>99.5</ele>
        <time>2015-06-29T19:12:36.724Z</time>
      </trkpt>
      <trkpt lat="48.85617" lon="2.24989">
        <ele>99.6</ele>
        <time>2015-06-29T19:12:37.727Z</time>
      </trkpt>
      <trkpt lat="48.85622" lon="2.24991">
        <ele>99.7</ele>
        <time>2015-06-29T19:12:38.757Z</time>
      </trkpt>
      <trkpt lat="48.85629" lon="2.24992">
        <ele>99.6</ele>
        <time>2015-06-29T19:12:40.173Z</time>
      </trkpt>
      <trkpt lat="48.85636" lon="2.24992">
        <ele>99.6</ele>
        <time>2015-06-29T19:12:40.741Z</time>
      </trkpt>
      <trkpt lat="48.85643" lon="2.24991">
        <ele>99.1</ele>
        <time>2015-06-29T19:12:41.719Z</time>
      </trkpt>
      <trkpt lat="48.85651" lon="2.2499">
        <ele>99.3</ele>
        <time>2015-06-29T19:12:42.726Z</time>
      </trkpt>
      <trkpt lat="48.85662" lon="2.2499">
        <ele>100.2</ele>
        <time>2015-06-29T19:12:43.735Z</time>
      </trkpt>
      <trkpt lat="48.85669" lon="2.24988">
        <ele>100</ele>
        <time>2015-06-29T19:12:44.770Z</time>
      </trkpt>
      <trkpt lat="48.85676" lon="2.24986">
        <ele>99.8</ele>
        <time>2015-06-29T19:12:45.791Z</time>
      </trkpt>
      <trkpt lat="48.85685" lon="2.24985">
        <ele>99.6</ele>
        <time>2015-06-29T19:12:46.705Z</time>
      </trkpt>
      <trkpt lat="48.85693" lon="2.24983">
        <ele>99.6</ele>
        <time>2015-06-29T19:12:47.705Z</time>
      </trkpt>
      <trkpt lat="48.857" lon="2.24981">
        <ele>99.3</ele>
        <time>2015-06-29T19:12:48.740Z</time>
      </trkpt>
      <trkpt lat="48.85706" lon="2.24979">
        <ele>98.6</ele>
        <time>2015-06-29T19:12:49.733Z</time>
      </trkpt>
      <trkpt lat="48.85711" lon="2.24978">
        <ele>98.2</ele>
        <time>2015-06-29T19:12:50.777Z</time>
      </trkpt>
      <trkpt lat="48.85716" lon="2.24978">
        <ele>98.1</ele>
        <time>2015-06-29T19:12:51.788Z</time>
      </trkpt>
      <trkpt lat="48.85724" lon="2.2498">
        <ele>97.7</ele>
        <time>2015-06-29T19:12:53.709Z</time>
      </trkpt>
      <trkpt lat="48.85729" lon="2.24981">
        <ele>97.7</ele>
        <time>2015-06-29T19:12:54.746Z</time>
      </trkpt>
      <trkpt lat="48.85735" lon="2.24984">
        <ele>98</ele>
        <time>2015-06-29T19:12:55.782Z</time>
      </trkpt>
      <trkpt lat="48.85739" lon="2.24987">
        <ele>97.9</ele>
        <time>2015-06-29T19:12:56.787Z</time>
      </trkpt>
      <trkpt lat="48.85744" lon="2.24989">
        <ele>97.8</ele>
        <time>2015-06-29T19:12:57.705Z</time>
      </trkpt>
      <trkpt lat="48.85748" lon="2.24991">
        <ele>97.7</ele>
        <time>2015-06-29T19:12:58.701Z</time>
      </trkpt>
      <trkpt lat="48.85755" lon="2.24994">
        <ele>97.1</ele>
        <time>2015-06-29T19:12:59.705Z</time>
      </trkpt>
      <trkpt lat="48.8576" lon="2.24997">
        <ele>96.4</ele>
        <time>2015-06-29T19:13:00.720Z</time>
      </trkpt>
      <trkpt lat="48.85765" lon="2.25">
        <ele>96</ele>
        <time>2015-06-29T19:13:01.732Z</time>
      </trkpt>
      <trkpt lat="48.8577" lon="2.25002">
        <ele>95.8</ele>
        <time>2015-06-29T19:13:02.760Z</time>
      </trkpt>
      <trkpt lat="48.85778" lon="2.25005">
        <ele>95.5</ele>
        <time>2015-06-29T19:13:05.781Z</time>
      </trkpt>
      <trkpt lat="48.8578" lon="2.25006">
        <ele>96</ele>
        <time>2015-06-29T19:13:06.677Z</time>
      </trkpt>
      <trkpt lat="48.8578" lon="2.25006">
        <ele>96</ele>
        <time>2015-06-29T19:13:33.751Z</time>
      </trkpt>
      <trkpt lat="48.85788" lon="2.2503">
        <ele>95.6</ele>
        <time>2015-06-29T19:13:34.699Z</time>
      </trkpt>
      <trkpt lat="48.85792" lon="2.25034">
        <ele>96.7</ele>
        <time>2015-06-29T19:13:36.722Z</time>
      </trkpt>
      <trkpt lat="48.85796" lon="2.25037">
        <ele>97.3</ele>
        <time>2015-06-29T19:13:37.750Z</time>
      </trkpt>
      <trkpt lat="48.85801" lon="2.25045">
        <ele>97.4</ele>
        <time>2015-06-29T19:13:40.771Z</time>
      </trkpt>
      <trkpt lat="48.85803" lon="2.25048">
        <ele>97.5</ele>
        <time>2015-06-29T19:13:41.687Z</time>
      </trkpt>
      <trkpt lat="48.85808" lon="2.25059">
        <ele>97.8</ele>
        <time>2015-06-29T19:13:43.718Z</time>
      </trkpt>
      <trkpt lat="48.8581" lon="2.25064">
        <ele>97.8</ele>
        <time>2015-06-29T19:13:44.741Z</time>
      </trkpt>
      <trkpt lat="48.85815" lon="2.25074">
        <ele>97.8</ele>
        <time>2015-06-29T19:13:46.753Z</time>
      </trkpt>
      <trkpt lat="48.85817" lon="2.25079">
        <ele>98.3</ele>
        <time>2015-06-29T19:13:47.772Z</time>
      </trkpt>
      <trkpt lat="48.85819" lon="2.25085">
        <ele>98.7</ele>
        <time>2015-06-29T19:13:48.686Z</time>
      </trkpt>
      <trkpt lat="48.85822" lon="2.2509">
        <ele>99</ele>
        <time>2015-06-29T19:13:49.704Z</time>
      </trkpt>
      <trkpt lat="48.85828" lon="2.25101">
        <ele>99.4</ele>
        <time>2015-06-29T19:13:51.747Z</time>
      </trkpt>
      <trkpt lat="48.85831" lon="2.25107">
        <ele>99.6</ele>
        <time>2015-06-29T19:13:52.760Z</time>
      </trkpt>
      <trkpt lat="48.85836" lon="2.25117">
        <ele>99.8</ele>
        <time>2015-06-29T19:13:54.781Z</time>
      </trkpt>
      <trkpt lat="48.85838" lon="2.25121">
        <ele>99.8</ele>
        <time>2015-06-29T19:13:55.765Z</time>
      </trkpt>
      <trkpt lat="48.85841" lon="2.25126">
        <ele>99.9</ele>
        <time>2015-06-29T19:13:56.791Z</time>
      </trkpt>
      <trkpt lat="48.85844" lon="2.25131">
        <ele>99.8</ele>
        <time>2015-06-29T19:13:57.901Z</time>
      </trkpt>
      <trkpt lat="48.8585" lon="2.25139">
        <ele>99.9</ele>
        <time>2015-06-29T19:13:59.718Z</time>
      </trkpt>
      <trkpt lat="48.85854" lon="2.25144">
        <ele>100</ele>
        <time>2015-06-29T19:14:00.725Z</time>
      </trkpt>
      <trkpt lat="48.85858" lon="2.2515">
        <ele>100.3</ele>
        <time>2015-06-29T19:14:01.739Z</time>
      </trkpt>
      <trkpt lat="48.85862" lon="2.25156">
        <ele>100.3</ele>
        <time>2015-06-29T19:14:02.763Z</time>
      </trkpt>
      <trkpt lat="48.85865" lon="2.25161">
        <ele>100.3</ele>
        <time>2015-06-29T19:14:03.720Z</time>
      </trkpt>
      <trkpt lat="48.85869" lon="2.25168">
        <ele>100.4</ele>
        <time>2015-06-29T19:14:04.704Z</time>
      </trkpt>
      <trkpt lat="48.85872" lon="2.25173">
        <ele>100.3</ele>
        <time>2015-06-29T19:14:05.713Z</time>
      </trkpt>
      <trkpt lat="48.85875" lon="2.25179">
        <ele>100.1</ele>
        <time>2015-06-29T19:14:06.724Z</time>
      </trkpt>
      <trkpt lat="48.85881" lon="2.25187">
        <ele>99.1</ele>
        <time>2015-06-29T19:14:08.748Z</time>
      </trkpt>
      <trkpt lat="48.85885" lon="2.2519">
        <ele>99.3</ele>
        <time>2015-06-29T19:14:09.781Z</time>
      </trkpt>
      <trkpt lat="48.85894" lon="2.25191">
        <ele>99.8</ele>
        <time>2015-06-29T19:14:11.733Z</time>
      </trkpt>
      <trkpt lat="48.85898" lon="2.25191">
        <ele>100</ele>
        <time>2015-06-29T19:14:12.705Z</time>
      </trkpt>
      <trkpt lat="48.85902" lon="2.25192">
        <ele>100.6</ele>
        <time>2015-06-29T19:14:13.702Z</time>
      </trkpt>
      <trkpt lat="48.85907" lon="2.25194">
        <ele>101.3</ele>
        <time>2015-06-29T19:14:14.748Z</time>
      </trkpt>
      <trkpt lat="48.85911" lon="2.25196">
        <ele>101.8</ele>
        <time>2015-06-29T19:14:15.761Z</time>
      </trkpt>
      <trkpt lat="48.85916" lon="2.25199">
        <ele>101.7</ele>
        <time>2015-06-29T19:14:16.807Z</time>
      </trkpt>
      <trkpt lat="48.85923" lon="2.25206">
        <ele>101.7</ele>
        <time>2015-06-29T19:14:18.719Z</time>
      </trkpt>
      <trkpt lat="48.85927" lon="2.2521">
        <ele>101.6</ele>
        <time>2015-06-29T19:14:19.767Z</time>
      </trkpt>
      <trkpt lat="48.85931" lon="2.25213">
        <ele>101.4</ele>
        <time>2015-06-29T19:14:20.795Z</time>
      </trkpt>
      <trkpt lat="48.85935" lon="2.25215">
        <ele>101.2</ele>
        <time>2015-06-29T19:14:21.707Z</time>
      </trkpt>
      <trkpt lat="48.85939" lon="2.25217">
        <ele>100.7</ele>
        <time>2015-06-29T19:14:22.707Z</time>
      </trkpt>
      <trkpt lat="48.85944" lon="2.25218">
        <ele>100.6</ele>
        <time>2015-06-29T19:14:23.716Z</time>
      </trkpt>
      <trkpt lat="48.85949" lon="2.25217">
        <ele>100.8</ele>
        <time>2015-06-29T19:14:24.717Z</time>
      </trkpt>
      <trkpt lat="48.85955" lon="2.25216">
        <ele>100.8</ele>
        <time>2015-06-29T19:14:25.721Z</time>
      </trkpt>
      <trkpt lat="48.85961" lon="2.25215">
        <ele>101.1</ele>
        <time>2015-06-29T19:14:26.760Z</time>
      </trkpt>
      <trkpt lat="48.85967" lon="2.25214">
        <ele>101.3</ele>
        <time>2015-06-29T19:14:27.776Z</time>
      </trkpt>
      <trkpt lat="48.85973" lon="2.25213">
        <ele>101.6</ele>
        <time>2015-06-29T19:14:28.784Z</time>
      </trkpt>
      <trkpt lat="48.85981" lon="2.25212">
        <ele>102.1</ele>
        <time>2015-06-29T19:14:29.779Z</time>
      </trkpt>
      <trkpt lat="48.85987" lon="2.25211">
        <ele>102.3</ele>
        <time>2015-06-29T19:14:30.712Z</time>
      </trkpt>
      <trkpt lat="48.85993" lon="2.25209">
        <ele>102.6</ele>
        <time>2015-06-29T19:14:31.722Z</time>
      </trkpt>
      <trkpt lat="48.85997" lon="2.25208">
        <ele>102.9</ele>
        <time>2015-06-29T19:14:32.815Z</time>
      </trkpt>
      <trkpt lat="48.86002" lon="2.25208">
        <ele>102.8</ele>
        <time>2015-06-29T19:14:33.744Z</time>
      </trkpt>
      <trkpt lat="48.86007" lon="2.25207">
        <ele>102.6</ele>
        <time>2015-06-29T19:14:34.765Z</time>
      </trkpt>
      <trkpt lat="48.86014" lon="2.25205">
        <ele>102.4</ele>
        <time>2015-06-29T19:14:35.778Z</time>
      </trkpt>
      <trkpt lat="48.8602" lon="2.25204">
        <ele>102.1</ele>
        <time>2015-06-29T19:14:36.789Z</time>
      </trkpt>
      <trkpt lat="48.86026" lon="2.25202">
        <ele>102.2</ele>
        <time>2015-06-29T19:14:37.712Z</time>
      </trkpt>
      <trkpt lat="48.86032" lon="2.25201">
        <ele>102.1</ele>
        <time>2015-06-29T19:14:38.809Z</time>
      </trkpt>
      <trkpt lat="48.86038" lon="2.252">
        <ele>102.6</ele>
        <time>2015-06-29T19:14:39.704Z</time>
      </trkpt>
      <trkpt lat="48.86044" lon="2.25198">
        <ele>102.9</ele>
        <time>2015-06-29T19:14:40.718Z</time>
      </trkpt>
      <trkpt lat="48.86051" lon="2.25197">
        <ele>103.1</ele>
        <time>2015-06-29T19:14:41.722Z</time>
      </trkpt>
      <trkpt lat="48.86058" lon="2.25197">
        <ele>103.4</ele>
        <time>2015-06-29T19:14:42.736Z</time>
      </trkpt>
      <trkpt lat="48.86065" lon="2.25198">
        <ele>103.6</ele>
        <time>2015-06-29T19:14:43.744Z</time>
      </trkpt>
      <trkpt lat="48.86072" lon="2.25199">
        <ele>103.5</ele>
        <time>2015-06-29T19:14:44.763Z</time>
      </trkpt>
      <trkpt lat="48.86079" lon="2.252">
        <ele>103.4</ele>
        <time>2015-06-29T19:14:45.762Z</time>
      </trkpt>
      <trkpt lat="48.86086" lon="2.252">
        <ele>103</ele>
        <time>2015-06-29T19:14:46.763Z</time>
      </trkpt>
      <trkpt lat="48.86093" lon="2.25201">
        <ele>102.8</ele>
        <time>2015-06-29T19:14:47.777Z</time>
      </trkpt>
      <trkpt lat="48.861" lon="2.25202">
        <ele>102.5</ele>
        <time>2015-06-29T19:14:48.788Z</time>
      </trkpt>
      <trkpt lat="48.86107" lon="2.252">
        <ele>102.6</ele>
        <time>2015-06-29T19:14:49.831Z</time>
      </trkpt>
      <trkpt lat="48.86113" lon="2.25197">
        <ele>102.3</ele>
        <time>2015-06-29T19:14:50.775Z</time>
      </trkpt>
      <trkpt lat="48.86118" lon="2.25192">
        <ele>102.2</ele>
        <time>2015-06-29T19:14:51.703Z</time>
      </trkpt>
      <trkpt lat="48.86123" lon="2.25186">
        <ele>101.8</ele>
        <time>2015-06-29T19:14:52.708Z</time>
      </trkpt>
      <trkpt lat="48.86128" lon="2.25179">
        <ele>101.8</ele>
        <time>2015-06-29T19:14:53.723Z</time>
      </trkpt>
      <trkpt lat="48.86133" lon="2.25172">
        <ele>101.7</ele>
        <time>2015-06-29T19:14:54.733Z</time>
      </trkpt>
      <trkpt lat="48.86137" lon="2.25164">
        <ele>101.6</ele>
        <time>2015-06-29T19:14:55.744Z</time>
      </trkpt>
      <trkpt lat="48.86141" lon="2.25155">
        <ele>101.4</ele>
        <time>2015-06-29T19:14:56.772Z</time>
      </trkpt>
      <trkpt lat="48.86146" lon="2.25148">
        <ele>101.5</ele>
        <time>2015-06-29T19:14:57.779Z</time>
      </trkpt>
      <trkpt lat="48.8615" lon="2.25141">
        <ele>101.4</ele>
        <time>2015-06-29T19:14:58.720Z</time>
      </trkpt>
      <trkpt lat="48.86154" lon="2.25135">
        <ele>101.5</ele>
        <time>2015-06-29T19:14:59.687Z</time>
      </trkpt>
      <trkpt lat="48.86159" lon="2.25129">
        <ele>101.4</ele>
        <time>2015-06-29T19:15:00.746Z</time>
      </trkpt>
      <trkpt lat="48.86163" lon="2.25123">
        <ele>101</ele>
        <time>2015-06-29T19:15:01.717Z</time>
      </trkpt>
      <trkpt lat="48.86167" lon="2.25118">
        <ele>100.7</ele>
        <time>2015-06-29T19:15:02.764Z</time>
      </trkpt>
      <trkpt lat="48.86171" lon="2.25113">
        <ele>100.7</ele>
        <time>2015-06-29T19:15:03.757Z</time>
      </trkpt>
      <trkpt lat="48.86176" lon="2.25108">
        <ele>100.4</ele>
        <time>2015-06-29T19:15:04.777Z</time>
      </trkpt>
      <trkpt lat="48.86181" lon="2.25106">
        <ele>100</ele>
        <time>2015-06-29T19:15:05.779Z</time>
      </trkpt>
      <trkpt lat="48.86186" lon="2.25104">
        <ele>100.2</ele>
        <time>2015-06-29T19:15:06.777Z</time>
      </trkpt>
      <trkpt lat="48.86191" lon="2.25101">
        <ele>100.1</ele>
        <time>2015-06-29T19:15:07.797Z</time>
      </trkpt>
      <trkpt lat="48.86196" lon="2.25098">
        <ele>100</ele>
        <time>2015-06-29T19:15:08.801Z</time>
      </trkpt>
      <trkpt lat="48.86202" lon="2.25096">
        <ele>99.7</ele>
        <time>2015-06-29T19:15:09.726Z</time>
      </trkpt>
      <trkpt lat="48.86207" lon="2.25094">
        <ele>99.7</ele>
        <time>2015-06-29T19:15:10.727Z</time>
      </trkpt>
      <trkpt lat="48.86211" lon="2.2509">
        <ele>99.4</ele>
        <time>2015-06-29T19:15:11.731Z</time>
      </trkpt>
      <trkpt lat="48.86216" lon="2.25087">
        <ele>99.3</ele>
        <time>2015-06-29T19:15:12.741Z</time>
      </trkpt>
      <trkpt lat="48.86224" lon="2.25083">
        <ele>98.6</ele>
        <time>2015-06-29T19:15:13.747Z</time>
      </trkpt>
      <trkpt lat="48.8623" lon="2.25079">
        <ele>98.1</ele>
        <time>2015-06-29T19:15:14.780Z</time>
      </trkpt>
      <trkpt lat="48.86237" lon="2.25074">
        <ele>97.6</ele>
        <time>2015-06-29T19:15:15.781Z</time>
      </trkpt>
      <trkpt lat="48.86242" lon="2.25068">
        <ele>97.2</ele>
        <time>2015-06-29T19:15:16.797Z</time>
      </trkpt>
      <trkpt lat="48.86248" lon="2.25062">
        <ele>96.8</ele>
        <time>2015-06-29T19:15:17.797Z</time>
      </trkpt>
      <trkpt lat="48.86254" lon="2.25055">
        <ele>96.7</ele>
        <time>2015-06-29T19:15:18.719Z</time>
      </trkpt>
      <trkpt lat="48.8626" lon="2.25049">
        <ele>96.9</ele>
        <time>2015-06-29T19:15:19.721Z</time>
      </trkpt>
      <trkpt lat="48.86265" lon="2.25044">
        <ele>97.2</ele>
        <time>2015-06-29T19:15:20.787Z</time>
      </trkpt>
      <trkpt lat="48.8627" lon="2.25039">
        <ele>97.3</ele>
        <time>2015-06-29T19:15:21.770Z</time>
      </trkpt>
      <trkpt lat="48.86276" lon="2.25034">
        <ele>97.2</ele>
        <time>2015-06-29T19:15:22.786Z</time>
      </trkpt>
      <trkpt lat="48.86282" lon="2.2503">
        <ele>97.2</ele>
        <time>2015-06-29T19:15:23.790Z</time>
      </trkpt>
      <trkpt lat="48.86288" lon="2.25028">
        <ele>96.9</ele>
        <time>2015-06-29T19:15:24.814Z</time>
      </trkpt>
      <trkpt lat="48.86295" lon="2.25026">
        <ele>95.8</ele>
        <time>2015-06-29T19:15:25.747Z</time>
      </trkpt>
      <trkpt lat="48.86302" lon="2.25022">
        <ele>95.9</ele>
        <time>2015-06-29T19:15:26.779Z</time>
      </trkpt>
      <trkpt lat="48.86307" lon="2.25017">
        <ele>95.2</ele>
        <time>2015-06-29T19:15:27.792Z</time>
      </trkpt>
      <trkpt lat="48.86313" lon="2.25011">
        <ele>95</ele>
        <time>2015-06-29T19:15:28.694Z</time>
      </trkpt>
      <trkpt lat="48.86317" lon="2.25005">
        <ele>95.1</ele>
        <time>2015-06-29T19:15:29.720Z</time>
      </trkpt>
      <trkpt lat="48.86322" lon="2.25">
        <ele>95</ele>
        <time>2015-06-29T19:15:30.735Z</time>
      </trkpt>
      <trkpt lat="48.86326" lon="2.24995">
        <ele>95</ele>
        <time>2015-06-29T19:15:31.741Z</time>
      </trkpt>
      <trkpt lat="48.86331" lon="2.24987">
        <ele>95.1</ele>
        <time>2015-06-29T19:15:33.771Z</time>
      </trkpt>
      <trkpt lat="48.86334" lon="2.24985">
        <ele>95.4</ele>
        <time>2015-06-29T19:15:34.925Z</time>
      </trkpt>
      <trkpt lat="48.86341" lon="2.24978">
        <ele>95.5</ele>
        <time>2015-06-29T19:15:37.745Z</time>
      </trkpt>
      <trkpt lat="48.86344" lon="2.24977">
        <ele>95.4</ele>
        <time>2015-06-29T19:15:38.787Z</time>
      </trkpt>
      <trkpt lat="48.86347" lon="2.24975">
        <ele>93.4</ele>
        <time>2015-06-29T19:16:34.710Z</time>
      </trkpt>
      <trkpt lat="48.86364" lon="2.24984">
        <ele>98.9</ele>
        <time>2015-06-29T19:16:35.732Z</time>
      </trkpt>
      <trkpt lat="48.86371" lon="2.24986">
        <ele>98.6</ele>
        <time>2015-06-29T19:16:38.788Z</time>
      </trkpt>
      <trkpt lat="48.86374" lon="2.24985">
        <ele>98.3</ele>
        <time>2015-06-29T19:16:39.755Z</time>
      </trkpt>
      <trkpt lat="48.86381" lon="2.24984">
        <ele>97.9</ele>
        <time>2015-06-29T19:16:42.801Z</time>
      </trkpt>
      <trkpt lat="48.86384" lon="2.24984">
        <ele>97.7</ele>
        <time>2015-06-29T19:16:43.732Z</time>
      </trkpt>
      <trkpt lat="48.8639" lon="2.24985">
        <ele>98.3</ele>
        <time>2015-06-29T19:16:45.760Z</time>
      </trkpt>
      <trkpt lat="48.86393" lon="2.24986">
        <ele>98.8</ele>
        <time>2015-06-29T19:16:46.770Z</time>
      </trkpt>
      <trkpt lat="48.86402" lon="2.24986">
        <ele>98.7</ele>
        <time>2015-06-29T19:16:48.711Z</time>
      </trkpt>
      <trkpt lat="48.86406" lon="2.24986">
        <ele>98.3</ele>
        <time>2015-06-29T19:16:49.734Z</time>
      </trkpt>
      <trkpt lat="48.86414" lon="2.24989">
        <ele>98.1</ele>
        <time>2015-06-29T19:16:51.770Z</time>
      </trkpt>
      <trkpt lat="48.86418" lon="2.2499">
        <ele>98.2</ele>
        <time>2015-06-29T19:16:52.735Z</time>
      </trkpt>
      <trkpt lat="48.86425" lon="2.24992">
        <ele>98.1</ele>
        <time>2015-06-29T19:16:54.737Z</time>
      </trkpt>
      <trkpt lat="48.86428" lon="2.24993">
        <ele>97.8</ele>
        <time>2015-06-29T19:16:55.750Z</time>
      </trkpt>
      <trkpt lat="48.86434" lon="2.24995">
        <ele>97.9</ele>
        <time>2015-06-29T19:16:56.772Z</time>
      </trkpt>
      <trkpt lat="48.86439" lon="2.24999">
        <ele>97.9</ele>
        <time>2015-06-29T19:16:57.787Z</time>
      </trkpt>
      <trkpt lat="48.86444" lon="2.25001">
        <ele>97.9</ele>
        <time>2015-06-29T19:16:58.808Z</time>
      </trkpt>
      <trkpt lat="48.86448" lon="2.25003">
        <ele>97.8</ele>
        <time>2015-06-29T19:16:59.711Z</time>
      </trkpt>
      <trkpt lat="48.86453" lon="2.25006">
        <ele>97.9</ele>
        <time>2015-06-29T19:17:00.797Z</time>
      </trkpt>
      <trkpt lat="48.86457" lon="2.25009">
        <ele>97.9</ele>
        <time>2015-06-29T19:17:01.808Z</time>
      </trkpt>
      <trkpt lat="48.86461" lon="2.25011">
        <ele>97.8</ele>
        <time>2015-06-29T19:17:02.853Z</time>
      </trkpt>
      <trkpt lat="48.86465" lon="2.25014">
        <ele>97.7</ele>
        <time>2015-06-29T19:17:03.866Z</time>
      </trkpt>
      <trkpt lat="48.86469" lon="2.25017">
        <ele>97.7</ele>
        <time>2015-06-29T19:17:04.807Z</time>
      </trkpt>
      <trkpt lat="48.86473" lon="2.25019">
        <ele>97.6</ele>
        <time>2015-06-29T19:17:05.775Z</time>
      </trkpt>
      <trkpt lat="48.86481" lon="2.25024">
        <ele>97.3</ele>
        <time>2015-06-29T19:17:07.855Z</time>
      </trkpt>
      <trkpt lat="48.86484" lon="2.25027">
        <ele>97.1</ele>
        <time>2015-06-29T19:17:08.861Z</time>
      </trkpt>
      <trkpt lat="48.8649" lon="2.25032">
        <ele>96.6</ele>
        <time>2015-06-29T19:17:10.790Z</time>
      </trkpt>
      <trkpt lat="48.86493" lon="2.25034">
        <ele>96.7</ele>
        <time>2015-06-29T19:17:11.812Z</time>
      </trkpt>
      <trkpt lat="48.865" lon="2.25038">
        <ele>96.3</ele>
        <time>2015-06-29T19:17:14.871Z</time>
      </trkpt>
      <trkpt lat="48.86503" lon="2.25039">
        <ele>96.3</ele>
        <time>2015-06-29T19:17:15.771Z</time>
      </trkpt>
      <trkpt lat="48.86508" lon="2.25044">
        <ele>95.8</ele>
        <time>2015-06-29T19:17:18.821Z</time>
      </trkpt>
      <trkpt lat="48.86511" lon="2.25049">
        <ele>95.6</ele>
        <time>2015-06-29T19:17:19.832Z</time>
      </trkpt>
      <trkpt lat="48.86511" lon="2.25049">
        <ele>95.6</ele>
        <time>2015-06-29T19:19:43.297Z</time>
      </trkpt>
      <trkpt lat="48.86541" lon="2.25064">
        <ele>88.4</ele>
        <time>2015-06-29T19:19:44.336Z</time>
      </trkpt>
      <trkpt lat="48.86544" lon="2.25073">
        <ele>89.2</ele>
        <time>2015-06-29T19:19:47.352Z</time>
      </trkpt>
      <trkpt lat="48.86544" lon="2.25077">
        <ele>89.6</ele>
        <time>2015-06-29T19:19:48.293Z</time>
      </trkpt>
      <trkpt lat="48.86548" lon="2.25086">
        <ele>90.2</ele>
        <time>2015-06-29T19:19:50.388Z</time>
      </trkpt>
      <trkpt lat="48.8655" lon="2.2509">
        <ele>90.1</ele>
        <time>2015-06-29T19:19:51.264Z</time>
      </trkpt>
      <trkpt lat="48.86555" lon="2.25099">
        <ele>90.3</ele>
        <time>2015-06-29T19:19:53.258Z</time>
      </trkpt>
      <trkpt lat="48.86558" lon="2.25106">
        <ele>90.2</ele>
        <time>2015-06-29T19:19:54.270Z</time>
      </trkpt>
      <trkpt lat="48.86559" lon="2.25118">
        <ele>90.1</ele>
        <time>2015-06-29T19:19:56.308Z</time>
      </trkpt>
      <trkpt lat="48.8656" lon="2.25123">
        <ele>90.2</ele>
        <time>2015-06-29T19:19:57.343Z</time>
      </trkpt>
      <trkpt lat="48.86562" lon="2.25133">
        <ele>90.4</ele>
        <time>2015-06-29T19:19:59.280Z</time>
      </trkpt>
      <trkpt lat="48.86563" lon="2.25138">
        <ele>90.3</ele>
        <time>2015-06-29T19:20:00.234Z</time>
      </trkpt>
      <trkpt lat="48.86567" lon="2.25148">
        <ele>89.9</ele>
        <time>2015-06-29T19:20:02.350Z</time>
      </trkpt>
      <trkpt lat="48.86569" lon="2.25153">
        <ele>89.7</ele>
        <time>2015-06-29T19:20:03.268Z</time>
      </trkpt>
      <trkpt lat="48.86571" lon="2.25163">
        <ele>89.8</ele>
        <time>2015-06-29T19:20:05.248Z</time>
      </trkpt>
      <trkpt lat="48.86572" lon="2.25167">
        <ele>90</ele>
        <time>2015-06-29T19:20:06.253Z</time>
      </trkpt>
      <trkpt lat="48.86574" lon="2.25178">
        <ele>90.3</ele>
        <time>2015-06-29T19:20:08.275Z</time>
      </trkpt>
      <trkpt lat="48.86577" lon="2.25184">
        <ele>90.6</ele>
        <time>2015-06-29T19:20:09.284Z</time>
      </trkpt>
      <trkpt lat="48.86581" lon="2.25195">
        <ele>90.7</ele>
        <time>2015-06-29T19:20:11.298Z</time>
      </trkpt>
      <trkpt lat="48.86583" lon="2.25201">
        <ele>91</ele>
        <time>2015-06-29T19:20:12.327Z</time>
      </trkpt>
      <trkpt lat="48.86587" lon="2.25212">
        <ele>91.4</ele>
        <time>2015-06-29T19:20:14.294Z</time>
      </trkpt>
      <trkpt lat="48.86589" lon="2.25218">
        <ele>91.5</ele>
        <time>2015-06-29T19:20:15.296Z</time>
      </trkpt>
      <trkpt lat="48.86591" lon="2.25225">
        <ele>92.2</ele>
        <time>2015-06-29T19:20:16.254Z</time>
      </trkpt>
      <trkpt lat="48.86593" lon="2.2523">
        <ele>92.3</ele>
        <time>2015-06-29T19:20:17.264Z</time>
      </trkpt>
      <trkpt lat="48.86597" lon="2.25241">
        <ele>93.2</ele>
        <time>2015-06-29T19:20:19.277Z</time>
      </trkpt>
      <trkpt lat="48.86599" lon="2.25246">
        <ele>93.2</ele>
        <time>2015-06-29T19:20:20.323Z</time>
      </trkpt>
      <trkpt lat="48.86603" lon="2.25258">
        <ele>93.3</ele>
        <time>2015-06-29T19:20:22.258Z</time>
      </trkpt>
      <trkpt lat="48.86604" lon="2.25264">
        <ele>92.7</ele>
        <time>2015-06-29T19:20:23.280Z</time>
      </trkpt>
      <trkpt lat="48.86607" lon="2.25271">
        <ele>92.2</ele>
        <time>2015-06-29T19:20:24.297Z</time>
      </trkpt>
      <trkpt lat="48.8661" lon="2.25277">
        <ele>92.5</ele>
        <time>2015-06-29T19:20:25.314Z</time>
      </trkpt>
      <trkpt lat="48.86613" lon="2.25284">
        <ele>92.3</ele>
        <time>2015-06-29T19:20:26.309Z</time>
      </trkpt>
      <trkpt lat="48.86617" lon="2.2529">
        <ele>92.2</ele>
        <time>2015-06-29T19:20:27.326Z</time>
      </trkpt>
      <trkpt lat="48.86621" lon="2.25301">
        <ele>92.1</ele>
        <time>2015-06-29T19:20:29.351Z</time>
      </trkpt>
      <trkpt lat="48.86623" lon="2.25306">
        <ele>92</ele>
        <time>2015-06-29T19:20:30.272Z</time>
      </trkpt>
      <trkpt lat="48.86627" lon="2.25317">
        <ele>92</ele>
        <time>2015-06-29T19:20:32.306Z</time>
      </trkpt>
      <trkpt lat="48.8663" lon="2.25322">
        <ele>92.3</ele>
        <time>2015-06-29T19:20:33.317Z</time>
      </trkpt>
      <trkpt lat="48.86633" lon="2.25328">
        <ele>92.6</ele>
        <time>2015-06-29T19:20:34.245Z</time>
      </trkpt>
      <trkpt lat="48.86635" lon="2.25334">
        <ele>92.7</ele>
        <time>2015-06-29T19:20:35.248Z</time>
      </trkpt>
      <trkpt lat="48.86637" lon="2.25341">
        <ele>92.7</ele>
        <time>2015-06-29T19:20:36.279Z</time>
      </trkpt>
      <trkpt lat="48.86638" lon="2.25347">
        <ele>92.8</ele>
        <time>2015-06-29T19:20:37.327Z</time>
      </trkpt>
      <trkpt lat="48.8664" lon="2.25354">
        <ele>92.7</ele>
        <time>2015-06-29T19:20:38.316Z</time>
      </trkpt>
      <trkpt lat="48.86642" lon="2.2536">
        <ele>92.4</ele>
        <time>2015-06-29T19:20:39.542Z</time>
      </trkpt>
      <trkpt lat="48.86643" lon="2.25367">
        <ele>92.4</ele>
        <time>2015-06-29T19:20:40.332Z</time>
      </trkpt>
      <trkpt lat="48.86645" lon="2.25373">
        <ele>92.5</ele>
        <time>2015-06-29T19:20:41.246Z</time>
      </trkpt>
      <trkpt lat="48.86647" lon="2.2538">
        <ele>92.8</ele>
        <time>2015-06-29T19:20:42.214Z</time>
      </trkpt>
      <trkpt lat="48.86649" lon="2.25386">
        <ele>92.9</ele>
        <time>2015-06-29T19:20:43.252Z</time>
      </trkpt>
      <trkpt lat="48.86651" lon="2.25392">
        <ele>93.1</ele>
        <time>2015-06-29T19:20:44.319Z</time>
      </trkpt>
      <trkpt lat="48.86654" lon="2.25398">
        <ele>93.7</ele>
        <time>2015-06-29T19:20:45.332Z</time>
      </trkpt>
      <trkpt lat="48.86656" lon="2.25403">
        <ele>94.2</ele>
        <time>2015-06-29T19:20:46.281Z</time>
      </trkpt>
      <trkpt lat="48.86659" lon="2.25409">
        <ele>94.1</ele>
        <time>2015-06-29T19:20:47.289Z</time>
      </trkpt>
      <trkpt lat="48.86664" lon="2.2542">
        <ele>94.5</ele>
        <time>2015-06-29T19:20:49.318Z</time>
      </trkpt>
      <trkpt lat="48.86667" lon="2.25425">
        <ele>95.1</ele>
        <time>2015-06-29T19:20:50.364Z</time>
      </trkpt>
      <trkpt lat="48.8667" lon="2.25433">
        <ele>95.4</ele>
        <time>2015-06-29T19:20:52.261Z</time>
      </trkpt>
      <trkpt lat="48.86672" lon="2.25436">
        <ele>95</ele>
        <time>2015-06-29T19:20:53.284Z</time>
      </trkpt>
      <trkpt lat="48.86675" lon="2.25446">
        <ele>95.2</ele>
        <time>2015-06-29T19:20:56.353Z</time>
      </trkpt>
      <trkpt lat="48.86675" lon="2.25449">
        <ele>94.8</ele>
        <time>2015-06-29T19:20:57.278Z</time>
      </trkpt>
      <trkpt lat="48.86674" lon="2.2546">
        <ele>94.4</ele>
        <time>2015-06-29T19:21:00.250Z</time>
      </trkpt>
      <trkpt lat="48.86673" lon="2.25463">
        <ele>94</ele>
        <time>2015-06-29T19:21:01.280Z</time>
      </trkpt>
      <trkpt lat="48.86674" lon="2.25472">
        <ele>93.7</ele>
        <time>2015-06-29T19:21:05.316Z</time>
      </trkpt>
      <trkpt lat="48.86675" lon="2.25477">
        <ele>93.5</ele>
        <time>2015-06-29T19:21:06.340Z</time>
      </trkpt>
      <trkpt lat="48.86677" lon="2.25485">
        <ele>92.8</ele>
        <time>2015-06-29T19:21:08.368Z</time>
      </trkpt>
      <trkpt lat="48.86678" lon="2.2549">
        <ele>92.5</ele>
        <time>2015-06-29T19:21:09.349Z</time>
      </trkpt>
      <trkpt lat="48.8668" lon="2.255">
        <ele>92.5</ele>
        <time>2015-06-29T19:21:11.366Z</time>
      </trkpt>
      <trkpt lat="48.86681" lon="2.25506">
        <ele>92.7</ele>
        <time>2015-06-29T19:21:12.377Z</time>
      </trkpt>
      <trkpt lat="48.86684" lon="2.25516">
        <ele>93.1</ele>
        <time>2015-06-29T19:21:14.323Z</time>
      </trkpt>
      <trkpt lat="48.86685" lon="2.25522">
        <ele>93.2</ele>
        <time>2015-06-29T19:21:15.336Z</time>
      </trkpt>
      <trkpt lat="48.86688" lon="2.25532">
        <ele>93</ele>
        <time>2015-06-29T19:21:17.293Z</time>
      </trkpt>
      <trkpt lat="48.86689" lon="2.25537">
        <ele>93.2</ele>
        <time>2015-06-29T19:21:18.304Z</time>
      </trkpt>
      <trkpt lat="48.86692" lon="2.25548">
        <ele>93.6</ele>
        <time>2015-06-29T19:21:20.306Z</time>
      </trkpt>
      <trkpt lat="48.86693" lon="2.25553">
        <ele>94</ele>
        <time>2015-06-29T19:21:21.340Z</time>
      </trkpt>
      <trkpt lat="48.86695" lon="2.25564">
        <ele>94.2</ele>
        <time>2015-06-29T19:21:23.267Z</time>
      </trkpt>
      <trkpt lat="48.86696" lon="2.25569">
        <ele>94.1</ele>
        <time>2015-06-29T19:21:24.287Z</time>
      </trkpt>
      <trkpt lat="48.86699" lon="2.25579">
        <ele>94.4</ele>
        <time>2015-06-29T19:21:26.379Z</time>
      </trkpt>
      <trkpt lat="48.86701" lon="2.25585">
        <ele>94.1</ele>
        <time>2015-06-29T19:21:27.272Z</time>
      </trkpt>
      <trkpt lat="48.86703" lon="2.25597">
        <ele>94.7</ele>
        <time>2015-06-29T19:21:29.295Z</time>
      </trkpt>
      <trkpt lat="48.86704" lon="2.25603">
        <ele>94.7</ele>
        <time>2015-06-29T19:21:30.331Z</time>
      </trkpt>
      <trkpt lat="48.86706" lon="2.25615">
        <ele>94.8</ele>
        <time>2015-06-29T19:21:32.299Z</time>
      </trkpt>
      <trkpt lat="48.86707" lon="2.25621">
        <ele>95.1</ele>
        <time>2015-06-29T19:21:33.308Z</time>
      </trkpt>
      <trkpt lat="48.86708" lon="2.25633">
        <ele>94.8</ele>
        <time>2015-06-29T19:21:35.283Z</time>
      </trkpt>
      <trkpt lat="48.86709" lon="2.25639">
        <ele>94.7</ele>
        <time>2015-06-29T19:21:36.291Z</time>
      </trkpt>
      <trkpt lat="48.86711" lon="2.25652">
        <ele>95</ele>
        <time>2015-06-29T19:21:38.341Z</time>
      </trkpt>
      <trkpt lat="48.86713" lon="2.25658">
        <ele>95.1</ele>
        <time>2015-06-29T19:21:39.268Z</time>
      </trkpt>
      <trkpt lat="48.86715" lon="2.25671">
        <ele>94.8</ele>
        <time>2015-06-29T19:21:41.294Z</time>
      </trkpt>
      <trkpt lat="48.86715" lon="2.25678">
        <ele>94.4</ele>
        <time>2015-06-29T19:21:42.385Z</time>
      </trkpt>
      <trkpt lat="48.86716" lon="2.25685">
        <ele>94.5</ele>
        <time>2015-06-29T19:21:43.251Z</time>
      </trkpt>
      <trkpt lat="48.86717" lon="2.25691">
        <ele>94.6</ele>
        <time>2015-06-29T19:21:44.264Z</time>
      </trkpt>
      <trkpt lat="48.8672" lon="2.25703">
        <ele>94.3</ele>
        <time>2015-06-29T19:21:46.289Z</time>
      </trkpt>
      <trkpt lat="48.86723" lon="2.25709">
        <ele>94.9</ele>
        <time>2015-06-29T19:21:47.310Z</time>
      </trkpt>
      <trkpt lat="48.86726" lon="2.2572">
        <ele>94.9</ele>
        <time>2015-06-29T19:21:49.265Z</time>
      </trkpt>
      <trkpt lat="48.86728" lon="2.25726">
        <ele>94.7</ele>
        <time>2015-06-29T19:21:50.288Z</time>
      </trkpt>
      <trkpt lat="48.8673" lon="2.25739">
        <ele>94.5</ele>
        <time>2015-06-29T19:21:52.324Z</time>
      </trkpt>
      <trkpt lat="48.86731" lon="2.25746">
        <ele>94.2</ele>
        <time>2015-06-29T19:21:53.277Z</time>
      </trkpt>
      <trkpt lat="48.86734" lon="2.25758">
        <ele>93.7</ele>
        <time>2015-06-29T19:21:55.267Z</time>
      </trkpt>
      <trkpt lat="48.86735" lon="2.25765">
        <ele>93.8</ele>
        <time>2015-06-29T19:21:56.325Z</time>
      </trkpt>
      <trkpt lat="48.86737" lon="2.25777">
        <ele>94.3</ele>
        <time>2015-06-29T19:21:58.255Z</time>
      </trkpt>
      <trkpt lat="48.86738" lon="2.25784">
        <ele>94.4</ele>
        <time>2015-06-29T19:21:59.270Z</time>
      </trkpt>
      <trkpt lat="48.86739" lon="2.25791">
        <ele>94.4</ele>
        <time>2015-06-29T19:22:00.291Z</time>
      </trkpt>
      <trkpt lat="48.86741" lon="2.25797">
        <ele>94.6</ele>
        <time>2015-06-29T19:22:01.320Z</time>
      </trkpt>
      <trkpt lat="48.86743" lon="2.2581">
        <ele>94.9</ele>
        <time>2015-06-29T19:22:02.785Z</time>
      </trkpt>
      <trkpt lat="48.86745" lon="2.25817">
        <ele>95</ele>
        <time>2015-06-29T19:22:04.254Z</time>
      </trkpt>
      <trkpt lat="48.86747" lon="2.25823">
        <ele>95</ele>
        <time>2015-06-29T19:22:05.302Z</time>
      </trkpt>
      <trkpt lat="48.86749" lon="2.2583">
        <ele>95</ele>
        <time>2015-06-29T19:22:06.310Z</time>
      </trkpt>
      <trkpt lat="48.86751" lon="2.25842">
        <ele>95</ele>
        <time>2015-06-29T19:22:08.330Z</time>
      </trkpt>
      <trkpt lat="48.86752" lon="2.25847">
        <ele>94.9</ele>
        <time>2015-06-29T19:22:09.311Z</time>
      </trkpt>
      <trkpt lat="48.86753" lon="2.2586">
        <ele>94.4</ele>
        <time>2015-06-29T19:22:11.485Z</time>
      </trkpt>
      <trkpt lat="48.86754" lon="2.25867">
        <ele>94.3</ele>
        <time>2015-06-29T19:22:12.232Z</time>
      </trkpt>
      <trkpt lat="48.86755" lon="2.2588">
        <ele>94.1</ele>
        <time>2015-06-29T19:22:14.319Z</time>
      </trkpt>
      <trkpt lat="48.86756" lon="2.25886">
        <ele>93.8</ele>
        <time>2015-06-29T19:22:15.329Z</time>
      </trkpt>
      <trkpt lat="48.86757" lon="2.25893">
        <ele>93.3</ele>
        <time>2015-06-29T19:22:16.243Z</time>
      </trkpt>
      <trkpt lat="48.86759" lon="2.25899">
        <ele>93.1</ele>
        <time>2015-06-29T19:22:17.253Z</time>
      </trkpt>
      <trkpt lat="48.86761" lon="2.25906">
        <ele>93.3</ele>
        <time>2015-06-29T19:22:18.277Z</time>
      </trkpt>
      <trkpt lat="48.86763" lon="2.25912">
        <ele>93.2</ele>
        <time>2015-06-29T19:22:19.258Z</time>
      </trkpt>
      <trkpt lat="48.86765" lon="2.25919">
        <ele>93.5</ele>
        <time>2015-06-29T19:22:20.296Z</time>
      </trkpt>
      <trkpt lat="48.86768" lon="2.25924">
        <ele>93.6</ele>
        <time>2015-06-29T19:22:21.300Z</time>
      </trkpt>
      <trkpt lat="48.86773" lon="2.25935">
        <ele>93.8</ele>
        <time>2015-06-29T19:22:23.239Z</time>
      </trkpt>
      <trkpt lat="48.86775" lon="2.25941">
        <ele>93.4</ele>
        <time>2015-06-29T19:22:24.352Z</time>
      </trkpt>
      <trkpt lat="48.86779" lon="2.25953">
        <ele>93.4</ele>
        <time>2015-06-29T19:22:26.298Z</time>
      </trkpt>
      <trkpt lat="48.86782" lon="2.25959">
        <ele>93.4</ele>
        <time>2015-06-29T19:22:27.310Z</time>
      </trkpt>
      <trkpt lat="48.86784" lon="2.25966">
        <ele>93.4</ele>
        <time>2015-06-29T19:22:28.251Z</time>
      </trkpt>
      <trkpt lat="48.86787" lon="2.25972">
        <ele>93.6</ele>
        <time>2015-06-29T19:22:29.265Z</time>
      </trkpt>
      <trkpt lat="48.86791" lon="2.25979">
        <ele>94.1</ele>
        <time>2015-06-29T19:22:30.281Z</time>
      </trkpt>
      <trkpt lat="48.86794" lon="2.25986">
        <ele>94.4</ele>
        <time>2015-06-29T19:22:31.285Z</time>
      </trkpt>
      <trkpt lat="48.86797" lon="2.25992">
        <ele>94.3</ele>
        <time>2015-06-29T19:22:32.301Z</time>
      </trkpt>
      <trkpt lat="48.868" lon="2.25999">
        <ele>93.5</ele>
        <time>2015-06-29T19:22:33.312Z</time>
      </trkpt>
      <trkpt lat="48.86803" lon="2.26005">
        <ele>93.3</ele>
        <time>2015-06-29T19:22:34.490Z</time>
      </trkpt>
      <trkpt lat="48.86806" lon="2.26011">
        <ele>93.5</ele>
        <time>2015-06-29T19:22:35.243Z</time>
      </trkpt>
      <trkpt lat="48.86811" lon="2.26021">
        <ele>93.2</ele>
        <time>2015-06-29T19:22:37.263Z</time>
      </trkpt>
      <trkpt lat="48.86813" lon="2.26027">
        <ele>93.2</ele>
        <time>2015-06-29T19:22:38.343Z</time>
      </trkpt>
      <trkpt lat="48.86816" lon="2.26039">
        <ele>93.3</ele>
        <time>2015-06-29T19:22:40.251Z</time>
      </trkpt>
      <trkpt lat="48.86818" lon="2.26046">
        <ele>93.5</ele>
        <time>2015-06-29T19:22:41.289Z</time>
      </trkpt>
      <trkpt lat="48.86822" lon="2.26052">
        <ele>93.9</ele>
        <time>2015-06-29T19:22:42.254Z</time>
      </trkpt>
      <trkpt lat="48.86825" lon="2.26059">
        <ele>93.9</ele>
        <time>2015-06-29T19:22:43.242Z</time>
      </trkpt>
      <trkpt lat="48.86827" lon="2.26067">
        <ele>94.3</ele>
        <time>2015-06-29T19:22:44.301Z</time>
      </trkpt>
      <trkpt lat="48.86829" lon="2.26076">
        <ele>94.7</ele>
        <time>2015-06-29T19:22:45.311Z</time>
      </trkpt>
      <trkpt lat="48.86832" lon="2.26083">
        <ele>94.9</ele>
        <time>2015-06-29T19:22:46.322Z</time>
      </trkpt>
      <trkpt lat="48.86835" lon="2.26091">
        <ele>94.9</ele>
        <time>2015-06-29T19:22:47.242Z</time>
      </trkpt>
      <trkpt lat="48.86837" lon="2.26098">
        <ele>94.8</ele>
        <time>2015-06-29T19:22:48.246Z</time>
      </trkpt>
      <trkpt lat="48.86839" lon="2.26105">
        <ele>94.6</ele>
        <time>2015-06-29T19:22:49.251Z</time>
      </trkpt>
      <trkpt lat="48.8684" lon="2.26114">
        <ele>94.5</ele>
        <time>2015-06-29T19:22:50.288Z</time>
      </trkpt>
      <trkpt lat="48.86842" lon="2.26122">
        <ele>94.7</ele>
        <time>2015-06-29T19:22:51.294Z</time>
      </trkpt>
      <trkpt lat="48.86845" lon="2.26129">
        <ele>95.2</ele>
        <time>2015-06-29T19:22:52.299Z</time>
      </trkpt>
      <trkpt lat="48.86849" lon="2.26137">
        <ele>95.1</ele>
        <time>2015-06-29T19:22:53.305Z</time>
      </trkpt>
      <trkpt lat="48.8685" lon="2.26144">
        <ele>95.5</ele>
        <time>2015-06-29T19:22:54.306Z</time>
      </trkpt>
      <trkpt lat="48.86852" lon="2.2615">
        <ele>95.6</ele>
        <time>2015-06-29T19:22:55.321Z</time>
      </trkpt>
      <trkpt lat="48.86855" lon="2.26163">
        <ele>96.2</ele>
        <time>2015-06-29T19:22:57.365Z</time>
      </trkpt>
      <trkpt lat="48.86855" lon="2.2617">
        <ele>96</ele>
        <time>2015-06-29T19:22:58.241Z</time>
      </trkpt>
      <trkpt lat="48.86857" lon="2.26181">
        <ele>95.4</ele>
        <time>2015-06-29T19:23:00.287Z</time>
      </trkpt>
      <trkpt lat="48.86858" lon="2.26185">
        <ele>95.5</ele>
        <time>2015-06-29T19:23:01.291Z</time>
      </trkpt>
      <trkpt lat="48.86858" lon="2.26196">
        <ele>96.3</ele>
        <time>2015-06-29T19:23:03.319Z</time>
      </trkpt>
      <trkpt lat="48.86858" lon="2.26202">
        <ele>96.6</ele>
        <time>2015-06-29T19:23:04.355Z</time>
      </trkpt>
      <trkpt lat="48.86859" lon="2.26212">
        <ele>96.7</ele>
        <time>2015-06-29T19:23:06.241Z</time>
      </trkpt>
      <trkpt lat="48.86859" lon="2.26216">
        <ele>96.8</ele>
        <time>2015-06-29T19:23:07.282Z</time>
      </trkpt>
      <trkpt lat="48.8686" lon="2.26225">
        <ele>96.7</ele>
        <time>2015-06-29T19:23:09.294Z</time>
      </trkpt>
      <trkpt lat="48.86858" lon="2.2623">
        <ele>95.3</ele>
        <time>2015-06-29T19:23:10.315Z</time>
      </trkpt>
      <trkpt lat="48.86856" lon="2.26241">
        <ele>93.2</ele>
        <time>2015-06-29T19:23:12.323Z</time>
      </trkpt>
      <trkpt lat="48.86855" lon="2.26246">
        <ele>92.9</ele>
        <time>2015-06-29T19:23:13.281Z</time>
      </trkpt>
      <trkpt lat="48.86855" lon="2.26258">
        <ele>93.1</ele>
        <time>2015-06-29T19:23:16.336Z</time>
      </trkpt>
      <trkpt lat="48.86855" lon="2.26262">
        <ele>93.3</ele>
        <time>2015-06-29T19:23:17.334Z</time>
      </trkpt>
      <trkpt lat="48.86855" lon="2.26275">
        <ele>92.9</ele>
        <time>2015-06-29T19:23:21.368Z</time>
      </trkpt>
      <trkpt lat="48.86854" lon="2.26279">
        <ele>92.1</ele>
        <time>2015-06-29T19:23:22.304Z</time>
      </trkpt>
      <trkpt lat="48.86849" lon="2.2629">
        <ele>91.7</ele>
        <time>2015-06-29T19:23:27.374Z</time>
      </trkpt>
      <trkpt lat="48.86849" lon="2.26293">
        <ele>91.5</ele>
        <time>2015-06-29T19:23:28.293Z</time>
      </trkpt>
      <trkpt lat="48.86849" lon="2.26305">
        <ele>90.5</ele>
        <time>2015-06-29T19:23:31.328Z</time>
      </trkpt>
      <trkpt lat="48.86849" lon="2.26309">
        <ele>90.5</ele>
        <time>2015-06-29T19:23:32.346Z</time>
      </trkpt>
      <trkpt lat="48.86848" lon="2.26319">
        <ele>90.6</ele>
        <time>2015-06-29T19:23:34.295Z</time>
      </trkpt>
      <trkpt lat="48.86848" lon="2.26323">
        <ele>90.5</ele>
        <time>2015-06-29T19:23:35.377Z</time>
      </trkpt>
      <trkpt lat="48.86847" lon="2.26332">
        <ele>89.3</ele>
        <time>2015-06-29T19:23:37.305Z</time>
      </trkpt>
      <trkpt lat="48.86847" lon="2.26337">
        <ele>89.1</ele>
        <time>2015-06-29T19:23:38.353Z</time>
      </trkpt>
      <trkpt lat="48.86847" lon="2.26346">
        <ele>88.4</ele>
        <time>2015-06-29T19:23:40.258Z</time>
      </trkpt>
      <trkpt lat="48.86848" lon="2.26351">
        <ele>88.3</ele>
        <time>2015-06-29T19:23:41.299Z</time>
      </trkpt>
      <trkpt lat="48.86849" lon="2.26361">
        <ele>88.6</ele>
        <time>2015-06-29T19:23:43.963Z</time>
      </trkpt>
      <trkpt lat="48.86849" lon="2.26366">
        <ele>88.5</ele>
        <time>2015-06-29T19:23:44.339Z</time>
      </trkpt>
      <trkpt lat="48.86849" lon="2.26377">
        <ele>88.3</ele>
        <time>2015-06-29T19:23:46.309Z</time>
      </trkpt>
      <trkpt lat="48.86848" lon="2.26382">
        <ele>88.3</ele>
        <time>2015-06-29T19:23:47.327Z</time>
      </trkpt>
      <trkpt lat="48.86849" lon="2.26392">
        <ele>88.1</ele>
        <time>2015-06-29T19:23:49.312Z</time>
      </trkpt>
      <trkpt lat="48.86851" lon="2.26397">
        <ele>87.9</ele>
        <time>2015-06-29T19:23:50.355Z</time>
      </trkpt>
      <trkpt lat="48.86853" lon="2.26406">
        <ele>88</ele>
        <time>2015-06-29T19:23:52.402Z</time>
      </trkpt>
      <trkpt lat="48.86853" lon="2.26412">
        <ele>87.9</ele>
        <time>2015-06-29T19:23:53.421Z</time>
      </trkpt>
      <trkpt lat="48.86855" lon="2.26425">
        <ele>88</ele>
        <time>2015-06-29T19:23:55.447Z</time>
      </trkpt>
      <trkpt lat="48.86855" lon="2.26431">
        <ele>88.2</ele>
        <time>2015-06-29T19:23:56.543Z</time>
      </trkpt>
      <trkpt lat="48.86857" lon="2.26441">
        <ele>88.6</ele>
        <time>2015-06-29T19:23:59.296Z</time>
      </trkpt>
      <trkpt lat="48.86858" lon="2.26446">
        <ele>88.8</ele>
        <time>2015-06-29T19:23:59.397Z</time>
      </trkpt>
      <trkpt lat="48.86858" lon="2.26455">
        <ele>89</ele>
        <time>2015-06-29T19:24:01.428Z</time>
      </trkpt>
      <trkpt lat="48.86857" lon="2.2646">
        <ele>89.2</ele>
        <time>2015-06-29T19:24:02.505Z</time>
      </trkpt>
      <trkpt lat="48.86855" lon="2.2647">
        <ele>89.7</ele>
        <time>2015-06-29T19:24:04.329Z</time>
      </trkpt>
      <trkpt lat="48.86855" lon="2.26474">
        <ele>89.5</ele>
        <time>2015-06-29T19:24:05.455Z</time>
      </trkpt>
      <trkpt lat="48.86853" lon="2.26486">
        <ele>89.5</ele>
        <time>2015-06-29T19:24:08.589Z</time>
      </trkpt>
      <trkpt lat="48.86853" lon="2.26489">
        <ele>89.1</ele>
        <time>2015-06-29T19:24:09.485Z</time>
      </trkpt>
      <trkpt lat="48.8685" lon="2.265">
        <ele>88.9</ele>
        <time>2015-06-29T19:24:12.466Z</time>
      </trkpt>
      <trkpt lat="48.86849" lon="2.26503">
        <ele>88.7</ele>
        <time>2015-06-29T19:24:13.387Z</time>
      </trkpt>
      <trkpt lat="48.86846" lon="2.26512">
        <ele>89.4</ele>
        <time>2015-06-29T19:24:16.548Z</time>
      </trkpt>
      <trkpt lat="48.86845" lon="2.26515">
        <ele>89.4</ele>
        <time>2015-06-29T19:24:17.475Z</time>
      </trkpt>
      <trkpt lat="48.86844" lon="2.26527">
        <ele>89.6</ele>
        <time>2015-06-29T19:24:22.486Z</time>
      </trkpt>
      <trkpt lat="48.86844" lon="2.26529">
        <ele>89.6</ele>
        <time>2015-06-29T19:24:23.437Z</time>
      </trkpt>
      <trkpt lat="48.86838" lon="2.26539">
        <ele>90.1</ele>
        <time>2015-06-29T19:24:28.438Z</time>
      </trkpt>
      <trkpt lat="48.86837" lon="2.2654">
        <ele>90.3</ele>
        <time>2015-06-29T19:24:29.497Z</time>
      </trkpt>
      <trkpt lat="48.86831" lon="2.26547">
        <ele>90.8</ele>
        <time>2015-06-29T19:24:34.765Z</time>
      </trkpt>
      <trkpt lat="48.86829" lon="2.26549">
        <ele>90.8</ele>
        <time>2015-06-29T19:24:35.444Z</time>
      </trkpt>
      <trkpt lat="48.86822" lon="2.26556">
        <ele>90.5</ele>
        <time>2015-06-29T19:24:39.820Z</time>
      </trkpt>
      <trkpt lat="48.86819" lon="2.26557">
        <ele>90.5</ele>
        <time>2015-06-29T19:24:40.455Z</time>
      </trkpt>
      <trkpt lat="48.86818" lon="2.26558">
        <ele>90.4</ele>
        <time>2015-06-29T19:24:41.481Z</time>
      </trkpt>
      <trkpt lat="48.86817" lon="2.26558">
        <ele>89.6</ele>
        <time>2015-06-29T19:24:42.486Z</time>
      </trkpt>
      <trkpt lat="48.86818" lon="2.26557">
        <ele>89.4</ele>
        <time>2015-06-29T19:24:54.989Z</time>
      </trkpt>
      <trkpt lat="48.86811" lon="2.26567">
        <ele>89.9</ele>
        <time>2015-06-29T19:24:55.408Z</time>
      </trkpt>
      <trkpt lat="48.86805" lon="2.26569">
        <ele>90.2</ele>
        <time>2015-06-29T19:24:58.462Z</time>
      </trkpt>
      <trkpt lat="48.86802" lon="2.26571">
        <ele>90.3</ele>
        <time>2015-06-29T19:24:59.471Z</time>
      </trkpt>
      <trkpt lat="48.86794" lon="2.26573">
        <ele>90.8</ele>
        <time>2015-06-29T19:25:02.453Z</time>
      </trkpt>
      <trkpt lat="48.86792" lon="2.26574">
        <ele>91</ele>
        <time>2015-06-29T19:25:03.448Z</time>
      </trkpt>
      <trkpt lat="48.86785" lon="2.26572">
        <ele>91</ele>
        <time>2015-06-29T19:25:34.699Z</time>
      </trkpt>
      <trkpt lat="48.86783" lon="2.26572">
        <ele>91</ele>
        <time>2015-06-29T19:25:35.419Z</time>
      </trkpt>
      <trkpt lat="48.86775" lon="2.26571">
        <ele>91.3</ele>
        <time>2015-06-29T19:25:38.512Z</time>
      </trkpt>
      <trkpt lat="48.86772" lon="2.2657">
        <ele>91.2</ele>
        <time>2015-06-29T19:25:39.430Z</time>
      </trkpt>
      <trkpt lat="48.86767" lon="2.26567">
        <ele>91.3</ele>
        <time>2015-06-29T19:25:41.471Z</time>
      </trkpt>
      <trkpt lat="48.86764" lon="2.26565">
        <ele>91.3</ele>
        <time>2015-06-29T19:25:42.493Z</time>
      </trkpt>
      <trkpt lat="48.86758" lon="2.2656">
        <ele>91.4</ele>
        <time>2015-06-29T19:25:44.846Z</time>
      </trkpt>
      <trkpt lat="48.86755" lon="2.26557">
        <ele>91.3</ele>
        <time>2015-06-29T19:25:45.538Z</time>
      </trkpt>
      <trkpt lat="48.86748" lon="2.26551">
        <ele>91.5</ele>
        <time>2015-06-29T19:25:47.450Z</time>
      </trkpt>
      <trkpt lat="48.86745" lon="2.26549">
        <ele>91.8</ele>
        <time>2015-06-29T19:25:48.458Z</time>
      </trkpt>
      <trkpt lat="48.86739" lon="2.26542">
        <ele>91.9</ele>
        <time>2015-06-29T19:25:50.501Z</time>
      </trkpt>
      <trkpt lat="48.86735" lon="2.26539">
        <ele>92</ele>
        <time>2015-06-29T19:25:51.438Z</time>
      </trkpt>
      <trkpt lat="48.86728" lon="2.26533">
        <ele>92.2</ele>
        <time>2015-06-29T19:25:53.463Z</time>
      </trkpt>
      <trkpt lat="48.86724" lon="2.2653">
        <ele>92.3</ele>
        <time>2015-06-29T19:25:54.470Z</time>
      </trkpt>
      <trkpt lat="48.8672" lon="2.26526">
        <ele>92.3</ele>
        <time>2015-06-29T19:25:55.557Z</time>
      </trkpt>
      <trkpt lat="48.86716" lon="2.26523">
        <ele>92.4</ele>
        <time>2015-06-29T19:25:56.468Z</time>
      </trkpt>
      <trkpt lat="48.86708" lon="2.26515">
        <ele>92.3</ele>
        <time>2015-06-29T19:25:58.489Z</time>
      </trkpt>
      <trkpt lat="48.86705" lon="2.26512">
        <ele>92.5</ele>
        <time>2015-06-29T19:25:59.378Z</time>
      </trkpt>
      <trkpt lat="48.86697" lon="2.26504">
        <ele>92.4</ele>
        <time>2015-06-29T19:26:01.503Z</time>
      </trkpt>
      <trkpt lat="48.86693" lon="2.265">
        <ele>92.6</ele>
        <time>2015-06-29T19:26:02.543Z</time>
      </trkpt>
      <trkpt lat="48.86689" lon="2.26495">
        <ele>92.6</ele>
        <time>2015-06-29T19:26:03.412Z</time>
      </trkpt>
      <trkpt lat="48.86685" lon="2.26491">
        <ele>92.8</ele>
        <time>2015-06-29T19:26:04.449Z</time>
      </trkpt>
      <trkpt lat="48.86682" lon="2.26487">
        <ele>93.1</ele>
        <time>2015-06-29T19:26:05.402Z</time>
      </trkpt>
      <trkpt lat="48.86678" lon="2.26484">
        <ele>93.3</ele>
        <time>2015-06-29T19:26:06.416Z</time>
      </trkpt>
      <trkpt lat="48.86671" lon="2.26476">
        <ele>94.2</ele>
        <time>2015-06-29T19:26:08.442Z</time>
      </trkpt>
      <trkpt lat="48.86667" lon="2.26473">
        <ele>94.2</ele>
        <time>2015-06-29T19:26:09.455Z</time>
      </trkpt>
      <trkpt lat="48.86662" lon="2.26466">
        <ele>94.4</ele>
        <time>2015-06-29T19:26:11.412Z</time>
      </trkpt>
      <trkpt lat="48.8666" lon="2.26463">
        <ele>94.8</ele>
        <time>2015-06-29T19:26:12.435Z</time>
      </trkpt>
      <trkpt lat="48.86655" lon="2.26456">
        <ele>94.3</ele>
        <time>2015-06-29T19:26:14.445Z</time>
      </trkpt>
      <trkpt lat="48.86652" lon="2.26452">
        <ele>94.5</ele>
        <time>2015-06-29T19:26:15.481Z</time>
      </trkpt>
      <trkpt lat="48.86646" lon="2.26445">
        <ele>94.5</ele>
        <time>2015-06-29T19:26:17.407Z</time>
      </trkpt>
      <trkpt lat="48.86643" lon="2.26441">
        <ele>94.4</ele>
        <time>2015-06-29T19:26:18.429Z</time>
      </trkpt>
      <trkpt lat="48.86637" lon="2.26431">
        <ele>93.9</ele>
        <time>2015-06-29T19:26:20.464Z</time>
      </trkpt>
      <trkpt lat="48.86634" lon="2.26425">
        <ele>93.7</ele>
        <time>2015-06-29T19:26:21.494Z</time>
      </trkpt>
      <trkpt lat="48.86628" lon="2.26416">
        <ele>93.8</ele>
        <time>2015-06-29T19:26:23.433Z</time>
      </trkpt>
      <trkpt lat="48.86625" lon="2.26412">
        <ele>93.7</ele>
        <time>2015-06-29T19:26:24.607Z</time>
      </trkpt>
      <trkpt lat="48.8662" lon="2.26403">
        <ele>94.2</ele>
        <time>2015-06-29T19:26:26.477Z</time>
      </trkpt>
      <trkpt lat="48.86617" lon="2.26399">
        <ele>94.4</ele>
        <time>2015-06-29T19:26:27.487Z</time>
      </trkpt>
      <trkpt lat="48.86611" lon="2.26388">
        <ele>94.3</ele>
        <time>2015-06-29T19:26:29.410Z</time>
      </trkpt>
      <trkpt lat="48.86609" lon="2.26382">
        <ele>94</ele>
        <time>2015-06-29T19:26:30.454Z</time>
      </trkpt>
      <trkpt lat="48.86604" lon="2.26372">
        <ele>93.8</ele>
        <time>2015-06-29T19:26:32.517Z</time>
      </trkpt>
      <trkpt lat="48.866" lon="2.26367">
        <ele>93.6</ele>
        <time>2015-06-29T19:26:33.403Z</time>
      </trkpt>
      <trkpt lat="48.86597" lon="2.26363">
        <ele>93.4</ele>
        <time>2015-06-29T19:26:34.418Z</time>
      </trkpt>
      <trkpt lat="48.86593" lon="2.26359">
        <ele>93.5</ele>
        <time>2015-06-29T19:26:35.447Z</time>
      </trkpt>
      <trkpt lat="48.86588" lon="2.26355">
        <ele>93.4</ele>
        <time>2015-06-29T19:26:36.461Z</time>
      </trkpt>
      <trkpt lat="48.86584" lon="2.2635">
        <ele>93.4</ele>
        <time>2015-06-29T19:26:37.467Z</time>
      </trkpt>
      <trkpt lat="48.86578" lon="2.26346">
        <ele>93.4</ele>
        <time>2015-06-29T19:26:38.488Z</time>
      </trkpt>
      <trkpt lat="48.86574" lon="2.26342">
        <ele>93.5</ele>
        <time>2015-06-29T19:26:39.505Z</time>
      </trkpt>
      <trkpt lat="48.8657" lon="2.26339">
        <ele>93.4</ele>
        <time>2015-06-29T19:26:40.412Z</time>
      </trkpt>
      <trkpt lat="48.86565" lon="2.26337">
        <ele>93.4</ele>
        <time>2015-06-29T19:26:41.422Z</time>
      </trkpt>
      <trkpt lat="48.8656" lon="2.26335">
        <ele>93.4</ele>
        <time>2015-06-29T19:26:42.435Z</time>
      </trkpt>
      <trkpt lat="48.86556" lon="2.26333">
        <ele>93.3</ele>
        <time>2015-06-29T19:26:43.439Z</time>
      </trkpt>
      <trkpt lat="48.8655" lon="2.26332">
        <ele>93.8</ele>
        <time>2015-06-29T19:26:44.494Z</time>
      </trkpt>
      <trkpt lat="48.86545" lon="2.2633">
        <ele>93.9</ele>
        <time>2015-06-29T19:26:45.414Z</time>
      </trkpt>
      <trkpt lat="48.8654" lon="2.2633">
        <ele>94</ele>
        <time>2015-06-29T19:26:46.415Z</time>
      </trkpt>
      <trkpt lat="48.86535" lon="2.26329">
        <ele>94.4</ele>
        <time>2015-06-29T19:26:47.430Z</time>
      </trkpt>
      <trkpt lat="48.86531" lon="2.26328">
        <ele>94.7</ele>
        <time>2015-06-29T19:26:48.473Z</time>
      </trkpt>
      <trkpt lat="48.86526" lon="2.26327">
        <ele>94.7</ele>
        <time>2015-06-29T19:26:49.390Z</time>
      </trkpt>
      <trkpt lat="48.86521" lon="2.26326">
        <ele>94.8</ele>
        <time>2015-06-29T19:26:50.497Z</time>
      </trkpt>
      <trkpt lat="48.86516" lon="2.26325">
        <ele>94.8</ele>
        <time>2015-06-29T19:26:51.390Z</time>
      </trkpt>
      <trkpt lat="48.86511" lon="2.26324">
        <ele>95.3</ele>
        <time>2015-06-29T19:26:52.398Z</time>
      </trkpt>
      <trkpt lat="48.86506" lon="2.26322">
        <ele>95.4</ele>
        <time>2015-06-29T19:26:53.404Z</time>
      </trkpt>
      <trkpt lat="48.86501" lon="2.2632">
        <ele>95.2</ele>
        <time>2015-06-29T19:26:54.412Z</time>
      </trkpt>
      <trkpt lat="48.86496" lon="2.26318">
        <ele>95.2</ele>
        <time>2015-06-29T19:26:55.426Z</time>
      </trkpt>
      <trkpt lat="48.86492" lon="2.26317">
        <ele>95.3</ele>
        <time>2015-06-29T19:26:56.450Z</time>
      </trkpt>
      <trkpt lat="48.86486" lon="2.26315">
        <ele>95.5</ele>
        <time>2015-06-29T19:26:57.457Z</time>
      </trkpt>
      <trkpt lat="48.86481" lon="2.26312">
        <ele>96</ele>
        <time>2015-06-29T19:26:58.467Z</time>
      </trkpt>
      <trkpt lat="48.86475" lon="2.26308">
        <ele>96.3</ele>
        <time>2015-06-29T19:26:59.473Z</time>
      </trkpt>
      <trkpt lat="48.8647" lon="2.26305">
        <ele>96.4</ele>
        <time>2015-06-29T19:27:00.367Z</time>
      </trkpt>
      <trkpt lat="48.86465" lon="2.26301">
        <ele>96.6</ele>
        <time>2015-06-29T19:27:01.391Z</time>
      </trkpt>
      <trkpt lat="48.8646" lon="2.26297">
        <ele>96.8</ele>
        <time>2015-06-29T19:27:02.447Z</time>
      </trkpt>
      <trkpt lat="48.86455" lon="2.26291">
        <ele>96.8</ele>
        <time>2015-06-29T19:27:03.452Z</time>
      </trkpt>
      <trkpt lat="48.86451" lon="2.26286">
        <ele>97.2</ele>
        <time>2015-06-29T19:27:04.403Z</time>
      </trkpt>
      <trkpt lat="48.86446" lon="2.26279">
        <ele>96.9</ele>
        <time>2015-06-29T19:27:05.407Z</time>
      </trkpt>
      <trkpt lat="48.86442" lon="2.26273">
        <ele>96.9</ele>
        <time>2015-06-29T19:27:06.413Z</time>
      </trkpt>
      <trkpt lat="48.86438" lon="2.26267">
        <ele>96.9</ele>
        <time>2015-06-29T19:27:07.422Z</time>
      </trkpt>
      <trkpt lat="48.86433" lon="2.26261">
        <ele>96.6</ele>
        <time>2015-06-29T19:27:08.455Z</time>
      </trkpt>
      <trkpt lat="48.86428" lon="2.26256">
        <ele>96.6</ele>
        <time>2015-06-29T19:27:09.459Z</time>
      </trkpt>
      <trkpt lat="48.86424" lon="2.26251">
        <ele>96.8</ele>
        <time>2015-06-29T19:27:10.473Z</time>
      </trkpt>
      <trkpt lat="48.86419" lon="2.26246">
        <ele>96.8</ele>
        <time>2015-06-29T19:27:11.485Z</time>
      </trkpt>
      <trkpt lat="48.86415" lon="2.26241">
        <ele>96.7</ele>
        <time>2015-06-29T19:27:12.402Z</time>
      </trkpt>
      <trkpt lat="48.8641" lon="2.26236">
        <ele>96.7</ele>
        <time>2015-06-29T19:27:13.404Z</time>
      </trkpt>
      <trkpt lat="48.86405" lon="2.26232">
        <ele>96.7</ele>
        <time>2015-06-29T19:27:14.455Z</time>
      </trkpt>
      <trkpt lat="48.864" lon="2.26229">
        <ele>96.6</ele>
        <time>2015-06-29T19:27:15.452Z</time>
      </trkpt>
      <trkpt lat="48.86395" lon="2.26226">
        <ele>96.9</ele>
        <time>2015-06-29T19:27:16.472Z</time>
      </trkpt>
      <trkpt lat="48.8639" lon="2.26224">
        <ele>96.7</ele>
        <time>2015-06-29T19:27:17.480Z</time>
      </trkpt>
      <trkpt lat="48.86385" lon="2.26221">
        <ele>96.6</ele>
        <time>2015-06-29T19:27:18.411Z</time>
      </trkpt>
      <trkpt lat="48.8638" lon="2.26219">
        <ele>96.4</ele>
        <time>2015-06-29T19:27:19.412Z</time>
      </trkpt>
      <trkpt lat="48.86372" lon="2.26214">
        <ele>96.1</ele>
        <time>2015-06-29T19:27:21.454Z</time>
      </trkpt>
      <trkpt lat="48.86368" lon="2.26211">
        <ele>96</ele>
        <time>2015-06-29T19:27:22.508Z</time>
      </trkpt>
      <trkpt lat="48.86361" lon="2.26204">
        <ele>95.2</ele>
        <time>2015-06-29T19:27:24.425Z</time>
      </trkpt>
      <trkpt lat="48.86357" lon="2.26202">
        <ele>95.1</ele>
        <time>2015-06-29T19:27:25.441Z</time>
      </trkpt>
      <trkpt lat="48.86353" lon="2.262">
        <ele>94.8</ele>
        <time>2015-06-29T19:27:26.476Z</time>
      </trkpt>
      <trkpt lat="48.86348" lon="2.26199">
        <ele>94.6</ele>
        <time>2015-06-29T19:27:27.486Z</time>
      </trkpt>
      <trkpt lat="48.8634" lon="2.26196">
        <ele>94.8</ele>
        <time>2015-06-29T19:27:29.416Z</time>
      </trkpt>
      <trkpt lat="48.86335" lon="2.26196">
        <ele>94.9</ele>
        <time>2015-06-29T19:27:30.443Z</time>
      </trkpt>
      <trkpt lat="48.8633" lon="2.26196">
        <ele>94.8</ele>
        <time>2015-06-29T19:27:31.462Z</time>
      </trkpt>
      <trkpt lat="48.86326" lon="2.26196">
        <ele>94.5</ele>
        <time>2015-06-29T19:27:32.470Z</time>
      </trkpt>
      <trkpt lat="48.86321" lon="2.26196">
        <ele>94.1</ele>
        <time>2015-06-29T19:27:33.485Z</time>
      </trkpt>
      <trkpt lat="48.86316" lon="2.26197">
        <ele>94.1</ele>
        <time>2015-06-29T19:27:34.408Z</time>
      </trkpt>
      <trkpt lat="48.86307" lon="2.26199">
        <ele>94</ele>
        <time>2015-06-29T19:27:36.418Z</time>
      </trkpt>
      <trkpt lat="48.86303" lon="2.262">
        <ele>94.3</ele>
        <time>2015-06-29T19:27:37.407Z</time>
      </trkpt>
      <trkpt lat="48.86294" lon="2.26202">
        <ele>94.4</ele>
        <time>2015-06-29T19:27:39.388Z</time>
      </trkpt>
      <trkpt lat="48.8629" lon="2.26203">
        <ele>94.4</ele>
        <time>2015-06-29T19:27:40.373Z</time>
      </trkpt>
      <trkpt lat="48.86285" lon="2.26203">
        <ele>94.3</ele>
        <time>2015-06-29T19:27:41.418Z</time>
      </trkpt>
      <trkpt lat="48.8628" lon="2.26203">
        <ele>94.5</ele>
        <time>2015-06-29T19:27:42.412Z</time>
      </trkpt>
      <trkpt lat="48.86272" lon="2.26204">
        <ele>94.6</ele>
        <time>2015-06-29T19:27:44.492Z</time>
      </trkpt>
      <trkpt lat="48.86267" lon="2.26204">
        <ele>94.5</ele>
        <time>2015-06-29T19:27:45.467Z</time>
      </trkpt>
      <trkpt lat="48.86262" lon="2.26204">
        <ele>94.3</ele>
        <time>2015-06-29T19:27:46.369Z</time>
      </trkpt>
      <trkpt lat="48.86257" lon="2.26204">
        <ele>94.3</ele>
        <time>2015-06-29T19:27:47.407Z</time>
      </trkpt>
      <trkpt lat="48.86252" lon="2.26204">
        <ele>94.1</ele>
        <time>2015-06-29T19:27:48.434Z</time>
      </trkpt>
      <trkpt lat="48.86247" lon="2.26203">
        <ele>93.9</ele>
        <time>2015-06-29T19:27:49.480Z</time>
      </trkpt>
      <trkpt lat="48.86242" lon="2.26203">
        <ele>93.8</ele>
        <time>2015-06-29T19:27:50.965Z</time>
      </trkpt>
      <trkpt lat="48.86237" lon="2.26202">
        <ele>94.1</ele>
        <time>2015-06-29T19:27:51.408Z</time>
      </trkpt>
      <trkpt lat="48.86232" lon="2.26202">
        <ele>94</ele>
        <time>2015-06-29T19:27:52.408Z</time>
      </trkpt>
      <trkpt lat="48.86227" lon="2.262">
        <ele>94.2</ele>
        <time>2015-06-29T19:27:53.404Z</time>
      </trkpt>
      <trkpt lat="48.86218" lon="2.26197">
        <ele>95.2</ele>
        <time>2015-06-29T19:27:56.002Z</time>
      </trkpt>
      <trkpt lat="48.86214" lon="2.26195">
        <ele>95.7</ele>
        <time>2015-06-29T19:27:56.471Z</time>
      </trkpt>
      <trkpt lat="48.86206" lon="2.2619">
        <ele>96.5</ele>
        <time>2015-06-29T19:27:58.414Z</time>
      </trkpt>
      <trkpt lat="48.86202" lon="2.26187">
        <ele>96.9</ele>
        <time>2015-06-29T19:27:59.453Z</time>
      </trkpt>
      <trkpt lat="48.86197" lon="2.26179">
        <ele>96.5</ele>
        <time>2015-06-29T19:28:01.364Z</time>
      </trkpt>
      <trkpt lat="48.86195" lon="2.26175">
        <ele>96.5</ele>
        <time>2015-06-29T19:28:02.594Z</time>
      </trkpt>
      <trkpt lat="48.86189" lon="2.26168">
        <ele>96.6</ele>
        <time>2015-06-29T19:28:04.409Z</time>
      </trkpt>
      <trkpt lat="48.86186" lon="2.26165">
        <ele>96.7</ele>
        <time>2015-06-29T19:28:05.415Z</time>
      </trkpt>
      <trkpt lat="48.8618" lon="2.2616">
        <ele>96.8</ele>
        <time>2015-06-29T19:28:07.407Z</time>
      </trkpt>
      <trkpt lat="48.86177" lon="2.26157">
        <ele>96.7</ele>
        <time>2015-06-29T19:28:08.442Z</time>
      </trkpt>
      <trkpt lat="48.86172" lon="2.26151">
        <ele>96.5</ele>
        <time>2015-06-29T19:28:10.472Z</time>
      </trkpt>
      <trkpt lat="48.8617" lon="2.26148">
        <ele>96.4</ele>
        <time>2015-06-29T19:28:11.526Z</time>
      </trkpt>
      <trkpt lat="48.86165" lon="2.26143">
        <ele>96.8</ele>
        <time>2015-06-29T19:28:13.471Z</time>
      </trkpt>
      <trkpt lat="48.86162" lon="2.2614">
        <ele>97.2</ele>
        <time>2015-06-29T19:28:14.669Z</time>
      </trkpt>
      <trkpt lat="48.86157" lon="2.26134">
        <ele>97</ele>
        <time>2015-06-29T19:28:16.434Z</time>
      </trkpt>
      <trkpt lat="48.86154" lon="2.26132">
        <ele>97.1</ele>
        <time>2015-06-29T19:28:17.425Z</time>
      </trkpt>
      <trkpt lat="48.8615" lon="2.26125">
        <ele>97.3</ele>
        <time>2015-06-29T19:28:19.440Z</time>
      </trkpt>
      <trkpt lat="48.86147" lon="2.26121">
        <ele>97.1</ele>
        <time>2015-06-29T19:28:20.520Z</time>
      </trkpt>
      <trkpt lat="48.86142" lon="2.26114">
        <ele>97</ele>
        <time>2015-06-29T19:28:22.490Z</time>
      </trkpt>
      <trkpt lat="48.8614" lon="2.2611">
        <ele>97</ele>
        <time>2015-06-29T19:28:23.430Z</time>
      </trkpt>
      <trkpt lat="48.86135" lon="2.26104">
        <ele>97</ele>
        <time>2015-06-29T19:28:25.423Z</time>
      </trkpt>
      <trkpt lat="48.86132" lon="2.26101">
        <ele>97.1</ele>
        <time>2015-06-29T19:28:26.486Z</time>
      </trkpt>
      <trkpt lat="48.86128" lon="2.26095">
        <ele>97.4</ele>
        <time>2015-06-29T19:28:28.406Z</time>
      </trkpt>
      <trkpt lat="48.86125" lon="2.26092">
        <ele>97.5</ele>
        <time>2015-06-29T19:28:29.438Z</time>
      </trkpt>
      <trkpt lat="48.86121" lon="2.26084">
        <ele>97.8</ele>
        <time>2015-06-29T19:28:31.458Z</time>
      </trkpt>
      <trkpt lat="48.86119" lon="2.26081">
        <ele>97.6</ele>
        <time>2015-06-29T19:28:32.545Z</time>
      </trkpt>
      <trkpt lat="48.86113" lon="2.26074">
        <ele>97.1</ele>
        <time>2015-06-29T19:28:34.455Z</time>
      </trkpt>
      <trkpt lat="48.86111" lon="2.2607">
        <ele>97.1</ele>
        <time>2015-06-29T19:28:35.482Z</time>
      </trkpt>
      <trkpt lat="48.86105" lon="2.26063">
        <ele>97.4</ele>
        <time>2015-06-29T19:28:37.408Z</time>
      </trkpt>
      <trkpt lat="48.86103" lon="2.2606">
        <ele>97.6</ele>
        <time>2015-06-29T19:28:38.479Z</time>
      </trkpt>
      <trkpt lat="48.86097" lon="2.26053">
        <ele>97.4</ele>
        <time>2015-06-29T19:28:40.409Z</time>
      </trkpt>
      <trkpt lat="48.86094" lon="2.2605">
        <ele>97.1</ele>
        <time>2015-06-29T19:28:41.437Z</time>
      </trkpt>
      <trkpt lat="48.86088" lon="2.26044">
        <ele>96.8</ele>
        <time>2015-06-29T19:28:43.440Z</time>
      </trkpt>
      <trkpt lat="48.86085" lon="2.26041">
        <ele>96.8</ele>
        <time>2015-06-29T19:28:44.502Z</time>
      </trkpt>
      <trkpt lat="48.86079" lon="2.26036">
        <ele>96.9</ele>
        <time>2015-06-29T19:28:46.412Z</time>
      </trkpt>
      <trkpt lat="48.86075" lon="2.26034">
        <ele>97</ele>
        <time>2015-06-29T19:28:47.437Z</time>
      </trkpt>
      <trkpt lat="48.86069" lon="2.26028">
        <ele>97.3</ele>
        <time>2015-06-29T19:28:49.388Z</time>
      </trkpt>
      <trkpt lat="48.86065" lon="2.26025">
        <ele>97.4</ele>
        <time>2015-06-29T19:28:50.509Z</time>
      </trkpt>
      <trkpt lat="48.86059" lon="2.2602">
        <ele>97.9</ele>
        <time>2015-06-29T19:28:52.423Z</time>
      </trkpt>
      <trkpt lat="48.86055" lon="2.26018">
        <ele>98.1</ele>
        <time>2015-06-29T19:28:53.425Z</time>
      </trkpt>
      <trkpt lat="48.86047" lon="2.26014">
        <ele>98.3</ele>
        <time>2015-06-29T19:28:55.448Z</time>
      </trkpt>
      <trkpt lat="48.86043" lon="2.26012">
        <ele>98.4</ele>
        <time>2015-06-29T19:28:56.485Z</time>
      </trkpt>
      <trkpt lat="48.86035" lon="2.26008">
        <ele>99.3</ele>
        <time>2015-06-29T19:28:58.412Z</time>
      </trkpt>
      <trkpt lat="48.86032" lon="2.26005">
        <ele>99.2</ele>
        <time>2015-06-29T19:28:59.448Z</time>
      </trkpt>
      <trkpt lat="48.86024" lon="2.26002">
        <ele>99</ele>
        <time>2015-06-29T19:29:01.466Z</time>
      </trkpt>
      <trkpt lat="48.8602" lon="2.26">
        <ele>98.9</ele>
        <time>2015-06-29T19:29:02.490Z</time>
      </trkpt>
      <trkpt lat="48.86011" lon="2.25997">
        <ele>99.1</ele>
        <time>2015-06-29T19:29:04.420Z</time>
      </trkpt>
      <trkpt lat="48.86007" lon="2.25995">
        <ele>99.4</ele>
        <time>2015-06-29T19:29:05.406Z</time>
      </trkpt>
      <trkpt lat="48.85999" lon="2.25991">
        <ele>99.7</ele>
        <time>2015-06-29T19:29:07.433Z</time>
      </trkpt>
      <trkpt lat="48.85995" lon="2.25989">
        <ele>99.9</ele>
        <time>2015-06-29T19:29:08.468Z</time>
      </trkpt>
      <trkpt lat="48.85987" lon="2.25986">
        <ele>100.5</ele>
        <time>2015-06-29T19:29:10.850Z</time>
      </trkpt>
      <trkpt lat="48.85983" lon="2.25984">
        <ele>100.2</ele>
        <time>2015-06-29T19:29:11.482Z</time>
      </trkpt>
      <trkpt lat="48.85976" lon="2.25979">
        <ele>100.1</ele>
        <time>2015-06-29T19:29:13.422Z</time>
      </trkpt>
      <trkpt lat="48.85972" lon="2.25976">
        <ele>100.2</ele>
        <time>2015-06-29T19:29:14.426Z</time>
      </trkpt>
      <trkpt lat="48.85965" lon="2.25972">
        <ele>100.2</ele>
        <time>2015-06-29T19:29:16.495Z</time>
      </trkpt>
      <trkpt lat="48.85961" lon="2.2597">
        <ele>100.2</ele>
        <time>2015-06-29T19:29:17.414Z</time>
      </trkpt>
      <trkpt lat="48.85953" lon="2.25967">
        <ele>100.4</ele>
        <time>2015-06-29T19:29:19.398Z</time>
      </trkpt>
      <trkpt lat="48.85949" lon="2.25965">
        <ele>100.5</ele>
        <time>2015-06-29T19:29:20.470Z</time>
      </trkpt>
      <trkpt lat="48.85944" lon="2.25963">
        <ele>100.5</ele>
        <time>2015-06-29T19:29:21.481Z</time>
      </trkpt>
      <trkpt lat="48.8594" lon="2.25961">
        <ele>100.5</ele>
        <time>2015-06-29T19:29:22.508Z</time>
      </trkpt>
      <trkpt lat="48.85931" lon="2.25957">
        <ele>100.4</ele>
        <time>2015-06-29T19:29:24.513Z</time>
      </trkpt>
      <trkpt lat="48.85927" lon="2.25955">
        <ele>100.3</ele>
        <time>2015-06-29T19:29:25.442Z</time>
      </trkpt>
      <trkpt lat="48.85919" lon="2.2595">
        <ele>100.4</ele>
        <time>2015-06-29T19:29:27.418Z</time>
      </trkpt>
      <trkpt lat="48.85916" lon="2.25948">
        <ele>100.5</ele>
        <time>2015-06-29T19:29:28.405Z</time>
      </trkpt>
      <trkpt lat="48.85908" lon="2.25943">
        <ele>100.3</ele>
        <time>2015-06-29T19:29:30.405Z</time>
      </trkpt>
      <trkpt lat="48.85904" lon="2.25941">
        <ele>100.6</ele>
        <time>2015-06-29T19:29:31.413Z</time>
      </trkpt>
      <trkpt lat="48.85899" lon="2.25939">
        <ele>100.4</ele>
        <time>2015-06-29T19:29:32.491Z</time>
      </trkpt>
      <trkpt lat="48.85895" lon="2.25936">
        <ele>100.3</ele>
        <time>2015-06-29T19:29:33.400Z</time>
      </trkpt>
      <trkpt lat="48.8589" lon="2.25933">
        <ele>100.2</ele>
        <time>2015-06-29T19:29:34.405Z</time>
      </trkpt>
      <trkpt lat="48.85886" lon="2.2593">
        <ele>100.1</ele>
        <time>2015-06-29T19:29:35.408Z</time>
      </trkpt>
      <trkpt lat="48.85878" lon="2.25924">
        <ele>100</ele>
        <time>2015-06-29T19:29:37.424Z</time>
      </trkpt>
      <trkpt lat="48.85875" lon="2.25921">
        <ele>99.6</ele>
        <time>2015-06-29T19:29:38.485Z</time>
      </trkpt>
      <trkpt lat="48.85868" lon="2.25916">
        <ele>99.1</ele>
        <time>2015-06-29T19:29:40.404Z</time>
      </trkpt>
      <trkpt lat="48.85865" lon="2.25914">
        <ele>99.2</ele>
        <time>2015-06-29T19:29:41.421Z</time>
      </trkpt>
      <trkpt lat="48.85858" lon="2.2591">
        <ele>98.6</ele>
        <time>2015-06-29T19:29:43.447Z</time>
      </trkpt>
      <trkpt lat="48.85855" lon="2.25909">
        <ele>98.1</ele>
        <time>2015-06-29T19:29:44.474Z</time>
      </trkpt>
      <trkpt lat="48.85847" lon="2.25904">
        <ele>97.9</ele>
        <time>2015-06-29T19:29:47.423Z</time>
      </trkpt>
      <trkpt lat="48.85846" lon="2.259">
        <ele>97.5</ele>
        <time>2015-06-29T19:29:48.430Z</time>
      </trkpt>
      <trkpt lat="48.85845" lon="2.25888">
        <ele>97.5</ele>
        <time>2015-06-29T19:29:51.472Z</time>
      </trkpt>
      <trkpt lat="48.85844" lon="2.25886">
        <ele>97.8</ele>
        <time>2015-06-29T19:29:52.421Z</time>
      </trkpt>
      <trkpt lat="48.85836" lon="2.25884">
        <ele>96</ele>
        <time>2015-06-29T19:30:37.490Z</time>
      </trkpt>
      <trkpt lat="48.85834" lon="2.25886">
        <ele>96</ele>
        <time>2015-06-29T19:30:38.485Z</time>
      </trkpt>
      <trkpt lat="48.85829" lon="2.25894">
        <ele>96.2</ele>
        <time>2015-06-29T19:30:42.514Z</time>
      </trkpt>
      <trkpt lat="48.85827" lon="2.25895">
        <ele>96.1</ele>
        <time>2015-06-29T19:30:43.417Z</time>
      </trkpt>
      <trkpt lat="48.85821" lon="2.25893">
        <ele>95.8</ele>
        <time>2015-06-29T19:30:45.465Z</time>
      </trkpt>
      <trkpt lat="48.85818" lon="2.25892">
        <ele>96</ele>
        <time>2015-06-29T19:30:46.481Z</time>
      </trkpt>
      <trkpt lat="48.85811" lon="2.25887">
        <ele>96.4</ele>
        <time>2015-06-29T19:30:48.395Z</time>
      </trkpt>
      <trkpt lat="48.85808" lon="2.25885">
        <ele>96.6</ele>
        <time>2015-06-29T19:30:49.420Z</time>
      </trkpt>
      <trkpt lat="48.85801" lon="2.25879">
        <ele>96.6</ele>
        <time>2015-06-29T19:30:51.423Z</time>
      </trkpt>
      <trkpt lat="48.85797" lon="2.25876">
        <ele>96.5</ele>
        <time>2015-06-29T19:30:52.450Z</time>
      </trkpt>
      <trkpt lat="48.85793" lon="2.25873">
        <ele>96.7</ele>
        <time>2015-06-29T19:30:53.499Z</time>
      </trkpt>
      <trkpt lat="48.85788" lon="2.2587">
        <ele>96.7</ele>
        <time>2015-06-29T19:30:54.480Z</time>
      </trkpt>
      <trkpt lat="48.85783" lon="2.25866">
        <ele>96.7</ele>
        <time>2015-06-29T19:30:55.402Z</time>
      </trkpt>
      <trkpt lat="48.85778" lon="2.25861">
        <ele>96.7</ele>
        <time>2015-06-29T19:30:56.442Z</time>
      </trkpt>
      <trkpt lat="48.85773" lon="2.25857">
        <ele>96.5</ele>
        <time>2015-06-29T19:30:57.448Z</time>
      </trkpt>
      <trkpt lat="48.85769" lon="2.25852">
        <ele>96.4</ele>
        <time>2015-06-29T19:30:58.458Z</time>
      </trkpt>
      <trkpt lat="48.85765" lon="2.25848">
        <ele>96.5</ele>
        <time>2015-06-29T19:30:59.468Z</time>
      </trkpt>
      <trkpt lat="48.85761" lon="2.25844">
        <ele>96.3</ele>
        <time>2015-06-29T19:31:00.472Z</time>
      </trkpt>
      <trkpt lat="48.85757" lon="2.2584">
        <ele>96.5</ele>
        <time>2015-06-29T19:31:01.495Z</time>
      </trkpt>
      <trkpt lat="48.85752" lon="2.25835">
        <ele>96.7</ele>
        <time>2015-06-29T19:31:02.522Z</time>
      </trkpt>
      <trkpt lat="48.85748" lon="2.2583">
        <ele>97</ele>
        <time>2015-06-29T19:31:03.404Z</time>
      </trkpt>
      <trkpt lat="48.85744" lon="2.25825">
        <ele>97.3</ele>
        <time>2015-06-29T19:31:04.398Z</time>
      </trkpt>
      <trkpt lat="48.85739" lon="2.2582">
        <ele>97.5</ele>
        <time>2015-06-29T19:31:05.404Z</time>
      </trkpt>
      <trkpt lat="48.85735" lon="2.25815">
        <ele>97.8</ele>
        <time>2015-06-29T19:31:06.447Z</time>
      </trkpt>
      <trkpt lat="48.8573" lon="2.25811">
        <ele>97.7</ele>
        <time>2015-06-29T19:31:07.454Z</time>
      </trkpt>
      <trkpt lat="48.85726" lon="2.25808">
        <ele>98</ele>
        <time>2015-06-29T19:31:08.475Z</time>
      </trkpt>
      <trkpt lat="48.85722" lon="2.25803">
        <ele>98.2</ele>
        <time>2015-06-29T19:31:09.461Z</time>
      </trkpt>
      <trkpt lat="48.85717" lon="2.25799">
        <ele>98.2</ele>
        <time>2015-06-29T19:31:10.404Z</time>
      </trkpt>
      <trkpt lat="48.85713" lon="2.25795">
        <ele>98.3</ele>
        <time>2015-06-29T19:31:11.430Z</time>
      </trkpt>
      <trkpt lat="48.85709" lon="2.25791">
        <ele>98.4</ele>
        <time>2015-06-29T19:31:12.465Z</time>
      </trkpt>
      <trkpt lat="48.85704" lon="2.25789">
        <ele>98.1</ele>
        <time>2015-06-29T19:31:13.407Z</time>
      </trkpt>
      <trkpt lat="48.857" lon="2.25787">
        <ele>97.8</ele>
        <time>2015-06-29T19:31:14.514Z</time>
      </trkpt>
      <trkpt lat="48.85695" lon="2.25784">
        <ele>98.1</ele>
        <time>2015-06-29T19:31:15.404Z</time>
      </trkpt>
      <trkpt lat="48.85691" lon="2.25782">
        <ele>98</ele>
        <time>2015-06-29T19:31:16.418Z</time>
      </trkpt>
      <trkpt lat="48.85683" lon="2.25777">
        <ele>98.6</ele>
        <time>2015-06-29T19:31:18.408Z</time>
      </trkpt>
      <trkpt lat="48.85678" lon="2.25775">
        <ele>98.6</ele>
        <time>2015-06-29T19:31:19.398Z</time>
      </trkpt>
      <trkpt lat="48.85669" lon="2.25774">
        <ele>98.8</ele>
        <time>2015-06-29T19:31:21.469Z</time>
      </trkpt>
      <trkpt lat="48.85665" lon="2.25772">
        <ele>99.2</ele>
        <time>2015-06-29T19:31:22.474Z</time>
      </trkpt>
      <trkpt lat="48.85656" lon="2.25772">
        <ele>99.6</ele>
        <time>2015-06-29T19:31:24.498Z</time>
      </trkpt>
      <trkpt lat="48.85652" lon="2.25771">
        <ele>99.7</ele>
        <time>2015-06-29T19:31:25.423Z</time>
      </trkpt>
      <trkpt lat="48.85648" lon="2.25771">
        <ele>99.7</ele>
        <time>2015-06-29T19:31:26.483Z</time>
      </trkpt>
      <trkpt lat="48.85643" lon="2.2577">
        <ele>99.7</ele>
        <time>2015-06-29T19:31:27.372Z</time>
      </trkpt>
      <trkpt lat="48.85638" lon="2.25769">
        <ele>99.7</ele>
        <time>2015-06-29T19:31:28.406Z</time>
      </trkpt>
      <trkpt lat="48.85634" lon="2.25769">
        <ele>99.6</ele>
        <time>2015-06-29T19:31:29.424Z</time>
      </trkpt>
      <trkpt lat="48.85629" lon="2.25768">
        <ele>99.6</ele>
        <time>2015-06-29T19:31:30.440Z</time>
      </trkpt>
      <trkpt lat="48.85624" lon="2.25767">
        <ele>99.5</ele>
        <time>2015-06-29T19:31:31.423Z</time>
      </trkpt>
      <trkpt lat="48.85619" lon="2.25767">
        <ele>99.3</ele>
        <time>2015-06-29T19:31:32.387Z</time>
      </trkpt>
      <trkpt lat="48.85613" lon="2.25766">
        <ele>99.1</ele>
        <time>2015-06-29T19:31:33.405Z</time>
      </trkpt>
      <trkpt lat="48.85608" lon="2.25765">
        <ele>99.1</ele>
        <time>2015-06-29T19:31:34.587Z</time>
      </trkpt>
      <trkpt lat="48.85603" lon="2.25764">
        <ele>99.1</ele>
        <time>2015-06-29T19:31:35.331Z</time>
      </trkpt>
      <trkpt lat="48.85598" lon="2.25761">
        <ele>99.2</ele>
        <time>2015-06-29T19:31:36.326Z</time>
      </trkpt>
      <trkpt lat="48.85592" lon="2.25759">
        <ele>99.2</ele>
        <time>2015-06-29T19:31:37.399Z</time>
      </trkpt>
      <trkpt lat="48.85587" lon="2.25756">
        <ele>99.2</ele>
        <time>2015-06-29T19:31:38.416Z</time>
      </trkpt>
      <trkpt lat="48.85582" lon="2.25753">
        <ele>99.2</ele>
        <time>2015-06-29T19:31:39.322Z</time>
      </trkpt>
      <trkpt lat="48.85577" lon="2.2575">
        <ele>99.4</ele>
        <time>2015-06-29T19:31:40.323Z</time>
      </trkpt>
      <trkpt lat="48.85571" lon="2.25746">
        <ele>99.4</ele>
        <time>2015-06-29T19:31:41.336Z</time>
      </trkpt>
      <trkpt lat="48.85567" lon="2.25742">
        <ele>99.5</ele>
        <time>2015-06-29T19:31:42.347Z</time>
      </trkpt>
      <trkpt lat="48.85562" lon="2.25738">
        <ele>99.9</ele>
        <time>2015-06-29T19:31:43.354Z</time>
      </trkpt>
      <trkpt lat="48.85557" lon="2.25735">
        <ele>100</ele>
        <time>2015-06-29T19:31:44.369Z</time>
      </trkpt>
      <trkpt lat="48.85553" lon="2.25732">
        <ele>100</ele>
        <time>2015-06-29T19:31:45.380Z</time>
      </trkpt>
      <trkpt lat="48.85548" lon="2.25729">
        <ele>100</ele>
        <time>2015-06-29T19:31:46.390Z</time>
      </trkpt>
      <trkpt lat="48.85544" lon="2.25726">
        <ele>99.9</ele>
        <time>2015-06-29T19:31:47.396Z</time>
      </trkpt>
      <trkpt lat="48.85539" lon="2.25722">
        <ele>99.7</ele>
        <time>2015-06-29T19:31:48.320Z</time>
      </trkpt>
      <trkpt lat="48.85534" lon="2.25719">
        <ele>99.9</ele>
        <time>2015-06-29T19:31:49.318Z</time>
      </trkpt>
      <trkpt lat="48.85529" lon="2.25715">
        <ele>99.8</ele>
        <time>2015-06-29T19:31:50.363Z</time>
      </trkpt>
      <trkpt lat="48.85524" lon="2.25712">
        <ele>99.7</ele>
        <time>2015-06-29T19:31:51.362Z</time>
      </trkpt>
      <trkpt lat="48.8552" lon="2.25709">
        <ele>99.8</ele>
        <time>2015-06-29T19:31:52.396Z</time>
      </trkpt>
      <trkpt lat="48.85515" lon="2.25706">
        <ele>100</ele>
        <time>2015-06-29T19:31:53.398Z</time>
      </trkpt>
      <trkpt lat="48.8551" lon="2.25703">
        <ele>100.2</ele>
        <time>2015-06-29T19:31:54.340Z</time>
      </trkpt>
      <trkpt lat="48.85503" lon="2.25703">
        <ele>100.3</ele>
        <time>2015-06-29T19:31:55.341Z</time>
      </trkpt>
      <trkpt lat="48.85498" lon="2.25702">
        <ele>100.2</ele>
        <time>2015-06-29T19:31:56.385Z</time>
      </trkpt>
      <trkpt lat="48.85493" lon="2.25701">
        <ele>100.3</ele>
        <time>2015-06-29T19:31:57.320Z</time>
      </trkpt>
      <trkpt lat="48.85488" lon="2.25701">
        <ele>100</ele>
        <time>2015-06-29T19:31:58.317Z</time>
      </trkpt>
      <trkpt lat="48.85482" lon="2.25699">
        <ele>100.3</ele>
        <time>2015-06-29T19:31:59.561Z</time>
      </trkpt>
      <trkpt lat="48.85475" lon="2.25698">
        <ele>100.7</ele>
        <time>2015-06-29T19:32:00.585Z</time>
      </trkpt>
      <trkpt lat="48.85469" lon="2.25697">
        <ele>100.9</ele>
        <time>2015-06-29T19:32:01.598Z</time>
      </trkpt>
      <trkpt lat="48.85463" lon="2.25695">
        <ele>101.1</ele>
        <time>2015-06-29T19:32:02.616Z</time>
      </trkpt>
      <trkpt lat="48.85456" lon="2.25693">
        <ele>100.9</ele>
        <time>2015-06-29T19:32:03.614Z</time>
      </trkpt>
      <trkpt lat="48.85449" lon="2.25691">
        <ele>101.1</ele>
        <time>2015-06-29T19:32:04.621Z</time>
      </trkpt>
      <trkpt lat="48.85443" lon="2.25687">
        <ele>101.1</ele>
        <time>2015-06-29T19:32:05.526Z</time>
      </trkpt>
      <trkpt lat="48.85437" lon="2.25682">
        <ele>101.5</ele>
        <time>2015-06-29T19:32:06.558Z</time>
      </trkpt>
      <trkpt lat="48.85433" lon="2.25674">
        <ele>101.4</ele>
        <time>2015-06-29T19:32:07.557Z</time>
      </trkpt>
      <trkpt lat="48.8543" lon="2.25663">
        <ele>101.3</ele>
        <time>2015-06-29T19:32:08.604Z</time>
      </trkpt>
      <trkpt lat="48.85429" lon="2.2565">
        <ele>100.4</ele>
        <time>2015-06-29T19:32:09.606Z</time>
      </trkpt>
      <trkpt lat="48.85429" lon="2.25638">
        <ele>100.5</ele>
        <time>2015-06-29T19:32:10.616Z</time>
      </trkpt>
      <trkpt lat="48.85429" lon="2.25627">
        <ele>100.6</ele>
        <time>2015-06-29T19:32:11.623Z</time>
      </trkpt>
      <trkpt lat="48.85431" lon="2.25616">
        <ele>100.2</ele>
        <time>2015-06-29T19:32:12.649Z</time>
      </trkpt>
      <trkpt lat="48.85434" lon="2.25606">
        <ele>100.4</ele>
        <time>2015-06-29T19:32:13.582Z</time>
      </trkpt>
      <trkpt lat="48.85437" lon="2.25597">
        <ele>100.5</ele>
        <time>2015-06-29T19:32:14.626Z</time>
      </trkpt>
      <trkpt lat="48.85441" lon="2.25589">
        <ele>100.5</ele>
        <time>2015-06-29T19:32:15.557Z</time>
      </trkpt>
      <trkpt lat="48.85445" lon="2.25582">
        <ele>101.3</ele>
        <time>2015-06-29T19:32:16.561Z</time>
      </trkpt>
      <trkpt lat="48.8545" lon="2.25576">
        <ele>101.9</ele>
        <time>2015-06-29T19:32:17.571Z</time>
      </trkpt>
      <trkpt lat="48.85455" lon="2.25571">
        <ele>102.1</ele>
        <time>2015-06-29T19:32:18.577Z</time>
      </trkpt>
      <trkpt lat="48.8546" lon="2.25567">
        <ele>102.3</ele>
        <time>2015-06-29T19:32:19.586Z</time>
      </trkpt>
      <trkpt lat="48.85465" lon="2.25564">
        <ele>101.8</ele>
        <time>2015-06-29T19:32:20.639Z</time>
      </trkpt>
      <trkpt lat="48.85471" lon="2.25563">
        <ele>101.5</ele>
        <time>2015-06-29T19:32:21.618Z</time>
      </trkpt>
      <trkpt lat="48.85477" lon="2.25564">
        <ele>101.4</ele>
        <time>2015-06-29T19:32:22.623Z</time>
      </trkpt>
      <trkpt lat="48.85482" lon="2.25565">
        <ele>101.1</ele>
        <time>2015-06-29T19:32:23.634Z</time>
      </trkpt>
      <trkpt lat="48.85488" lon="2.25567">
        <ele>100.7</ele>
        <time>2015-06-29T19:32:24.645Z</time>
      </trkpt>
      <trkpt lat="48.85493" lon="2.25568">
        <ele>100.5</ele>
        <time>2015-06-29T19:32:25.557Z</time>
      </trkpt>
      <trkpt lat="48.85498" lon="2.25568">
        <ele>100.6</ele>
        <time>2015-06-29T19:32:26.639Z</time>
      </trkpt>
      <trkpt lat="48.85502" lon="2.25568">
        <ele>100.7</ele>
        <time>2015-06-29T19:32:27.640Z</time>
      </trkpt>
      <trkpt lat="48.8551" lon="2.25565">
        <ele>100.7</ele>
        <time>2015-06-29T19:32:29.635Z</time>
      </trkpt>
      <trkpt lat="48.85514" lon="2.25562">
        <ele>100.4</ele>
        <time>2015-06-29T19:32:30.649Z</time>
      </trkpt>
      <trkpt lat="48.85521" lon="2.25557">
        <ele>100</ele>
        <time>2015-06-29T19:32:32.708Z</time>
      </trkpt>
      <trkpt lat="48.85524" lon="2.25554">
        <ele>100.2</ele>
        <time>2015-06-29T19:32:33.585Z</time>
      </trkpt>
      <trkpt lat="48.8553" lon="2.25549">
        <ele>100.3</ele>
        <time>2015-06-29T19:32:35.609Z</time>
      </trkpt>
      <trkpt lat="48.85533" lon="2.25549">
        <ele>100.3</ele>
        <time>2015-06-29T19:32:36.619Z</time>
      </trkpt>
      <trkpt lat="48.85539" lon="2.25553">
        <ele>100.4</ele>
        <time>2015-06-29T19:32:39.630Z</time>
      </trkpt>
      <trkpt lat="48.85541" lon="2.25553">
        <ele>100.5</ele>
        <time>2015-06-29T19:32:40.590Z</time>
      </trkpt>
      <trkpt lat="48.85546" lon="2.25559">
        <ele>100</ele>
        <time>2015-06-29T19:32:46.591Z</time>
      </trkpt>
      <trkpt lat="48.85545" lon="2.2556">
        <ele>100</ele>
        <time>2015-06-29T19:32:47.667Z</time>
      </trkpt>
      <trkpt lat="48.85544" lon="2.25561">
        <ele>99.9</ele>
        <time>2015-06-29T19:34:23.536Z</time>
      </trkpt>
      <trkpt lat="48.8555" lon="2.2556">
        <ele>99.4</ele>
        <time>2015-06-29T19:34:24.570Z</time>
      </trkpt>
      <trkpt lat="48.85557" lon="2.25561">
        <ele>99.8</ele>
        <time>2015-06-29T19:34:27.628Z</time>
      </trkpt>
      <trkpt lat="48.8556" lon="2.25562">
        <ele>99.9</ele>
        <time>2015-06-29T19:34:28.647Z</time>
      </trkpt>
      <trkpt lat="48.85567" lon="2.25563">
        <ele>100.1</ele>
        <time>2015-06-29T19:34:30.600Z</time>
      </trkpt>
      <trkpt lat="48.85572" lon="2.25565">
        <ele>99.6</ele>
        <time>2015-06-29T19:34:31.617Z</time>
      </trkpt>
      <trkpt lat="48.85576" lon="2.25567">
        <ele>99.4</ele>
        <time>2015-06-29T19:34:32.623Z</time>
      </trkpt>
      <trkpt lat="48.85581" lon="2.25568">
        <ele>99.2</ele>
        <time>2015-06-29T19:34:33.632Z</time>
      </trkpt>
      <trkpt lat="48.85585" lon="2.25569">
        <ele>99.3</ele>
        <time>2015-06-29T19:34:34.656Z</time>
      </trkpt>
      <trkpt lat="48.8559" lon="2.25571">
        <ele>99.6</ele>
        <time>2015-06-29T19:34:35.576Z</time>
      </trkpt>
      <trkpt lat="48.85594" lon="2.25573">
        <ele>99.5</ele>
        <time>2015-06-29T19:34:36.572Z</time>
      </trkpt>
      <trkpt lat="48.85599" lon="2.25575">
        <ele>99.7</ele>
        <time>2015-06-29T19:34:37.572Z</time>
      </trkpt>
      <trkpt lat="48.85603" lon="2.25578">
        <ele>99.5</ele>
        <time>2015-06-29T19:34:38.612Z</time>
      </trkpt>
      <trkpt lat="48.85608" lon="2.25581">
        <ele>99.6</ele>
        <time>2015-06-29T19:34:39.618Z</time>
      </trkpt>
      <trkpt lat="48.85613" lon="2.25585">
        <ele>99.4</ele>
        <time>2015-06-29T19:34:40.647Z</time>
      </trkpt>
      <trkpt lat="48.85618" lon="2.25588">
        <ele>99.4</ele>
        <time>2015-06-29T19:34:41.641Z</time>
      </trkpt>
      <trkpt lat="48.85623" lon="2.25591">
        <ele>99.7</ele>
        <time>2015-06-29T19:34:42.575Z</time>
      </trkpt>
      <trkpt lat="48.85628" lon="2.25594">
        <ele>99.6</ele>
        <time>2015-06-29T19:34:43.572Z</time>
      </trkpt>
      <trkpt lat="48.85633" lon="2.25597">
        <ele>99.5</ele>
        <time>2015-06-29T19:34:44.620Z</time>
      </trkpt>
      <trkpt lat="48.85637" lon="2.25601">
        <ele>99.6</ele>
        <time>2015-06-29T19:34:45.612Z</time>
      </trkpt>
      <trkpt lat="48.85642" lon="2.25603">
        <ele>99.5</ele>
        <time>2015-06-29T19:34:46.639Z</time>
      </trkpt>
      <trkpt lat="48.85647" lon="2.25606">
        <ele>100</ele>
        <time>2015-06-29T19:34:47.647Z</time>
      </trkpt>
      <trkpt lat="48.85653" lon="2.25608">
        <ele>100</ele>
        <time>2015-06-29T19:34:48.654Z</time>
      </trkpt>
      <trkpt lat="48.85658" lon="2.2561">
        <ele>100.1</ele>
        <time>2015-06-29T19:34:49.571Z</time>
      </trkpt>
      <trkpt lat="48.85663" lon="2.25612">
        <ele>100.2</ele>
        <time>2015-06-29T19:34:50.617Z</time>
      </trkpt>
      <trkpt lat="48.85668" lon="2.25614">
        <ele>100.5</ele>
        <time>2015-06-29T19:34:51.617Z</time>
      </trkpt>
      <trkpt lat="48.85673" lon="2.25615">
        <ele>100.8</ele>
        <time>2015-06-29T19:34:52.645Z</time>
      </trkpt>
      <trkpt lat="48.85678" lon="2.25616">
        <ele>100.7</ele>
        <time>2015-06-29T19:34:53.679Z</time>
      </trkpt>
      <trkpt lat="48.85683" lon="2.25617">
        <ele>100.5</ele>
        <time>2015-06-29T19:34:54.568Z</time>
      </trkpt>
      <trkpt lat="48.85688" lon="2.25618">
        <ele>100.2</ele>
        <time>2015-06-29T19:34:55.573Z</time>
      </trkpt>
      <trkpt lat="48.85693" lon="2.25619">
        <ele>100.2</ele>
        <time>2015-06-29T19:34:56.616Z</time>
      </trkpt>
      <trkpt lat="48.85699" lon="2.2562">
        <ele>99.9</ele>
        <time>2015-06-29T19:34:57.608Z</time>
      </trkpt>
      <trkpt lat="48.85704" lon="2.2562">
        <ele>99.5</ele>
        <time>2015-06-29T19:34:58.617Z</time>
      </trkpt>
      <trkpt lat="48.8571" lon="2.25619">
        <ele>99.9</ele>
        <time>2015-06-29T19:34:59.625Z</time>
      </trkpt>
      <trkpt lat="48.85716" lon="2.2562">
        <ele>99.8</ele>
        <time>2015-06-29T19:35:00.660Z</time>
      </trkpt>
      <trkpt lat="48.85721" lon="2.25619">
        <ele>99.7</ele>
        <time>2015-06-29T19:35:01.561Z</time>
      </trkpt>
      <trkpt lat="48.85727" lon="2.2562">
        <ele>99.5</ele>
        <time>2015-06-29T19:35:02.631Z</time>
      </trkpt>
      <trkpt lat="48.85733" lon="2.2562">
        <ele>99.5</ele>
        <time>2015-06-29T19:35:03.640Z</time>
      </trkpt>
      <trkpt lat="48.85739" lon="2.2562">
        <ele>99.3</ele>
        <time>2015-06-29T19:35:04.647Z</time>
      </trkpt>
      <trkpt lat="48.85745" lon="2.25621">
        <ele>99.4</ele>
        <time>2015-06-29T19:35:05.543Z</time>
      </trkpt>
      <trkpt lat="48.85751" lon="2.25622">
        <ele>99.4</ele>
        <time>2015-06-29T19:35:06.559Z</time>
      </trkpt>
      <trkpt lat="48.85757" lon="2.25623">
        <ele>99.2</ele>
        <time>2015-06-29T19:35:07.560Z</time>
      </trkpt>
      <trkpt lat="48.85763" lon="2.25624">
        <ele>99.2</ele>
        <time>2015-06-29T19:35:08.623Z</time>
      </trkpt>
      <trkpt lat="48.85768" lon="2.25626">
        <ele>99.2</ele>
        <time>2015-06-29T19:35:09.607Z</time>
      </trkpt>
      <trkpt lat="48.85774" lon="2.25627">
        <ele>99</ele>
        <time>2015-06-29T19:35:10.610Z</time>
      </trkpt>
      <trkpt lat="48.85779" lon="2.2563">
        <ele>98.6</ele>
        <time>2015-06-29T19:35:11.625Z</time>
      </trkpt>
      <trkpt lat="48.85785" lon="2.25633">
        <ele>98.9</ele>
        <time>2015-06-29T19:35:12.647Z</time>
      </trkpt>
      <trkpt lat="48.85791" lon="2.25638">
        <ele>98.4</ele>
        <time>2015-06-29T19:35:13.565Z</time>
      </trkpt>
      <trkpt lat="48.85796" lon="2.25644">
        <ele>97.8</ele>
        <time>2015-06-29T19:35:14.667Z</time>
      </trkpt>
      <trkpt lat="48.858" lon="2.25649">
        <ele>97.8</ele>
        <time>2015-06-29T19:35:15.565Z</time>
      </trkpt>
      <trkpt lat="48.85805" lon="2.25653">
        <ele>97.4</ele>
        <time>2015-06-29T19:35:16.574Z</time>
      </trkpt>
      <trkpt lat="48.85809" lon="2.25658">
        <ele>97.2</ele>
        <time>2015-06-29T19:35:17.578Z</time>
      </trkpt>
      <trkpt lat="48.85813" lon="2.25663">
        <ele>97.2</ele>
        <time>2015-06-29T19:35:18.595Z</time>
      </trkpt>
      <trkpt lat="48.85817" lon="2.25668">
        <ele>97.6</ele>
        <time>2015-06-29T19:35:19.600Z</time>
      </trkpt>
      <trkpt lat="48.8582" lon="2.25673">
        <ele>97.8</ele>
        <time>2015-06-29T19:35:20.618Z</time>
      </trkpt>
      <trkpt lat="48.85824" lon="2.25678">
        <ele>98.1</ele>
        <time>2015-06-29T19:35:21.785Z</time>
      </trkpt>
      <trkpt lat="48.8583" lon="2.25686">
        <ele>98.1</ele>
        <time>2015-06-29T19:35:23.565Z</time>
      </trkpt>
      <trkpt lat="48.85832" lon="2.25689">
        <ele>97.9</ele>
        <time>2015-06-29T19:35:24.595Z</time>
      </trkpt>
      <trkpt lat="48.85836" lon="2.25696">
        <ele>98.4</ele>
        <time>2015-06-29T19:35:26.631Z</time>
      </trkpt>
      <trkpt lat="48.85838" lon="2.257">
        <ele>98.4</ele>
        <time>2015-06-29T19:35:27.645Z</time>
      </trkpt>
      <trkpt lat="48.85843" lon="2.25708">
        <ele>99.1</ele>
        <time>2015-06-29T19:35:41.604Z</time>
      </trkpt>
      <trkpt lat="48.85849" lon="2.25715">
        <ele>99.1</ele>
        <time>2015-06-29T19:35:42.631Z</time>
      </trkpt>
      <trkpt lat="48.85856" lon="2.25721">
        <ele>98.8</ele>
        <time>2015-06-29T19:35:49.601Z</time>
      </trkpt>
      <trkpt lat="48.85857" lon="2.25723">
        <ele>98.8</ele>
        <time>2015-06-29T19:35:50.652Z</time>
      </trkpt>
      <trkpt lat="48.85863" lon="2.2573">
        <ele>98.2</ele>
        <time>2015-06-29T19:35:54.610Z</time>
      </trkpt>
      <trkpt lat="48.85866" lon="2.25733">
        <ele>98.5</ele>
        <time>2015-06-29T19:35:55.624Z</time>
      </trkpt>
      <trkpt lat="48.85871" lon="2.25739">
        <ele>98.4</ele>
        <time>2015-06-29T19:35:57.658Z</time>
      </trkpt>
      <trkpt lat="48.85874" lon="2.25743">
        <ele>98.2</ele>
        <time>2015-06-29T19:35:58.668Z</time>
      </trkpt>
      <trkpt lat="48.85878" lon="2.25749">
        <ele>98.5</ele>
        <time>2015-06-29T19:36:00.645Z</time>
      </trkpt>
      <trkpt lat="48.85882" lon="2.25752">
        <ele>98.7</ele>
        <time>2015-06-29T19:36:01.608Z</time>
      </trkpt>
      <trkpt lat="48.85889" lon="2.25755">
        <ele>98.8</ele>
        <time>2015-06-29T19:36:03.539Z</time>
      </trkpt>
      <trkpt lat="48.85892" lon="2.25756">
        <ele>98.9</ele>
        <time>2015-06-29T19:36:04.546Z</time>
      </trkpt>
      <trkpt lat="48.85899" lon="2.25758">
        <ele>99.2</ele>
        <time>2015-06-29T19:36:06.575Z</time>
      </trkpt>
      <trkpt lat="48.85903" lon="2.25759">
        <ele>99.5</ele>
        <time>2015-06-29T19:36:07.602Z</time>
      </trkpt>
      <trkpt lat="48.85911" lon="2.25759">
        <ele>99.4</ele>
        <time>2015-06-29T19:36:09.560Z</time>
      </trkpt>
      <trkpt lat="48.85915" lon="2.2576">
        <ele>99.4</ele>
        <time>2015-06-29T19:36:10.648Z</time>
      </trkpt>
      <trkpt lat="48.85919" lon="2.25761">
        <ele>99.6</ele>
        <time>2015-06-29T19:36:11.567Z</time>
      </trkpt>
      <trkpt lat="48.85924" lon="2.25762">
        <ele>100.1</ele>
        <time>2015-06-29T19:36:12.572Z</time>
      </trkpt>
      <trkpt lat="48.85933" lon="2.25762">
        <ele>100.4</ele>
        <time>2015-06-29T19:36:14.992Z</time>
      </trkpt>
      <trkpt lat="48.85937" lon="2.25763">
        <ele>100.4</ele>
        <time>2015-06-29T19:36:15.634Z</time>
      </trkpt>
      <trkpt lat="48.85942" lon="2.25762">
        <ele>100.2</ele>
        <time>2015-06-29T19:36:16.569Z</time>
      </trkpt>
      <trkpt lat="48.85947" lon="2.25762">
        <ele>100.1</ele>
        <time>2015-06-29T19:36:17.571Z</time>
      </trkpt>
      <trkpt lat="48.85954" lon="2.25766">
        <ele>99.1</ele>
        <time>2015-06-29T19:36:18.587Z</time>
      </trkpt>
      <trkpt lat="48.85961" lon="2.25767">
        <ele>98.7</ele>
        <time>2015-06-29T19:36:19.759Z</time>
      </trkpt>
      <trkpt lat="48.85966" lon="2.25769">
        <ele>98.5</ele>
        <time>2015-06-29T19:36:20.596Z</time>
      </trkpt>
      <trkpt lat="48.85971" lon="2.2577">
        <ele>98.6</ele>
        <time>2015-06-29T19:36:21.603Z</time>
      </trkpt>
      <trkpt lat="48.85976" lon="2.2577">
        <ele>98.7</ele>
        <time>2015-06-29T19:36:22.608Z</time>
      </trkpt>
      <trkpt lat="48.8598" lon="2.25771">
        <ele>98.8</ele>
        <time>2015-06-29T19:36:23.530Z</time>
      </trkpt>
      <trkpt lat="48.85985" lon="2.25772">
        <ele>98.9</ele>
        <time>2015-06-29T19:36:24.560Z</time>
      </trkpt>
      <trkpt lat="48.8599" lon="2.25773">
        <ele>98.8</ele>
        <time>2015-06-29T19:36:25.584Z</time>
      </trkpt>
      <trkpt lat="48.85995" lon="2.25774">
        <ele>98.6</ele>
        <time>2015-06-29T19:36:26.614Z</time>
      </trkpt>
      <trkpt lat="48.86" lon="2.25775">
        <ele>98.7</ele>
        <time>2015-06-29T19:36:27.616Z</time>
      </trkpt>
      <trkpt lat="48.86006" lon="2.25777">
        <ele>98.6</ele>
        <time>2015-06-29T19:36:28.529Z</time>
      </trkpt>
      <trkpt lat="48.86012" lon="2.25779">
        <ele>98.5</ele>
        <time>2015-06-29T19:36:29.556Z</time>
      </trkpt>
      <trkpt lat="48.86017" lon="2.2578">
        <ele>98.2</ele>
        <time>2015-06-29T19:36:30.596Z</time>
      </trkpt>
      <trkpt lat="48.86022" lon="2.25781">
        <ele>97.9</ele>
        <time>2015-06-29T19:36:31.603Z</time>
      </trkpt>
      <trkpt lat="48.86027" lon="2.25781">
        <ele>98</ele>
        <time>2015-06-29T19:36:32.607Z</time>
      </trkpt>
      <trkpt lat="48.86032" lon="2.25782">
        <ele>97.6</ele>
        <time>2015-06-29T19:36:33.617Z</time>
      </trkpt>
      <trkpt lat="48.86037" lon="2.25783">
        <ele>97.6</ele>
        <time>2015-06-29T19:36:34.694Z</time>
      </trkpt>
      <trkpt lat="48.86042" lon="2.25785">
        <ele>97.5</ele>
        <time>2015-06-29T19:36:35.594Z</time>
      </trkpt>
      <trkpt lat="48.86047" lon="2.25787">
        <ele>97.4</ele>
        <time>2015-06-29T19:36:36.577Z</time>
      </trkpt>
      <trkpt lat="48.86051" lon="2.25788">
        <ele>97</ele>
        <time>2015-06-29T19:36:37.585Z</time>
      </trkpt>
      <trkpt lat="48.86056" lon="2.25788">
        <ele>97.2</ele>
        <time>2015-06-29T19:36:38.596Z</time>
      </trkpt>
      <trkpt lat="48.86062" lon="2.25789">
        <ele>97.5</ele>
        <time>2015-06-29T19:36:39.621Z</time>
      </trkpt>
      <trkpt lat="48.86067" lon="2.2579">
        <ele>98</ele>
        <time>2015-06-29T19:36:40.538Z</time>
      </trkpt>
      <trkpt lat="48.86072" lon="2.25791">
        <ele>98</ele>
        <time>2015-06-29T19:36:41.568Z</time>
      </trkpt>
      <trkpt lat="48.86078" lon="2.25792">
        <ele>97.4</ele>
        <time>2015-06-29T19:36:42.585Z</time>
      </trkpt>
      <trkpt lat="48.86083" lon="2.25793">
        <ele>97.4</ele>
        <time>2015-06-29T19:36:43.583Z</time>
      </trkpt>
      <trkpt lat="48.86088" lon="2.25794">
        <ele>97.7</ele>
        <time>2015-06-29T19:36:44.620Z</time>
      </trkpt>
      <trkpt lat="48.86093" lon="2.25795">
        <ele>97.8</ele>
        <time>2015-06-29T19:36:45.539Z</time>
      </trkpt>
      <trkpt lat="48.86098" lon="2.25796">
        <ele>97.9</ele>
        <time>2015-06-29T19:36:46.583Z</time>
      </trkpt>
      <trkpt lat="48.86104" lon="2.25797">
        <ele>97.8</ele>
        <time>2015-06-29T19:36:47.599Z</time>
      </trkpt>
      <trkpt lat="48.86109" lon="2.25797">
        <ele>97.6</ele>
        <time>2015-06-29T19:36:48.611Z</time>
      </trkpt>
      <trkpt lat="48.86114" lon="2.25798">
        <ele>97.4</ele>
        <time>2015-06-29T19:36:49.618Z</time>
      </trkpt>
      <trkpt lat="48.86119" lon="2.25798">
        <ele>97</ele>
        <time>2015-06-29T19:36:50.670Z</time>
      </trkpt>
      <trkpt lat="48.86124" lon="2.25799">
        <ele>97</ele>
        <time>2015-06-29T19:36:51.578Z</time>
      </trkpt>
      <trkpt lat="48.86129" lon="2.25799">
        <ele>97.2</ele>
        <time>2015-06-29T19:36:52.588Z</time>
      </trkpt>
      <trkpt lat="48.86134" lon="2.258">
        <ele>96.9</ele>
        <time>2015-06-29T19:36:53.636Z</time>
      </trkpt>
      <trkpt lat="48.86139" lon="2.258">
        <ele>96.7</ele>
        <time>2015-06-29T19:36:54.616Z</time>
      </trkpt>
      <trkpt lat="48.86144" lon="2.258">
        <ele>96.5</ele>
        <time>2015-06-29T19:36:55.570Z</time>
      </trkpt>
      <trkpt lat="48.86149" lon="2.258">
        <ele>96.4</ele>
        <time>2015-06-29T19:36:56.719Z</time>
      </trkpt>
      <trkpt lat="48.86154" lon="2.25801">
        <ele>96.3</ele>
        <time>2015-06-29T19:36:57.555Z</time>
      </trkpt>
      <trkpt lat="48.8616" lon="2.25801">
        <ele>96.1</ele>
        <time>2015-06-29T19:36:58.709Z</time>
      </trkpt>
      <trkpt lat="48.86165" lon="2.25802">
        <ele>95.8</ele>
        <time>2015-06-29T19:36:59.532Z</time>
      </trkpt>
      <trkpt lat="48.8617" lon="2.25803">
        <ele>95.5</ele>
        <time>2015-06-29T19:37:00.578Z</time>
      </trkpt>
      <trkpt lat="48.86175" lon="2.25803">
        <ele>95.5</ele>
        <time>2015-06-29T19:37:01.598Z</time>
      </trkpt>
      <trkpt lat="48.86181" lon="2.25803">
        <ele>95.1</ele>
        <time>2015-06-29T19:37:02.688Z</time>
      </trkpt>
      <trkpt lat="48.86186" lon="2.25804">
        <ele>94.6</ele>
        <time>2015-06-29T19:37:03.530Z</time>
      </trkpt>
      <trkpt lat="48.86191" lon="2.25804">
        <ele>94.7</ele>
        <time>2015-06-29T19:37:04.539Z</time>
      </trkpt>
      <trkpt lat="48.86196" lon="2.25804">
        <ele>94.9</ele>
        <time>2015-06-29T19:37:05.546Z</time>
      </trkpt>
      <trkpt lat="48.86201" lon="2.25804">
        <ele>95.2</ele>
        <time>2015-06-29T19:37:06.620Z</time>
      </trkpt>
      <trkpt lat="48.86206" lon="2.25803">
        <ele>95.7</ele>
        <time>2015-06-29T19:37:07.536Z</time>
      </trkpt>
      <trkpt lat="48.86211" lon="2.25803">
        <ele>95.8</ele>
        <time>2015-06-29T19:37:08.628Z</time>
      </trkpt>
      <trkpt lat="48.86216" lon="2.25804">
        <ele>95.8</ele>
        <time>2015-06-29T19:37:09.650Z</time>
      </trkpt>
      <trkpt lat="48.86225" lon="2.25804">
        <ele>95.8</ele>
        <time>2015-06-29T19:37:11.584Z</time>
      </trkpt>
      <trkpt lat="48.86229" lon="2.25804">
        <ele>95.7</ele>
        <time>2015-06-29T19:37:12.591Z</time>
      </trkpt>
      <trkpt lat="48.86236" lon="2.25805">
        <ele>95.8</ele>
        <time>2015-06-29T19:37:14.634Z</time>
      </trkpt>
      <trkpt lat="48.86239" lon="2.25805">
        <ele>95.8</ele>
        <time>2015-06-29T19:37:15.580Z</time>
      </trkpt>
      <trkpt lat="48.86247" lon="2.25805">
        <ele>95.2</ele>
        <time>2015-06-29T19:37:20.615Z</time>
      </trkpt>
      <trkpt lat="48.86249" lon="2.25805">
        <ele>95.9</ele>
        <time>2015-06-29T19:37:21.619Z</time>
      </trkpt>
      <trkpt lat="48.86254" lon="2.25799">
        <ele>96.4</ele>
        <time>2015-06-29T19:37:24.554Z</time>
      </trkpt>
      <trkpt lat="48.86257" lon="2.25797">
        <ele>96.4</ele>
        <time>2015-06-29T19:37:25.581Z</time>
      </trkpt>
      <trkpt lat="48.86262" lon="2.25797">
        <ele>96.9</ele>
        <time>2015-06-29T19:37:27.647Z</time>
      </trkpt>
      <trkpt lat="48.86266" lon="2.25797">
        <ele>97</ele>
        <time>2015-06-29T19:37:28.558Z</time>
      </trkpt>
      <trkpt lat="48.86273" lon="2.25798">
        <ele>97.5</ele>
        <time>2015-06-29T19:37:30.584Z</time>
      </trkpt>
      <trkpt lat="48.86276" lon="2.25798">
        <ele>97.2</ele>
        <time>2015-06-29T19:37:31.615Z</time>
      </trkpt>
      <trkpt lat="48.86283" lon="2.25798">
        <ele>96.7</ele>
        <time>2015-06-29T19:37:33.554Z</time>
      </trkpt>
      <trkpt lat="48.86286" lon="2.25798">
        <ele>96.6</ele>
        <time>2015-06-29T19:37:34.809Z</time>
      </trkpt>
      <trkpt lat="48.86295" lon="2.258">
        <ele>96.7</ele>
        <time>2015-06-29T19:37:36.634Z</time>
      </trkpt>
      <trkpt lat="48.863" lon="2.25801">
        <ele>96.9</ele>
        <time>2015-06-29T19:37:37.634Z</time>
      </trkpt>
      <trkpt lat="48.86305" lon="2.25802">
        <ele>97.6</ele>
        <time>2015-06-29T19:37:38.615Z</time>
      </trkpt>
      <trkpt lat="48.8631" lon="2.25803">
        <ele>97.8</ele>
        <time>2015-06-29T19:37:39.610Z</time>
      </trkpt>
      <trkpt lat="48.86315" lon="2.25803">
        <ele>97.9</ele>
        <time>2015-06-29T19:37:40.522Z</time>
      </trkpt>
      <trkpt lat="48.86321" lon="2.25806">
        <ele>98</ele>
        <time>2015-06-29T19:37:41.565Z</time>
      </trkpt>
      <trkpt lat="48.86326" lon="2.25807">
        <ele>97.7</ele>
        <time>2015-06-29T19:37:42.581Z</time>
      </trkpt>
      <trkpt lat="48.86331" lon="2.25808">
        <ele>97.6</ele>
        <time>2015-06-29T19:37:43.602Z</time>
      </trkpt>
      <trkpt lat="48.86339" lon="2.25811">
        <ele>96.9</ele>
        <time>2015-06-29T19:37:45.525Z</time>
      </trkpt>
      <trkpt lat="48.86344" lon="2.25813">
        <ele>96.9</ele>
        <time>2015-06-29T19:37:46.564Z</time>
      </trkpt>
      <trkpt lat="48.86349" lon="2.25814">
        <ele>96.5</ele>
        <time>2015-06-29T19:37:47.571Z</time>
      </trkpt>
      <trkpt lat="48.86354" lon="2.25816">
        <ele>96.5</ele>
        <time>2015-06-29T19:37:48.720Z</time>
      </trkpt>
      <trkpt lat="48.86359" lon="2.25817">
        <ele>96.1</ele>
        <time>2015-06-29T19:37:50.364Z</time>
      </trkpt>
      <trkpt lat="48.86364" lon="2.25819">
        <ele>95.7</ele>
        <time>2015-06-29T19:37:50.662Z</time>
      </trkpt>
      <trkpt lat="48.86369" lon="2.25821">
        <ele>95.5</ele>
        <time>2015-06-29T19:37:51.602Z</time>
      </trkpt>
      <trkpt lat="48.86374" lon="2.25822">
        <ele>95.2</ele>
        <time>2015-06-29T19:37:52.610Z</time>
      </trkpt>
      <trkpt lat="48.86379" lon="2.25825">
        <ele>95.2</ele>
        <time>2015-06-29T19:37:53.641Z</time>
      </trkpt>
      <trkpt lat="48.86384" lon="2.25827">
        <ele>95</ele>
        <time>2015-06-29T19:37:54.566Z</time>
      </trkpt>
      <trkpt lat="48.8639" lon="2.2583">
        <ele>95.1</ele>
        <time>2015-06-29T19:37:55.561Z</time>
      </trkpt>
      <trkpt lat="48.86395" lon="2.25833">
        <ele>95.3</ele>
        <time>2015-06-29T19:37:56.637Z</time>
      </trkpt>
      <trkpt lat="48.864" lon="2.25836">
        <ele>95</ele>
        <time>2015-06-29T19:37:57.559Z</time>
      </trkpt>
      <trkpt lat="48.86406" lon="2.25839">
        <ele>94.8</ele>
        <time>2015-06-29T19:37:58.560Z</time>
      </trkpt>
      <trkpt lat="48.86411" lon="2.25841">
        <ele>94.5</ele>
        <time>2015-06-29T19:37:59.571Z</time>
      </trkpt>
      <trkpt lat="48.86417" lon="2.25844">
        <ele>94.5</ele>
        <time>2015-06-29T19:38:00.586Z</time>
      </trkpt>
      <trkpt lat="48.86423" lon="2.25848">
        <ele>94.6</ele>
        <time>2015-06-29T19:38:01.674Z</time>
      </trkpt>
      <trkpt lat="48.86428" lon="2.25851">
        <ele>95</ele>
        <time>2015-06-29T19:38:02.659Z</time>
      </trkpt>
      <trkpt lat="48.86434" lon="2.25856">
        <ele>95.4</ele>
        <time>2015-06-29T19:38:03.557Z</time>
      </trkpt>
      <trkpt lat="48.86439" lon="2.25861">
        <ele>95.4</ele>
        <time>2015-06-29T19:38:04.731Z</time>
      </trkpt>
      <trkpt lat="48.86445" lon="2.25866">
        <ele>95.6</ele>
        <time>2015-06-29T19:38:05.657Z</time>
      </trkpt>
      <trkpt lat="48.86451" lon="2.2587">
        <ele>95.6</ele>
        <time>2015-06-29T19:38:06.696Z</time>
      </trkpt>
      <trkpt lat="48.86458" lon="2.25873">
        <ele>95.8</ele>
        <time>2015-06-29T19:38:07.579Z</time>
      </trkpt>
      <trkpt lat="48.86464" lon="2.25878">
        <ele>96</ele>
        <time>2015-06-29T19:38:08.674Z</time>
      </trkpt>
      <trkpt lat="48.86469" lon="2.25886">
        <ele>96.4</ele>
        <time>2015-06-29T19:38:09.574Z</time>
      </trkpt>
      <trkpt lat="48.86476" lon="2.25893">
        <ele>96.8</ele>
        <time>2015-06-29T19:38:10.579Z</time>
      </trkpt>
      <trkpt lat="48.86482" lon="2.25899">
        <ele>96.9</ele>
        <time>2015-06-29T19:38:11.646Z</time>
      </trkpt>
      <trkpt lat="48.86488" lon="2.25905">
        <ele>96.5</ele>
        <time>2015-06-29T19:38:12.653Z</time>
      </trkpt>
      <trkpt lat="48.86494" lon="2.25912">
        <ele>96.3</ele>
        <time>2015-06-29T19:38:13.568Z</time>
      </trkpt>
      <trkpt lat="48.86501" lon="2.25919">
        <ele>96.5</ele>
        <time>2015-06-29T19:38:14.633Z</time>
      </trkpt>
      <trkpt lat="48.86507" lon="2.25927">
        <ele>95.8</ele>
        <time>2015-06-29T19:38:15.638Z</time>
      </trkpt>
      <trkpt lat="48.86512" lon="2.25935">
        <ele>95.6</ele>
        <time>2015-06-29T19:38:16.654Z</time>
      </trkpt>
      <trkpt lat="48.86517" lon="2.25943">
        <ele>95.1</ele>
        <time>2015-06-29T19:38:17.575Z</time>
      </trkpt>
      <trkpt lat="48.86523" lon="2.2595">
        <ele>95</ele>
        <time>2015-06-29T19:38:18.564Z</time>
      </trkpt>
      <trkpt lat="48.86529" lon="2.25957">
        <ele>95.1</ele>
        <time>2015-06-29T19:38:19.757Z</time>
      </trkpt>
      <trkpt lat="48.86534" lon="2.25965">
        <ele>95.1</ele>
        <time>2015-06-29T19:38:20.584Z</time>
      </trkpt>
      <trkpt lat="48.86538" lon="2.25972">
        <ele>94.9</ele>
        <time>2015-06-29T19:38:21.598Z</time>
      </trkpt>
      <trkpt lat="48.86543" lon="2.2598">
        <ele>95</ele>
        <time>2015-06-29T19:38:22.604Z</time>
      </trkpt>
      <trkpt lat="48.86548" lon="2.25987">
        <ele>94.9</ele>
        <time>2015-06-29T19:38:23.615Z</time>
      </trkpt>
      <trkpt lat="48.86552" lon="2.25994">
        <ele>94.8</ele>
        <time>2015-06-29T19:38:24.654Z</time>
      </trkpt>
      <trkpt lat="48.86557" lon="2.26">
        <ele>94.8</ele>
        <time>2015-06-29T19:38:25.655Z</time>
      </trkpt>
      <trkpt lat="48.86561" lon="2.26007">
        <ele>94.6</ele>
        <time>2015-06-29T19:38:26.665Z</time>
      </trkpt>
      <trkpt lat="48.86566" lon="2.26013">
        <ele>94.5</ele>
        <time>2015-06-29T19:38:27.561Z</time>
      </trkpt>
      <trkpt lat="48.8657" lon="2.26019">
        <ele>94.4</ele>
        <time>2015-06-29T19:38:28.574Z</time>
      </trkpt>
      <trkpt lat="48.86574" lon="2.26025">
        <ele>94</ele>
        <time>2015-06-29T19:38:29.581Z</time>
      </trkpt>
      <trkpt lat="48.86579" lon="2.26029">
        <ele>93.4</ele>
        <time>2015-06-29T19:38:30.586Z</time>
      </trkpt>
      <trkpt lat="48.86583" lon="2.26034">
        <ele>93.2</ele>
        <time>2015-06-29T19:38:31.598Z</time>
      </trkpt>
      <trkpt lat="48.86587" lon="2.2604">
        <ele>93.2</ele>
        <time>2015-06-29T19:38:32.651Z</time>
      </trkpt>
      <trkpt lat="48.86592" lon="2.26045">
        <ele>92.9</ele>
        <time>2015-06-29T19:38:33.558Z</time>
      </trkpt>
      <trkpt lat="48.86596" lon="2.26051">
        <ele>92.8</ele>
        <time>2015-06-29T19:38:34.564Z</time>
      </trkpt>
      <trkpt lat="48.86602" lon="2.26057">
        <ele>93.1</ele>
        <time>2015-06-29T19:38:35.572Z</time>
      </trkpt>
      <trkpt lat="48.86606" lon="2.26063">
        <ele>93.5</ele>
        <time>2015-06-29T19:38:36.592Z</time>
      </trkpt>
      <trkpt lat="48.86611" lon="2.26069">
        <ele>93.8</ele>
        <time>2015-06-29T19:38:37.601Z</time>
      </trkpt>
      <trkpt lat="48.86616" lon="2.26076">
        <ele>93.9</ele>
        <time>2015-06-29T19:38:38.616Z</time>
      </trkpt>
      <trkpt lat="48.8662" lon="2.26083">
        <ele>93.8</ele>
        <time>2015-06-29T19:38:39.620Z</time>
      </trkpt>
      <trkpt lat="48.86624" lon="2.26091">
        <ele>93.9</ele>
        <time>2015-06-29T19:38:40.622Z</time>
      </trkpt>
      <trkpt lat="48.86629" lon="2.26097">
        <ele>93.5</ele>
        <time>2015-06-29T19:38:41.561Z</time>
      </trkpt>
      <trkpt lat="48.86633" lon="2.26103">
        <ele>93.9</ele>
        <time>2015-06-29T19:38:42.559Z</time>
      </trkpt>
      <trkpt lat="48.86638" lon="2.26109">
        <ele>94</ele>
        <time>2015-06-29T19:38:43.591Z</time>
      </trkpt>
      <trkpt lat="48.86643" lon="2.26117">
        <ele>94.1</ele>
        <time>2015-06-29T19:38:44.644Z</time>
      </trkpt>
      <trkpt lat="48.86648" lon="2.26123">
        <ele>94.1</ele>
        <time>2015-06-29T19:38:45.573Z</time>
      </trkpt>
      <trkpt lat="48.86654" lon="2.26129">
        <ele>93.7</ele>
        <time>2015-06-29T19:38:46.561Z</time>
      </trkpt>
      <trkpt lat="48.8666" lon="2.26136">
        <ele>93</ele>
        <time>2015-06-29T19:38:47.583Z</time>
      </trkpt>
      <trkpt lat="48.86666" lon="2.26143">
        <ele>93</ele>
        <time>2015-06-29T19:38:48.589Z</time>
      </trkpt>
      <trkpt lat="48.86671" lon="2.26148">
        <ele>93.2</ele>
        <time>2015-06-29T19:38:49.636Z</time>
      </trkpt>
      <trkpt lat="48.86677" lon="2.26154">
        <ele>93.4</ele>
        <time>2015-06-29T19:38:50.664Z</time>
      </trkpt>
      <trkpt lat="48.86683" lon="2.2616">
        <ele>93.3</ele>
        <time>2015-06-29T19:38:51.562Z</time>
      </trkpt>
      <trkpt lat="48.86689" lon="2.26166">
        <ele>93.5</ele>
        <time>2015-06-29T19:38:52.562Z</time>
      </trkpt>
      <trkpt lat="48.86696" lon="2.26171">
        <ele>93.3</ele>
        <time>2015-06-29T19:38:53.569Z</time>
      </trkpt>
      <trkpt lat="48.86701" lon="2.26176">
        <ele>92.8</ele>
        <time>2015-06-29T19:38:54.576Z</time>
      </trkpt>
      <trkpt lat="48.86707" lon="2.26181">
        <ele>93.2</ele>
        <time>2015-06-29T19:38:55.588Z</time>
      </trkpt>
      <trkpt lat="48.86713" lon="2.26186">
        <ele>93.2</ele>
        <time>2015-06-29T19:38:56.621Z</time>
      </trkpt>
      <trkpt lat="48.86719" lon="2.2619">
        <ele>93.1</ele>
        <time>2015-06-29T19:38:57.619Z</time>
      </trkpt>
      <trkpt lat="48.86726" lon="2.26194">
        <ele>93.2</ele>
        <time>2015-06-29T19:38:58.625Z</time>
      </trkpt>
      <trkpt lat="48.86734" lon="2.26198">
        <ele>93</ele>
        <time>2015-06-29T19:38:59.639Z</time>
      </trkpt>
      <trkpt lat="48.86741" lon="2.26202">
        <ele>93.1</ele>
        <time>2015-06-29T19:39:00.538Z</time>
      </trkpt>
      <trkpt lat="48.86747" lon="2.26206">
        <ele>93.1</ele>
        <time>2015-06-29T19:39:01.560Z</time>
      </trkpt>
      <trkpt lat="48.86754" lon="2.2621">
        <ele>93.3</ele>
        <time>2015-06-29T19:39:02.647Z</time>
      </trkpt>
      <trkpt lat="48.86761" lon="2.26214">
        <ele>93.2</ele>
        <time>2015-06-29T19:39:03.554Z</time>
      </trkpt>
      <trkpt lat="48.86767" lon="2.26218">
        <ele>93.7</ele>
        <time>2015-06-29T19:39:04.563Z</time>
      </trkpt>
      <trkpt lat="48.86774" lon="2.26223">
        <ele>93.5</ele>
        <time>2015-06-29T19:39:05.591Z</time>
      </trkpt>
      <trkpt lat="48.8678" lon="2.26229">
        <ele>93.2</ele>
        <time>2015-06-29T19:39:06.608Z</time>
      </trkpt>
      <trkpt lat="48.86786" lon="2.26236">
        <ele>93</ele>
        <time>2015-06-29T19:39:07.650Z</time>
      </trkpt>
      <trkpt lat="48.86792" lon="2.26243">
        <ele>92.2</ele>
        <time>2015-06-29T19:39:08.628Z</time>
      </trkpt>
      <trkpt lat="48.86798" lon="2.26249">
        <ele>92</ele>
        <time>2015-06-29T19:39:09.565Z</time>
      </trkpt>
      <trkpt lat="48.86803" lon="2.26255">
        <ele>91.8</ele>
        <time>2015-06-29T19:39:10.563Z</time>
      </trkpt>
      <trkpt lat="48.86808" lon="2.26263">
        <ele>91.6</ele>
        <time>2015-06-29T19:39:11.586Z</time>
      </trkpt>
      <trkpt lat="48.86813" lon="2.26271">
        <ele>91.8</ele>
        <time>2015-06-29T19:39:12.591Z</time>
      </trkpt>
      <trkpt lat="48.86817" lon="2.26279">
        <ele>92.2</ele>
        <time>2015-06-29T19:39:13.595Z</time>
      </trkpt>
      <trkpt lat="48.86821" lon="2.26287">
        <ele>92.2</ele>
        <time>2015-06-29T19:39:14.616Z</time>
      </trkpt>
      <trkpt lat="48.86825" lon="2.26295">
        <ele>92.7</ele>
        <time>2015-06-29T19:39:15.564Z</time>
      </trkpt>
      <trkpt lat="48.86828" lon="2.26302">
        <ele>93.1</ele>
        <time>2015-06-29T19:39:16.566Z</time>
      </trkpt>
      <trkpt lat="48.86832" lon="2.2631">
        <ele>93.3</ele>
        <time>2015-06-29T19:39:17.846Z</time>
      </trkpt>
      <trkpt lat="48.86835" lon="2.26317">
        <ele>93.7</ele>
        <time>2015-06-29T19:39:18.573Z</time>
      </trkpt>
      <trkpt lat="48.86839" lon="2.26324">
        <ele>94</ele>
        <time>2015-06-29T19:39:19.599Z</time>
      </trkpt>
      <trkpt lat="48.86843" lon="2.26331">
        <ele>94.1</ele>
        <time>2015-06-29T19:39:20.641Z</time>
      </trkpt>
      <trkpt lat="48.86845" lon="2.26338">
        <ele>94.4</ele>
        <time>2015-06-29T19:39:21.623Z</time>
      </trkpt>
      <trkpt lat="48.86846" lon="2.26345">
        <ele>94.6</ele>
        <time>2015-06-29T19:39:22.622Z</time>
      </trkpt>
      <trkpt lat="48.86847" lon="2.26352">
        <ele>94.7</ele>
        <time>2015-06-29T19:39:23.626Z</time>
      </trkpt>
      <trkpt lat="48.86848" lon="2.26359">
        <ele>94.2</ele>
        <time>2015-06-29T19:39:24.635Z</time>
      </trkpt>
      <trkpt lat="48.86849" lon="2.26372">
        <ele>93.9</ele>
        <time>2015-06-29T19:39:26.658Z</time>
      </trkpt>
      <trkpt lat="48.8685" lon="2.26378">
        <ele>93.8</ele>
        <time>2015-06-29T19:39:27.581Z</time>
      </trkpt>
      <trkpt lat="48.86851" lon="2.26384">
        <ele>93.5</ele>
        <time>2015-06-29T19:39:28.566Z</time>
      </trkpt>
      <trkpt lat="48.86853" lon="2.26391">
        <ele>93.2</ele>
        <time>2015-06-29T19:39:29.588Z</time>
      </trkpt>
      <trkpt lat="48.86854" lon="2.26403">
        <ele>93.1</ele>
        <time>2015-06-29T19:39:31.557Z</time>
      </trkpt>
      <trkpt lat="48.86855" lon="2.26409">
        <ele>93</ele>
        <time>2015-06-29T19:39:32.673Z</time>
      </trkpt>
      <trkpt lat="48.86856" lon="2.2642">
        <ele>93.2</ele>
        <time>2015-06-29T19:39:34.576Z</time>
      </trkpt>
      <trkpt lat="48.86856" lon="2.26426">
        <ele>92.9</ele>
        <time>2015-06-29T19:39:35.654Z</time>
      </trkpt>
      <trkpt lat="48.86856" lon="2.26438">
        <ele>93.7</ele>
        <time>2015-06-29T19:39:37.549Z</time>
      </trkpt>
      <trkpt lat="48.86856" lon="2.26444">
        <ele>93.9</ele>
        <time>2015-06-29T19:39:38.694Z</time>
      </trkpt>
      <trkpt lat="48.86855" lon="2.26456">
        <ele>93.8</ele>
        <time>2015-06-29T19:39:40.591Z</time>
      </trkpt>
      <trkpt lat="48.86855" lon="2.26461">
        <ele>93.7</ele>
        <time>2015-06-29T19:39:41.675Z</time>
      </trkpt>
      <trkpt lat="48.86854" lon="2.26472">
        <ele>93.2</ele>
        <time>2015-06-29T19:39:43.573Z</time>
      </trkpt>
      <trkpt lat="48.86854" lon="2.26477">
        <ele>93.4</ele>
        <time>2015-06-29T19:39:44.679Z</time>
      </trkpt>
      <trkpt lat="48.86853" lon="2.26487">
        <ele>93.3</ele>
        <time>2015-06-29T19:39:46.578Z</time>
      </trkpt>
      <trkpt lat="48.86852" lon="2.26492">
        <ele>93.1</ele>
        <time>2015-06-29T19:39:47.589Z</time>
      </trkpt>
      <trkpt lat="48.8685" lon="2.26501">
        <ele>92.7</ele>
        <time>2015-06-29T19:39:49.558Z</time>
      </trkpt>
      <trkpt lat="48.86849" lon="2.26505">
        <ele>92.5</ele>
        <time>2015-06-29T19:39:50.661Z</time>
      </trkpt>
      <trkpt lat="48.86844" lon="2.26516">
        <ele>92.1</ele>
        <time>2015-06-29T19:39:53.618Z</time>
      </trkpt>
      <trkpt lat="48.86843" lon="2.26519">
        <ele>92.1</ele>
        <time>2015-06-29T19:39:54.655Z</time>
      </trkpt>
      <trkpt lat="48.86842" lon="2.26507">
        <ele>87.8</ele>
        <time>2015-06-29T19:40:59.663Z</time>
      </trkpt>
      <trkpt lat="48.86843" lon="2.26504">
        <ele>87.9</ele>
        <time>2015-06-29T19:41:00.541Z</time>
      </trkpt>
      <trkpt lat="48.86844" lon="2.26494">
        <ele>87.9</ele>
        <time>2015-06-29T19:41:03.692Z</time>
      </trkpt>
      <trkpt lat="48.86845" lon="2.26489">
        <ele>87.7</ele>
        <time>2015-06-29T19:41:04.579Z</time>
      </trkpt>
      <trkpt lat="48.86846" lon="2.26481">
        <ele>87.8</ele>
        <time>2015-06-29T19:41:06.604Z</time>
      </trkpt>
      <trkpt lat="48.86846" lon="2.26476">
        <ele>88</ele>
        <time>2015-06-29T19:41:07.633Z</time>
      </trkpt>
      <trkpt lat="48.86846" lon="2.26466">
        <ele>87.9</ele>
        <time>2015-06-29T19:41:09.604Z</time>
      </trkpt>
      <trkpt lat="48.86846" lon="2.2646">
        <ele>87.9</ele>
        <time>2015-06-29T19:41:10.593Z</time>
      </trkpt>
      <trkpt lat="48.86847" lon="2.26449">
        <ele>88</ele>
        <time>2015-06-29T19:41:12.555Z</time>
      </trkpt>
      <trkpt lat="48.86848" lon="2.26443">
        <ele>87.8</ele>
        <time>2015-06-29T19:41:13.588Z</time>
      </trkpt>
      <trkpt lat="48.86847" lon="2.26432">
        <ele>87.8</ele>
        <time>2015-06-29T19:41:15.559Z</time>
      </trkpt>
      <trkpt lat="48.86846" lon="2.26426">
        <ele>87.6</ele>
        <time>2015-06-29T19:41:16.595Z</time>
      </trkpt>
      <trkpt lat="48.86845" lon="2.26414">
        <ele>87.3</ele>
        <time>2015-06-29T19:41:18.559Z</time>
      </trkpt>
      <trkpt lat="48.86845" lon="2.26408">
        <ele>87.3</ele>
        <time>2015-06-29T19:41:19.574Z</time>
      </trkpt>
      <trkpt lat="48.86844" lon="2.26395">
        <ele>87.5</ele>
        <time>2015-06-29T19:41:21.561Z</time>
      </trkpt>
      <trkpt lat="48.86843" lon="2.26388">
        <ele>87.3</ele>
        <time>2015-06-29T19:41:22.591Z</time>
      </trkpt>
      <trkpt lat="48.86842" lon="2.26381">
        <ele>87</ele>
        <time>2015-06-29T19:41:23.631Z</time>
      </trkpt>
      <trkpt lat="48.86841" lon="2.26375">
        <ele>86.9</ele>
        <time>2015-06-29T19:41:24.615Z</time>
      </trkpt>
      <trkpt lat="48.86839" lon="2.26368">
        <ele>87.2</ele>
        <time>2015-06-29T19:41:25.627Z</time>
      </trkpt>
      <trkpt lat="48.86838" lon="2.26361">
        <ele>87.2</ele>
        <time>2015-06-29T19:41:26.633Z</time>
      </trkpt>
      <trkpt lat="48.86835" lon="2.26349">
        <ele>87.5</ele>
        <time>2015-06-29T19:41:28.556Z</time>
      </trkpt>
      <trkpt lat="48.86834" lon="2.26343">
        <ele>87.9</ele>
        <time>2015-06-29T19:41:29.582Z</time>
      </trkpt>
      <trkpt lat="48.8683" lon="2.26331">
        <ele>88.3</ele>
        <time>2015-06-29T19:41:31.644Z</time>
      </trkpt>
      <trkpt lat="48.86829" lon="2.26326">
        <ele>88.5</ele>
        <time>2015-06-29T19:41:32.661Z</time>
      </trkpt>
      <trkpt lat="48.86825" lon="2.26316">
        <ele>89.3</ele>
        <time>2015-06-29T19:41:34.550Z</time>
      </trkpt>
      <trkpt lat="48.86823" lon="2.26312">
        <ele>89.6</ele>
        <time>2015-06-29T19:41:35.556Z</time>
      </trkpt>
      <trkpt lat="48.86819" lon="2.26303">
        <ele>90.1</ele>
        <time>2015-06-29T19:41:37.592Z</time>
      </trkpt>
      <trkpt lat="48.86816" lon="2.26298">
        <ele>90.3</ele>
        <time>2015-06-29T19:41:38.654Z</time>
      </trkpt>
      <trkpt lat="48.86812" lon="2.2629">
        <ele>91.3</ele>
        <time>2015-06-29T19:41:40.572Z</time>
      </trkpt>
      <trkpt lat="48.86809" lon="2.26286">
        <ele>91.7</ele>
        <time>2015-06-29T19:41:41.579Z</time>
      </trkpt>
      <trkpt lat="48.86803" lon="2.26279">
        <ele>92</ele>
        <time>2015-06-29T19:41:44.638Z</time>
      </trkpt>
      <trkpt lat="48.868" lon="2.26276">
        <ele>91.8</ele>
        <time>2015-06-29T19:41:45.606Z</time>
      </trkpt>
      <trkpt lat="48.86795" lon="2.26271">
        <ele>91.7</ele>
        <time>2015-06-29T19:41:47.620Z</time>
      </trkpt>
      <trkpt lat="48.86792" lon="2.26269">
        <ele>91.9</ele>
        <time>2015-06-29T19:41:48.627Z</time>
      </trkpt>
      <trkpt lat="48.86786" lon="2.2626">
        <ele>92.1</ele>
        <time>2015-06-29T19:41:51.556Z</time>
      </trkpt>
      <trkpt lat="48.86784" lon="2.26257">
        <ele>92</ele>
        <time>2015-06-29T19:41:52.551Z</time>
      </trkpt>
      <trkpt lat="48.86777" lon="2.2625">
        <ele>93.2</ele>
        <time>2015-06-29T19:41:56.642Z</time>
      </trkpt>
      <trkpt lat="48.86774" lon="2.2625">
        <ele>93.1</ele>
        <time>2015-06-29T19:41:57.593Z</time>
      </trkpt>
      <trkpt lat="48.86767" lon="2.26247">
        <ele>93.9</ele>
        <time>2015-06-29T19:44:42.702Z</time>
      </trkpt>
      <trkpt lat="48.86783" lon="2.26238">
        <ele>94</ele>
        <time>2015-06-29T19:44:43.593Z</time>
      </trkpt>
      <trkpt lat="48.86787" lon="2.2624">
        <ele>93.6</ele>
        <time>2015-06-29T19:45:01.559Z</time>
      </trkpt>
      <trkpt lat="48.868" lon="2.26252">
        <ele>93.5</ele>
        <time>2015-06-29T19:45:02.653Z</time>
      </trkpt>
      <trkpt lat="48.86806" lon="2.2626">
        <ele>93.5</ele>
        <time>2015-06-29T19:45:06.659Z</time>
      </trkpt>
      <trkpt lat="48.86808" lon="2.26262">
        <ele>93.5</ele>
        <time>2015-06-29T19:45:07.605Z</time>
      </trkpt>
      <trkpt lat="48.86814" lon="2.26268">
        <ele>93.5</ele>
        <time>2015-06-29T19:45:10.632Z</time>
      </trkpt>
      <trkpt lat="48.86815" lon="2.2627">
        <ele>93.1</ele>
        <time>2015-06-29T19:45:11.582Z</time>
      </trkpt>
      <trkpt lat="48.86821" lon="2.26277">
        <ele>93.9</ele>
        <time>2015-06-29T19:45:14.640Z</time>
      </trkpt>
      <trkpt lat="48.86823" lon="2.2628">
        <ele>94.2</ele>
        <time>2015-06-29T19:45:15.565Z</time>
      </trkpt>
      <trkpt lat="48.86827" lon="2.26287">
        <ele>95.7</ele>
        <time>2015-06-29T19:45:18.592Z</time>
      </trkpt>
      <trkpt lat="48.86829" lon="2.2629">
        <ele>95.7</ele>
        <time>2015-06-29T19:45:19.598Z</time>
      </trkpt>
      <trkpt lat="48.86834" lon="2.263">
        <ele>97.3</ele>
        <time>2015-06-29T19:45:23.586Z</time>
      </trkpt>
      <trkpt lat="48.86836" lon="2.26302">
        <ele>97.6</ele>
        <time>2015-06-29T19:45:24.587Z</time>
      </trkpt>
      <trkpt lat="48.86842" lon="2.2631">
        <ele>98.8</ele>
        <time>2015-06-29T19:45:29.565Z</time>
      </trkpt>
      <trkpt lat="48.86844" lon="2.26311">
        <ele>99</ele>
        <time>2015-06-29T19:45:30.578Z</time>
      </trkpt>
      <trkpt lat="48.86842" lon="2.263">
        <ele>94.7</ele>
        <time>2015-06-29T19:45:46.630Z</time>
      </trkpt>
      <trkpt lat="48.86843" lon="2.26296">
        <ele>94.2</ele>
        <time>2015-06-29T19:45:47.589Z</time>
      </trkpt>
      <trkpt lat="48.86843" lon="2.26284">
        <ele>94.4</ele>
        <time>2015-06-29T19:45:50.582Z</time>
      </trkpt>
      <trkpt lat="48.86843" lon="2.26279">
        <ele>94.6</ele>
        <time>2015-06-29T19:45:51.593Z</time>
      </trkpt>
      <trkpt lat="48.86843" lon="2.2627">
        <ele>94.8</ele>
        <time>2015-06-29T19:45:53.670Z</time>
      </trkpt>
      <trkpt lat="48.86843" lon="2.26265">
        <ele>94.9</ele>
        <time>2015-06-29T19:45:54.586Z</time>
      </trkpt>
      <trkpt lat="48.86843" lon="2.26253">
        <ele>95.5</ele>
        <time>2015-06-29T19:45:57.645Z</time>
      </trkpt>
      <trkpt lat="48.86842" lon="2.2625">
        <ele>95.5</ele>
        <time>2015-06-29T19:45:58.577Z</time>
      </trkpt>
      <trkpt lat="48.86842" lon="2.26239">
        <ele>95.8</ele>
        <time>2015-06-29T19:46:01.615Z</time>
      </trkpt>
      <trkpt lat="48.86842" lon="2.26235">
        <ele>95.8</ele>
        <time>2015-06-29T19:46:02.652Z</time>
      </trkpt>
      <trkpt lat="48.86843" lon="2.26223">
        <ele>95.6</ele>
        <time>2015-06-29T19:46:05.583Z</time>
      </trkpt>
      <trkpt lat="48.86843" lon="2.26219">
        <ele>95.4</ele>
        <time>2015-06-29T19:46:06.599Z</time>
      </trkpt>
      <trkpt lat="48.86843" lon="2.26206">
        <ele>95.2</ele>
        <time>2015-06-29T19:46:09.647Z</time>
      </trkpt>
      <trkpt lat="48.86843" lon="2.26202">
        <ele>95.4</ele>
        <time>2015-06-29T19:46:10.560Z</time>
      </trkpt>
      <trkpt lat="48.86841" lon="2.26191">
        <ele>95.8</ele>
        <time>2015-06-29T19:46:13.607Z</time>
      </trkpt>
      <trkpt lat="48.8684" lon="2.26188">
        <ele>95.9</ele>
        <time>2015-06-29T19:46:14.633Z</time>
      </trkpt>
      <trkpt lat="48.86839" lon="2.26176">
        <ele>95.9</ele>
        <time>2015-06-29T19:46:17.595Z</time>
      </trkpt>
      <trkpt lat="48.86838" lon="2.26171">
        <ele>96</ele>
        <time>2015-06-29T19:46:18.610Z</time>
      </trkpt>
      <trkpt lat="48.86836" lon="2.26158">
        <ele>95.6</ele>
        <time>2015-06-29T19:46:21.579Z</time>
      </trkpt>
      <trkpt lat="48.86835" lon="2.26155">
        <ele>95.4</ele>
        <time>2015-06-29T19:46:22.628Z</time>
      </trkpt>
      <trkpt lat="48.86834" lon="2.26146">
        <ele>95.5</ele>
        <time>2015-06-29T19:46:24.639Z</time>
      </trkpt>
      <trkpt lat="48.86833" lon="2.26141">
        <ele>95.2</ele>
        <time>2015-06-29T19:46:25.652Z</time>
      </trkpt>
      <trkpt lat="48.8683" lon="2.26131">
        <ele>94.6</ele>
        <time>2015-06-29T19:46:27.598Z</time>
      </trkpt>
      <trkpt lat="48.86829" lon="2.26127">
        <ele>94.4</ele>
        <time>2015-06-29T19:46:28.622Z</time>
      </trkpt>
      <trkpt lat="48.86827" lon="2.26114">
        <ele>95.1</ele>
        <time>2015-06-29T19:46:31.578Z</time>
      </trkpt>
      <trkpt lat="48.86826" lon="2.2611">
        <ele>95.2</ele>
        <time>2015-06-29T19:46:32.622Z</time>
      </trkpt>
      <trkpt lat="48.86824" lon="2.26099">
        <ele>95.6</ele>
        <time>2015-06-29T19:46:35.576Z</time>
      </trkpt>
      <trkpt lat="48.86824" lon="2.26095">
        <ele>95.8</ele>
        <time>2015-06-29T19:46:36.592Z</time>
      </trkpt>
      <trkpt lat="48.86821" lon="2.26085">
        <ele>95.5</ele>
        <time>2015-06-29T19:46:38.631Z</time>
      </trkpt>
      <trkpt lat="48.86819" lon="2.2608">
        <ele>95.3</ele>
        <time>2015-06-29T19:46:39.629Z</time>
      </trkpt>
      <trkpt lat="48.86816" lon="2.26072">
        <ele>95.1</ele>
        <time>2015-06-29T19:46:41.556Z</time>
      </trkpt>
      <trkpt lat="48.86815" lon="2.26067">
        <ele>95.1</ele>
        <time>2015-06-29T19:46:42.633Z</time>
      </trkpt>
      <trkpt lat="48.86812" lon="2.26055">
        <ele>95.2</ele>
        <time>2015-06-29T19:46:45.613Z</time>
      </trkpt>
      <trkpt lat="48.86811" lon="2.2605">
        <ele>95.2</ele>
        <time>2015-06-29T19:46:46.529Z</time>
      </trkpt>
      <trkpt lat="48.86808" lon="2.2604">
        <ele>95.4</ele>
        <time>2015-06-29T19:46:48.582Z</time>
      </trkpt>
      <trkpt lat="48.86806" lon="2.26036">
        <ele>95.4</ele>
        <time>2015-06-29T19:46:49.601Z</time>
      </trkpt>
      <trkpt lat="48.86803" lon="2.26029">
        <ele>95.3</ele>
        <time>2015-06-29T19:46:51.575Z</time>
      </trkpt>
      <trkpt lat="48.86801" lon="2.26025">
        <ele>95</ele>
        <time>2015-06-29T19:46:52.563Z</time>
      </trkpt>
      <trkpt lat="48.86797" lon="2.26015">
        <ele>94.2</ele>
        <time>2015-06-29T19:46:54.584Z</time>
      </trkpt>
      <trkpt lat="48.86795" lon="2.26013">
        <ele>94</ele>
        <time>2015-06-29T19:46:55.638Z</time>
      </trkpt>
      <trkpt lat="48.86789" lon="2.26004">
        <ele>93.7</ele>
        <time>2015-06-29T19:46:58.583Z</time>
      </trkpt>
      <trkpt lat="48.86787" lon="2.26001">
        <ele>93.7</ele>
        <time>2015-06-29T19:46:59.598Z</time>
      </trkpt>
      <trkpt lat="48.86781" lon="2.2599">
        <ele>92.5</ele>
        <time>2015-06-29T19:47:02.640Z</time>
      </trkpt>
      <trkpt lat="48.8678" lon="2.25986">
        <ele>92.2</ele>
        <time>2015-06-29T19:47:03.615Z</time>
      </trkpt>
      <trkpt lat="48.86777" lon="2.25978">
        <ele>92.3</ele>
        <time>2015-06-29T19:47:05.560Z</time>
      </trkpt>
      <trkpt lat="48.86776" lon="2.25973">
        <ele>92.7</ele>
        <time>2015-06-29T19:47:06.590Z</time>
      </trkpt>
      <trkpt lat="48.86772" lon="2.25965">
        <ele>92.6</ele>
        <time>2015-06-29T19:47:08.632Z</time>
      </trkpt>
      <trkpt lat="48.8677" lon="2.25961">
        <ele>92.1</ele>
        <time>2015-06-29T19:47:09.587Z</time>
      </trkpt>
      <trkpt lat="48.86766" lon="2.25953">
        <ele>92.3</ele>
        <time>2015-06-29T19:47:11.555Z</time>
      </trkpt>
      <trkpt lat="48.86765" lon="2.25948">
        <ele>92</ele>
        <time>2015-06-29T19:47:12.599Z</time>
      </trkpt>
      <trkpt lat="48.86762" lon="2.25938">
        <ele>91.6</ele>
        <time>2015-06-29T19:47:14.634Z</time>
      </trkpt>
      <trkpt lat="48.86761" lon="2.25933">
        <ele>91.6</ele>
        <time>2015-06-29T19:47:15.642Z</time>
      </trkpt>
      <trkpt lat="48.86757" lon="2.25925">
        <ele>91.7</ele>
        <time>2015-06-29T19:47:17.568Z</time>
      </trkpt>
      <trkpt lat="48.86756" lon="2.2592">
        <ele>91.7</ele>
        <time>2015-06-29T19:47:18.582Z</time>
      </trkpt>
      <trkpt lat="48.86753" lon="2.25911">
        <ele>91.5</ele>
        <time>2015-06-29T19:47:20.614Z</time>
      </trkpt>
      <trkpt lat="48.86752" lon="2.25904">
        <ele>91.8</ele>
        <time>2015-06-29T19:47:21.625Z</time>
      </trkpt>
      <trkpt lat="48.86749" lon="2.25895">
        <ele>92</ele>
        <time>2015-06-29T19:47:23.543Z</time>
      </trkpt>
      <trkpt lat="48.86746" lon="2.25892">
        <ele>91.5</ele>
        <time>2015-06-29T19:47:24.578Z</time>
      </trkpt>
      <trkpt lat="48.86743" lon="2.25882">
        <ele>91.5</ele>
        <time>2015-06-29T19:47:26.605Z</time>
      </trkpt>
      <trkpt lat="48.86741" lon="2.25878">
        <ele>91.4</ele>
        <time>2015-06-29T19:47:27.623Z</time>
      </trkpt>
      <trkpt lat="48.86739" lon="2.25867">
        <ele>90.7</ele>
        <time>2015-06-29T19:47:29.554Z</time>
      </trkpt>
      <trkpt lat="48.86738" lon="2.25861">
        <ele>90.1</ele>
        <time>2015-06-29T19:47:30.655Z</time>
      </trkpt>
      <trkpt lat="48.86735" lon="2.25851">
        <ele>89.8</ele>
        <time>2015-06-29T19:47:32.609Z</time>
      </trkpt>
      <trkpt lat="48.86734" lon="2.25845">
        <ele>89.8</ele>
        <time>2015-06-29T19:47:33.630Z</time>
      </trkpt>
      <trkpt lat="48.86733" lon="2.25834">
        <ele>89.9</ele>
        <time>2015-06-29T19:47:35.553Z</time>
      </trkpt>
      <trkpt lat="48.86732" lon="2.25829">
        <ele>89.9</ele>
        <time>2015-06-29T19:47:36.576Z</time>
      </trkpt>
      <trkpt lat="48.8673" lon="2.25817">
        <ele>90.2</ele>
        <time>2015-06-29T19:47:38.645Z</time>
      </trkpt>
      <trkpt lat="48.86728" lon="2.25812">
        <ele>90.4</ele>
        <time>2015-06-29T19:47:39.665Z</time>
      </trkpt>
      <trkpt lat="48.86727" lon="2.258">
        <ele>90.1</ele>
        <time>2015-06-29T19:47:41.571Z</time>
      </trkpt>
      <trkpt lat="48.86725" lon="2.25795">
        <ele>89.8</ele>
        <time>2015-06-29T19:47:42.664Z</time>
      </trkpt>
      <trkpt lat="48.86723" lon="2.25785">
        <ele>89.6</ele>
        <time>2015-06-29T19:47:44.652Z</time>
      </trkpt>
      <trkpt lat="48.86721" lon="2.25779">
        <ele>89.2</ele>
        <time>2015-06-29T19:47:45.662Z</time>
      </trkpt>
      <trkpt lat="48.86719" lon="2.25767">
        <ele>89.3</ele>
        <time>2015-06-29T19:47:47.595Z</time>
      </trkpt>
      <trkpt lat="48.86718" lon="2.25762">
        <ele>89.6</ele>
        <time>2015-06-29T19:47:48.612Z</time>
      </trkpt>
      <trkpt lat="48.86716" lon="2.25752">
        <ele>89.4</ele>
        <time>2015-06-29T19:47:50.643Z</time>
      </trkpt>
      <trkpt lat="48.86715" lon="2.25746">
        <ele>89.4</ele>
        <time>2015-06-29T19:47:51.581Z</time>
      </trkpt>
      <trkpt lat="48.86714" lon="2.25733">
        <ele>89.1</ele>
        <time>2015-06-29T19:47:53.611Z</time>
      </trkpt>
      <trkpt lat="48.86712" lon="2.25727">
        <ele>89.2</ele>
        <time>2015-06-29T19:47:54.616Z</time>
      </trkpt>
      <trkpt lat="48.86711" lon="2.2572">
        <ele>89.2</ele>
        <time>2015-06-29T19:47:55.622Z</time>
      </trkpt>
      <trkpt lat="48.86709" lon="2.25713">
        <ele>89.3</ele>
        <time>2015-06-29T19:47:56.637Z</time>
      </trkpt>
      <trkpt lat="48.86707" lon="2.25706">
        <ele>89.3</ele>
        <time>2015-06-29T19:47:57.550Z</time>
      </trkpt>
      <trkpt lat="48.86706" lon="2.25699">
        <ele>89.6</ele>
        <time>2015-06-29T19:47:58.559Z</time>
      </trkpt>
      <trkpt lat="48.86705" lon="2.25687">
        <ele>89.9</ele>
        <time>2015-06-29T19:48:00.578Z</time>
      </trkpt>
      <trkpt lat="48.86704" lon="2.25681">
        <ele>90</ele>
        <time>2015-06-29T19:48:01.587Z</time>
      </trkpt>
      <trkpt lat="48.86702" lon="2.25669">
        <ele>90.1</ele>
        <time>2015-06-29T19:48:03.620Z</time>
      </trkpt>
      <trkpt lat="48.86701" lon="2.25664">
        <ele>90.4</ele>
        <time>2015-06-29T19:48:04.595Z</time>
      </trkpt>
      <trkpt lat="48.86698" lon="2.25653">
        <ele>90.8</ele>
        <time>2015-06-29T19:48:06.577Z</time>
      </trkpt>
      <trkpt lat="48.86696" lon="2.25647">
        <ele>90.9</ele>
        <time>2015-06-29T19:48:07.580Z</time>
      </trkpt>
      <trkpt lat="48.86694" lon="2.25634">
        <ele>90.9</ele>
        <time>2015-06-29T19:48:09.807Z</time>
      </trkpt>
      <trkpt lat="48.86693" lon="2.25629">
        <ele>91.2</ele>
        <time>2015-06-29T19:48:10.625Z</time>
      </trkpt>
      <trkpt lat="48.86692" lon="2.25619">
        <ele>91.4</ele>
        <time>2015-06-29T19:48:12.571Z</time>
      </trkpt>
      <trkpt lat="48.86691" lon="2.25614">
        <ele>91.3</ele>
        <time>2015-06-29T19:48:13.577Z</time>
      </trkpt>
      <trkpt lat="48.86689" lon="2.25603">
        <ele>91.3</ele>
        <time>2015-06-29T19:48:15.515Z</time>
      </trkpt>
      <trkpt lat="48.86687" lon="2.25596">
        <ele>91.2</ele>
        <time>2015-06-29T19:48:16.578Z</time>
      </trkpt>
      <trkpt lat="48.86685" lon="2.25584">
        <ele>91</ele>
        <time>2015-06-29T19:48:18.611Z</time>
      </trkpt>
      <trkpt lat="48.86685" lon="2.25579">
        <ele>90.9</ele>
        <time>2015-06-29T19:48:19.631Z</time>
      </trkpt>
      <trkpt lat="48.86685" lon="2.25571">
        <ele>89.9</ele>
        <time>2015-06-29T19:48:20.665Z</time>
      </trkpt>
      <trkpt lat="48.86684" lon="2.25564">
        <ele>89.6</ele>
        <time>2015-06-29T19:48:21.537Z</time>
      </trkpt>
      <trkpt lat="48.86682" lon="2.25551">
        <ele>89.2</ele>
        <time>2015-06-29T19:48:23.566Z</time>
      </trkpt>
      <trkpt lat="48.8668" lon="2.25544">
        <ele>89.3</ele>
        <time>2015-06-29T19:48:24.579Z</time>
      </trkpt>
      <trkpt lat="48.86679" lon="2.25533">
        <ele>89.5</ele>
        <time>2015-06-29T19:48:26.583Z</time>
      </trkpt>
      <trkpt lat="48.86678" lon="2.25527">
        <ele>89.4</ele>
        <time>2015-06-29T19:48:27.609Z</time>
      </trkpt>
      <trkpt lat="48.86676" lon="2.25517">
        <ele>89.2</ele>
        <time>2015-06-29T19:48:30.012Z</time>
      </trkpt>
      <trkpt lat="48.86676" lon="2.25511">
        <ele>89.2</ele>
        <time>2015-06-29T19:48:30.601Z</time>
      </trkpt>
      <trkpt lat="48.86673" lon="2.25499">
        <ele>89.1</ele>
        <time>2015-06-29T19:48:32.995Z</time>
      </trkpt>
      <trkpt lat="48.86672" lon="2.25493">
        <ele>89</ele>
        <time>2015-06-29T19:48:33.514Z</time>
      </trkpt>
      <trkpt lat="48.8667" lon="2.25482">
        <ele>89.4</ele>
        <time>2015-06-29T19:48:35.519Z</time>
      </trkpt>
      <trkpt lat="48.8667" lon="2.25477">
        <ele>89.6</ele>
        <time>2015-06-29T19:48:36.545Z</time>
      </trkpt>
      <trkpt lat="48.86668" lon="2.25466">
        <ele>89.6</ele>
        <time>2015-06-29T19:48:39.565Z</time>
      </trkpt>
      <trkpt lat="48.86666" lon="2.25462">
        <ele>89.6</ele>
        <time>2015-06-29T19:48:40.779Z</time>
      </trkpt>
      <trkpt lat="48.86664" lon="2.25453">
        <ele>89.7</ele>
        <time>2015-06-29T19:48:43.577Z</time>
      </trkpt>
      <trkpt lat="48.86663" lon="2.2545">
        <ele>90</ele>
        <time>2015-06-29T19:48:44.572Z</time>
      </trkpt>
      <trkpt lat="48.8666" lon="2.25438">
        <ele>91.1</ele>
        <time>2015-06-29T19:48:53.294Z</time>
      </trkpt>
      <trkpt lat="48.86658" lon="2.25435">
        <ele>91.6</ele>
        <time>2015-06-29T19:48:54.727Z</time>
      </trkpt>
      <trkpt lat="48.86655" lon="2.25424">
        <ele>92.2</ele>
        <time>2015-06-29T19:48:59.572Z</time>
      </trkpt>
      <trkpt lat="48.86654" lon="2.25421">
        <ele>92.3</ele>
        <time>2015-06-29T19:49:00.546Z</time>
      </trkpt>
      <trkpt lat="48.86651" lon="2.25409">
        <ele>91.7</ele>
        <time>2015-06-29T19:49:04.528Z</time>
      </trkpt>
      <trkpt lat="48.86651" lon="2.25406">
        <ele>91.5</ele>
        <time>2015-06-29T19:49:05.611Z</time>
      </trkpt>
      <trkpt lat="48.86648" lon="2.25397">
        <ele>91.6</ele>
        <time>2015-06-29T19:49:08.870Z</time>
      </trkpt>
      <trkpt lat="48.86647" lon="2.25393">
        <ele>91.6</ele>
        <time>2015-06-29T19:49:09.528Z</time>
      </trkpt>
      <trkpt lat="48.86644" lon="2.25385">
        <ele>92.1</ele>
        <time>2015-06-29T19:49:11.611Z</time>
      </trkpt>
      <trkpt lat="48.86643" lon="2.2538">
        <ele>92.1</ele>
        <time>2015-06-29T19:49:12.610Z</time>
      </trkpt>
      <trkpt lat="48.8664" lon="2.25372">
        <ele>91.7</ele>
        <time>2015-06-29T19:49:14.597Z</time>
      </trkpt>
      <trkpt lat="48.86639" lon="2.25368">
        <ele>91.3</ele>
        <time>2015-06-29T19:49:15.531Z</time>
      </trkpt>
      <trkpt lat="48.86636" lon="2.25359">
        <ele>90.6</ele>
        <time>2015-06-29T19:49:17.558Z</time>
      </trkpt>
      <trkpt lat="48.86634" lon="2.25355">
        <ele>90.6</ele>
        <time>2015-06-29T19:49:18.594Z</time>
      </trkpt>
      <trkpt lat="48.86631" lon="2.25345">
        <ele>90.8</ele>
        <time>2015-06-29T19:49:20.720Z</time>
      </trkpt>
      <trkpt lat="48.86629" lon="2.2534">
        <ele>91.2</ele>
        <time>2015-06-29T19:49:21.561Z</time>
      </trkpt>
      <trkpt lat="48.86625" lon="2.2533">
        <ele>91.3</ele>
        <time>2015-06-29T19:49:23.524Z</time>
      </trkpt>
      <trkpt lat="48.86623" lon="2.25325">
        <ele>91.5</ele>
        <time>2015-06-29T19:49:24.568Z</time>
      </trkpt>
      <trkpt lat="48.8662" lon="2.25316">
        <ele>91.8</ele>
        <time>2015-06-29T19:49:26.673Z</time>
      </trkpt>
      <trkpt lat="48.86617" lon="2.25312">
        <ele>92</ele>
        <time>2015-06-29T19:49:27.519Z</time>
      </trkpt>
      <trkpt lat="48.86614" lon="2.25302">
        <ele>91.9</ele>
        <time>2015-06-29T19:49:29.541Z</time>
      </trkpt>
      <trkpt lat="48.86612" lon="2.25296">
        <ele>91.7</ele>
        <time>2015-06-29T19:49:30.552Z</time>
      </trkpt>
      <trkpt lat="48.86609" lon="2.25287">
        <ele>91.7</ele>
        <time>2015-06-29T19:49:32.625Z</time>
      </trkpt>
      <trkpt lat="48.86606" lon="2.25281">
        <ele>91.3</ele>
        <time>2015-06-29T19:49:33.639Z</time>
      </trkpt>
      <trkpt lat="48.86602" lon="2.25272">
        <ele>90.8</ele>
        <time>2015-06-29T19:49:35.615Z</time>
      </trkpt>
      <trkpt lat="48.86601" lon="2.25268">
        <ele>91</ele>
        <time>2015-06-29T19:49:36.710Z</time>
      </trkpt>
      <trkpt lat="48.86597" lon="2.25258">
        <ele>91</ele>
        <time>2015-06-29T19:49:38.633Z</time>
      </trkpt>
      <trkpt lat="48.86595" lon="2.25253">
        <ele>91.2</ele>
        <time>2015-06-29T19:49:39.528Z</time>
      </trkpt>
      <trkpt lat="48.86591" lon="2.25242">
        <ele>91.5</ele>
        <time>2015-06-29T19:49:41.558Z</time>
      </trkpt>
      <trkpt lat="48.86589" lon="2.25237">
        <ele>91.6</ele>
        <time>2015-06-29T19:49:42.562Z</time>
      </trkpt>
      <trkpt lat="48.86586" lon="2.25231">
        <ele>91.3</ele>
        <time>2015-06-29T19:49:43.577Z</time>
      </trkpt>
      <trkpt lat="48.86583" lon="2.25225">
        <ele>91.2</ele>
        <time>2015-06-29T19:49:44.632Z</time>
      </trkpt>
      <trkpt lat="48.86579" lon="2.25214">
        <ele>91</ele>
        <time>2015-06-29T19:49:46.602Z</time>
      </trkpt>
      <trkpt lat="48.86577" lon="2.25209">
        <ele>90.8</ele>
        <time>2015-06-29T19:49:47.520Z</time>
      </trkpt>
      <trkpt lat="48.86573" lon="2.25197">
        <ele>91.3</ele>
        <time>2015-06-29T19:49:50.490Z</time>
      </trkpt>
      <trkpt lat="48.8657" lon="2.25191">
        <ele>91.3</ele>
        <time>2015-06-29T19:49:50.738Z</time>
      </trkpt>
      <trkpt lat="48.86567" lon="2.25184">
        <ele>91.5</ele>
        <time>2015-06-29T19:49:51.639Z</time>
      </trkpt>
      <trkpt lat="48.86564" lon="2.25177">
        <ele>91.5</ele>
        <time>2015-06-29T19:49:52.555Z</time>
      </trkpt>
      <trkpt lat="48.86562" lon="2.2517">
        <ele>91.6</ele>
        <time>2015-06-29T19:49:53.556Z</time>
      </trkpt>
      <trkpt lat="48.86559" lon="2.25164">
        <ele>91.7</ele>
        <time>2015-06-29T19:49:54.567Z</time>
      </trkpt>
      <trkpt lat="48.86556" lon="2.25157">
        <ele>91.4</ele>
        <time>2015-06-29T19:49:55.557Z</time>
      </trkpt>
      <trkpt lat="48.86554" lon="2.25151">
        <ele>91.5</ele>
        <time>2015-06-29T19:49:56.666Z</time>
      </trkpt>
      <trkpt lat="48.86552" lon="2.25144">
        <ele>91.5</ele>
        <time>2015-06-29T19:49:57.527Z</time>
      </trkpt>
      <trkpt lat="48.8655" lon="2.25138">
        <ele>91.4</ele>
        <time>2015-06-29T19:49:58.544Z</time>
      </trkpt>
      <trkpt lat="48.86548" lon="2.25131">
        <ele>91.2</ele>
        <time>2015-06-29T19:49:59.547Z</time>
      </trkpt>
      <trkpt lat="48.86546" lon="2.25124">
        <ele>91.1</ele>
        <time>2015-06-29T19:50:00.635Z</time>
      </trkpt>
      <trkpt lat="48.86544" lon="2.25117">
        <ele>91</ele>
        <time>2015-06-29T19:50:01.710Z</time>
      </trkpt>
      <trkpt lat="48.86542" lon="2.2511">
        <ele>90.9</ele>
        <time>2015-06-29T19:50:02.613Z</time>
      </trkpt>
      <trkpt lat="48.86539" lon="2.25098">
        <ele>90.7</ele>
        <time>2015-06-29T19:50:04.551Z</time>
      </trkpt>
      <trkpt lat="48.86537" lon="2.25093">
        <ele>90.7</ele>
        <time>2015-06-29T19:50:05.555Z</time>
      </trkpt>
      <trkpt lat="48.86533" lon="2.25083">
        <ele>91.1</ele>
        <time>2015-06-29T19:50:07.569Z</time>
      </trkpt>
      <trkpt lat="48.86531" lon="2.25077">
        <ele>91.4</ele>
        <time>2015-06-29T19:50:08.806Z</time>
      </trkpt>
      <trkpt lat="48.86529" lon="2.25066">
        <ele>91.3</ele>
        <time>2015-06-29T19:50:10.524Z</time>
      </trkpt>
      <trkpt lat="48.86526" lon="2.25059">
        <ele>91.4</ele>
        <time>2015-06-29T19:50:11.542Z</time>
      </trkpt>
      <trkpt lat="48.86524" lon="2.25053">
        <ele>91</ele>
        <time>2015-06-29T19:50:12.581Z</time>
      </trkpt>
      <trkpt lat="48.86523" lon="2.25045">
        <ele>91</ele>
        <time>2015-06-29T19:50:13.684Z</time>
      </trkpt>
      <trkpt lat="48.86521" lon="2.25038">
        <ele>90.9</ele>
        <time>2015-06-29T19:50:14.569Z</time>
      </trkpt>
      <trkpt lat="48.86519" lon="2.25031">
        <ele>90.9</ele>
        <time>2015-06-29T19:50:15.588Z</time>
      </trkpt>
      <trkpt lat="48.86518" lon="2.25024">
        <ele>90.8</ele>
        <time>2015-06-29T19:50:16.526Z</time>
      </trkpt>
      <trkpt lat="48.86516" lon="2.25017">
        <ele>90.5</ele>
        <time>2015-06-29T19:50:17.612Z</time>
      </trkpt>
      <trkpt lat="48.86514" lon="2.25004">
        <ele>90.2</ele>
        <time>2015-06-29T19:50:19.606Z</time>
      </trkpt>
      <trkpt lat="48.86513" lon="2.24998">
        <ele>89.9</ele>
        <time>2015-06-29T19:50:20.696Z</time>
      </trkpt>
      <trkpt lat="48.86511" lon="2.24986">
        <ele>89.3</ele>
        <time>2015-06-29T19:50:22.540Z</time>
      </trkpt>
      <trkpt lat="48.8651" lon="2.2498">
        <ele>88.6</ele>
        <time>2015-06-29T19:50:23.658Z</time>
      </trkpt>
      <trkpt lat="48.86509" lon="2.24968">
        <ele>88.1</ele>
        <time>2015-06-29T19:50:26.623Z</time>
      </trkpt>
      <trkpt lat="48.86509" lon="2.24964">
        <ele>87.7</ele>
        <time>2015-06-29T19:50:27.518Z</time>
      </trkpt>
      <trkpt lat="48.86506" lon="2.24953">
        <ele>87.2</ele>
        <time>2015-06-29T19:50:30.540Z</time>
      </trkpt>
      <trkpt lat="48.86505" lon="2.24949">
        <ele>87.3</ele>
        <time>2015-06-29T19:50:31.577Z</time>
      </trkpt>
      <trkpt lat="48.86503" lon="2.24937">
        <ele>87.5</ele>
        <time>2015-06-29T19:50:34.566Z</time>
      </trkpt>
      <trkpt lat="48.86502" lon="2.24933">
        <ele>87.3</ele>
        <time>2015-06-29T19:50:35.621Z</time>
      </trkpt>
      <trkpt lat="48.86499" lon="2.24924">
        <ele>87.5</ele>
        <time>2015-06-29T19:50:37.548Z</time>
      </trkpt>
      <trkpt lat="48.86498" lon="2.2492">
        <ele>87.6</ele>
        <time>2015-06-29T19:50:38.579Z</time>
      </trkpt>
      <trkpt lat="48.86493" lon="2.2491">
        <ele>88.5</ele>
        <time>2015-06-29T19:50:41.710Z</time>
      </trkpt>
      <trkpt lat="48.86491" lon="2.24906">
        <ele>88.9</ele>
        <time>2015-06-29T19:50:42.580Z</time>
      </trkpt>
      <trkpt lat="48.86484" lon="2.24899">
        <ele>89</ele>
        <time>2015-06-29T19:50:46.520Z</time>
      </trkpt>
      <trkpt lat="48.86482" lon="2.24898">
        <ele>89.1</ele>
        <time>2015-06-29T19:50:47.526Z</time>
      </trkpt>
      <trkpt lat="48.86479" lon="2.24896">
        <ele>89.8</ele>
        <time>2015-06-29T19:51:00.537Z</time>
      </trkpt>
      <trkpt lat="48.86472" lon="2.24892">
        <ele>90</ele>
        <time>2015-06-29T19:51:01.761Z</time>
      </trkpt>
      <trkpt lat="48.86465" lon="2.24889">
        <ele>90.6</ele>
        <time>2015-06-29T19:51:04.691Z</time>
      </trkpt>
      <trkpt lat="48.86462" lon="2.24887">
        <ele>90.6</ele>
        <time>2015-06-29T19:51:05.557Z</time>
      </trkpt>
      <trkpt lat="48.86456" lon="2.24884">
        <ele>90.4</ele>
        <time>2015-06-29T19:51:07.592Z</time>
      </trkpt>
      <trkpt lat="48.86452" lon="2.24882">
        <ele>90.2</ele>
        <time>2015-06-29T19:51:08.615Z</time>
      </trkpt>
      <trkpt lat="48.86444" lon="2.24879">
        <ele>90.1</ele>
        <time>2015-06-29T19:51:09.866Z</time>
      </trkpt>
      <trkpt lat="48.8644" lon="2.24877">
        <ele>90.2</ele>
        <time>2015-06-29T19:51:11.564Z</time>
      </trkpt>
      <trkpt lat="48.86432" lon="2.24874">
        <ele>90</ele>
        <time>2015-06-29T19:51:13.694Z</time>
      </trkpt>
      <trkpt lat="48.86428" lon="2.24872">
        <ele>90.2</ele>
        <time>2015-06-29T19:51:14.566Z</time>
      </trkpt>
      <trkpt lat="48.86421" lon="2.24867">
        <ele>90.4</ele>
        <time>2015-06-29T19:51:16.603Z</time>
      </trkpt>
      <trkpt lat="48.86418" lon="2.24865">
        <ele>90.4</ele>
        <time>2015-06-29T19:51:17.554Z</time>
      </trkpt>
      <trkpt lat="48.86412" lon="2.24861">
        <ele>91</ele>
        <time>2015-06-29T19:51:19.580Z</time>
      </trkpt>
      <trkpt lat="48.86408" lon="2.24859">
        <ele>91.3</ele>
        <time>2015-06-29T19:51:20.611Z</time>
      </trkpt>
      <trkpt lat="48.864" lon="2.24856">
        <ele>91.1</ele>
        <time>2015-06-29T19:51:22.561Z</time>
      </trkpt>
      <trkpt lat="48.86396" lon="2.24853">
        <ele>91.1</ele>
        <time>2015-06-29T19:51:23.563Z</time>
      </trkpt>
      <trkpt lat="48.86389" lon="2.24851">
        <ele>91.3</ele>
        <time>2015-06-29T19:51:25.587Z</time>
      </trkpt>
      <trkpt lat="48.86385" lon="2.24849">
        <ele>91.5</ele>
        <time>2015-06-29T19:51:26.590Z</time>
      </trkpt>
      <trkpt lat="48.86379" lon="2.24844">
        <ele>91.9</ele>
        <time>2015-06-29T19:51:28.785Z</time>
      </trkpt>
      <trkpt lat="48.86376" lon="2.24842">
        <ele>92</ele>
        <time>2015-06-29T19:51:29.641Z</time>
      </trkpt>
      <trkpt lat="48.8637" lon="2.24837">
        <ele>92.2</ele>
        <time>2015-06-29T19:51:31.562Z</time>
      </trkpt>
      <trkpt lat="48.86366" lon="2.24835">
        <ele>92.2</ele>
        <time>2015-06-29T19:51:32.685Z</time>
      </trkpt>
      <trkpt lat="48.86358" lon="2.24831">
        <ele>92.5</ele>
        <time>2015-06-29T19:51:35.009Z</time>
      </trkpt>
      <trkpt lat="48.86354" lon="2.24828">
        <ele>92.8</ele>
        <time>2015-06-29T19:51:35.550Z</time>
      </trkpt>
      <trkpt lat="48.8635" lon="2.24825">
        <ele>93.1</ele>
        <time>2015-06-29T19:51:36.588Z</time>
      </trkpt>
      <trkpt lat="48.86345" lon="2.24823">
        <ele>93.4</ele>
        <time>2015-06-29T19:51:37.681Z</time>
      </trkpt>
      <trkpt lat="48.8634" lon="2.2482">
        <ele>93.9</ele>
        <time>2015-06-29T19:51:38.601Z</time>
      </trkpt>
      <trkpt lat="48.86335" lon="2.24818">
        <ele>94.2</ele>
        <time>2015-06-29T19:51:39.608Z</time>
      </trkpt>
      <trkpt lat="48.86328" lon="2.24812">
        <ele>95</ele>
        <time>2015-06-29T19:51:41.573Z</time>
      </trkpt>
      <trkpt lat="48.86324" lon="2.24809">
        <ele>94.8</ele>
        <time>2015-06-29T19:51:42.585Z</time>
      </trkpt>
      <trkpt lat="48.86316" lon="2.24802">
        <ele>94.9</ele>
        <time>2015-06-29T19:51:45.232Z</time>
      </trkpt>
      <trkpt lat="48.86311" lon="2.24799">
        <ele>95</ele>
        <time>2015-06-29T19:51:45.546Z</time>
      </trkpt>
      <trkpt lat="48.86303" lon="2.24794">
        <ele>95.2</ele>
        <time>2015-06-29T19:51:47.581Z</time>
      </trkpt>
      <trkpt lat="48.863" lon="2.24791">
        <ele>94.8</ele>
        <time>2015-06-29T19:51:48.588Z</time>
      </trkpt>
      <trkpt lat="48.86292" lon="2.24786">
        <ele>94.9</ele>
        <time>2015-06-29T19:51:50.583Z</time>
      </trkpt>
      <trkpt lat="48.86288" lon="2.24783">
        <ele>95</ele>
        <time>2015-06-29T19:51:51.613Z</time>
      </trkpt>
      <trkpt lat="48.86284" lon="2.2478">
        <ele>94.9</ele>
        <time>2015-06-29T19:51:52.630Z</time>
      </trkpt>
      <trkpt lat="48.8628" lon="2.24778">
        <ele>94.7</ele>
        <time>2015-06-29T19:51:53.510Z</time>
      </trkpt>
      <trkpt lat="48.86275" lon="2.24774">
        <ele>94.8</ele>
        <time>2015-06-29T19:51:54.558Z</time>
      </trkpt>
      <trkpt lat="48.86271" lon="2.24771">
        <ele>94.9</ele>
        <time>2015-06-29T19:51:55.660Z</time>
      </trkpt>
      <trkpt lat="48.86263" lon="2.24765">
        <ele>94.8</ele>
        <time>2015-06-29T19:51:57.587Z</time>
      </trkpt>
      <trkpt lat="48.86259" lon="2.24762">
        <ele>94.6</ele>
        <time>2015-06-29T19:51:58.597Z</time>
      </trkpt>
      <trkpt lat="48.86255" lon="2.2476">
        <ele>94.4</ele>
        <time>2015-06-29T19:51:59.609Z</time>
      </trkpt>
      <trkpt lat="48.8625" lon="2.24758">
        <ele>94.6</ele>
        <time>2015-06-29T19:52:00.510Z</time>
      </trkpt>
      <trkpt lat="48.86246" lon="2.24755">
        <ele>94.5</ele>
        <time>2015-06-29T19:52:01.553Z</time>
      </trkpt>
      <trkpt lat="48.86241" lon="2.24753">
        <ele>94.6</ele>
        <time>2015-06-29T19:52:02.607Z</time>
      </trkpt>
      <trkpt lat="48.86237" lon="2.2475">
        <ele>94.8</ele>
        <time>2015-06-29T19:52:03.586Z</time>
      </trkpt>
      <trkpt lat="48.86232" lon="2.24747">
        <ele>95.4</ele>
        <time>2015-06-29T19:52:04.596Z</time>
      </trkpt>
      <trkpt lat="48.86227" lon="2.24744">
        <ele>95.6</ele>
        <time>2015-06-29T19:52:05.390Z</time>
      </trkpt>
      <trkpt lat="48.86222" lon="2.24741">
        <ele>95.8</ele>
        <time>2015-06-29T19:52:06.624Z</time>
      </trkpt>
      <trkpt lat="48.86217" lon="2.24738">
        <ele>96.1</ele>
        <time>2015-06-29T19:52:07.538Z</time>
      </trkpt>
      <trkpt lat="48.86212" lon="2.24735">
        <ele>96.2</ele>
        <time>2015-06-29T19:52:08.668Z</time>
      </trkpt>
      <trkpt lat="48.86208" lon="2.24733">
        <ele>96.5</ele>
        <time>2015-06-29T19:52:09.634Z</time>
      </trkpt>
      <trkpt lat="48.86203" lon="2.2473">
        <ele>96.6</ele>
        <time>2015-06-29T19:52:10.515Z</time>
      </trkpt>
      <trkpt lat="48.86199" lon="2.24726">
        <ele>96.7</ele>
        <time>2015-06-29T19:52:11.558Z</time>
      </trkpt>
      <trkpt lat="48.86194" lon="2.24722">
        <ele>96.7</ele>
        <time>2015-06-29T19:52:12.542Z</time>
      </trkpt>
      <trkpt lat="48.8619" lon="2.24719">
        <ele>96.5</ele>
        <time>2015-06-29T19:52:13.553Z</time>
      </trkpt>
      <trkpt lat="48.86185" lon="2.24715">
        <ele>96.6</ele>
        <time>2015-06-29T19:52:14.586Z</time>
      </trkpt>
      <trkpt lat="48.86181" lon="2.24712">
        <ele>96.3</ele>
        <time>2015-06-29T19:52:15.591Z</time>
      </trkpt>
      <trkpt lat="48.86177" lon="2.24708">
        <ele>96.2</ele>
        <time>2015-06-29T19:52:16.596Z</time>
      </trkpt>
      <trkpt lat="48.86173" lon="2.24705">
        <ele>96.2</ele>
        <time>2015-06-29T19:52:17.610Z</time>
      </trkpt>
      <trkpt lat="48.86168" lon="2.24702">
        <ele>96.2</ele>
        <time>2015-06-29T19:52:18.542Z</time>
      </trkpt>
      <trkpt lat="48.86163" lon="2.24699">
        <ele>96</ele>
        <time>2015-06-29T19:52:19.559Z</time>
      </trkpt>
      <trkpt lat="48.86158" lon="2.24695">
        <ele>96.1</ele>
        <time>2015-06-29T19:52:20.587Z</time>
      </trkpt>
      <trkpt lat="48.86154" lon="2.24692">
        <ele>96</ele>
        <time>2015-06-29T19:52:21.608Z</time>
      </trkpt>
      <trkpt lat="48.86149" lon="2.2469">
        <ele>96</ele>
        <time>2015-06-29T19:52:22.611Z</time>
      </trkpt>
      <trkpt lat="48.86141" lon="2.24684">
        <ele>96.1</ele>
        <time>2015-06-29T19:52:24.542Z</time>
      </trkpt>
      <trkpt lat="48.86137" lon="2.2468">
        <ele>96.5</ele>
        <time>2015-06-29T19:52:25.562Z</time>
      </trkpt>
      <trkpt lat="48.86133" lon="2.24677">
        <ele>96.8</ele>
        <time>2015-06-29T19:52:26.591Z</time>
      </trkpt>
      <trkpt lat="48.86128" lon="2.24675">
        <ele>96.7</ele>
        <time>2015-06-29T19:52:27.591Z</time>
      </trkpt>
      <trkpt lat="48.86124" lon="2.24672">
        <ele>96.8</ele>
        <time>2015-06-29T19:52:28.537Z</time>
      </trkpt>
      <trkpt lat="48.8612" lon="2.2467">
        <ele>97</ele>
        <time>2015-06-29T19:52:29.515Z</time>
      </trkpt>
      <trkpt lat="48.86115" lon="2.24667">
        <ele>97.1</ele>
        <time>2015-06-29T19:52:30.540Z</time>
      </trkpt>
      <trkpt lat="48.86111" lon="2.24665">
        <ele>97.5</ele>
        <time>2015-06-29T19:52:31.552Z</time>
      </trkpt>
      <trkpt lat="48.86106" lon="2.24663">
        <ele>97.9</ele>
        <time>2015-06-29T19:52:32.600Z</time>
      </trkpt>
      <trkpt lat="48.86101" lon="2.24661">
        <ele>97.9</ele>
        <time>2015-06-29T19:52:33.596Z</time>
      </trkpt>
      <trkpt lat="48.86097" lon="2.24659">
        <ele>97.8</ele>
        <time>2015-06-29T19:52:34.615Z</time>
      </trkpt>
      <trkpt lat="48.86092" lon="2.24655">
        <ele>97.9</ele>
        <time>2015-06-29T19:52:35.538Z</time>
      </trkpt>
      <trkpt lat="48.86084" lon="2.24649">
        <ele>97.5</ele>
        <time>2015-06-29T19:52:37.561Z</time>
      </trkpt>
      <trkpt lat="48.8608" lon="2.24646">
        <ele>97.4</ele>
        <time>2015-06-29T19:52:38.579Z</time>
      </trkpt>
      <trkpt lat="48.86077" lon="2.24643">
        <ele>97.8</ele>
        <time>2015-06-29T19:52:39.599Z</time>
      </trkpt>
      <trkpt lat="48.86072" lon="2.2464">
        <ele>97.8</ele>
        <time>2015-06-29T19:52:40.606Z</time>
      </trkpt>
      <trkpt lat="48.86068" lon="2.24636">
        <ele>97.9</ele>
        <time>2015-06-29T19:52:41.546Z</time>
      </trkpt>
      <trkpt lat="48.86064" lon="2.24633">
        <ele>98.1</ele>
        <time>2015-06-29T19:52:42.507Z</time>
      </trkpt>
      <trkpt lat="48.8606" lon="2.2463">
        <ele>98.2</ele>
        <time>2015-06-29T19:52:43.539Z</time>
      </trkpt>
      <trkpt lat="48.86055" lon="2.24627">
        <ele>98.1</ele>
        <time>2015-06-29T19:52:44.584Z</time>
      </trkpt>
      <trkpt lat="48.86051" lon="2.24624">
        <ele>97.9</ele>
        <time>2015-06-29T19:52:45.591Z</time>
      </trkpt>
      <trkpt lat="48.86046" lon="2.24622">
        <ele>98</ele>
        <time>2015-06-29T19:52:46.600Z</time>
      </trkpt>
      <trkpt lat="48.86042" lon="2.24619">
        <ele>98.1</ele>
        <time>2015-06-29T19:52:47.606Z</time>
      </trkpt>
      <trkpt lat="48.86037" lon="2.24616">
        <ele>98.1</ele>
        <time>2015-06-29T19:52:48.508Z</time>
      </trkpt>
      <trkpt lat="48.86032" lon="2.24613">
        <ele>97.9</ele>
        <time>2015-06-29T19:52:49.516Z</time>
      </trkpt>
      <trkpt lat="48.86027" lon="2.2461">
        <ele>97.6</ele>
        <time>2015-06-29T19:52:50.596Z</time>
      </trkpt>
      <trkpt lat="48.86021" lon="2.24606">
        <ele>97.4</ele>
        <time>2015-06-29T19:52:51.589Z</time>
      </trkpt>
      <trkpt lat="48.86016" lon="2.24603">
        <ele>97.6</ele>
        <time>2015-06-29T19:52:52.605Z</time>
      </trkpt>
      <trkpt lat="48.8601" lon="2.24599">
        <ele>97.4</ele>
        <time>2015-06-29T19:52:53.612Z</time>
      </trkpt>
      <trkpt lat="48.86004" lon="2.24595">
        <ele>97.2</ele>
        <time>2015-06-29T19:52:54.528Z</time>
      </trkpt>
      <trkpt lat="48.85997" lon="2.24592">
        <ele>97.3</ele>
        <time>2015-06-29T19:52:55.541Z</time>
      </trkpt>
      <trkpt lat="48.85991" lon="2.24588">
        <ele>97.1</ele>
        <time>2015-06-29T19:52:56.605Z</time>
      </trkpt>
      <trkpt lat="48.85985" lon="2.24585">
        <ele>96.9</ele>
        <time>2015-06-29T19:52:57.576Z</time>
      </trkpt>
      <trkpt lat="48.8598" lon="2.24581">
        <ele>97.5</ele>
        <time>2015-06-29T19:52:58.578Z</time>
      </trkpt>
      <trkpt lat="48.85974" lon="2.24576">
        <ele>97.6</ele>
        <time>2015-06-29T19:52:59.572Z</time>
      </trkpt>
      <trkpt lat="48.85969" lon="2.24571">
        <ele>97.9</ele>
        <time>2015-06-29T19:53:00.620Z</time>
      </trkpt>
      <trkpt lat="48.85963" lon="2.24567">
        <ele>97.4</ele>
        <time>2015-06-29T19:53:01.632Z</time>
      </trkpt>
      <trkpt lat="48.85958" lon="2.24563">
        <ele>97</ele>
        <time>2015-06-29T19:53:02.643Z</time>
      </trkpt>
      <trkpt lat="48.85953" lon="2.24561">
        <ele>97.3</ele>
        <time>2015-06-29T19:53:03.543Z</time>
      </trkpt>
      <trkpt lat="48.85949" lon="2.24558">
        <ele>97.2</ele>
        <time>2015-06-29T19:53:04.539Z</time>
      </trkpt>
      <trkpt lat="48.85944" lon="2.24555">
        <ele>96.5</ele>
        <time>2015-06-29T19:53:05.549Z</time>
      </trkpt>
      <trkpt lat="48.8594" lon="2.24552">
        <ele>97</ele>
        <time>2015-06-29T19:53:06.561Z</time>
      </trkpt>
      <trkpt lat="48.85935" lon="2.24549">
        <ele>97.3</ele>
        <time>2015-06-29T19:53:07.585Z</time>
      </trkpt>
      <trkpt lat="48.85931" lon="2.24546">
        <ele>97.3</ele>
        <time>2015-06-29T19:53:08.614Z</time>
      </trkpt>
      <trkpt lat="48.85924" lon="2.24542">
        <ele>97.2</ele>
        <time>2015-06-29T19:53:10.537Z</time>
      </trkpt>
      <trkpt lat="48.8592" lon="2.24539">
        <ele>97.2</ele>
        <time>2015-06-29T19:53:11.544Z</time>
      </trkpt>
      <trkpt lat="48.85912" lon="2.24534">
        <ele>97.4</ele>
        <time>2015-06-29T19:53:13.569Z</time>
      </trkpt>
      <trkpt lat="48.85909" lon="2.2453">
        <ele>97.4</ele>
        <time>2015-06-29T19:53:14.714Z</time>
      </trkpt>
      <trkpt lat="48.85903" lon="2.24525">
        <ele>97.4</ele>
        <time>2015-06-29T19:53:16.573Z</time>
      </trkpt>
      <trkpt lat="48.85899" lon="2.24522">
        <ele>97.1</ele>
        <time>2015-06-29T19:53:17.709Z</time>
      </trkpt>
      <trkpt lat="48.85893" lon="2.24518">
        <ele>97.6</ele>
        <time>2015-06-29T19:53:19.642Z</time>
      </trkpt>
      <trkpt lat="48.8589" lon="2.24517">
        <ele>97.8</ele>
        <time>2015-06-29T19:53:20.671Z</time>
      </trkpt>
      <trkpt lat="48.85885" lon="2.24513">
        <ele>97.8</ele>
        <time>2015-06-29T19:53:22.611Z</time>
      </trkpt>
      <trkpt lat="48.85882" lon="2.2451">
        <ele>97.4</ele>
        <time>2015-06-29T19:53:23.636Z</time>
      </trkpt>
      <trkpt lat="48.85875" lon="2.24505">
        <ele>96.7</ele>
        <time>2015-06-29T19:53:26.625Z</time>
      </trkpt>
      <trkpt lat="48.85873" lon="2.24504">
        <ele>96.9</ele>
        <time>2015-06-29T19:53:27.714Z</time>
      </trkpt>
      <trkpt lat="48.85865" lon="2.245">
        <ele>97.2</ele>
        <time>2015-06-29T19:53:32.638Z</time>
      </trkpt>
      <trkpt lat="48.85864" lon="2.24499">
        <ele>97.2</ele>
        <time>2015-06-29T19:53:33.579Z</time>
      </trkpt>
      <trkpt lat="48.85856" lon="2.24493">
        <ele>97</ele>
        <time>2015-06-29T19:53:41.555Z</time>
      </trkpt>
      <trkpt lat="48.85854" lon="2.24492">
        <ele>97</ele>
        <time>2015-06-29T19:53:42.533Z</time>
      </trkpt>
      <trkpt lat="48.85846" lon="2.24489">
        <ele>97.1</ele>
        <time>2015-06-29T19:53:45.691Z</time>
      </trkpt>
      <trkpt lat="48.85844" lon="2.24488">
        <ele>97.6</ele>
        <time>2015-06-29T19:53:46.618Z</time>
      </trkpt>
      <trkpt lat="48.85837" lon="2.24482">
        <ele>98</ele>
        <time>2015-06-29T19:53:49.621Z</time>
      </trkpt>
      <trkpt lat="48.85834" lon="2.24479">
        <ele>98.2</ele>
        <time>2015-06-29T19:53:50.626Z</time>
      </trkpt>
      <trkpt lat="48.85827" lon="2.24475">
        <ele>98.4</ele>
        <time>2015-06-29T19:53:52.573Z</time>
      </trkpt>
      <trkpt lat="48.85823" lon="2.24474">
        <ele>98.7</ele>
        <time>2015-06-29T19:53:53.589Z</time>
      </trkpt>
      <trkpt lat="48.85815" lon="2.24471">
        <ele>99.2</ele>
        <time>2015-06-29T19:53:55.643Z</time>
      </trkpt>
      <trkpt lat="48.85811" lon="2.24468">
        <ele>99.5</ele>
        <time>2015-06-29T19:53:56.655Z</time>
      </trkpt>
      <trkpt lat="48.85804" lon="2.24465">
        <ele>100</ele>
        <time>2015-06-29T19:53:58.559Z</time>
      </trkpt>
      <trkpt lat="48.85801" lon="2.24463">
        <ele>100</ele>
        <time>2015-06-29T19:53:59.571Z</time>
      </trkpt>
      <trkpt lat="48.85793" lon="2.24458">
        <ele>100.2</ele>
        <time>2015-06-29T19:54:01.592Z</time>
      </trkpt>
      <trkpt lat="48.8579" lon="2.24456">
        <ele>100.1</ele>
        <time>2015-06-29T19:54:02.659Z</time>
      </trkpt>
      <trkpt lat="48.85782" lon="2.24451">
        <ele>100.3</ele>
        <time>2015-06-29T19:54:04.547Z</time>
      </trkpt>
      <trkpt lat="48.85778" lon="2.24448">
        <ele>100.2</ele>
        <time>2015-06-29T19:54:05.560Z</time>
      </trkpt>
      <trkpt lat="48.8577" lon="2.24442">
        <ele>100.4</ele>
        <time>2015-06-29T19:54:07.595Z</time>
      </trkpt>
      <trkpt lat="48.85766" lon="2.24439">
        <ele>100.1</ele>
        <time>2015-06-29T19:54:08.608Z</time>
      </trkpt>
      <trkpt lat="48.85762" lon="2.24436">
        <ele>100.2</ele>
        <time>2015-06-29T19:54:09.545Z</time>
      </trkpt>
      <trkpt lat="48.85757" lon="2.24433">
        <ele>100.3</ele>
        <time>2015-06-29T19:54:10.539Z</time>
      </trkpt>
      <trkpt lat="48.85752" lon="2.2443">
        <ele>100.5</ele>
        <time>2015-06-29T19:54:11.548Z</time>
      </trkpt>
      <trkpt lat="48.85748" lon="2.24427">
        <ele>100.4</ele>
        <time>2015-06-29T19:54:12.552Z</time>
      </trkpt>
      <trkpt lat="48.85744" lon="2.24424">
        <ele>100.4</ele>
        <time>2015-06-29T19:54:13.569Z</time>
      </trkpt>
      <trkpt lat="48.8574" lon="2.24421">
        <ele>100.1</ele>
        <time>2015-06-29T19:54:14.586Z</time>
      </trkpt>
      <trkpt lat="48.85735" lon="2.24419">
        <ele>99.9</ele>
        <time>2015-06-29T19:54:15.598Z</time>
      </trkpt>
      <trkpt lat="48.8573" lon="2.24416">
        <ele>100.3</ele>
        <time>2015-06-29T19:54:16.604Z</time>
      </trkpt>
      <trkpt lat="48.85725" lon="2.24413">
        <ele>100.4</ele>
        <time>2015-06-29T19:54:17.618Z</time>
      </trkpt>
      <trkpt lat="48.85721" lon="2.2441">
        <ele>100.6</ele>
        <time>2015-06-29T19:54:18.534Z</time>
      </trkpt>
      <trkpt lat="48.85716" lon="2.24406">
        <ele>100.8</ele>
        <time>2015-06-29T19:54:19.514Z</time>
      </trkpt>
      <trkpt lat="48.85711" lon="2.24403">
        <ele>101.2</ele>
        <time>2015-06-29T19:54:20.586Z</time>
      </trkpt>
      <trkpt lat="48.85706" lon="2.244">
        <ele>101.2</ele>
        <time>2015-06-29T19:54:21.696Z</time>
      </trkpt>
      <trkpt lat="48.85701" lon="2.24397">
        <ele>101.4</ele>
        <time>2015-06-29T19:54:22.537Z</time>
      </trkpt>
      <trkpt lat="48.85696" lon="2.24393">
        <ele>101.4</ele>
        <time>2015-06-29T19:54:23.540Z</time>
      </trkpt>
      <trkpt lat="48.85692" lon="2.24389">
        <ele>101.2</ele>
        <time>2015-06-29T19:54:24.556Z</time>
      </trkpt>
      <trkpt lat="48.85685" lon="2.24382">
        <ele>100.9</ele>
        <time>2015-06-29T19:54:26.678Z</time>
      </trkpt>
      <trkpt lat="48.8568" lon="2.24378">
        <ele>100.8</ele>
        <time>2015-06-29T19:54:27.569Z</time>
      </trkpt>
      <trkpt lat="48.85675" lon="2.24374">
        <ele>100.6</ele>
        <time>2015-06-29T19:54:28.596Z</time>
      </trkpt>
      <trkpt lat="48.8567" lon="2.24371">
        <ele>100.6</ele>
        <time>2015-06-29T19:54:29.603Z</time>
      </trkpt>
      <trkpt lat="48.85665" lon="2.24367">
        <ele>100.4</ele>
        <time>2015-06-29T19:54:30.618Z</time>
      </trkpt>
      <trkpt lat="48.8566" lon="2.24363">
        <ele>100.7</ele>
        <time>2015-06-29T19:54:31.537Z</time>
      </trkpt>
      <trkpt lat="48.85655" lon="2.24359">
        <ele>100.7</ele>
        <time>2015-06-29T19:54:32.621Z</time>
      </trkpt>
      <trkpt lat="48.85651" lon="2.24356">
        <ele>100.4</ele>
        <time>2015-06-29T19:54:33.530Z</time>
      </trkpt>
      <trkpt lat="48.85646" lon="2.24354">
        <ele>100.3</ele>
        <time>2015-06-29T19:54:34.544Z</time>
      </trkpt>
      <trkpt lat="48.85641" lon="2.24352">
        <ele>100.4</ele>
        <time>2015-06-29T19:54:35.554Z</time>
      </trkpt>
      <trkpt lat="48.85636" lon="2.24349">
        <ele>100.5</ele>
        <time>2015-06-29T19:54:36.564Z</time>
      </trkpt>
      <trkpt lat="48.85632" lon="2.24345">
        <ele>100.3</ele>
        <time>2015-06-29T19:54:37.574Z</time>
      </trkpt>
      <trkpt lat="48.85627" lon="2.24342">
        <ele>100.4</ele>
        <time>2015-06-29T19:54:38.589Z</time>
      </trkpt>
      <trkpt lat="48.85622" lon="2.24338">
        <ele>100.1</ele>
        <time>2015-06-29T19:54:39.597Z</time>
      </trkpt>
      <trkpt lat="48.85617" lon="2.24334">
        <ele>100.2</ele>
        <time>2015-06-29T19:54:40.602Z</time>
      </trkpt>
      <trkpt lat="48.85611" lon="2.24331">
        <ele>100.1</ele>
        <time>2015-06-29T19:54:41.607Z</time>
      </trkpt>
      <trkpt lat="48.85607" lon="2.24327">
        <ele>100</ele>
        <time>2015-06-29T19:54:42.541Z</time>
      </trkpt>
      <trkpt lat="48.85602" lon="2.24324">
        <ele>99.9</ele>
        <time>2015-06-29T19:54:43.554Z</time>
      </trkpt>
      <trkpt lat="48.85596" lon="2.2432">
        <ele>100</ele>
        <time>2015-06-29T19:54:44.582Z</time>
      </trkpt>
      <trkpt lat="48.85592" lon="2.24317">
        <ele>99.7</ele>
        <time>2015-06-29T19:54:45.913Z</time>
      </trkpt>
      <trkpt lat="48.85587" lon="2.24313">
        <ele>99.8</ele>
        <time>2015-06-29T19:54:46.607Z</time>
      </trkpt>
      <trkpt lat="48.85582" lon="2.24309">
        <ele>99.7</ele>
        <time>2015-06-29T19:54:47.613Z</time>
      </trkpt>
      <trkpt lat="48.85577" lon="2.24306">
        <ele>99.5</ele>
        <time>2015-06-29T19:54:48.538Z</time>
      </trkpt>
      <trkpt lat="48.85572" lon="2.24303">
        <ele>99.5</ele>
        <time>2015-06-29T19:54:49.533Z</time>
      </trkpt>
      <trkpt lat="48.85568" lon="2.24299">
        <ele>99.4</ele>
        <time>2015-06-29T19:54:50.557Z</time>
      </trkpt>
      <trkpt lat="48.85563" lon="2.24296">
        <ele>99.5</ele>
        <time>2015-06-29T19:54:51.595Z</time>
      </trkpt>
      <trkpt lat="48.85558" lon="2.24293">
        <ele>99.6</ele>
        <time>2015-06-29T19:54:52.644Z</time>
      </trkpt>
      <trkpt lat="48.85553" lon="2.2429">
        <ele>99.6</ele>
        <time>2015-06-29T19:54:53.566Z</time>
      </trkpt>
      <trkpt lat="48.85548" lon="2.24288">
        <ele>99.5</ele>
        <time>2015-06-29T19:54:54.576Z</time>
      </trkpt>
      <trkpt lat="48.85542" lon="2.24286">
        <ele>99.2</ele>
        <time>2015-06-29T19:54:55.580Z</time>
      </trkpt>
      <trkpt lat="48.85537" lon="2.24284">
        <ele>98.9</ele>
        <time>2015-06-29T19:54:56.591Z</time>
      </trkpt>
      <trkpt lat="48.85533" lon="2.2428">
        <ele>98.8</ele>
        <time>2015-06-29T19:54:57.618Z</time>
      </trkpt>
      <trkpt lat="48.85528" lon="2.24276">
        <ele>98.7</ele>
        <time>2015-06-29T19:54:58.542Z</time>
      </trkpt>
      <trkpt lat="48.85523" lon="2.24272">
        <ele>98.6</ele>
        <time>2015-06-29T19:54:59.570Z</time>
      </trkpt>
      <trkpt lat="48.85519" lon="2.24269">
        <ele>98.5</ele>
        <time>2015-06-29T19:55:00.546Z</time>
      </trkpt>
      <trkpt lat="48.85514" lon="2.24267">
        <ele>98.4</ele>
        <time>2015-06-29T19:55:01.559Z</time>
      </trkpt>
      <trkpt lat="48.85509" lon="2.24263">
        <ele>98.5</ele>
        <time>2015-06-29T19:55:02.615Z</time>
      </trkpt>
      <trkpt lat="48.85504" lon="2.2426">
        <ele>98.6</ele>
        <time>2015-06-29T19:55:03.560Z</time>
      </trkpt>
      <trkpt lat="48.85499" lon="2.24257">
        <ele>98.8</ele>
        <time>2015-06-29T19:55:04.557Z</time>
      </trkpt>
      <trkpt lat="48.85494" lon="2.24253">
        <ele>99.1</ele>
        <time>2015-06-29T19:55:05.567Z</time>
      </trkpt>
      <trkpt lat="48.8549" lon="2.24251">
        <ele>99.4</ele>
        <time>2015-06-29T19:55:06.580Z</time>
      </trkpt>
      <trkpt lat="48.85485" lon="2.24247">
        <ele>99.5</ele>
        <time>2015-06-29T19:55:07.591Z</time>
      </trkpt>
      <trkpt lat="48.8548" lon="2.24244">
        <ele>99.4</ele>
        <time>2015-06-29T19:55:08.598Z</time>
      </trkpt>
      <trkpt lat="48.85476" lon="2.2424">
        <ele>99.2</ele>
        <time>2015-06-29T19:55:09.606Z</time>
      </trkpt>
      <trkpt lat="48.85472" lon="2.24237">
        <ele>99</ele>
        <time>2015-06-29T19:55:10.622Z</time>
      </trkpt>
      <trkpt lat="48.85468" lon="2.24234">
        <ele>99.1</ele>
        <time>2015-06-29T19:55:11.541Z</time>
      </trkpt>
      <trkpt lat="48.85464" lon="2.2423">
        <ele>99</ele>
        <time>2015-06-29T19:55:12.538Z</time>
      </trkpt>
      <trkpt lat="48.85459" lon="2.24227">
        <ele>99.3</ele>
        <time>2015-06-29T19:55:13.576Z</time>
      </trkpt>
      <trkpt lat="48.85454" lon="2.24224">
        <ele>99.3</ele>
        <time>2015-06-29T19:55:14.626Z</time>
      </trkpt>
      <trkpt lat="48.8545" lon="2.2422">
        <ele>99.2</ele>
        <time>2015-06-29T19:55:15.639Z</time>
      </trkpt>
      <trkpt lat="48.85444" lon="2.24218">
        <ele>99.2</ele>
        <time>2015-06-29T19:55:16.636Z</time>
      </trkpt>
      <trkpt lat="48.85439" lon="2.24216">
        <ele>99.2</ele>
        <time>2015-06-29T19:55:17.542Z</time>
      </trkpt>
      <trkpt lat="48.85434" lon="2.24213">
        <ele>99.3</ele>
        <time>2015-06-29T19:55:18.570Z</time>
      </trkpt>
      <trkpt lat="48.85429" lon="2.2421">
        <ele>99.4</ele>
        <time>2015-06-29T19:55:19.518Z</time>
      </trkpt>
      <trkpt lat="48.85425" lon="2.24207">
        <ele>99.4</ele>
        <time>2015-06-29T19:55:20.604Z</time>
      </trkpt>
      <trkpt lat="48.85421" lon="2.24204">
        <ele>99.6</ele>
        <time>2015-06-29T19:55:21.611Z</time>
      </trkpt>
      <trkpt lat="48.85416" lon="2.24201">
        <ele>99.9</ele>
        <time>2015-06-29T19:55:22.626Z</time>
      </trkpt>
      <trkpt lat="48.85412" lon="2.24199">
        <ele>100.2</ele>
        <time>2015-06-29T19:55:23.547Z</time>
      </trkpt>
      <trkpt lat="48.85407" lon="2.24196">
        <ele>100.7</ele>
        <time>2015-06-29T19:55:24.574Z</time>
      </trkpt>
      <trkpt lat="48.85402" lon="2.24193">
        <ele>100.9</ele>
        <time>2015-06-29T19:55:25.593Z</time>
      </trkpt>
      <trkpt lat="48.85398" lon="2.2419">
        <ele>100.9</ele>
        <time>2015-06-29T19:55:26.622Z</time>
      </trkpt>
      <trkpt lat="48.85393" lon="2.24187">
        <ele>101</ele>
        <time>2015-06-29T19:55:27.630Z</time>
      </trkpt>
      <trkpt lat="48.85389" lon="2.24183">
        <ele>100.9</ele>
        <time>2015-06-29T19:55:28.593Z</time>
      </trkpt>
      <trkpt lat="48.85383" lon="2.24179">
        <ele>101</ele>
        <time>2015-06-29T19:55:29.567Z</time>
      </trkpt>
      <trkpt lat="48.85378" lon="2.24176">
        <ele>101.1</ele>
        <time>2015-06-29T19:55:30.601Z</time>
      </trkpt>
      <trkpt lat="48.85373" lon="2.24173">
        <ele>101.2</ele>
        <time>2015-06-29T19:55:31.611Z</time>
      </trkpt>
      <trkpt lat="48.85367" lon="2.2417">
        <ele>101.2</ele>
        <time>2015-06-29T19:55:32.729Z</time>
      </trkpt>
      <trkpt lat="48.85363" lon="2.24166">
        <ele>101.3</ele>
        <time>2015-06-29T19:55:33.548Z</time>
      </trkpt>
      <trkpt lat="48.85358" lon="2.24163">
        <ele>101.2</ele>
        <time>2015-06-29T19:55:34.578Z</time>
      </trkpt>
      <trkpt lat="48.85354" lon="2.24161">
        <ele>101.2</ele>
        <time>2015-06-29T19:55:35.594Z</time>
      </trkpt>
      <trkpt lat="48.85349" lon="2.24159">
        <ele>101.2</ele>
        <time>2015-06-29T19:55:36.608Z</time>
      </trkpt>
      <trkpt lat="48.85345" lon="2.24157">
        <ele>101.2</ele>
        <time>2015-06-29T19:55:37.635Z</time>
      </trkpt>
      <trkpt lat="48.85338" lon="2.24158">
        <ele>100.7</ele>
        <time>2015-06-29T19:55:39.536Z</time>
      </trkpt>
      <trkpt lat="48.85332" lon="2.24158">
        <ele>100.2</ele>
        <time>2015-06-29T19:55:40.670Z</time>
      </trkpt>
      <trkpt lat="48.85327" lon="2.24158">
        <ele>99.8</ele>
        <time>2015-06-29T19:55:41.537Z</time>
      </trkpt>
      <trkpt lat="48.85321" lon="2.24159">
        <ele>99.6</ele>
        <time>2015-06-29T19:55:42.540Z</time>
      </trkpt>
      <trkpt lat="48.85316" lon="2.24159">
        <ele>99.1</ele>
        <time>2015-06-29T19:55:43.544Z</time>
      </trkpt>
      <trkpt lat="48.85311" lon="2.2416">
        <ele>98.9</ele>
        <time>2015-06-29T19:55:44.579Z</time>
      </trkpt>
      <trkpt lat="48.85306" lon="2.2416">
        <ele>98.8</ele>
        <time>2015-06-29T19:55:45.586Z</time>
      </trkpt>
      <trkpt lat="48.85301" lon="2.2416">
        <ele>98.7</ele>
        <time>2015-06-29T19:55:46.597Z</time>
      </trkpt>
      <trkpt lat="48.85295" lon="2.24161">
        <ele>98.3</ele>
        <time>2015-06-29T19:55:47.610Z</time>
      </trkpt>
      <trkpt lat="48.8529" lon="2.24162">
        <ele>98.4</ele>
        <time>2015-06-29T19:55:48.526Z</time>
      </trkpt>
      <trkpt lat="48.85286" lon="2.24162">
        <ele>98.2</ele>
        <time>2015-06-29T19:55:49.564Z</time>
      </trkpt>
      <trkpt lat="48.85281" lon="2.24163">
        <ele>98.4</ele>
        <time>2015-06-29T19:55:50.585Z</time>
      </trkpt>
      <trkpt lat="48.85276" lon="2.24163">
        <ele>98.5</ele>
        <time>2015-06-29T19:55:51.581Z</time>
      </trkpt>
      <trkpt lat="48.8527" lon="2.24164">
        <ele>98.5</ele>
        <time>2015-06-29T19:55:52.592Z</time>
      </trkpt>
      <trkpt lat="48.85265" lon="2.24165">
        <ele>98.6</ele>
        <time>2015-06-29T19:55:53.606Z</time>
      </trkpt>
      <trkpt lat="48.8526" lon="2.24166">
        <ele>99.1</ele>
        <time>2015-06-29T19:55:54.618Z</time>
      </trkpt>
      <trkpt lat="48.85255" lon="2.24166">
        <ele>98.7</ele>
        <time>2015-06-29T19:55:55.536Z</time>
      </trkpt>
      <trkpt lat="48.85251" lon="2.24167">
        <ele>98.5</ele>
        <time>2015-06-29T19:55:56.555Z</time>
      </trkpt>
      <trkpt lat="48.85246" lon="2.24168">
        <ele>98.2</ele>
        <time>2015-06-29T19:55:57.565Z</time>
      </trkpt>
      <trkpt lat="48.85241" lon="2.24169">
        <ele>98.1</ele>
        <time>2015-06-29T19:55:58.590Z</time>
      </trkpt>
      <trkpt lat="48.85236" lon="2.24169">
        <ele>98.2</ele>
        <time>2015-06-29T19:55:59.543Z</time>
      </trkpt>
      <trkpt lat="48.85231" lon="2.2417">
        <ele>98.4</ele>
        <time>2015-06-29T19:56:00.551Z</time>
      </trkpt>
      <trkpt lat="48.85226" lon="2.2417">
        <ele>98.2</ele>
        <time>2015-06-29T19:56:01.564Z</time>
      </trkpt>
      <trkpt lat="48.85221" lon="2.24171">
        <ele>98</ele>
        <time>2015-06-29T19:56:02.578Z</time>
      </trkpt>
      <trkpt lat="48.85216" lon="2.24172">
        <ele>98.1</ele>
        <time>2015-06-29T19:56:03.590Z</time>
      </trkpt>
      <trkpt lat="48.85211" lon="2.24173">
        <ele>98.2</ele>
        <time>2015-06-29T19:56:04.600Z</time>
      </trkpt>
      <trkpt lat="48.85206" lon="2.24174">
        <ele>98</ele>
        <time>2015-06-29T19:56:05.538Z</time>
      </trkpt>
      <trkpt lat="48.85201" lon="2.24175">
        <ele>98</ele>
        <time>2015-06-29T19:56:06.532Z</time>
      </trkpt>
      <trkpt lat="48.85195" lon="2.24176">
        <ele>98.2</ele>
        <time>2015-06-29T19:56:07.543Z</time>
      </trkpt>
      <trkpt lat="48.8519" lon="2.24177">
        <ele>98.2</ele>
        <time>2015-06-29T19:56:08.578Z</time>
      </trkpt>
      <trkpt lat="48.85185" lon="2.24178">
        <ele>98.1</ele>
        <time>2015-06-29T19:56:09.575Z</time>
      </trkpt>
      <trkpt lat="48.8518" lon="2.24179">
        <ele>98.1</ele>
        <time>2015-06-29T19:56:10.579Z</time>
      </trkpt>
      <trkpt lat="48.85174" lon="2.24179">
        <ele>98.3</ele>
        <time>2015-06-29T19:56:11.597Z</time>
      </trkpt>
      <trkpt lat="48.85169" lon="2.2418">
        <ele>98.1</ele>
        <time>2015-06-29T19:56:12.612Z</time>
      </trkpt>
      <trkpt lat="48.85164" lon="2.24182">
        <ele>98.1</ele>
        <time>2015-06-29T19:56:13.532Z</time>
      </trkpt>
      <trkpt lat="48.85158" lon="2.24183">
        <ele>97.9</ele>
        <time>2015-06-29T19:56:14.629Z</time>
      </trkpt>
      <trkpt lat="48.85153" lon="2.24184">
        <ele>97.7</ele>
        <time>2015-06-29T19:56:15.533Z</time>
      </trkpt>
      <trkpt lat="48.85147" lon="2.24184">
        <ele>97.1</ele>
        <time>2015-06-29T19:56:16.535Z</time>
      </trkpt>
      <trkpt lat="48.85141" lon="2.24184">
        <ele>96.8</ele>
        <time>2015-06-29T19:56:17.544Z</time>
      </trkpt>
      <trkpt lat="48.85135" lon="2.24184">
        <ele>96.6</ele>
        <time>2015-06-29T19:56:18.556Z</time>
      </trkpt>
      <trkpt lat="48.85129" lon="2.24185">
        <ele>96.6</ele>
        <time>2015-06-29T19:56:19.565Z</time>
      </trkpt>
      <trkpt lat="48.85123" lon="2.24186">
        <ele>96.7</ele>
        <time>2015-06-29T19:56:20.572Z</time>
      </trkpt>
      <trkpt lat="48.85117" lon="2.24187">
        <ele>96.6</ele>
        <time>2015-06-29T19:56:21.585Z</time>
      </trkpt>
      <trkpt lat="48.85111" lon="2.24189">
        <ele>96.2</ele>
        <time>2015-06-29T19:56:22.584Z</time>
      </trkpt>
      <trkpt lat="48.85106" lon="2.24188">
        <ele>95.1</ele>
        <time>2015-06-29T19:56:23.595Z</time>
      </trkpt>
      <trkpt lat="48.85099" lon="2.24189">
        <ele>94.6</ele>
        <time>2015-06-29T19:56:24.601Z</time>
      </trkpt>
      <trkpt lat="48.85093" lon="2.24189">
        <ele>94.3</ele>
        <time>2015-06-29T19:56:25.606Z</time>
      </trkpt>
      <trkpt lat="48.85086" lon="2.24189">
        <ele>93.4</ele>
        <time>2015-06-29T19:56:26.620Z</time>
      </trkpt>
      <trkpt lat="48.8508" lon="2.24191">
        <ele>93.1</ele>
        <time>2015-06-29T19:56:27.516Z</time>
      </trkpt>
      <trkpt lat="48.85073" lon="2.24192">
        <ele>92.6</ele>
        <time>2015-06-29T19:56:28.519Z</time>
      </trkpt>
      <trkpt lat="48.85067" lon="2.24192">
        <ele>90.9</ele>
        <time>2015-06-29T19:56:29.558Z</time>
      </trkpt>
      <trkpt lat="48.8506" lon="2.24192">
        <ele>90.3</ele>
        <time>2015-06-29T19:56:30.590Z</time>
      </trkpt>
      <trkpt lat="48.85053" lon="2.24193">
        <ele>89.6</ele>
        <time>2015-06-29T19:56:31.501Z</time>
      </trkpt>
      <trkpt lat="48.85046" lon="2.24193">
        <ele>88.7</ele>
        <time>2015-06-29T19:56:32.586Z</time>
      </trkpt>
      <trkpt lat="48.8504" lon="2.24194">
        <ele>88.3</ele>
        <time>2015-06-29T19:56:33.580Z</time>
      </trkpt>
      <trkpt lat="48.85032" lon="2.24196">
        <ele>88.1</ele>
        <time>2015-06-29T19:56:34.591Z</time>
      </trkpt>
      <trkpt lat="48.85025" lon="2.24197">
        <ele>88.2</ele>
        <time>2015-06-29T19:56:35.682Z</time>
      </trkpt>
      <trkpt lat="48.85018" lon="2.24198">
        <ele>88.2</ele>
        <time>2015-06-29T19:56:36.529Z</time>
      </trkpt>
      <trkpt lat="48.85011" lon="2.24201">
        <ele>88.2</ele>
        <time>2015-06-29T19:56:37.534Z</time>
      </trkpt>
      <trkpt lat="48.85004" lon="2.24203">
        <ele>88.4</ele>
        <time>2015-06-29T19:56:38.624Z</time>
      </trkpt>
      <trkpt lat="48.84997" lon="2.24205">
        <ele>88.9</ele>
        <time>2015-06-29T19:56:39.587Z</time>
      </trkpt>
      <trkpt lat="48.8499" lon="2.24206">
        <ele>89.3</ele>
        <time>2015-06-29T19:56:40.610Z</time>
      </trkpt>
      <trkpt lat="48.84983" lon="2.24207">
        <ele>89.3</ele>
        <time>2015-06-29T19:56:41.552Z</time>
      </trkpt>
      <trkpt lat="48.84976" lon="2.24208">
        <ele>89.3</ele>
        <time>2015-06-29T19:56:42.536Z</time>
      </trkpt>
      <trkpt lat="48.84969" lon="2.24209">
        <ele>89.3</ele>
        <time>2015-06-29T19:56:43.538Z</time>
      </trkpt>
      <trkpt lat="48.84963" lon="2.2421">
        <ele>89.1</ele>
        <time>2015-06-29T19:56:44.581Z</time>
      </trkpt>
      <trkpt lat="48.84956" lon="2.2421">
        <ele>88.9</ele>
        <time>2015-06-29T19:56:45.591Z</time>
      </trkpt>
      <trkpt lat="48.8495" lon="2.24211">
        <ele>88.9</ele>
        <time>2015-06-29T19:56:46.599Z</time>
      </trkpt>
      <trkpt lat="48.84943" lon="2.24211">
        <ele>88.6</ele>
        <time>2015-06-29T19:56:47.611Z</time>
      </trkpt>
      <trkpt lat="48.84936" lon="2.24212">
        <ele>88.4</ele>
        <time>2015-06-29T19:56:48.547Z</time>
      </trkpt>
      <trkpt lat="48.84929" lon="2.24212">
        <ele>88.5</ele>
        <time>2015-06-29T19:56:49.539Z</time>
      </trkpt>
      <trkpt lat="48.84923" lon="2.24213">
        <ele>88.4</ele>
        <time>2015-06-29T19:56:50.586Z</time>
      </trkpt>
      <trkpt lat="48.84916" lon="2.24215">
        <ele>88.1</ele>
        <time>2015-06-29T19:56:51.588Z</time>
      </trkpt>
      <trkpt lat="48.84909" lon="2.24216">
        <ele>88.1</ele>
        <time>2015-06-29T19:56:52.601Z</time>
      </trkpt>
      <trkpt lat="48.84902" lon="2.24217">
        <ele>88.4</ele>
        <time>2015-06-29T19:56:53.604Z</time>
      </trkpt>
      <trkpt lat="48.84896" lon="2.24218">
        <ele>88.4</ele>
        <time>2015-06-29T19:56:54.626Z</time>
      </trkpt>
      <trkpt lat="48.8489" lon="2.24218">
        <ele>88.1</ele>
        <time>2015-06-29T19:56:55.534Z</time>
      </trkpt>
      <trkpt lat="48.84883" lon="2.24218">
        <ele>88</ele>
        <time>2015-06-29T19:56:56.600Z</time>
      </trkpt>
      <trkpt lat="48.84876" lon="2.2422">
        <ele>87.7</ele>
        <time>2015-06-29T19:56:57.616Z</time>
      </trkpt>
      <trkpt lat="48.8487" lon="2.24221">
        <ele>88</ele>
        <time>2015-06-29T19:56:58.536Z</time>
      </trkpt>
      <trkpt lat="48.84863" lon="2.24221">
        <ele>87.8</ele>
        <time>2015-06-29T19:56:59.534Z</time>
      </trkpt>
      <trkpt lat="48.84857" lon="2.24222">
        <ele>87.4</ele>
        <time>2015-06-29T19:57:00.552Z</time>
      </trkpt>
      <trkpt lat="48.84851" lon="2.24221">
        <ele>87.1</ele>
        <time>2015-06-29T19:57:01.597Z</time>
      </trkpt>
      <trkpt lat="48.84845" lon="2.2422">
        <ele>86.5</ele>
        <time>2015-06-29T19:57:02.579Z</time>
      </trkpt>
      <trkpt lat="48.84839" lon="2.24216">
        <ele>86.2</ele>
        <time>2015-06-29T19:57:03.585Z</time>
      </trkpt>
      <trkpt lat="48.84833" lon="2.2421">
        <ele>85.8</ele>
        <time>2015-06-29T19:57:04.589Z</time>
      </trkpt>
      <trkpt lat="48.84828" lon="2.24204">
        <ele>85.4</ele>
        <time>2015-06-29T19:57:05.608Z</time>
      </trkpt>
      <trkpt lat="48.84824" lon="2.24198">
        <ele>84.9</ele>
        <time>2015-06-29T19:57:06.612Z</time>
      </trkpt>
      <trkpt lat="48.84819" lon="2.24191">
        <ele>84.7</ele>
        <time>2015-06-29T19:57:08.625Z</time>
      </trkpt>
      <trkpt lat="48.84817" lon="2.24188">
        <ele>84.7</ele>
        <time>2015-06-29T19:57:09.660Z</time>
      </trkpt>
      <trkpt lat="48.84814" lon="2.24177">
        <ele>82.5</ele>
        <time>2015-06-29T19:57:13.568Z</time>
      </trkpt>
      <trkpt lat="48.84815" lon="2.24174">
        <ele>82</ele>
        <time>2015-06-29T19:57:14.617Z</time>
      </trkpt>
      <trkpt lat="48.84821" lon="2.24169">
        <ele>81.8</ele>
        <time>2015-06-29T19:57:35.579Z</time>
      </trkpt>
      <trkpt lat="48.84823" lon="2.24167">
        <ele>82</ele>
        <time>2015-06-29T19:57:36.597Z</time>
      </trkpt>
      <trkpt lat="48.84829" lon="2.24158">
        <ele>82.2</ele>
        <time>2015-06-29T19:57:41.583Z</time>
      </trkpt>
      <trkpt lat="48.8483" lon="2.24156">
        <ele>82.2</ele>
        <time>2015-06-29T19:57:42.506Z</time>
      </trkpt>
      <trkpt lat="48.84835" lon="2.24146">
        <ele>82.4</ele>
        <time>2015-06-29T19:57:46.524Z</time>
      </trkpt>
      <trkpt lat="48.84836" lon="2.24144">
        <ele>82.3</ele>
        <time>2015-06-29T19:57:47.546Z</time>
      </trkpt>
      <trkpt lat="48.84844" lon="2.24137">
        <ele>82.7</ele>
        <time>2015-06-29T19:57:51.568Z</time>
      </trkpt>
      <trkpt lat="48.84846" lon="2.24134">
        <ele>82.9</ele>
        <time>2015-06-29T19:57:52.554Z</time>
      </trkpt>
      <trkpt lat="48.84851" lon="2.24129">
        <ele>83.5</ele>
        <time>2015-06-29T19:57:54.590Z</time>
      </trkpt>
      <trkpt lat="48.84854" lon="2.24125">
        <ele>83.8</ele>
        <time>2015-06-29T19:57:55.560Z</time>
      </trkpt>
      <trkpt lat="48.84859" lon="2.2412">
        <ele>83.8</ele>
        <time>2015-06-29T19:57:57.652Z</time>
      </trkpt>
      <trkpt lat="48.84862" lon="2.24118">
        <ele>83.9</ele>
        <time>2015-06-29T19:57:58.577Z</time>
      </trkpt>
      <trkpt lat="48.84868" lon="2.24114">
        <ele>83.9</ele>
        <time>2015-06-29T19:58:00.531Z</time>
      </trkpt>
      <trkpt lat="48.84871" lon="2.24111">
        <ele>84.1</ele>
        <time>2015-06-29T19:58:01.552Z</time>
      </trkpt>
      <trkpt lat="48.84876" lon="2.24104">
        <ele>83.9</ele>
        <time>2015-06-29T19:58:03.573Z</time>
      </trkpt>
      <trkpt lat="48.84878" lon="2.24102">
        <ele>84</ele>
        <time>2015-06-29T19:58:04.676Z</time>
      </trkpt>
      <trkpt lat="48.84885" lon="2.24095">
        <ele>84</ele>
        <time>2015-06-29T19:58:06.599Z</time>
      </trkpt>
      <trkpt lat="48.84887" lon="2.24089">
        <ele>83.8</ele>
        <time>2015-06-29T19:58:07.854Z</time>
      </trkpt>
      <trkpt lat="48.84893" lon="2.24082">
        <ele>83.1</ele>
        <time>2015-06-29T19:58:09.688Z</time>
      </trkpt>
      <trkpt lat="48.84895" lon="2.24078">
        <ele>82.8</ele>
        <time>2015-06-29T19:58:10.526Z</time>
      </trkpt>
      <trkpt lat="48.849" lon="2.24072">
        <ele>82.1</ele>
        <time>2015-06-29T19:58:12.546Z</time>
      </trkpt>
      <trkpt lat="48.84903" lon="2.24068">
        <ele>81.7</ele>
        <time>2015-06-29T19:58:13.557Z</time>
      </trkpt>
      <trkpt lat="48.84908" lon="2.24059">
        <ele>80.7</ele>
        <time>2015-06-29T19:58:15.588Z</time>
      </trkpt>
      <trkpt lat="48.8491" lon="2.24054">
        <ele>80.2</ele>
        <time>2015-06-29T19:58:16.494Z</time>
      </trkpt>
      <trkpt lat="48.84916" lon="2.24046">
        <ele>80.1</ele>
        <time>2015-06-29T19:58:18.547Z</time>
      </trkpt>
      <trkpt lat="48.84918" lon="2.24045">
        <ele>80.2</ele>
        <time>2015-06-29T19:58:19.564Z</time>
      </trkpt>
      <trkpt lat="48.84925" lon="2.24041">
        <ele>80.7</ele>
        <time>2015-06-29T19:58:22.584Z</time>
      </trkpt>
      <trkpt lat="48.84927" lon="2.24037">
        <ele>81.1</ele>
        <time>2015-06-29T19:58:23.588Z</time>
      </trkpt>
      <trkpt lat="48.84933" lon="2.24031">
        <ele>81.6</ele>
        <time>2015-06-29T19:58:25.667Z</time>
      </trkpt>
      <trkpt lat="48.84936" lon="2.24027">
        <ele>81.5</ele>
        <time>2015-06-29T19:58:26.566Z</time>
      </trkpt>
      <trkpt lat="48.84941" lon="2.24019">
        <ele>81.6</ele>
        <time>2015-06-29T19:58:28.646Z</time>
      </trkpt>
      <trkpt lat="48.84944" lon="2.24015">
        <ele>81.4</ele>
        <time>2015-06-29T19:58:29.603Z</time>
      </trkpt>
      <trkpt lat="48.8495" lon="2.24006">
        <ele>81.3</ele>
        <time>2015-06-29T19:58:31.573Z</time>
      </trkpt>
      <trkpt lat="48.84953" lon="2.24">
        <ele>81.3</ele>
        <time>2015-06-29T19:58:32.579Z</time>
      </trkpt>
      <trkpt lat="48.84959" lon="2.23993">
        <ele>81.5</ele>
        <time>2015-06-29T19:58:34.774Z</time>
      </trkpt>
      <trkpt lat="48.84962" lon="2.2399">
        <ele>81.5</ele>
        <time>2015-06-29T19:58:35.574Z</time>
      </trkpt>
      <trkpt lat="48.84969" lon="2.23982">
        <ele>82</ele>
        <time>2015-06-29T19:58:37.535Z</time>
      </trkpt>
      <trkpt lat="48.84971" lon="2.23976">
        <ele>81.9</ele>
        <time>2015-06-29T19:58:38.664Z</time>
      </trkpt>
      <trkpt lat="48.84975" lon="2.2397">
        <ele>81.5</ele>
        <time>2015-06-29T19:58:39.545Z</time>
      </trkpt>
      <trkpt lat="48.84979" lon="2.23965">
        <ele>81</ele>
        <time>2015-06-29T19:58:40.546Z</time>
      </trkpt>
      <trkpt lat="48.84981" lon="2.23958">
        <ele>81.2</ele>
        <time>2015-06-29T19:58:41.554Z</time>
      </trkpt>
      <trkpt lat="48.84985" lon="2.23952">
        <ele>81.2</ele>
        <time>2015-06-29T19:58:42.556Z</time>
      </trkpt>
      <trkpt lat="48.84988" lon="2.23946">
        <ele>81.5</ele>
        <time>2015-06-29T19:58:44.008Z</time>
      </trkpt>
      <trkpt lat="48.8499" lon="2.2394">
        <ele>81.6</ele>
        <time>2015-06-29T19:58:44.614Z</time>
      </trkpt>
      <trkpt lat="48.84991" lon="2.23933">
        <ele>81.4</ele>
        <time>2015-06-29T19:58:45.603Z</time>
      </trkpt>
      <trkpt lat="48.84995" lon="2.23927">
        <ele>80.5</ele>
        <time>2015-06-29T19:58:46.535Z</time>
      </trkpt>
      <trkpt lat="48.84999" lon="2.23916">
        <ele>80.3</ele>
        <time>2015-06-29T19:58:49.118Z</time>
      </trkpt>
      <trkpt lat="48.85001" lon="2.23908">
        <ele>80.3</ele>
        <time>2015-06-29T19:58:49.549Z</time>
      </trkpt>
      <trkpt lat="48.85002" lon="2.23901">
        <ele>80.2</ele>
        <time>2015-06-29T19:58:50.586Z</time>
      </trkpt>
      <trkpt lat="48.85004" lon="2.23894">
        <ele>80.3</ele>
        <time>2015-06-29T19:58:51.578Z</time>
      </trkpt>
      <trkpt lat="48.85006" lon="2.23888">
        <ele>80.3</ele>
        <time>2015-06-29T19:58:52.537Z</time>
      </trkpt>
      <trkpt lat="48.85008" lon="2.23881">
        <ele>79.7</ele>
        <time>2015-06-29T19:58:53.534Z</time>
      </trkpt>
      <trkpt lat="48.85011" lon="2.2387">
        <ele>80.5</ele>
        <time>2015-06-29T19:58:55.555Z</time>
      </trkpt>
      <trkpt lat="48.85013" lon="2.23864">
        <ele>80.4</ele>
        <time>2015-06-29T19:58:56.639Z</time>
      </trkpt>
      <trkpt lat="48.85015" lon="2.23855">
        <ele>79.6</ele>
        <time>2015-06-29T19:58:58.536Z</time>
      </trkpt>
      <trkpt lat="48.85016" lon="2.23849">
        <ele>79.4</ele>
        <time>2015-06-29T19:58:59.585Z</time>
      </trkpt>
      <trkpt lat="48.85017" lon="2.23839">
        <ele>79.4</ele>
        <time>2015-06-29T19:59:01.532Z</time>
      </trkpt>
      <trkpt lat="48.85018" lon="2.23832">
        <ele>79.2</ele>
        <time>2015-06-29T19:59:02.689Z</time>
      </trkpt>
      <trkpt lat="48.85021" lon="2.2382">
        <ele>79</ele>
        <time>2015-06-29T19:59:04.551Z</time>
      </trkpt>
      <trkpt lat="48.85023" lon="2.23814">
        <ele>78.9</ele>
        <time>2015-06-29T19:59:05.506Z</time>
      </trkpt>
      <trkpt lat="48.85024" lon="2.23803">
        <ele>79.2</ele>
        <time>2015-06-29T19:59:07.565Z</time>
      </trkpt>
      <trkpt lat="48.85024" lon="2.238">
        <ele>79.5</ele>
        <time>2015-06-29T19:59:08.598Z</time>
      </trkpt>
      <trkpt lat="48.85021" lon="2.2379">
        <ele>80</ele>
        <time>2015-06-29T19:59:14.641Z</time>
      </trkpt>
      <trkpt lat="48.85019" lon="2.23789">
        <ele>80.1</ele>
        <time>2015-06-29T19:59:15.662Z</time>
      </trkpt>
      <trkpt lat="48.85012" lon="2.23786">
        <ele>81.2</ele>
        <time>2015-06-29T19:59:18.563Z</time>
      </trkpt>
      <trkpt lat="48.85009" lon="2.23786">
        <ele>81.6</ele>
        <time>2015-06-29T19:59:19.669Z</time>
      </trkpt>
      <trkpt lat="48.85003" lon="2.23783">
        <ele>82.6</ele>
        <time>2015-06-29T19:59:21.609Z</time>
      </trkpt>
      <trkpt lat="48.85" lon="2.23781">
        <ele>82.8</ele>
        <time>2015-06-29T19:59:22.621Z</time>
      </trkpt>
      <trkpt lat="48.84994" lon="2.23779">
        <ele>83.3</ele>
        <time>2015-06-29T19:59:24.536Z</time>
      </trkpt>
      <trkpt lat="48.84991" lon="2.23777">
        <ele>83.4</ele>
        <time>2015-06-29T19:59:25.587Z</time>
      </trkpt>
      <trkpt lat="48.84986" lon="2.23773">
        <ele>84.1</ele>
        <time>2015-06-29T19:59:27.611Z</time>
      </trkpt>
      <trkpt lat="48.84983" lon="2.23772">
        <ele>84.1</ele>
        <time>2015-06-29T19:59:28.567Z</time>
      </trkpt>
      <trkpt lat="48.84974" lon="2.2377">
        <ele>84.2</ele>
        <time>2015-06-29T19:59:30.585Z</time>
      </trkpt>
      <trkpt lat="48.8497" lon="2.23769">
        <ele>83.7</ele>
        <time>2015-06-29T19:59:31.602Z</time>
      </trkpt>
      <trkpt lat="48.84964" lon="2.23769">
        <ele>82.9</ele>
        <time>2015-06-29T19:59:33.532Z</time>
      </trkpt>
      <trkpt lat="48.84961" lon="2.23767">
        <ele>82.8</ele>
        <time>2015-06-29T19:59:34.700Z</time>
      </trkpt>
      <trkpt lat="48.84954" lon="2.23761">
        <ele>82.5</ele>
        <time>2015-06-29T19:59:37.559Z</time>
      </trkpt>
      <trkpt lat="48.84951" lon="2.2376">
        <ele>82.5</ele>
        <time>2015-06-29T19:59:38.582Z</time>
      </trkpt>
      <trkpt lat="48.84945" lon="2.23758">
        <ele>82.3</ele>
        <time>2015-06-29T19:59:40.521Z</time>
      </trkpt>
      <trkpt lat="48.84941" lon="2.23757">
        <ele>82.3</ele>
        <time>2015-06-29T19:59:41.519Z</time>
      </trkpt>
      <trkpt lat="48.84935" lon="2.23756">
        <ele>82.8</ele>
        <time>2015-06-29T19:59:43.547Z</time>
      </trkpt>
      <trkpt lat="48.84932" lon="2.23756">
        <ele>83.6</ele>
        <time>2015-06-29T19:59:44.635Z</time>
      </trkpt>
      <trkpt lat="48.84923" lon="2.23755">
        <ele>84.4</ele>
        <time>2015-06-29T19:59:47.560Z</time>
      </trkpt>
      <trkpt lat="48.84921" lon="2.23755">
        <ele>84.4</ele>
        <time>2015-06-29T19:59:48.591Z</time>
      </trkpt>
      <trkpt lat="48.84914" lon="2.23753">
        <ele>84</ele>
        <time>2015-06-29T19:59:51.563Z</time>
      </trkpt>
      <trkpt lat="48.84911" lon="2.23752">
        <ele>83.8</ele>
        <time>2015-06-29T19:59:52.570Z</time>
      </trkpt>
      <trkpt lat="48.84903" lon="2.23752">
        <ele>84.2</ele>
        <time>2015-06-29T19:59:56.763Z</time>
      </trkpt>
      <trkpt lat="48.84901" lon="2.23752">
        <ele>84.5</ele>
        <time>2015-06-29T19:59:57.575Z</time>
      </trkpt>
      <trkpt lat="48.84898" lon="2.23746">
        <ele>83.6</ele>
        <time>2015-06-29T20:01:09.588Z</time>
      </trkpt>
      <trkpt lat="48.84902" lon="2.2372">
        <ele>78.7</ele>
        <time>2015-06-29T20:01:10.603Z</time>
      </trkpt>
      <trkpt lat="48.84902" lon="2.23727">
        <ele>79.3</ele>
        <time>2015-06-29T20:02:35.529Z</time>
      </trkpt>
      <trkpt lat="48.84902" lon="2.23737">
        <ele>78.5</ele>
        <time>2015-06-29T20:02:36.532Z</time>
      </trkpt>
      <trkpt lat="48.84893" lon="2.23739">
        <ele>78.8</ele>
        <time>2015-06-29T20:02:42.525Z</time>
      </trkpt>
      <trkpt lat="48.84891" lon="2.23738">
        <ele>78.7</ele>
        <time>2015-06-29T20:02:43.534Z</time>
      </trkpt>
      <trkpt lat="48.84882" lon="2.23737">
        <ele>78.9</ele>
        <time>2015-06-29T20:02:47.588Z</time>
      </trkpt>
      <trkpt lat="48.8488" lon="2.23737">
        <ele>78.8</ele>
        <time>2015-06-29T20:02:48.595Z</time>
      </trkpt>
      <trkpt lat="48.84871" lon="2.23737">
        <ele>78.9</ele>
        <time>2015-06-29T20:02:51.533Z</time>
      </trkpt>
      <trkpt lat="48.84868" lon="2.23736">
        <ele>79.1</ele>
        <time>2015-06-29T20:02:52.564Z</time>
      </trkpt>
      <trkpt lat="48.84861" lon="2.23735">
        <ele>79.2</ele>
        <time>2015-06-29T20:02:54.588Z</time>
      </trkpt>
      <trkpt lat="48.84858" lon="2.23734">
        <ele>79.1</ele>
        <time>2015-06-29T20:02:55.600Z</time>
      </trkpt>
      <trkpt lat="48.84852" lon="2.23733">
        <ele>79.5</ele>
        <time>2015-06-29T20:02:57.531Z</time>
      </trkpt>
      <trkpt lat="48.84849" lon="2.23732">
        <ele>79.8</ele>
        <time>2015-06-29T20:02:58.551Z</time>
      </trkpt>
      <trkpt lat="48.84842" lon="2.23729">
        <ele>79.5</ele>
        <time>2015-06-29T20:03:00.707Z</time>
      </trkpt>
      <trkpt lat="48.84839" lon="2.23726">
        <ele>79.7</ele>
        <time>2015-06-29T20:03:01.508Z</time>
      </trkpt>
      <trkpt lat="48.84831" lon="2.23721">
        <ele>80.1</ele>
        <time>2015-06-29T20:03:03.651Z</time>
      </trkpt>
      <trkpt lat="48.84828" lon="2.23718">
        <ele>80.1</ele>
        <time>2015-06-29T20:03:04.683Z</time>
      </trkpt>
      <trkpt lat="48.84821" lon="2.23717">
        <ele>80.4</ele>
        <time>2015-06-29T20:03:06.558Z</time>
      </trkpt>
      <trkpt lat="48.84818" lon="2.23716">
        <ele>80.5</ele>
        <time>2015-06-29T20:03:07.595Z</time>
      </trkpt>
      <trkpt lat="48.84811" lon="2.23715">
        <ele>80.8</ele>
        <time>2015-06-29T20:03:09.512Z</time>
      </trkpt>
      <trkpt lat="48.84808" lon="2.23715">
        <ele>80.9</ele>
        <time>2015-06-29T20:03:10.528Z</time>
      </trkpt>
      <trkpt lat="48.848" lon="2.23714">
        <ele>80.9</ele>
        <time>2015-06-29T20:03:12.542Z</time>
      </trkpt>
      <trkpt lat="48.84796" lon="2.23714">
        <ele>80.7</ele>
        <time>2015-06-29T20:03:13.589Z</time>
      </trkpt>
      <trkpt lat="48.84789" lon="2.23712">
        <ele>81.1</ele>
        <time>2015-06-29T20:03:15.514Z</time>
      </trkpt>
      <trkpt lat="48.84785" lon="2.23711">
        <ele>81</ele>
        <time>2015-06-29T20:03:16.681Z</time>
      </trkpt>
      <trkpt lat="48.84778" lon="2.23709">
        <ele>81.1</ele>
        <time>2015-06-29T20:03:18.554Z</time>
      </trkpt>
      <trkpt lat="48.84774" lon="2.23708">
        <ele>81.1</ele>
        <time>2015-06-29T20:03:19.662Z</time>
      </trkpt>
      <trkpt lat="48.84768" lon="2.23707">
        <ele>81.4</ele>
        <time>2015-06-29T20:03:21.616Z</time>
      </trkpt>
      <trkpt lat="48.84764" lon="2.23706">
        <ele>81.6</ele>
        <time>2015-06-29T20:03:22.500Z</time>
      </trkpt>
      <trkpt lat="48.84758" lon="2.23703">
        <ele>81.7</ele>
        <time>2015-06-29T20:03:24.673Z</time>
      </trkpt>
      <trkpt lat="48.84754" lon="2.23702">
        <ele>81.7</ele>
        <time>2015-06-29T20:03:25.546Z</time>
      </trkpt>
      <trkpt lat="48.84747" lon="2.23701">
        <ele>82</ele>
        <time>2015-06-29T20:03:27.521Z</time>
      </trkpt>
      <trkpt lat="48.84743" lon="2.23699">
        <ele>82.2</ele>
        <time>2015-06-29T20:03:28.550Z</time>
      </trkpt>
      <trkpt lat="48.84735" lon="2.23698">
        <ele>82.6</ele>
        <time>2015-06-29T20:03:30.564Z</time>
      </trkpt>
      <trkpt lat="48.84731" lon="2.23696">
        <ele>82.8</ele>
        <time>2015-06-29T20:03:31.549Z</time>
      </trkpt>
      <trkpt lat="48.84723" lon="2.23694">
        <ele>82.6</ele>
        <time>2015-06-29T20:03:33.528Z</time>
      </trkpt>
      <trkpt lat="48.84719" lon="2.23693">
        <ele>82.6</ele>
        <time>2015-06-29T20:03:34.604Z</time>
      </trkpt>
      <trkpt lat="48.8471" lon="2.23691">
        <ele>82.2</ele>
        <time>2015-06-29T20:03:36.569Z</time>
      </trkpt>
      <trkpt lat="48.84706" lon="2.2369">
        <ele>81.7</ele>
        <time>2015-06-29T20:03:37.580Z</time>
      </trkpt>
      <trkpt lat="48.84698" lon="2.23688">
        <ele>80.9</ele>
        <time>2015-06-29T20:03:39.774Z</time>
      </trkpt>
      <trkpt lat="48.84695" lon="2.23687">
        <ele>80.4</ele>
        <time>2015-06-29T20:03:40.573Z</time>
      </trkpt>
      <trkpt lat="48.84687" lon="2.23685">
        <ele>80.4</ele>
        <time>2015-06-29T20:03:42.619Z</time>
      </trkpt>
      <trkpt lat="48.84684" lon="2.23684">
        <ele>80.3</ele>
        <time>2015-06-29T20:03:43.508Z</time>
      </trkpt>
      <trkpt lat="48.84675" lon="2.23683">
        <ele>80.5</ele>
        <time>2015-06-29T20:03:45.640Z</time>
      </trkpt>
      <trkpt lat="48.84671" lon="2.23684">
        <ele>80.5</ele>
        <time>2015-06-29T20:03:46.542Z</time>
      </trkpt>
      <trkpt lat="48.84664" lon="2.23685">
        <ele>81</ele>
        <time>2015-06-29T20:03:48.580Z</time>
      </trkpt>
      <trkpt lat="48.8466" lon="2.23686">
        <ele>81.2</ele>
        <time>2015-06-29T20:03:49.578Z</time>
      </trkpt>
      <trkpt lat="48.84652" lon="2.23687">
        <ele>80.8</ele>
        <time>2015-06-29T20:03:51.503Z</time>
      </trkpt>
      <trkpt lat="48.84648" lon="2.23687">
        <ele>80.7</ele>
        <time>2015-06-29T20:03:52.564Z</time>
      </trkpt>
      <trkpt lat="48.8464" lon="2.23689">
        <ele>80.9</ele>
        <time>2015-06-29T20:03:54.500Z</time>
      </trkpt>
      <trkpt lat="48.84636" lon="2.23689">
        <ele>81</ele>
        <time>2015-06-29T20:03:55.557Z</time>
      </trkpt>
      <trkpt lat="48.84627" lon="2.23691">
        <ele>81.1</ele>
        <time>2015-06-29T20:03:57.523Z</time>
      </trkpt>
      <trkpt lat="48.84623" lon="2.2369">
        <ele>81.1</ele>
        <time>2015-06-29T20:03:58.585Z</time>
      </trkpt>
      <trkpt lat="48.84616" lon="2.23691">
        <ele>81</ele>
        <time>2015-06-29T20:04:00.496Z</time>
      </trkpt>
      <trkpt lat="48.84612" lon="2.23692">
        <ele>81</ele>
        <time>2015-06-29T20:04:01.546Z</time>
      </trkpt>
      <trkpt lat="48.84603" lon="2.23695">
        <ele>81.7</ele>
        <time>2015-06-29T20:04:04.774Z</time>
      </trkpt>
      <trkpt lat="48.84601" lon="2.23697">
        <ele>82.1</ele>
        <time>2015-06-29T20:04:05.553Z</time>
      </trkpt>
      <trkpt lat="48.84595" lon="2.23705">
        <ele>82.4</ele>
        <time>2015-06-29T20:04:08.667Z</time>
      </trkpt>
      <trkpt lat="48.84594" lon="2.23709">
        <ele>82.4</ele>
        <time>2015-06-29T20:04:09.528Z</time>
      </trkpt>
      <trkpt lat="48.84594" lon="2.23718">
        <ele>82.3</ele>
        <time>2015-06-29T20:04:11.592Z</time>
      </trkpt>
      <trkpt lat="48.84595" lon="2.23722">
        <ele>82.5</ele>
        <time>2015-06-29T20:04:12.598Z</time>
      </trkpt>
      <trkpt lat="48.84597" lon="2.23728">
        <ele>82.6</ele>
        <time>2015-06-29T20:04:13.515Z</time>
      </trkpt>
      <trkpt lat="48.84601" lon="2.23734">
        <ele>83</ele>
        <time>2015-06-29T20:04:14.594Z</time>
      </trkpt>
      <trkpt lat="48.84604" lon="2.23739">
        <ele>83.1</ele>
        <time>2015-06-29T20:04:15.581Z</time>
      </trkpt>
      <trkpt lat="48.84607" lon="2.23744">
        <ele>83.8</ele>
        <time>2015-06-29T20:04:16.591Z</time>
      </trkpt>
      <trkpt lat="48.8461" lon="2.2375">
        <ele>84.1</ele>
        <time>2015-06-29T20:04:17.499Z</time>
      </trkpt>
      <trkpt lat="48.84613" lon="2.23755">
        <ele>84.5</ele>
        <time>2015-06-29T20:04:18.535Z</time>
      </trkpt>
      <trkpt lat="48.84618" lon="2.23764">
        <ele>84.8</ele>
        <time>2015-06-29T20:04:20.595Z</time>
      </trkpt>
      <trkpt lat="48.8462" lon="2.2377">
        <ele>84.9</ele>
        <time>2015-06-29T20:04:21.605Z</time>
      </trkpt>
      <trkpt lat="48.84623" lon="2.23781">
        <ele>85</ele>
        <time>2015-06-29T20:04:23.535Z</time>
      </trkpt>
      <trkpt lat="48.84625" lon="2.23787">
        <ele>85.2</ele>
        <time>2015-06-29T20:04:24.541Z</time>
      </trkpt>
      <trkpt lat="48.84629" lon="2.23793">
        <ele>85.7</ele>
        <time>2015-06-29T20:04:25.554Z</time>
      </trkpt>
      <trkpt lat="48.84632" lon="2.23799">
        <ele>85.8</ele>
        <time>2015-06-29T20:04:26.562Z</time>
      </trkpt>
      <trkpt lat="48.84635" lon="2.23804">
        <ele>86</ele>
        <time>2015-06-29T20:04:27.584Z</time>
      </trkpt>
      <trkpt lat="48.84638" lon="2.2381">
        <ele>85.8</ele>
        <time>2015-06-29T20:04:28.592Z</time>
      </trkpt>
      <trkpt lat="48.84641" lon="2.23816">
        <ele>86.1</ele>
        <time>2015-06-29T20:04:29.821Z</time>
      </trkpt>
      <trkpt lat="48.84644" lon="2.23822">
        <ele>86.3</ele>
        <time>2015-06-29T20:04:30.552Z</time>
      </trkpt>
      <trkpt lat="48.84647" lon="2.23828">
        <ele>86.6</ele>
        <time>2015-06-29T20:04:31.559Z</time>
      </trkpt>
      <trkpt lat="48.84651" lon="2.23834">
        <ele>86.8</ele>
        <time>2015-06-29T20:04:32.606Z</time>
      </trkpt>
      <trkpt lat="48.84654" lon="2.2384">
        <ele>86.7</ele>
        <time>2015-06-29T20:04:33.523Z</time>
      </trkpt>
      <trkpt lat="48.84658" lon="2.23846">
        <ele>87</ele>
        <time>2015-06-29T20:04:34.549Z</time>
      </trkpt>
      <trkpt lat="48.8466" lon="2.23852">
        <ele>87.5</ele>
        <time>2015-06-29T20:04:35.574Z</time>
      </trkpt>
      <trkpt lat="48.84663" lon="2.23859">
        <ele>87.4</ele>
        <time>2015-06-29T20:04:36.582Z</time>
      </trkpt>
      <trkpt lat="48.84665" lon="2.23865">
        <ele>87.4</ele>
        <time>2015-06-29T20:04:37.767Z</time>
      </trkpt>
      <trkpt lat="48.84668" lon="2.23871">
        <ele>87.7</ele>
        <time>2015-06-29T20:04:38.618Z</time>
      </trkpt>
      <trkpt lat="48.84672" lon="2.23878">
        <ele>88</ele>
        <time>2015-06-29T20:04:39.521Z</time>
      </trkpt>
      <trkpt lat="48.84674" lon="2.23884">
        <ele>88.1</ele>
        <time>2015-06-29T20:04:40.554Z</time>
      </trkpt>
      <trkpt lat="48.84677" lon="2.2389">
        <ele>88.2</ele>
        <time>2015-06-29T20:04:41.574Z</time>
      </trkpt>
      <trkpt lat="48.84678" lon="2.23897">
        <ele>87.7</ele>
        <time>2015-06-29T20:04:42.577Z</time>
      </trkpt>
      <trkpt lat="48.84681" lon="2.23903">
        <ele>88</ele>
        <time>2015-06-29T20:04:43.585Z</time>
      </trkpt>
      <trkpt lat="48.84685" lon="2.2391">
        <ele>88.4</ele>
        <time>2015-06-29T20:04:44.613Z</time>
      </trkpt>
      <trkpt lat="48.84687" lon="2.23916">
        <ele>88.5</ele>
        <time>2015-06-29T20:04:45.529Z</time>
      </trkpt>
      <trkpt lat="48.84688" lon="2.23924">
        <ele>88.4</ele>
        <time>2015-06-29T20:04:46.546Z</time>
      </trkpt>
      <trkpt lat="48.84691" lon="2.23932">
        <ele>88.3</ele>
        <time>2015-06-29T20:04:47.550Z</time>
      </trkpt>
      <trkpt lat="48.84693" lon="2.23939">
        <ele>88.6</ele>
        <time>2015-06-29T20:04:48.565Z</time>
      </trkpt>
      <trkpt lat="48.84695" lon="2.23947">
        <ele>88.9</ele>
        <time>2015-06-29T20:04:49.573Z</time>
      </trkpt>
      <trkpt lat="48.84698" lon="2.23954">
        <ele>88.7</ele>
        <time>2015-06-29T20:04:50.588Z</time>
      </trkpt>
      <trkpt lat="48.84701" lon="2.23961">
        <ele>88.7</ele>
        <time>2015-06-29T20:04:51.613Z</time>
      </trkpt>
      <trkpt lat="48.84703" lon="2.23968">
        <ele>89</ele>
        <time>2015-06-29T20:04:52.527Z</time>
      </trkpt>
      <trkpt lat="48.84706" lon="2.23974">
        <ele>89</ele>
        <time>2015-06-29T20:04:53.538Z</time>
      </trkpt>
      <trkpt lat="48.84708" lon="2.23981">
        <ele>89.1</ele>
        <time>2015-06-29T20:04:54.547Z</time>
      </trkpt>
      <trkpt lat="48.84712" lon="2.23987">
        <ele>89.1</ele>
        <time>2015-06-29T20:04:55.554Z</time>
      </trkpt>
      <trkpt lat="48.84715" lon="2.23992">
        <ele>89</ele>
        <time>2015-06-29T20:04:56.575Z</time>
      </trkpt>
      <trkpt lat="48.84718" lon="2.23999">
        <ele>89</ele>
        <time>2015-06-29T20:04:57.581Z</time>
      </trkpt>
      <trkpt lat="48.84721" lon="2.24005">
        <ele>89</ele>
        <time>2015-06-29T20:04:58.584Z</time>
      </trkpt>
      <trkpt lat="48.84724" lon="2.24011">
        <ele>89.3</ele>
        <time>2015-06-29T20:04:59.596Z</time>
      </trkpt>
      <trkpt lat="48.84727" lon="2.24018">
        <ele>89.5</ele>
        <time>2015-06-29T20:05:00.610Z</time>
      </trkpt>
      <trkpt lat="48.8473" lon="2.24024">
        <ele>89.8</ele>
        <time>2015-06-29T20:05:01.528Z</time>
      </trkpt>
      <trkpt lat="48.84733" lon="2.2403">
        <ele>90.1</ele>
        <time>2015-06-29T20:05:02.577Z</time>
      </trkpt>
      <trkpt lat="48.84735" lon="2.24038">
        <ele>90.2</ele>
        <time>2015-06-29T20:05:03.574Z</time>
      </trkpt>
      <trkpt lat="48.84738" lon="2.24043">
        <ele>91</ele>
        <time>2015-06-29T20:05:04.580Z</time>
      </trkpt>
      <trkpt lat="48.84741" lon="2.2405">
        <ele>92.1</ele>
        <time>2015-06-29T20:05:05.587Z</time>
      </trkpt>
      <trkpt lat="48.84745" lon="2.24058">
        <ele>92.2</ele>
        <time>2015-06-29T20:05:06.599Z</time>
      </trkpt>
      <trkpt lat="48.84747" lon="2.24064">
        <ele>92.4</ele>
        <time>2015-06-29T20:05:07.604Z</time>
      </trkpt>
      <trkpt lat="48.84749" lon="2.24072">
        <ele>92.5</ele>
        <time>2015-06-29T20:05:08.614Z</time>
      </trkpt>
      <trkpt lat="48.84752" lon="2.24079">
        <ele>92.7</ele>
        <time>2015-06-29T20:05:09.536Z</time>
      </trkpt>
      <trkpt lat="48.84754" lon="2.24085">
        <ele>93.2</ele>
        <time>2015-06-29T20:05:10.527Z</time>
      </trkpt>
      <trkpt lat="48.84757" lon="2.24091">
        <ele>92.8</ele>
        <time>2015-06-29T20:05:11.547Z</time>
      </trkpt>
      <trkpt lat="48.8476" lon="2.24097">
        <ele>92.9</ele>
        <time>2015-06-29T20:05:12.566Z</time>
      </trkpt>
      <trkpt lat="48.84763" lon="2.24104">
        <ele>92.9</ele>
        <time>2015-06-29T20:05:13.619Z</time>
      </trkpt>
      <trkpt lat="48.84767" lon="2.2411">
        <ele>93.1</ele>
        <time>2015-06-29T20:05:14.626Z</time>
      </trkpt>
      <trkpt lat="48.8477" lon="2.24116">
        <ele>92.9</ele>
        <time>2015-06-29T20:05:15.532Z</time>
      </trkpt>
      <trkpt lat="48.84773" lon="2.24122">
        <ele>92.7</ele>
        <time>2015-06-29T20:05:16.543Z</time>
      </trkpt>
      <trkpt lat="48.84777" lon="2.24133">
        <ele>92</ele>
        <time>2015-06-29T20:05:18.564Z</time>
      </trkpt>
      <trkpt lat="48.8478" lon="2.24139">
        <ele>92</ele>
        <time>2015-06-29T20:05:19.609Z</time>
      </trkpt>
      <trkpt lat="48.84783" lon="2.24145">
        <ele>92</ele>
        <time>2015-06-29T20:05:20.562Z</time>
      </trkpt>
      <trkpt lat="48.84786" lon="2.2415">
        <ele>92</ele>
        <time>2015-06-29T20:05:21.518Z</time>
      </trkpt>
      <trkpt lat="48.84791" lon="2.24161">
        <ele>92.7</ele>
        <time>2015-06-29T20:05:23.561Z</time>
      </trkpt>
      <trkpt lat="48.84793" lon="2.24167">
        <ele>92.4</ele>
        <time>2015-06-29T20:05:24.562Z</time>
      </trkpt>
      <trkpt lat="48.84795" lon="2.24179">
        <ele>92.1</ele>
        <time>2015-06-29T20:05:26.640Z</time>
      </trkpt>
      <trkpt lat="48.84794" lon="2.24185">
        <ele>91.2</ele>
        <time>2015-06-29T20:05:27.549Z</time>
      </trkpt>
      <trkpt lat="48.84791" lon="2.24195">
        <ele>89.8</ele>
        <time>2015-06-29T20:05:29.500Z</time>
      </trkpt>
      <trkpt lat="48.8479" lon="2.242">
        <ele>89.9</ele>
        <time>2015-06-29T20:05:30.545Z</time>
      </trkpt>
      <trkpt lat="48.84789" lon="2.2421">
        <ele>89.9</ele>
        <time>2015-06-29T20:05:32.576Z</time>
      </trkpt>
      <trkpt lat="48.84788" lon="2.24215">
        <ele>89.9</ele>
        <time>2015-06-29T20:05:33.596Z</time>
      </trkpt>
      <trkpt lat="48.84783" lon="2.24224">
        <ele>89.7</ele>
        <time>2015-06-29T20:05:35.524Z</time>
      </trkpt>
      <trkpt lat="48.8478" lon="2.24229">
        <ele>89.3</ele>
        <time>2015-06-29T20:05:36.547Z</time>
      </trkpt>
      <trkpt lat="48.84774" lon="2.24238">
        <ele>88.6</ele>
        <time>2015-06-29T20:05:38.591Z</time>
      </trkpt>
      <trkpt lat="48.84771" lon="2.24243">
        <ele>88.4</ele>
        <time>2015-06-29T20:05:39.597Z</time>
      </trkpt>
      <trkpt lat="48.84768" lon="2.24249">
        <ele>88.1</ele>
        <time>2015-06-29T20:05:40.614Z</time>
      </trkpt>
      <trkpt lat="48.84767" lon="2.24255">
        <ele>87.8</ele>
        <time>2015-06-29T20:05:41.548Z</time>
      </trkpt>
      <trkpt lat="48.84765" lon="2.24262">
        <ele>87.8</ele>
        <time>2015-06-29T20:05:42.687Z</time>
      </trkpt>
      <trkpt lat="48.84764" lon="2.24269">
        <ele>87.7</ele>
        <time>2015-06-29T20:05:43.597Z</time>
      </trkpt>
      <trkpt lat="48.84762" lon="2.24275">
        <ele>87.5</ele>
        <time>2015-06-29T20:05:44.626Z</time>
      </trkpt>
      <trkpt lat="48.84761" lon="2.24282">
        <ele>87.3</ele>
        <time>2015-06-29T20:05:45.523Z</time>
      </trkpt>
      <trkpt lat="48.8476" lon="2.24289">
        <ele>87.3</ele>
        <time>2015-06-29T20:05:46.547Z</time>
      </trkpt>
      <trkpt lat="48.84758" lon="2.24295">
        <ele>87.4</ele>
        <time>2015-06-29T20:05:47.559Z</time>
      </trkpt>
      <trkpt lat="48.84756" lon="2.24303">
        <ele>87.5</ele>
        <time>2015-06-29T20:05:48.608Z</time>
      </trkpt>
      <trkpt lat="48.84754" lon="2.2431">
        <ele>87.4</ele>
        <time>2015-06-29T20:05:49.526Z</time>
      </trkpt>
      <trkpt lat="48.84753" lon="2.24317">
        <ele>87.3</ele>
        <time>2015-06-29T20:05:50.602Z</time>
      </trkpt>
      <trkpt lat="48.84751" lon="2.24323">
        <ele>87.3</ele>
        <time>2015-06-29T20:05:51.612Z</time>
      </trkpt>
      <trkpt lat="48.84748" lon="2.24335">
        <ele>87.2</ele>
        <time>2015-06-29T20:05:53.658Z</time>
      </trkpt>
      <trkpt lat="48.84747" lon="2.24341">
        <ele>87.1</ele>
        <time>2015-06-29T20:05:54.531Z</time>
      </trkpt>
      <trkpt lat="48.84745" lon="2.24347">
        <ele>87.3</ele>
        <time>2015-06-29T20:05:55.541Z</time>
      </trkpt>
      <trkpt lat="48.84743" lon="2.24354">
        <ele>87.3</ele>
        <time>2015-06-29T20:05:56.603Z</time>
      </trkpt>
      <trkpt lat="48.84742" lon="2.24362">
        <ele>87.5</ele>
        <time>2015-06-29T20:05:57.561Z</time>
      </trkpt>
      <trkpt lat="48.84739" lon="2.24369">
        <ele>87.6</ele>
        <time>2015-06-29T20:05:58.803Z</time>
      </trkpt>
      <trkpt lat="48.84737" lon="2.24376">
        <ele>87.7</ele>
        <time>2015-06-29T20:05:59.539Z</time>
      </trkpt>
      <trkpt lat="48.84735" lon="2.24383">
        <ele>87.8</ele>
        <time>2015-06-29T20:06:00.528Z</time>
      </trkpt>
      <trkpt lat="48.84734" lon="2.2439">
        <ele>87.7</ele>
        <time>2015-06-29T20:06:01.555Z</time>
      </trkpt>
      <trkpt lat="48.84733" lon="2.24398">
        <ele>87.7</ele>
        <time>2015-06-29T20:06:02.556Z</time>
      </trkpt>
      <trkpt lat="48.84731" lon="2.24405">
        <ele>87.7</ele>
        <time>2015-06-29T20:06:03.564Z</time>
      </trkpt>
      <trkpt lat="48.84728" lon="2.24413">
        <ele>87.7</ele>
        <time>2015-06-29T20:06:04.635Z</time>
      </trkpt>
      <trkpt lat="48.84727" lon="2.24421">
        <ele>87.7</ele>
        <time>2015-06-29T20:06:05.552Z</time>
      </trkpt>
      <trkpt lat="48.84725" lon="2.24429">
        <ele>87.7</ele>
        <time>2015-06-29T20:06:06.568Z</time>
      </trkpt>
      <trkpt lat="48.84724" lon="2.24436">
        <ele>87.3</ele>
        <time>2015-06-29T20:06:07.580Z</time>
      </trkpt>
      <trkpt lat="48.84721" lon="2.24444">
        <ele>87.2</ele>
        <time>2015-06-29T20:06:08.589Z</time>
      </trkpt>
      <trkpt lat="48.84719" lon="2.24452">
        <ele>86.9</ele>
        <time>2015-06-29T20:06:09.594Z</time>
      </trkpt>
      <trkpt lat="48.84716" lon="2.2446">
        <ele>87</ele>
        <time>2015-06-29T20:06:10.609Z</time>
      </trkpt>
      <trkpt lat="48.84713" lon="2.24469">
        <ele>86.8</ele>
        <time>2015-06-29T20:06:11.614Z</time>
      </trkpt>
      <trkpt lat="48.8471" lon="2.24476">
        <ele>86.5</ele>
        <time>2015-06-29T20:06:12.561Z</time>
      </trkpt>
      <trkpt lat="48.84709" lon="2.24484">
        <ele>86.5</ele>
        <time>2015-06-29T20:06:13.591Z</time>
      </trkpt>
      <trkpt lat="48.84707" lon="2.24493">
        <ele>86.6</ele>
        <time>2015-06-29T20:06:14.551Z</time>
      </trkpt>
      <trkpt lat="48.84705" lon="2.24502">
        <ele>86.9</ele>
        <time>2015-06-29T20:06:15.563Z</time>
      </trkpt>
      <trkpt lat="48.84704" lon="2.24511">
        <ele>87.3</ele>
        <time>2015-06-29T20:06:16.585Z</time>
      </trkpt>
      <trkpt lat="48.84702" lon="2.24521">
        <ele>87.3</ele>
        <time>2015-06-29T20:06:17.598Z</time>
      </trkpt>
      <trkpt lat="48.84699" lon="2.2453">
        <ele>86.9</ele>
        <time>2015-06-29T20:06:18.595Z</time>
      </trkpt>
      <trkpt lat="48.84696" lon="2.2454">
        <ele>86.9</ele>
        <time>2015-06-29T20:06:19.521Z</time>
      </trkpt>
      <trkpt lat="48.84693" lon="2.2455">
        <ele>86.6</ele>
        <time>2015-06-29T20:06:20.567Z</time>
      </trkpt>
      <trkpt lat="48.84691" lon="2.24559">
        <ele>86.2</ele>
        <time>2015-06-29T20:06:21.573Z</time>
      </trkpt>
      <trkpt lat="48.84688" lon="2.24569">
        <ele>86.3</ele>
        <time>2015-06-29T20:06:22.582Z</time>
      </trkpt>
      <trkpt lat="48.84686" lon="2.24578">
        <ele>86.4</ele>
        <time>2015-06-29T20:06:23.599Z</time>
      </trkpt>
      <trkpt lat="48.84685" lon="2.24588">
        <ele>86.5</ele>
        <time>2015-06-29T20:06:24.522Z</time>
      </trkpt>
      <trkpt lat="48.84683" lon="2.24597">
        <ele>86.6</ele>
        <time>2015-06-29T20:06:25.522Z</time>
      </trkpt>
      <trkpt lat="48.84681" lon="2.24606">
        <ele>86.4</ele>
        <time>2015-06-29T20:06:26.580Z</time>
      </trkpt>
      <trkpt lat="48.84678" lon="2.24615">
        <ele>85.8</ele>
        <time>2015-06-29T20:06:27.566Z</time>
      </trkpt>
      <trkpt lat="48.84675" lon="2.24624">
        <ele>85.3</ele>
        <time>2015-06-29T20:06:28.575Z</time>
      </trkpt>
      <trkpt lat="48.84672" lon="2.24632">
        <ele>85.1</ele>
        <time>2015-06-29T20:06:29.584Z</time>
      </trkpt>
      <trkpt lat="48.8467" lon="2.24642">
        <ele>84.9</ele>
        <time>2015-06-29T20:06:30.595Z</time>
      </trkpt>
      <trkpt lat="48.84668" lon="2.24651">
        <ele>84.3</ele>
        <time>2015-06-29T20:06:31.607Z</time>
      </trkpt>
      <trkpt lat="48.84666" lon="2.2466">
        <ele>84</ele>
        <time>2015-06-29T20:06:32.618Z</time>
      </trkpt>
      <trkpt lat="48.84663" lon="2.24669">
        <ele>83.6</ele>
        <time>2015-06-29T20:06:33.543Z</time>
      </trkpt>
      <trkpt lat="48.84661" lon="2.24678">
        <ele>83.9</ele>
        <time>2015-06-29T20:06:34.544Z</time>
      </trkpt>
      <trkpt lat="48.84659" lon="2.24686">
        <ele>84.4</ele>
        <time>2015-06-29T20:06:35.573Z</time>
      </trkpt>
      <trkpt lat="48.84657" lon="2.24695">
        <ele>84.4</ele>
        <time>2015-06-29T20:06:36.582Z</time>
      </trkpt>
      <trkpt lat="48.84654" lon="2.24703">
        <ele>84.5</ele>
        <time>2015-06-29T20:06:37.593Z</time>
      </trkpt>
      <trkpt lat="48.84652" lon="2.24712">
        <ele>84.4</ele>
        <time>2015-06-29T20:06:38.604Z</time>
      </trkpt>
      <trkpt lat="48.8465" lon="2.2472">
        <ele>84.7</ele>
        <time>2015-06-29T20:06:39.524Z</time>
      </trkpt>
      <trkpt lat="48.84648" lon="2.24729">
        <ele>84.7</ele>
        <time>2015-06-29T20:06:40.519Z</time>
      </trkpt>
      <trkpt lat="48.84645" lon="2.24738">
        <ele>84.7</ele>
        <time>2015-06-29T20:06:41.531Z</time>
      </trkpt>
      <trkpt lat="48.84642" lon="2.24747">
        <ele>84.8</ele>
        <time>2015-06-29T20:06:42.544Z</time>
      </trkpt>
      <trkpt lat="48.84639" lon="2.24756">
        <ele>84.7</ele>
        <time>2015-06-29T20:06:43.553Z</time>
      </trkpt>
      <trkpt lat="48.84637" lon="2.24765">
        <ele>84.6</ele>
        <time>2015-06-29T20:06:44.562Z</time>
      </trkpt>
      <trkpt lat="48.84635" lon="2.24774">
        <ele>84.9</ele>
        <time>2015-06-29T20:06:45.569Z</time>
      </trkpt>
      <trkpt lat="48.84632" lon="2.24784">
        <ele>85</ele>
        <time>2015-06-29T20:06:46.568Z</time>
      </trkpt>
      <trkpt lat="48.84629" lon="2.24794">
        <ele>85.2</ele>
        <time>2015-06-29T20:06:47.611Z</time>
      </trkpt>
      <trkpt lat="48.84627" lon="2.24804">
        <ele>85.5</ele>
        <time>2015-06-29T20:06:48.515Z</time>
      </trkpt>
      <trkpt lat="48.84624" lon="2.24815">
        <ele>85.7</ele>
        <time>2015-06-29T20:06:49.523Z</time>
      </trkpt>
      <trkpt lat="48.8462" lon="2.24825">
        <ele>85.9</ele>
        <time>2015-06-29T20:06:50.555Z</time>
      </trkpt>
      <trkpt lat="48.84618" lon="2.24836">
        <ele>86.2</ele>
        <time>2015-06-29T20:06:51.558Z</time>
      </trkpt>
      <trkpt lat="48.84616" lon="2.24847">
        <ele>86.6</ele>
        <time>2015-06-29T20:06:52.571Z</time>
      </trkpt>
      <trkpt lat="48.84613" lon="2.24859">
        <ele>86.9</ele>
        <time>2015-06-29T20:06:53.575Z</time>
      </trkpt>
      <trkpt lat="48.84609" lon="2.2487">
        <ele>86.9</ele>
        <time>2015-06-29T20:06:54.583Z</time>
      </trkpt>
      <trkpt lat="48.84606" lon="2.2488">
        <ele>87</ele>
        <time>2015-06-29T20:06:55.597Z</time>
      </trkpt>
      <trkpt lat="48.84603" lon="2.24892">
        <ele>86.9</ele>
        <time>2015-06-29T20:06:56.579Z</time>
      </trkpt>
      <trkpt lat="48.84601" lon="2.24904">
        <ele>87.3</ele>
        <time>2015-06-29T20:06:57.523Z</time>
      </trkpt>
      <trkpt lat="48.84598" lon="2.24915">
        <ele>87.4</ele>
        <time>2015-06-29T20:06:58.540Z</time>
      </trkpt>
      <trkpt lat="48.84595" lon="2.24927">
        <ele>88.2</ele>
        <time>2015-06-29T20:06:59.608Z</time>
      </trkpt>
      <trkpt lat="48.84592" lon="2.24938">
        <ele>87.7</ele>
        <time>2015-06-29T20:07:00.588Z</time>
      </trkpt>
      <trkpt lat="48.84589" lon="2.24949">
        <ele>87.4</ele>
        <time>2015-06-29T20:07:01.522Z</time>
      </trkpt>
      <trkpt lat="48.84586" lon="2.24961">
        <ele>87.1</ele>
        <time>2015-06-29T20:07:02.611Z</time>
      </trkpt>
      <trkpt lat="48.84583" lon="2.24973">
        <ele>87.2</ele>
        <time>2015-06-29T20:07:03.610Z</time>
      </trkpt>
      <trkpt lat="48.84581" lon="2.24983">
        <ele>87.6</ele>
        <time>2015-06-29T20:07:04.520Z</time>
      </trkpt>
      <trkpt lat="48.84579" lon="2.24993">
        <ele>87.7</ele>
        <time>2015-06-29T20:07:05.523Z</time>
      </trkpt>
      <trkpt lat="48.84577" lon="2.25003">
        <ele>87.3</ele>
        <time>2015-06-29T20:07:06.526Z</time>
      </trkpt>
      <trkpt lat="48.84574" lon="2.25013">
        <ele>87.1</ele>
        <time>2015-06-29T20:07:07.546Z</time>
      </trkpt>
      <trkpt lat="48.84571" lon="2.25022">
        <ele>87.1</ele>
        <time>2015-06-29T20:07:08.565Z</time>
      </trkpt>
      <trkpt lat="48.84568" lon="2.2503">
        <ele>87.1</ele>
        <time>2015-06-29T20:07:09.569Z</time>
      </trkpt>
      <trkpt lat="48.84565" lon="2.25038">
        <ele>87.1</ele>
        <time>2015-06-29T20:07:10.621Z</time>
      </trkpt>
      <trkpt lat="48.84562" lon="2.25046">
        <ele>86.9</ele>
        <time>2015-06-29T20:07:11.599Z</time>
      </trkpt>
      <trkpt lat="48.84561" lon="2.25052">
        <ele>87.3</ele>
        <time>2015-06-29T20:07:12.491Z</time>
      </trkpt>
      <trkpt lat="48.8456" lon="2.25065">
        <ele>88.1</ele>
        <time>2015-06-29T20:07:15.587Z</time>
      </trkpt>
      <trkpt lat="48.84559" lon="2.25068">
        <ele>88.4</ele>
        <time>2015-06-29T20:07:16.497Z</time>
      </trkpt>
      <trkpt lat="48.84563" lon="2.25079">
        <ele>88.6</ele>
        <time>2015-06-29T20:07:33.549Z</time>
      </trkpt>
      <trkpt lat="48.84563" lon="2.25086">
        <ele>88.2</ele>
        <time>2015-06-29T20:07:34.502Z</time>
      </trkpt>
      <trkpt lat="48.84564" lon="2.25099">
        <ele>88.6</ele>
        <time>2015-06-29T20:07:36.554Z</time>
      </trkpt>
      <trkpt lat="48.84564" lon="2.25106">
        <ele>88.8</ele>
        <time>2015-06-29T20:07:37.570Z</time>
      </trkpt>
      <trkpt lat="48.84563" lon="2.25114">
        <ele>89.1</ele>
        <time>2015-06-29T20:07:38.591Z</time>
      </trkpt>
      <trkpt lat="48.84563" lon="2.25122">
        <ele>89.4</ele>
        <time>2015-06-29T20:07:39.593Z</time>
      </trkpt>
      <trkpt lat="48.84562" lon="2.25131">
        <ele>89.6</ele>
        <time>2015-06-29T20:07:40.545Z</time>
      </trkpt>
      <trkpt lat="48.84563" lon="2.2514">
        <ele>89.7</ele>
        <time>2015-06-29T20:07:41.545Z</time>
      </trkpt>
      <trkpt lat="48.84562" lon="2.25149">
        <ele>90</ele>
        <time>2015-06-29T20:07:42.573Z</time>
      </trkpt>
      <trkpt lat="48.84561" lon="2.25157">
        <ele>90.1</ele>
        <time>2015-06-29T20:07:43.592Z</time>
      </trkpt>
      <trkpt lat="48.8456" lon="2.25165">
        <ele>89.9</ele>
        <time>2015-06-29T20:07:44.671Z</time>
      </trkpt>
      <trkpt lat="48.8456" lon="2.25173">
        <ele>89.9</ele>
        <time>2015-06-29T20:07:45.522Z</time>
      </trkpt>
      <trkpt lat="48.8456" lon="2.25181">
        <ele>90.3</ele>
        <time>2015-06-29T20:07:46.509Z</time>
      </trkpt>
      <trkpt lat="48.8456" lon="2.25189">
        <ele>90.1</ele>
        <time>2015-06-29T20:07:47.522Z</time>
      </trkpt>
      <trkpt lat="48.84559" lon="2.25196">
        <ele>89.5</ele>
        <time>2015-06-29T20:07:48.532Z</time>
      </trkpt>
      <trkpt lat="48.84559" lon="2.25204">
        <ele>89.3</ele>
        <time>2015-06-29T20:07:49.703Z</time>
      </trkpt>
      <trkpt lat="48.84559" lon="2.25211">
        <ele>89.3</ele>
        <time>2015-06-29T20:07:50.566Z</time>
      </trkpt>
      <trkpt lat="48.84559" lon="2.25218">
        <ele>89.3</ele>
        <time>2015-06-29T20:07:51.566Z</time>
      </trkpt>
      <trkpt lat="48.84558" lon="2.25225">
        <ele>89.4</ele>
        <time>2015-06-29T20:07:52.657Z</time>
      </trkpt>
      <trkpt lat="48.84557" lon="2.25232">
        <ele>89.5</ele>
        <time>2015-06-29T20:07:53.491Z</time>
      </trkpt>
      <trkpt lat="48.84558" lon="2.2524">
        <ele>89.5</ele>
        <time>2015-06-29T20:07:54.519Z</time>
      </trkpt>
      <trkpt lat="48.84559" lon="2.25246">
        <ele>89.2</ele>
        <time>2015-06-29T20:07:55.532Z</time>
      </trkpt>
      <trkpt lat="48.84558" lon="2.25259">
        <ele>89.3</ele>
        <time>2015-06-29T20:07:57.519Z</time>
      </trkpt>
      <trkpt lat="48.84558" lon="2.25266">
        <ele>89.2</ele>
        <time>2015-06-29T20:07:58.739Z</time>
      </trkpt>
      <trkpt lat="48.84559" lon="2.25273">
        <ele>89.5</ele>
        <time>2015-06-29T20:07:59.594Z</time>
      </trkpt>
      <trkpt lat="48.84559" lon="2.2528">
        <ele>89.2</ele>
        <time>2015-06-29T20:08:00.495Z</time>
      </trkpt>
      <trkpt lat="48.84559" lon="2.25287">
        <ele>88.7</ele>
        <time>2015-06-29T20:08:01.604Z</time>
      </trkpt>
      <trkpt lat="48.84558" lon="2.25294">
        <ele>88.6</ele>
        <time>2015-06-29T20:08:02.666Z</time>
      </trkpt>
      <trkpt lat="48.84557" lon="2.25301">
        <ele>88.6</ele>
        <time>2015-06-29T20:08:03.559Z</time>
      </trkpt>
      <trkpt lat="48.84556" lon="2.25309">
        <ele>88.5</ele>
        <time>2015-06-29T20:08:04.555Z</time>
      </trkpt>
      <trkpt lat="48.84556" lon="2.25317">
        <ele>88.4</ele>
        <time>2015-06-29T20:08:05.588Z</time>
      </trkpt>
      <trkpt lat="48.84554" lon="2.25324">
        <ele>88.5</ele>
        <time>2015-06-29T20:08:06.593Z</time>
      </trkpt>
      <trkpt lat="48.84554" lon="2.25333">
        <ele>88.8</ele>
        <time>2015-06-29T20:08:07.606Z</time>
      </trkpt>
      <trkpt lat="48.84553" lon="2.25342">
        <ele>88.8</ele>
        <time>2015-06-29T20:08:08.620Z</time>
      </trkpt>
      <trkpt lat="48.84554" lon="2.25351">
        <ele>89</ele>
        <time>2015-06-29T20:08:09.769Z</time>
      </trkpt>
      <trkpt lat="48.84554" lon="2.2536">
        <ele>88.9</ele>
        <time>2015-06-29T20:08:10.528Z</time>
      </trkpt>
      <trkpt lat="48.84554" lon="2.25369">
        <ele>88.8</ele>
        <time>2015-06-29T20:08:11.549Z</time>
      </trkpt>
      <trkpt lat="48.84554" lon="2.25378">
        <ele>88.8</ele>
        <time>2015-06-29T20:08:12.589Z</time>
      </trkpt>
      <trkpt lat="48.84553" lon="2.25388">
        <ele>89.1</ele>
        <time>2015-06-29T20:08:13.532Z</time>
      </trkpt>
      <trkpt lat="48.84553" lon="2.25397">
        <ele>88.8</ele>
        <time>2015-06-29T20:08:14.640Z</time>
      </trkpt>
      <trkpt lat="48.84554" lon="2.25406">
        <ele>88.8</ele>
        <time>2015-06-29T20:08:15.544Z</time>
      </trkpt>
      <trkpt lat="48.84554" lon="2.25415">
        <ele>88.8</ele>
        <time>2015-06-29T20:08:16.580Z</time>
      </trkpt>
      <trkpt lat="48.84553" lon="2.25423">
        <ele>88.9</ele>
        <time>2015-06-29T20:08:17.516Z</time>
      </trkpt>
      <trkpt lat="48.84553" lon="2.25431">
        <ele>89.1</ele>
        <time>2015-06-29T20:08:18.519Z</time>
      </trkpt>
      <trkpt lat="48.84554" lon="2.25439">
        <ele>89.6</ele>
        <time>2015-06-29T20:08:19.600Z</time>
      </trkpt>
      <trkpt lat="48.84554" lon="2.25445">
        <ele>89.3</ele>
        <time>2015-06-29T20:08:20.659Z</time>
      </trkpt>
      <trkpt lat="48.84554" lon="2.25458">
        <ele>89</ele>
        <time>2015-06-29T20:08:22.526Z</time>
      </trkpt>
      <trkpt lat="48.84553" lon="2.25463">
        <ele>89.4</ele>
        <time>2015-06-29T20:08:23.687Z</time>
      </trkpt>
      <trkpt lat="48.84548" lon="2.25471">
        <ele>88.6</ele>
        <time>2015-06-29T20:08:26.593Z</time>
      </trkpt>
      <trkpt lat="48.84546" lon="2.25474">
        <ele>88.5</ele>
        <time>2015-06-29T20:08:27.596Z</time>
      </trkpt>
      <trkpt lat="48.84543" lon="2.25485">
        <ele>88.7</ele>
        <time>2015-06-29T20:08:31.617Z</time>
      </trkpt>
      <trkpt lat="48.84544" lon="2.25489">
        <ele>89.2</ele>
        <time>2015-06-29T20:08:32.599Z</time>
      </trkpt>
      <trkpt lat="48.84546" lon="2.25497">
        <ele>89.7</ele>
        <time>2015-06-29T20:08:34.566Z</time>
      </trkpt>
      <trkpt lat="48.84547" lon="2.25502">
        <ele>90</ele>
        <time>2015-06-29T20:08:35.588Z</time>
      </trkpt>
      <trkpt lat="48.84548" lon="2.25512">
        <ele>90.6</ele>
        <time>2015-06-29T20:08:37.529Z</time>
      </trkpt>
      <trkpt lat="48.84548" lon="2.25518">
        <ele>90.5</ele>
        <time>2015-06-29T20:08:38.619Z</time>
      </trkpt>
      <trkpt lat="48.84547" lon="2.25528">
        <ele>90.4</ele>
        <time>2015-06-29T20:08:40.519Z</time>
      </trkpt>
      <trkpt lat="48.84546" lon="2.25533">
        <ele>90.4</ele>
        <time>2015-06-29T20:08:41.543Z</time>
      </trkpt>
      <trkpt lat="48.84547" lon="2.25544">
        <ele>90.7</ele>
        <time>2015-06-29T20:08:43.599Z</time>
      </trkpt>
      <trkpt lat="48.84547" lon="2.25548">
        <ele>90.9</ele>
        <time>2015-06-29T20:08:44.685Z</time>
      </trkpt>
      <trkpt lat="48.84547" lon="2.25558">
        <ele>91.3</ele>
        <time>2015-06-29T20:08:46.550Z</time>
      </trkpt>
      <trkpt lat="48.84548" lon="2.25563">
        <ele>91.4</ele>
        <time>2015-06-29T20:08:47.619Z</time>
      </trkpt>
      <trkpt lat="48.84549" lon="2.25573">
        <ele>91.7</ele>
        <time>2015-06-29T20:08:49.531Z</time>
      </trkpt>
      <trkpt lat="48.84549" lon="2.25578">
        <ele>92</ele>
        <time>2015-06-29T20:08:50.540Z</time>
      </trkpt>
      <trkpt lat="48.84551" lon="2.25588">
        <ele>92.1</ele>
        <time>2015-06-29T20:08:52.556Z</time>
      </trkpt>
      <trkpt lat="48.84551" lon="2.25592">
        <ele>92</ele>
        <time>2015-06-29T20:08:53.492Z</time>
      </trkpt>
      <trkpt lat="48.84551" lon="2.25606">
        <ele>92.2</ele>
        <time>2015-06-29T20:08:56.581Z</time>
      </trkpt>
      <trkpt lat="48.84551" lon="2.25609">
        <ele>92.2</ele>
        <time>2015-06-29T20:08:57.607Z</time>
      </trkpt>
      <trkpt lat="48.84549" lon="2.25618">
        <ele>92.9</ele>
        <time>2015-06-29T20:08:59.536Z</time>
      </trkpt>
      <trkpt lat="48.84548" lon="2.25623">
        <ele>93.1</ele>
        <time>2015-06-29T20:09:00.558Z</time>
      </trkpt>
      <trkpt lat="48.84546" lon="2.25635">
        <ele>93</ele>
        <time>2015-06-29T20:09:02.585Z</time>
      </trkpt>
      <trkpt lat="48.84546" lon="2.25641">
        <ele>93</ele>
        <time>2015-06-29T20:09:03.579Z</time>
      </trkpt>
      <trkpt lat="48.84545" lon="2.25654">
        <ele>92.6</ele>
        <time>2015-06-29T20:09:05.490Z</time>
      </trkpt>
      <trkpt lat="48.84545" lon="2.25661">
        <ele>93.1</ele>
        <time>2015-06-29T20:09:06.527Z</time>
      </trkpt>
      <trkpt lat="48.84545" lon="2.25674">
        <ele>93.9</ele>
        <time>2015-06-29T20:09:08.595Z</time>
      </trkpt>
      <trkpt lat="48.84545" lon="2.25681">
        <ele>93.7</ele>
        <time>2015-06-29T20:09:09.530Z</time>
      </trkpt>
      <trkpt lat="48.84546" lon="2.25694">
        <ele>93.7</ele>
        <time>2015-06-29T20:09:11.560Z</time>
      </trkpt>
      <trkpt lat="48.84547" lon="2.257">
        <ele>94.7</ele>
        <time>2015-06-29T20:09:12.569Z</time>
      </trkpt>
      <trkpt lat="48.84548" lon="2.25712">
        <ele>95.8</ele>
        <time>2015-06-29T20:09:14.607Z</time>
      </trkpt>
      <trkpt lat="48.84549" lon="2.25718">
        <ele>96.1</ele>
        <time>2015-06-29T20:09:15.546Z</time>
      </trkpt>
      <trkpt lat="48.84549" lon="2.2573">
        <ele>96.5</ele>
        <time>2015-06-29T20:09:17.509Z</time>
      </trkpt>
      <trkpt lat="48.84549" lon="2.25735">
        <ele>96.8</ele>
        <time>2015-06-29T20:09:18.527Z</time>
      </trkpt>
      <trkpt lat="48.8455" lon="2.25745">
        <ele>97.5</ele>
        <time>2015-06-29T20:09:20.607Z</time>
      </trkpt>
      <trkpt lat="48.84549" lon="2.2575">
        <ele>97.6</ele>
        <time>2015-06-29T20:09:21.524Z</time>
      </trkpt>
      <trkpt lat="48.84544" lon="2.25758">
        <ele>98.4</ele>
        <time>2015-06-29T20:09:25.560Z</time>
      </trkpt>
      <trkpt lat="48.84542" lon="2.25759">
        <ele>98.6</ele>
        <time>2015-06-29T20:09:26.617Z</time>
      </trkpt>
      <trkpt lat="48.84538" lon="2.2577">
        <ele>96.4</ele>
        <time>2015-06-29T20:10:03.514Z</time>
      </trkpt>
      <trkpt lat="48.84539" lon="2.25776">
        <ele>96.5</ele>
        <time>2015-06-29T20:10:04.530Z</time>
      </trkpt>
      <trkpt lat="48.8454" lon="2.2579">
        <ele>96.7</ele>
        <time>2015-06-29T20:10:06.548Z</time>
      </trkpt>
      <trkpt lat="48.8454" lon="2.25796">
        <ele>96.6</ele>
        <time>2015-06-29T20:10:07.567Z</time>
      </trkpt>
      <trkpt lat="48.84541" lon="2.25805">
        <ele>96.7</ele>
        <time>2015-06-29T20:10:08.582Z</time>
      </trkpt>
      <trkpt lat="48.84541" lon="2.25812">
        <ele>96.5</ele>
        <time>2015-06-29T20:10:09.592Z</time>
      </trkpt>
      <trkpt lat="48.84541" lon="2.25824">
        <ele>96.8</ele>
        <time>2015-06-29T20:10:11.537Z</time>
      </trkpt>
      <trkpt lat="48.84541" lon="2.2583">
        <ele>96.3</ele>
        <time>2015-06-29T20:10:12.564Z</time>
      </trkpt>
      <trkpt lat="48.84541" lon="2.25841">
        <ele>95.7</ele>
        <time>2015-06-29T20:10:14.627Z</time>
      </trkpt>
      <trkpt lat="48.84541" lon="2.25846">
        <ele>95.8</ele>
        <time>2015-06-29T20:10:15.558Z</time>
      </trkpt>
      <trkpt lat="48.84542" lon="2.25856">
        <ele>96.6</ele>
        <time>2015-06-29T20:10:17.539Z</time>
      </trkpt>
      <trkpt lat="48.84542" lon="2.2586">
        <ele>96.9</ele>
        <time>2015-06-29T20:10:18.541Z</time>
      </trkpt>
      <trkpt lat="48.84542" lon="2.25865">
        <ele>98.2</ele>
        <time>2015-06-29T20:10:37.581Z</time>
      </trkpt>
      <trkpt lat="48.84547" lon="2.25871">
        <ele>104</ele>
        <time>2015-06-29T20:10:38.651Z</time>
      </trkpt>
      <trkpt lat="48.84547" lon="2.25882">
        <ele>104.4</ele>
        <time>2015-06-29T20:10:41.543Z</time>
      </trkpt>
      <trkpt lat="48.84548" lon="2.25888">
        <ele>104.3</ele>
        <time>2015-06-29T20:10:42.563Z</time>
      </trkpt>
      <trkpt lat="48.84548" lon="2.259">
        <ele>104.6</ele>
        <time>2015-06-29T20:10:44.591Z</time>
      </trkpt>
      <trkpt lat="48.84548" lon="2.25906">
        <ele>104.7</ele>
        <time>2015-06-29T20:10:45.605Z</time>
      </trkpt>
      <trkpt lat="48.84549" lon="2.25918">
        <ele>105.8</ele>
        <time>2015-06-29T20:10:47.519Z</time>
      </trkpt>
      <trkpt lat="48.8455" lon="2.25924">
        <ele>106.2</ele>
        <time>2015-06-29T20:10:48.549Z</time>
      </trkpt>
      <trkpt lat="48.84549" lon="2.25934">
        <ele>106.6</ele>
        <time>2015-06-29T20:10:50.598Z</time>
      </trkpt>
      <trkpt lat="48.84548" lon="2.25939">
        <ele>106.7</ele>
        <time>2015-06-29T20:10:51.553Z</time>
      </trkpt>
      <trkpt lat="48.84546" lon="2.2595">
        <ele>106.8</ele>
        <time>2015-06-29T20:10:53.532Z</time>
      </trkpt>
      <trkpt lat="48.84545" lon="2.25955">
        <ele>106.9</ele>
        <time>2015-06-29T20:10:54.572Z</time>
      </trkpt>
      <trkpt lat="48.84547" lon="2.25962">
        <ele>106.7</ele>
        <time>2015-06-29T20:10:55.592Z</time>
      </trkpt>
      <trkpt lat="48.84548" lon="2.25969">
        <ele>106.9</ele>
        <time>2015-06-29T20:10:56.616Z</time>
      </trkpt>
      <trkpt lat="48.84549" lon="2.25981">
        <ele>106.9</ele>
        <time>2015-06-29T20:10:58.528Z</time>
      </trkpt>
      <trkpt lat="48.84547" lon="2.25987">
        <ele>106.7</ele>
        <time>2015-06-29T20:10:59.568Z</time>
      </trkpt>
      <trkpt lat="48.84545" lon="2.25997">
        <ele>106.6</ele>
        <time>2015-06-29T20:11:01.558Z</time>
      </trkpt>
      <trkpt lat="48.84545" lon="2.26005">
        <ele>106.2</ele>
        <time>2015-06-29T20:11:02.600Z</time>
      </trkpt>
      <trkpt lat="48.84546" lon="2.26014">
        <ele>106.1</ele>
        <time>2015-06-29T20:11:03.625Z</time>
      </trkpt>
      <trkpt lat="48.84546" lon="2.26022">
        <ele>105.7</ele>
        <time>2015-06-29T20:11:04.627Z</time>
      </trkpt>
      <trkpt lat="48.84545" lon="2.26031">
        <ele>105.3</ele>
        <time>2015-06-29T20:11:05.543Z</time>
      </trkpt>
      <trkpt lat="48.84545" lon="2.26039">
        <ele>104.9</ele>
        <time>2015-06-29T20:11:06.547Z</time>
      </trkpt>
      <trkpt lat="48.84545" lon="2.26046">
        <ele>104.5</ele>
        <time>2015-06-29T20:11:07.550Z</time>
      </trkpt>
      <trkpt lat="48.84545" lon="2.26053">
        <ele>104.2</ele>
        <time>2015-06-29T20:11:08.652Z</time>
      </trkpt>
      <trkpt lat="48.84543" lon="2.26066">
        <ele>104.4</ele>
        <time>2015-06-29T20:11:10.531Z</time>
      </trkpt>
      <trkpt lat="48.8454" lon="2.26074">
        <ele>104.6</ele>
        <time>2015-06-29T20:11:11.601Z</time>
      </trkpt>
      <trkpt lat="48.84538" lon="2.2608">
        <ele>104.2</ele>
        <time>2015-06-29T20:11:12.526Z</time>
      </trkpt>
      <trkpt lat="48.84537" lon="2.26087">
        <ele>103.8</ele>
        <time>2015-06-29T20:11:13.544Z</time>
      </trkpt>
      <trkpt lat="48.84534" lon="2.26099">
        <ele>103.7</ele>
        <time>2015-06-29T20:11:15.569Z</time>
      </trkpt>
      <trkpt lat="48.84538" lon="2.26107">
        <ele>103.9</ele>
        <time>2015-06-29T20:11:16.583Z</time>
      </trkpt>
      <trkpt lat="48.84539" lon="2.26116">
        <ele>103.2</ele>
        <time>2015-06-29T20:11:17.516Z</time>
      </trkpt>
      <trkpt lat="48.84539" lon="2.26124">
        <ele>103</ele>
        <time>2015-06-29T20:11:18.579Z</time>
      </trkpt>
      <trkpt lat="48.84539" lon="2.26132">
        <ele>103.3</ele>
        <time>2015-06-29T20:11:19.519Z</time>
      </trkpt>
      <trkpt lat="48.84539" lon="2.2614">
        <ele>103.2</ele>
        <time>2015-06-29T20:11:20.547Z</time>
      </trkpt>
      <trkpt lat="48.84539" lon="2.26148">
        <ele>103</ele>
        <time>2015-06-29T20:11:21.548Z</time>
      </trkpt>
      <trkpt lat="48.84538" lon="2.26156">
        <ele>102.5</ele>
        <time>2015-06-29T20:11:22.551Z</time>
      </trkpt>
      <trkpt lat="48.84539" lon="2.26164">
        <ele>102.3</ele>
        <time>2015-06-29T20:11:23.565Z</time>
      </trkpt>
      <trkpt lat="48.84538" lon="2.26172">
        <ele>102.6</ele>
        <time>2015-06-29T20:11:24.583Z</time>
      </trkpt>
      <trkpt lat="48.84537" lon="2.26183">
        <ele>102.9</ele>
        <time>2015-06-29T20:11:26.575Z</time>
      </trkpt>
      <trkpt lat="48.84537" lon="2.26188">
        <ele>103</ele>
        <time>2015-06-29T20:11:27.583Z</time>
      </trkpt>
      <trkpt lat="48.84535" lon="2.26201">
        <ele>103.4</ele>
        <time>2015-06-29T20:11:30.553Z</time>
      </trkpt>
      <trkpt lat="48.84536" lon="2.26204">
        <ele>103.4</ele>
        <time>2015-06-29T20:11:31.562Z</time>
      </trkpt>
      <trkpt lat="48.84534" lon="2.26216">
        <ele>102.4</ele>
        <time>2015-06-29T20:11:33.605Z</time>
      </trkpt>
      <trkpt lat="48.84534" lon="2.26223">
        <ele>102.3</ele>
        <time>2015-06-29T20:11:34.560Z</time>
      </trkpt>
      <trkpt lat="48.84534" lon="2.26236">
        <ele>102.1</ele>
        <time>2015-06-29T20:11:36.541Z</time>
      </trkpt>
      <trkpt lat="48.84535" lon="2.26243">
        <ele>101.8</ele>
        <time>2015-06-29T20:11:37.579Z</time>
      </trkpt>
      <trkpt lat="48.84536" lon="2.26251">
        <ele>101.5</ele>
        <time>2015-06-29T20:11:38.625Z</time>
      </trkpt>
      <trkpt lat="48.84536" lon="2.26258">
        <ele>101.2</ele>
        <time>2015-06-29T20:11:39.558Z</time>
      </trkpt>
      <trkpt lat="48.84536" lon="2.26267">
        <ele>101</ele>
        <time>2015-06-29T20:11:40.583Z</time>
      </trkpt>
      <trkpt lat="48.84535" lon="2.26275">
        <ele>100.9</ele>
        <time>2015-06-29T20:11:41.588Z</time>
      </trkpt>
      <trkpt lat="48.84534" lon="2.26284">
        <ele>100.9</ele>
        <time>2015-06-29T20:11:42.511Z</time>
      </trkpt>
      <trkpt lat="48.84533" lon="2.26294">
        <ele>100.7</ele>
        <time>2015-06-29T20:11:43.510Z</time>
      </trkpt>
      <trkpt lat="48.84531" lon="2.26302">
        <ele>100.6</ele>
        <time>2015-06-29T20:11:44.599Z</time>
      </trkpt>
      <trkpt lat="48.8453" lon="2.26312">
        <ele>100</ele>
        <time>2015-06-29T20:11:45.565Z</time>
      </trkpt>
      <trkpt lat="48.8453" lon="2.26322">
        <ele>99.5</ele>
        <time>2015-06-29T20:11:46.587Z</time>
      </trkpt>
      <trkpt lat="48.8453" lon="2.2633">
        <ele>99.3</ele>
        <time>2015-06-29T20:11:47.597Z</time>
      </trkpt>
      <trkpt lat="48.8453" lon="2.26338">
        <ele>98.7</ele>
        <time>2015-06-29T20:11:48.518Z</time>
      </trkpt>
      <trkpt lat="48.8453" lon="2.26346">
        <ele>98.7</ele>
        <time>2015-06-29T20:11:49.516Z</time>
      </trkpt>
      <trkpt lat="48.84529" lon="2.26353">
        <ele>98.6</ele>
        <time>2015-06-29T20:11:50.568Z</time>
      </trkpt>
      <trkpt lat="48.84529" lon="2.2636">
        <ele>98.5</ele>
        <time>2015-06-29T20:11:51.555Z</time>
      </trkpt>
      <trkpt lat="48.84529" lon="2.26368">
        <ele>98.2</ele>
        <time>2015-06-29T20:11:52.563Z</time>
      </trkpt>
      <trkpt lat="48.84528" lon="2.26377">
        <ele>97.7</ele>
        <time>2015-06-29T20:11:53.565Z</time>
      </trkpt>
      <trkpt lat="48.84528" lon="2.26384">
        <ele>97.4</ele>
        <time>2015-06-29T20:11:54.579Z</time>
      </trkpt>
      <trkpt lat="48.84528" lon="2.26393">
        <ele>97.3</ele>
        <time>2015-06-29T20:11:55.605Z</time>
      </trkpt>
      <trkpt lat="48.84529" lon="2.26401">
        <ele>97.3</ele>
        <time>2015-06-29T20:11:56.615Z</time>
      </trkpt>
      <trkpt lat="48.8453" lon="2.2641">
        <ele>97.4</ele>
        <time>2015-06-29T20:11:57.515Z</time>
      </trkpt>
      <trkpt lat="48.8453" lon="2.26419">
        <ele>97.4</ele>
        <time>2015-06-29T20:11:58.533Z</time>
      </trkpt>
      <trkpt lat="48.84529" lon="2.26427">
        <ele>97.4</ele>
        <time>2015-06-29T20:11:59.540Z</time>
      </trkpt>
      <trkpt lat="48.84529" lon="2.26438">
        <ele>98.4</ele>
        <time>2015-06-29T20:12:01.552Z</time>
      </trkpt>
      <trkpt lat="48.84534" lon="2.26443">
        <ele>98.6</ele>
        <time>2015-06-29T20:12:02.568Z</time>
      </trkpt>
      <trkpt lat="48.84536" lon="2.2645">
        <ele>98.4</ele>
        <time>2015-06-29T20:12:03.581Z</time>
      </trkpt>
      <trkpt lat="48.84535" lon="2.26458">
        <ele>98.4</ele>
        <time>2015-06-29T20:12:04.586Z</time>
      </trkpt>
      <trkpt lat="48.84532" lon="2.26468">
        <ele>98.3</ele>
        <time>2015-06-29T20:12:05.516Z</time>
      </trkpt>
      <trkpt lat="48.8453" lon="2.26478">
        <ele>98.2</ele>
        <time>2015-06-29T20:12:06.522Z</time>
      </trkpt>
      <trkpt lat="48.8453" lon="2.26486">
        <ele>98.1</ele>
        <time>2015-06-29T20:12:07.524Z</time>
      </trkpt>
      <trkpt lat="48.84529" lon="2.26495">
        <ele>97.9</ele>
        <time>2015-06-29T20:12:08.570Z</time>
      </trkpt>
      <trkpt lat="48.84529" lon="2.26504">
        <ele>97.9</ele>
        <time>2015-06-29T20:12:09.568Z</time>
      </trkpt>
      <trkpt lat="48.84531" lon="2.26512">
        <ele>98.3</ele>
        <time>2015-06-29T20:12:10.574Z</time>
      </trkpt>
      <trkpt lat="48.84532" lon="2.2652">
        <ele>97.7</ele>
        <time>2015-06-29T20:12:11.579Z</time>
      </trkpt>
      <trkpt lat="48.8453" lon="2.26528">
        <ele>98.3</ele>
        <time>2015-06-29T20:12:12.593Z</time>
      </trkpt>
      <trkpt lat="48.84529" lon="2.26536">
        <ele>98.9</ele>
        <time>2015-06-29T20:12:13.593Z</time>
      </trkpt>
      <trkpt lat="48.84529" lon="2.26544">
        <ele>99</ele>
        <time>2015-06-29T20:12:14.609Z</time>
      </trkpt>
      <trkpt lat="48.8453" lon="2.26552">
        <ele>99</ele>
        <time>2015-06-29T20:12:15.529Z</time>
      </trkpt>
      <trkpt lat="48.84531" lon="2.26561">
        <ele>99.2</ele>
        <time>2015-06-29T20:12:16.516Z</time>
      </trkpt>
      <trkpt lat="48.84532" lon="2.2657">
        <ele>99.5</ele>
        <time>2015-06-29T20:12:17.527Z</time>
      </trkpt>
      <trkpt lat="48.84532" lon="2.26577">
        <ele>99.9</ele>
        <time>2015-06-29T20:12:18.544Z</time>
      </trkpt>
      <trkpt lat="48.84531" lon="2.26584">
        <ele>99.6</ele>
        <time>2015-06-29T20:12:19.584Z</time>
      </trkpt>
      <trkpt lat="48.84529" lon="2.26591">
        <ele>99.3</ele>
        <time>2015-06-29T20:12:20.578Z</time>
      </trkpt>
      <trkpt lat="48.84529" lon="2.266">
        <ele>99.2</ele>
        <time>2015-06-29T20:12:21.592Z</time>
      </trkpt>
      <trkpt lat="48.84528" lon="2.26609">
        <ele>99.3</ele>
        <time>2015-06-29T20:12:22.627Z</time>
      </trkpt>
      <trkpt lat="48.84527" lon="2.26618">
        <ele>99.2</ele>
        <time>2015-06-29T20:12:23.531Z</time>
      </trkpt>
      <trkpt lat="48.84527" lon="2.26626">
        <ele>99.2</ele>
        <time>2015-06-29T20:12:24.516Z</time>
      </trkpt>
      <trkpt lat="48.84527" lon="2.26635">
        <ele>99.1</ele>
        <time>2015-06-29T20:12:25.541Z</time>
      </trkpt>
      <trkpt lat="48.84526" lon="2.26644">
        <ele>98.7</ele>
        <time>2015-06-29T20:12:26.563Z</time>
      </trkpt>
      <trkpt lat="48.84524" lon="2.26652">
        <ele>98.5</ele>
        <time>2015-06-29T20:12:27.567Z</time>
      </trkpt>
      <trkpt lat="48.84523" lon="2.26659">
        <ele>98</ele>
        <time>2015-06-29T20:12:28.569Z</time>
      </trkpt>
      <trkpt lat="48.84522" lon="2.2667">
        <ele>98.1</ele>
        <time>2015-06-29T20:12:30.518Z</time>
      </trkpt>
      <trkpt lat="48.84524" lon="2.26675">
        <ele>98</ele>
        <time>2015-06-29T20:12:31.542Z</time>
      </trkpt>
      <trkpt lat="48.84528" lon="2.26682">
        <ele>97.9</ele>
        <time>2015-06-29T20:12:33.582Z</time>
      </trkpt>
      <trkpt lat="48.84531" lon="2.26684">
        <ele>97.7</ele>
        <time>2015-06-29T20:12:34.652Z</time>
      </trkpt>
      <trkpt lat="48.84534" lon="2.26693">
        <ele>97.3</ele>
        <time>2015-06-29T20:12:37.557Z</time>
      </trkpt>
      <trkpt lat="48.84538" lon="2.267">
        <ele>97.1</ele>
        <time>2015-06-29T20:12:38.587Z</time>
      </trkpt>
      <trkpt lat="48.84541" lon="2.26706">
        <ele>96.8</ele>
        <time>2015-06-29T20:12:39.520Z</time>
      </trkpt>
      <trkpt lat="48.84544" lon="2.26713">
        <ele>96.5</ele>
        <time>2015-06-29T20:12:40.510Z</time>
      </trkpt>
      <trkpt lat="48.84547" lon="2.2672">
        <ele>96.2</ele>
        <time>2015-06-29T20:12:41.524Z</time>
      </trkpt>
      <trkpt lat="48.84549" lon="2.26727">
        <ele>96</ele>
        <time>2015-06-29T20:12:42.533Z</time>
      </trkpt>
      <trkpt lat="48.84551" lon="2.26733">
        <ele>95.5</ele>
        <time>2015-06-29T20:12:43.548Z</time>
      </trkpt>
      <trkpt lat="48.84554" lon="2.26739">
        <ele>95.4</ele>
        <time>2015-06-29T20:12:44.562Z</time>
      </trkpt>
      <trkpt lat="48.84556" lon="2.26751">
        <ele>94.3</ele>
        <time>2015-06-29T20:12:46.564Z</time>
      </trkpt>
      <trkpt lat="48.84559" lon="2.26756">
        <ele>94.2</ele>
        <time>2015-06-29T20:12:47.574Z</time>
      </trkpt>
      <trkpt lat="48.84562" lon="2.26768">
        <ele>94.9</ele>
        <time>2015-06-29T20:12:49.558Z</time>
      </trkpt>
      <trkpt lat="48.84564" lon="2.26773">
        <ele>94.8</ele>
        <time>2015-06-29T20:12:50.654Z</time>
      </trkpt>
      <trkpt lat="48.84566" lon="2.26779">
        <ele>94.9</ele>
        <time>2015-06-29T20:12:51.520Z</time>
      </trkpt>
      <trkpt lat="48.84569" lon="2.26786">
        <ele>94.7</ele>
        <time>2015-06-29T20:12:52.527Z</time>
      </trkpt>
      <trkpt lat="48.84572" lon="2.26798">
        <ele>94.7</ele>
        <time>2015-06-29T20:12:54.540Z</time>
      </trkpt>
      <trkpt lat="48.84574" lon="2.26802">
        <ele>94.9</ele>
        <time>2015-06-29T20:12:55.550Z</time>
      </trkpt>
      <trkpt lat="48.84576" lon="2.26814">
        <ele>94.5</ele>
        <time>2015-06-29T20:12:57.592Z</time>
      </trkpt>
      <trkpt lat="48.84578" lon="2.26821">
        <ele>94.4</ele>
        <time>2015-06-29T20:12:58.602Z</time>
      </trkpt>
      <trkpt lat="48.84581" lon="2.26829">
        <ele>94.4</ele>
        <time>2015-06-29T20:12:59.529Z</time>
      </trkpt>
      <trkpt lat="48.84584" lon="2.26836">
        <ele>94.4</ele>
        <time>2015-06-29T20:13:00.527Z</time>
      </trkpt>
      <trkpt lat="48.84585" lon="2.26843">
        <ele>94.3</ele>
        <time>2015-06-29T20:13:01.641Z</time>
      </trkpt>
      <trkpt lat="48.84587" lon="2.2685">
        <ele>94.2</ele>
        <time>2015-06-29T20:13:02.604Z</time>
      </trkpt>
      <trkpt lat="48.84589" lon="2.26857">
        <ele>94</ele>
        <time>2015-06-29T20:13:03.551Z</time>
      </trkpt>
      <trkpt lat="48.84592" lon="2.26864">
        <ele>93.7</ele>
        <time>2015-06-29T20:13:04.567Z</time>
      </trkpt>
      <trkpt lat="48.84594" lon="2.26876">
        <ele>93.7</ele>
        <time>2015-06-29T20:13:06.590Z</time>
      </trkpt>
      <trkpt lat="48.84596" lon="2.26883">
        <ele>93.6</ele>
        <time>2015-06-29T20:13:07.778Z</time>
      </trkpt>
      <trkpt lat="48.84598" lon="2.2689">
        <ele>93.6</ele>
        <time>2015-06-29T20:13:08.617Z</time>
      </trkpt>
      <trkpt lat="48.84601" lon="2.26898">
        <ele>93.1</ele>
        <time>2015-06-29T20:13:09.514Z</time>
      </trkpt>
      <trkpt lat="48.84603" lon="2.26905">
        <ele>92.4</ele>
        <time>2015-06-29T20:13:10.527Z</time>
      </trkpt>
      <trkpt lat="48.84605" lon="2.26912">
        <ele>92.4</ele>
        <time>2015-06-29T20:13:11.539Z</time>
      </trkpt>
      <trkpt lat="48.84608" lon="2.2692">
        <ele>92.4</ele>
        <time>2015-06-29T20:13:12.629Z</time>
      </trkpt>
      <trkpt lat="48.84612" lon="2.26929">
        <ele>92.4</ele>
        <time>2015-06-29T20:13:13.559Z</time>
      </trkpt>
      <trkpt lat="48.84615" lon="2.26937">
        <ele>92.4</ele>
        <time>2015-06-29T20:13:14.572Z</time>
      </trkpt>
      <trkpt lat="48.84618" lon="2.26945">
        <ele>92.5</ele>
        <time>2015-06-29T20:13:15.577Z</time>
      </trkpt>
      <trkpt lat="48.84619" lon="2.26957">
        <ele>92.3</ele>
        <time>2015-06-29T20:13:17.517Z</time>
      </trkpt>
      <trkpt lat="48.8462" lon="2.26966">
        <ele>92.1</ele>
        <time>2015-06-29T20:13:18.519Z</time>
      </trkpt>
      <trkpt lat="48.84621" lon="2.26975">
        <ele>91.7</ele>
        <time>2015-06-29T20:13:19.548Z</time>
      </trkpt>
      <trkpt lat="48.84623" lon="2.26984">
        <ele>91.2</ele>
        <time>2015-06-29T20:13:20.540Z</time>
      </trkpt>
      <trkpt lat="48.84625" lon="2.26993">
        <ele>90.9</ele>
        <time>2015-06-29T20:13:21.559Z</time>
      </trkpt>
      <trkpt lat="48.84628" lon="2.27001">
        <ele>90.8</ele>
        <time>2015-06-29T20:13:22.567Z</time>
      </trkpt>
      <trkpt lat="48.8463" lon="2.27007">
        <ele>90.6</ele>
        <time>2015-06-29T20:13:23.576Z</time>
      </trkpt>
      <trkpt lat="48.84633" lon="2.27013">
        <ele>90.7</ele>
        <time>2015-06-29T20:13:24.596Z</time>
      </trkpt>
      <trkpt lat="48.84635" lon="2.2702">
        <ele>90.8</ele>
        <time>2015-06-29T20:13:25.514Z</time>
      </trkpt>
      <trkpt lat="48.84638" lon="2.27027">
        <ele>90.8</ele>
        <time>2015-06-29T20:13:26.567Z</time>
      </trkpt>
      <trkpt lat="48.84641" lon="2.27033">
        <ele>90.5</ele>
        <time>2015-06-29T20:13:27.560Z</time>
      </trkpt>
      <trkpt lat="48.84644" lon="2.2704">
        <ele>90.2</ele>
        <time>2015-06-29T20:13:28.657Z</time>
      </trkpt>
      <trkpt lat="48.84647" lon="2.27046">
        <ele>89.6</ele>
        <time>2015-06-29T20:13:29.550Z</time>
      </trkpt>
      <trkpt lat="48.84649" lon="2.27053">
        <ele>89.7</ele>
        <time>2015-06-29T20:13:30.566Z</time>
      </trkpt>
      <trkpt lat="48.84652" lon="2.2706">
        <ele>89.8</ele>
        <time>2015-06-29T20:13:31.569Z</time>
      </trkpt>
      <trkpt lat="48.84654" lon="2.27067">
        <ele>90.1</ele>
        <time>2015-06-29T20:13:32.621Z</time>
      </trkpt>
      <trkpt lat="48.84657" lon="2.27073">
        <ele>90.3</ele>
        <time>2015-06-29T20:13:33.518Z</time>
      </trkpt>
      <trkpt lat="48.8466" lon="2.2708">
        <ele>90.3</ele>
        <time>2015-06-29T20:13:34.522Z</time>
      </trkpt>
      <trkpt lat="48.84661" lon="2.27088">
        <ele>90.5</ele>
        <time>2015-06-29T20:13:35.537Z</time>
      </trkpt>
      <trkpt lat="48.84662" lon="2.27095">
        <ele>90.7</ele>
        <time>2015-06-29T20:13:36.548Z</time>
      </trkpt>
      <trkpt lat="48.84664" lon="2.27102">
        <ele>90.8</ele>
        <time>2015-06-29T20:13:37.561Z</time>
      </trkpt>
      <trkpt lat="48.84666" lon="2.27109">
        <ele>90.8</ele>
        <time>2015-06-29T20:13:38.573Z</time>
      </trkpt>
      <trkpt lat="48.84669" lon="2.27116">
        <ele>91.1</ele>
        <time>2015-06-29T20:13:39.539Z</time>
      </trkpt>
      <trkpt lat="48.84671" lon="2.27121">
        <ele>91.2</ele>
        <time>2015-06-29T20:13:40.519Z</time>
      </trkpt>
      <trkpt lat="48.84675" lon="2.27126">
        <ele>91.4</ele>
        <time>2015-06-29T20:13:41.542Z</time>
      </trkpt>
      <trkpt lat="48.84677" lon="2.27133">
        <ele>91.5</ele>
        <time>2015-06-29T20:13:42.559Z</time>
      </trkpt>
      <trkpt lat="48.84681" lon="2.2714">
        <ele>91.6</ele>
        <time>2015-06-29T20:13:43.577Z</time>
      </trkpt>
      <trkpt lat="48.84684" lon="2.27148">
        <ele>91.7</ele>
        <time>2015-06-29T20:13:44.592Z</time>
      </trkpt>
      <trkpt lat="48.84687" lon="2.27154">
        <ele>91.9</ele>
        <time>2015-06-29T20:13:45.508Z</time>
      </trkpt>
      <trkpt lat="48.8469" lon="2.27161">
        <ele>91.9</ele>
        <time>2015-06-29T20:13:46.514Z</time>
      </trkpt>
      <trkpt lat="48.84692" lon="2.27169">
        <ele>92</ele>
        <time>2015-06-29T20:13:47.515Z</time>
      </trkpt>
      <trkpt lat="48.84693" lon="2.27177">
        <ele>92.1</ele>
        <time>2015-06-29T20:13:48.518Z</time>
      </trkpt>
      <trkpt lat="48.84694" lon="2.27185">
        <ele>92.3</ele>
        <time>2015-06-29T20:13:49.528Z</time>
      </trkpt>
      <trkpt lat="48.84696" lon="2.27191">
        <ele>92.4</ele>
        <time>2015-06-29T20:13:50.565Z</time>
      </trkpt>
      <trkpt lat="48.84697" lon="2.27198">
        <ele>92.4</ele>
        <time>2015-06-29T20:13:51.563Z</time>
      </trkpt>
      <trkpt lat="48.84699" lon="2.27204">
        <ele>92.6</ele>
        <time>2015-06-29T20:13:52.576Z</time>
      </trkpt>
      <trkpt lat="48.84701" lon="2.27211">
        <ele>92.9</ele>
        <time>2015-06-29T20:13:53.623Z</time>
      </trkpt>
      <trkpt lat="48.84705" lon="2.27217">
        <ele>93.3</ele>
        <time>2015-06-29T20:13:54.520Z</time>
      </trkpt>
      <trkpt lat="48.84707" lon="2.27224">
        <ele>93.4</ele>
        <time>2015-06-29T20:13:55.534Z</time>
      </trkpt>
      <trkpt lat="48.84709" lon="2.2723">
        <ele>93.7</ele>
        <time>2015-06-29T20:13:56.586Z</time>
      </trkpt>
      <trkpt lat="48.84713" lon="2.27241">
        <ele>94.1</ele>
        <time>2015-06-29T20:13:58.513Z</time>
      </trkpt>
      <trkpt lat="48.84714" lon="2.27247">
        <ele>94.4</ele>
        <time>2015-06-29T20:13:59.529Z</time>
      </trkpt>
      <trkpt lat="48.84717" lon="2.2726">
        <ele>94.7</ele>
        <time>2015-06-29T20:14:01.558Z</time>
      </trkpt>
      <trkpt lat="48.84719" lon="2.27266">
        <ele>94.4</ele>
        <time>2015-06-29T20:14:02.577Z</time>
      </trkpt>
      <trkpt lat="48.84723" lon="2.27278">
        <ele>94.3</ele>
        <time>2015-06-29T20:14:04.504Z</time>
      </trkpt>
      <trkpt lat="48.84724" lon="2.27283">
        <ele>94.2</ele>
        <time>2015-06-29T20:14:05.508Z</time>
      </trkpt>
      <trkpt lat="48.84726" lon="2.27289">
        <ele>94.1</ele>
        <time>2015-06-29T20:14:06.509Z</time>
      </trkpt>
      <trkpt lat="48.84728" lon="2.27296">
        <ele>94.1</ele>
        <time>2015-06-29T20:14:07.597Z</time>
      </trkpt>
      <trkpt lat="48.84731" lon="2.27304">
        <ele>94.3</ele>
        <time>2015-06-29T20:14:08.613Z</time>
      </trkpt>
      <trkpt lat="48.84733" lon="2.27311">
        <ele>94</ele>
        <time>2015-06-29T20:14:09.516Z</time>
      </trkpt>
      <trkpt lat="48.84736" lon="2.27323">
        <ele>94.5</ele>
        <time>2015-06-29T20:14:11.599Z</time>
      </trkpt>
      <trkpt lat="48.84737" lon="2.27329">
        <ele>94.5</ele>
        <time>2015-06-29T20:14:12.739Z</time>
      </trkpt>
      <trkpt lat="48.84739" lon="2.27339">
        <ele>95.6</ele>
        <time>2015-06-29T20:14:14.563Z</time>
      </trkpt>
      <trkpt lat="48.8474" lon="2.27345">
        <ele>96.4</ele>
        <time>2015-06-29T20:14:15.554Z</time>
      </trkpt>
      <trkpt lat="48.84746" lon="2.2735">
        <ele>96.3</ele>
        <time>2015-06-29T20:14:19.599Z</time>
      </trkpt>
      <trkpt lat="48.84748" lon="2.27352">
        <ele>95.9</ele>
        <time>2015-06-29T20:14:20.600Z</time>
      </trkpt>
      <trkpt lat="48.84755" lon="2.27359">
        <ele>94.8</ele>
        <time>2015-06-29T20:14:24.595Z</time>
      </trkpt>
      <trkpt lat="48.84757" lon="2.27362">
        <ele>94.9</ele>
        <time>2015-06-29T20:14:25.606Z</time>
      </trkpt>
      <trkpt lat="48.8476" lon="2.2737">
        <ele>94.5</ele>
        <time>2015-06-29T20:14:27.513Z</time>
      </trkpt>
      <trkpt lat="48.84761" lon="2.27374">
        <ele>94.8</ele>
        <time>2015-06-29T20:14:28.542Z</time>
      </trkpt>
      <trkpt lat="48.84764" lon="2.27384">
        <ele>95.3</ele>
        <time>2015-06-29T20:14:31.542Z</time>
      </trkpt>
      <trkpt lat="48.84766" lon="2.27388">
        <ele>95.5</ele>
        <time>2015-06-29T20:14:32.570Z</time>
      </trkpt>
      <trkpt lat="48.8477" lon="2.27396">
        <ele>96</ele>
        <time>2015-06-29T20:14:34.570Z</time>
      </trkpt>
      <trkpt lat="48.84773" lon="2.274">
        <ele>96.1</ele>
        <time>2015-06-29T20:14:35.581Z</time>
      </trkpt>
      <trkpt lat="48.84777" lon="2.27403">
        <ele>96.3</ele>
        <time>2015-06-29T20:14:36.596Z</time>
      </trkpt>
      <trkpt lat="48.84781" lon="2.27407">
        <ele>96.4</ele>
        <time>2015-06-29T20:14:37.607Z</time>
      </trkpt>
      <trkpt lat="48.84785" lon="2.2741">
        <ele>96.9</ele>
        <time>2015-06-29T20:14:38.619Z</time>
      </trkpt>
      <trkpt lat="48.84789" lon="2.27414">
        <ele>97.2</ele>
        <time>2015-06-29T20:14:39.508Z</time>
      </trkpt>
      <trkpt lat="48.84795" lon="2.27421">
        <ele>98</ele>
        <time>2015-06-29T20:14:41.521Z</time>
      </trkpt>
      <trkpt lat="48.84799" lon="2.27424">
        <ele>98.4</ele>
        <time>2015-06-29T20:14:42.540Z</time>
      </trkpt>
      <trkpt lat="48.84804" lon="2.27429">
        <ele>99.3</ele>
        <time>2015-06-29T20:14:44.642Z</time>
      </trkpt>
      <trkpt lat="48.84808" lon="2.27432">
        <ele>100</ele>
        <time>2015-06-29T20:14:45.525Z</time>
      </trkpt>
      <trkpt lat="48.84812" lon="2.27437">
        <ele>100.8</ele>
        <time>2015-06-29T20:14:47.551Z</time>
      </trkpt>
      <trkpt lat="48.84815" lon="2.2744">
        <ele>101.5</ele>
        <time>2015-06-29T20:14:48.652Z</time>
      </trkpt>
      <trkpt lat="48.8482" lon="2.27443">
        <ele>101.4</ele>
        <time>2015-06-29T20:14:49.523Z</time>
      </trkpt>
      <trkpt lat="48.84825" lon="2.27444">
        <ele>100.8</ele>
        <time>2015-06-29T20:14:50.530Z</time>
      </trkpt>
      <trkpt lat="48.84829" lon="2.27448">
        <ele>101</ele>
        <time>2015-06-29T20:14:51.550Z</time>
      </trkpt>
      <trkpt lat="48.84834" lon="2.27452">
        <ele>101</ele>
        <time>2015-06-29T20:14:52.559Z</time>
      </trkpt>
      <trkpt lat="48.8484" lon="2.27457">
        <ele>101</ele>
        <time>2015-06-29T20:14:53.565Z</time>
      </trkpt>
      <trkpt lat="48.84845" lon="2.27462">
        <ele>100.7</ele>
        <time>2015-06-29T20:14:54.574Z</time>
      </trkpt>
      <trkpt lat="48.84851" lon="2.27467">
        <ele>100.3</ele>
        <time>2015-06-29T20:14:55.587Z</time>
      </trkpt>
      <trkpt lat="48.84856" lon="2.27472">
        <ele>100.2</ele>
        <time>2015-06-29T20:14:56.597Z</time>
      </trkpt>
      <trkpt lat="48.8486" lon="2.27477">
        <ele>100.5</ele>
        <time>2015-06-29T20:14:57.538Z</time>
      </trkpt>
      <trkpt lat="48.84865" lon="2.27483">
        <ele>100.9</ele>
        <time>2015-06-29T20:14:58.542Z</time>
      </trkpt>
      <trkpt lat="48.84869" lon="2.27487">
        <ele>101.3</ele>
        <time>2015-06-29T20:14:59.552Z</time>
      </trkpt>
      <trkpt lat="48.84874" lon="2.27491">
        <ele>101.3</ele>
        <time>2015-06-29T20:15:00.575Z</time>
      </trkpt>
      <trkpt lat="48.84878" lon="2.27495">
        <ele>101.7</ele>
        <time>2015-06-29T20:15:01.592Z</time>
      </trkpt>
      <trkpt lat="48.84882" lon="2.275">
        <ele>102.1</ele>
        <time>2015-06-29T20:15:02.598Z</time>
      </trkpt>
      <trkpt lat="48.84889" lon="2.27508">
        <ele>102.8</ele>
        <time>2015-06-29T20:15:04.555Z</time>
      </trkpt>
      <trkpt lat="48.84893" lon="2.27511">
        <ele>103.3</ele>
        <time>2015-06-29T20:15:05.574Z</time>
      </trkpt>
      <trkpt lat="48.84897" lon="2.27516">
        <ele>103.7</ele>
        <time>2015-06-29T20:15:06.516Z</time>
      </trkpt>
      <trkpt lat="48.849" lon="2.27521">
        <ele>103.9</ele>
        <time>2015-06-29T20:15:07.503Z</time>
      </trkpt>
      <trkpt lat="48.84906" lon="2.27527">
        <ele>104.2</ele>
        <time>2015-06-29T20:15:08.553Z</time>
      </trkpt>
      <trkpt lat="48.84911" lon="2.27531">
        <ele>104</ele>
        <time>2015-06-29T20:15:09.562Z</time>
      </trkpt>
      <trkpt lat="48.84917" lon="2.27538">
        <ele>104.2</ele>
        <time>2015-06-29T20:15:10.573Z</time>
      </trkpt>
      <trkpt lat="48.84922" lon="2.27545">
        <ele>104.6</ele>
        <time>2015-06-29T20:15:11.585Z</time>
      </trkpt>
      <trkpt lat="48.84927" lon="2.27552">
        <ele>104.9</ele>
        <time>2015-06-29T20:15:12.518Z</time>
      </trkpt>
      <trkpt lat="48.84933" lon="2.27559">
        <ele>105</ele>
        <time>2015-06-29T20:15:13.546Z</time>
      </trkpt>
      <trkpt lat="48.84938" lon="2.27565">
        <ele>105.2</ele>
        <time>2015-06-29T20:15:14.562Z</time>
      </trkpt>
      <trkpt lat="48.84942" lon="2.2757">
        <ele>105.5</ele>
        <time>2015-06-29T20:15:15.563Z</time>
      </trkpt>
      <trkpt lat="48.84947" lon="2.27575">
        <ele>105.9</ele>
        <time>2015-06-29T20:15:16.572Z</time>
      </trkpt>
      <trkpt lat="48.84952" lon="2.2758">
        <ele>106.5</ele>
        <time>2015-06-29T20:15:17.583Z</time>
      </trkpt>
      <trkpt lat="48.84957" lon="2.27586">
        <ele>106.7</ele>
        <time>2015-06-29T20:15:18.604Z</time>
      </trkpt>
      <trkpt lat="48.84961" lon="2.27591">
        <ele>107</ele>
        <time>2015-06-29T20:15:19.516Z</time>
      </trkpt>
      <trkpt lat="48.84965" lon="2.27594">
        <ele>107.3</ele>
        <time>2015-06-29T20:15:20.622Z</time>
      </trkpt>
      <trkpt lat="48.84971" lon="2.27596">
        <ele>106.9</ele>
        <time>2015-06-29T20:15:21.489Z</time>
      </trkpt>
      <trkpt lat="48.84978" lon="2.27598">
        <ele>107.1</ele>
        <time>2015-06-29T20:15:23.546Z</time>
      </trkpt>
      <trkpt lat="48.84982" lon="2.27601">
        <ele>107.5</ele>
        <time>2015-06-29T20:15:24.556Z</time>
      </trkpt>
      <trkpt lat="48.84986" lon="2.27605">
        <ele>107.6</ele>
        <time>2015-06-29T20:15:25.562Z</time>
      </trkpt>
      <trkpt lat="48.84991" lon="2.27609">
        <ele>107.8</ele>
        <time>2015-06-29T20:15:26.568Z</time>
      </trkpt>
      <trkpt lat="48.84995" lon="2.27614">
        <ele>107.9</ele>
        <time>2015-06-29T20:15:27.581Z</time>
      </trkpt>
      <trkpt lat="48.84999" lon="2.27618">
        <ele>107.6</ele>
        <time>2015-06-29T20:15:28.585Z</time>
      </trkpt>
      <trkpt lat="48.85002" lon="2.27624">
        <ele>107.5</ele>
        <time>2015-06-29T20:15:29.573Z</time>
      </trkpt>
      <trkpt lat="48.85007" lon="2.27627">
        <ele>106.5</ele>
        <time>2015-06-29T20:15:30.541Z</time>
      </trkpt>
      <trkpt lat="48.85013" lon="2.27634">
        <ele>106.4</ele>
        <time>2015-06-29T20:15:32.565Z</time>
      </trkpt>
      <trkpt lat="48.85016" lon="2.27642">
        <ele>106.8</ele>
        <time>2015-06-29T20:15:33.564Z</time>
      </trkpt>
      <trkpt lat="48.85019" lon="2.2765">
        <ele>107.1</ele>
        <time>2015-06-29T20:15:34.520Z</time>
      </trkpt>
      <trkpt lat="48.85023" lon="2.27656">
        <ele>107.4</ele>
        <time>2015-06-29T20:15:35.516Z</time>
      </trkpt>
      <trkpt lat="48.85027" lon="2.27663">
        <ele>107.9</ele>
        <time>2015-06-29T20:15:36.522Z</time>
      </trkpt>
      <trkpt lat="48.85031" lon="2.2767">
        <ele>108.1</ele>
        <time>2015-06-29T20:15:37.527Z</time>
      </trkpt>
      <trkpt lat="48.85037" lon="2.27678">
        <ele>108.3</ele>
        <time>2015-06-29T20:15:38.559Z</time>
      </trkpt>
      <trkpt lat="48.85042" lon="2.27686">
        <ele>108.2</ele>
        <time>2015-06-29T20:15:39.556Z</time>
      </trkpt>
      <trkpt lat="48.85046" lon="2.27694">
        <ele>108.4</ele>
        <time>2015-06-29T20:15:40.567Z</time>
      </trkpt>
      <trkpt lat="48.85053" lon="2.27704">
        <ele>108.2</ele>
        <time>2015-06-29T20:15:41.578Z</time>
      </trkpt>
      <trkpt lat="48.85058" lon="2.27712">
        <ele>108.4</ele>
        <time>2015-06-29T20:15:42.595Z</time>
      </trkpt>
      <trkpt lat="48.85063" lon="2.27721">
        <ele>108.1</ele>
        <time>2015-06-29T20:15:43.599Z</time>
      </trkpt>
      <trkpt lat="48.85066" lon="2.27728">
        <ele>108.7</ele>
        <time>2015-06-29T20:15:44.605Z</time>
      </trkpt>
      <trkpt lat="48.85069" lon="2.27736">
        <ele>108.9</ele>
        <time>2015-06-29T20:15:45.518Z</time>
      </trkpt>
      <trkpt lat="48.85073" lon="2.27742">
        <ele>109.3</ele>
        <time>2015-06-29T20:15:46.512Z</time>
      </trkpt>
      <trkpt lat="48.85077" lon="2.27749">
        <ele>109.2</ele>
        <time>2015-06-29T20:15:47.518Z</time>
      </trkpt>
      <trkpt lat="48.85083" lon="2.27757">
        <ele>108.8</ele>
        <time>2015-06-29T20:15:48.530Z</time>
      </trkpt>
      <trkpt lat="48.85088" lon="2.27765">
        <ele>108.4</ele>
        <time>2015-06-29T20:15:49.534Z</time>
      </trkpt>
      <trkpt lat="48.85092" lon="2.27772">
        <ele>108.1</ele>
        <time>2015-06-29T20:15:50.565Z</time>
      </trkpt>
      <trkpt lat="48.85096" lon="2.27778">
        <ele>108.3</ele>
        <time>2015-06-29T20:15:51.571Z</time>
      </trkpt>
      <trkpt lat="48.851" lon="2.27784">
        <ele>108.4</ele>
        <time>2015-06-29T20:15:52.585Z</time>
      </trkpt>
      <trkpt lat="48.85103" lon="2.2779">
        <ele>108.4</ele>
        <time>2015-06-29T20:15:53.598Z</time>
      </trkpt>
      <trkpt lat="48.85107" lon="2.27796">
        <ele>109</ele>
        <time>2015-06-29T20:15:54.515Z</time>
      </trkpt>
      <trkpt lat="48.8511" lon="2.27802">
        <ele>109.1</ele>
        <time>2015-06-29T20:15:55.512Z</time>
      </trkpt>
      <trkpt lat="48.85113" lon="2.27808">
        <ele>108.6</ele>
        <time>2015-06-29T20:15:56.561Z</time>
      </trkpt>
      <trkpt lat="48.85118" lon="2.27813">
        <ele>108</ele>
        <time>2015-06-29T20:15:57.571Z</time>
      </trkpt>
      <trkpt lat="48.85124" lon="2.27823">
        <ele>108.8</ele>
        <time>2015-06-29T20:15:59.582Z</time>
      </trkpt>
      <trkpt lat="48.85125" lon="2.27826">
        <ele>108.9</ele>
        <time>2015-06-29T20:16:00.602Z</time>
      </trkpt>
      <trkpt lat="48.8513" lon="2.27838">
        <ele>109.1</ele>
        <time>2015-06-29T20:16:03.531Z</time>
      </trkpt>
      <trkpt lat="48.85132" lon="2.27839">
        <ele>108.3</ele>
        <time>2015-06-29T20:16:04.543Z</time>
      </trkpt>
      <trkpt lat="48.85135" lon="2.27851">
        <ele>101.1</ele>
        <time>2015-06-29T20:16:17.589Z</time>
      </trkpt>
      <trkpt lat="48.85137" lon="2.27853">
        <ele>100.5</ele>
        <time>2015-06-29T20:16:18.498Z</time>
      </trkpt>
      <trkpt lat="48.85143" lon="2.2786">
        <ele>100.2</ele>
        <time>2015-06-29T20:16:21.539Z</time>
      </trkpt>
      <trkpt lat="48.85144" lon="2.27861">
        <ele>100</ele>
        <time>2015-06-29T20:16:22.587Z</time>
      </trkpt>
      <trkpt lat="48.85151" lon="2.27868">
        <ele>100.5</ele>
        <time>2015-06-29T20:16:27.560Z</time>
      </trkpt>
      <trkpt lat="48.85154" lon="2.27871">
        <ele>101.4</ele>
        <time>2015-06-29T20:16:28.564Z</time>
      </trkpt>
      <trkpt lat="48.85157" lon="2.27879">
        <ele>102</ele>
        <time>2015-06-29T20:16:30.577Z</time>
      </trkpt>
      <trkpt lat="48.85159" lon="2.27883">
        <ele>102.2</ele>
        <time>2015-06-29T20:16:31.585Z</time>
      </trkpt>
      <trkpt lat="48.85165" lon="2.27892">
        <ele>103</ele>
        <time>2015-06-29T20:16:33.509Z</time>
      </trkpt>
      <trkpt lat="48.85169" lon="2.27897">
        <ele>103.9</ele>
        <time>2015-06-29T20:16:34.529Z</time>
      </trkpt>
      <trkpt lat="48.85172" lon="2.27902">
        <ele>104.8</ele>
        <time>2015-06-29T20:16:35.574Z</time>
      </trkpt>
      <trkpt lat="48.85175" lon="2.27906">
        <ele>105.3</ele>
        <time>2015-06-29T20:16:36.583Z</time>
      </trkpt>
      <trkpt lat="48.85178" lon="2.27911">
        <ele>106.1</ele>
        <time>2015-06-29T20:16:37.586Z</time>
      </trkpt>
      <trkpt lat="48.85182" lon="2.27916">
        <ele>106.2</ele>
        <time>2015-06-29T20:16:38.595Z</time>
      </trkpt>
      <trkpt lat="48.85187" lon="2.27921">
        <ele>107.2</ele>
        <time>2015-06-29T20:16:39.513Z</time>
      </trkpt>
      <trkpt lat="48.85191" lon="2.27924">
        <ele>108.2</ele>
        <time>2015-06-29T20:16:40.519Z</time>
      </trkpt>
      <trkpt lat="48.85196" lon="2.27932">
        <ele>109.1</ele>
        <time>2015-06-29T20:16:42.534Z</time>
      </trkpt>
      <trkpt lat="48.85199" lon="2.27936">
        <ele>109.6</ele>
        <time>2015-06-29T20:16:43.553Z</time>
      </trkpt>
      <trkpt lat="48.85205" lon="2.27944">
        <ele>110.5</ele>
        <time>2015-06-29T20:16:46.598Z</time>
      </trkpt>
      <trkpt lat="48.85207" lon="2.27946">
        <ele>110.9</ele>
        <time>2015-06-29T20:16:47.610Z</time>
      </trkpt>
      <trkpt lat="48.85208" lon="2.27954">
        <ele>111.7</ele>
        <time>2015-06-29T20:16:49.548Z</time>
      </trkpt>
      <trkpt lat="48.8521" lon="2.27959">
        <ele>112</ele>
        <time>2015-06-29T20:16:50.688Z</time>
      </trkpt>
      <trkpt lat="48.85214" lon="2.27969">
        <ele>112.4</ele>
        <time>2015-06-29T20:16:52.563Z</time>
      </trkpt>
      <trkpt lat="48.85218" lon="2.27976">
        <ele>112.2</ele>
        <time>2015-06-29T20:16:53.706Z</time>
      </trkpt>
      <trkpt lat="48.85223" lon="2.27986">
        <ele>111.5</ele>
        <time>2015-06-29T20:16:55.577Z</time>
      </trkpt>
      <trkpt lat="48.85226" lon="2.27993">
        <ele>111.5</ele>
        <time>2015-06-29T20:16:56.667Z</time>
      </trkpt>
      <trkpt lat="48.85229" lon="2.28">
        <ele>111.8</ele>
        <time>2015-06-29T20:16:57.518Z</time>
      </trkpt>
      <trkpt lat="48.85233" lon="2.28007">
        <ele>111.8</ele>
        <time>2015-06-29T20:16:58.515Z</time>
      </trkpt>
      <trkpt lat="48.85238" lon="2.28013">
        <ele>111</ele>
        <time>2015-06-29T20:16:59.545Z</time>
      </trkpt>
      <trkpt lat="48.85242" lon="2.28019">
        <ele>110.2</ele>
        <time>2015-06-29T20:17:00.561Z</time>
      </trkpt>
      <trkpt lat="48.85247" lon="2.28026">
        <ele>109.4</ele>
        <time>2015-06-29T20:17:01.584Z</time>
      </trkpt>
      <trkpt lat="48.85252" lon="2.28033">
        <ele>108.4</ele>
        <time>2015-06-29T20:17:02.614Z</time>
      </trkpt>
      <trkpt lat="48.85256" lon="2.28039">
        <ele>107.5</ele>
        <time>2015-06-29T20:17:03.534Z</time>
      </trkpt>
      <trkpt lat="48.8526" lon="2.28047">
        <ele>106.8</ele>
        <time>2015-06-29T20:17:04.533Z</time>
      </trkpt>
      <trkpt lat="48.85265" lon="2.28055">
        <ele>106.1</ele>
        <time>2015-06-29T20:17:05.521Z</time>
      </trkpt>
      <trkpt lat="48.85269" lon="2.28062">
        <ele>105.4</ele>
        <time>2015-06-29T20:17:06.524Z</time>
      </trkpt>
      <trkpt lat="48.85274" lon="2.2807">
        <ele>105.3</ele>
        <time>2015-06-29T20:17:07.533Z</time>
      </trkpt>
      <trkpt lat="48.85279" lon="2.28078">
        <ele>105.1</ele>
        <time>2015-06-29T20:17:08.559Z</time>
      </trkpt>
      <trkpt lat="48.85285" lon="2.28084">
        <ele>105.5</ele>
        <time>2015-06-29T20:17:09.590Z</time>
      </trkpt>
      <trkpt lat="48.8529" lon="2.28091">
        <ele>105.3</ele>
        <time>2015-06-29T20:17:10.510Z</time>
      </trkpt>
      <trkpt lat="48.85293" lon="2.28098">
        <ele>104.7</ele>
        <time>2015-06-29T20:17:11.513Z</time>
      </trkpt>
      <trkpt lat="48.85298" lon="2.28105">
        <ele>104.8</ele>
        <time>2015-06-29T20:17:12.537Z</time>
      </trkpt>
      <trkpt lat="48.85301" lon="2.28112">
        <ele>104.8</ele>
        <time>2015-06-29T20:17:13.554Z</time>
      </trkpt>
      <trkpt lat="48.85303" lon="2.28118">
        <ele>104.7</ele>
        <time>2015-06-29T20:17:14.570Z</time>
      </trkpt>
      <trkpt lat="48.85306" lon="2.28124">
        <ele>105.3</ele>
        <time>2015-06-29T20:17:15.587Z</time>
      </trkpt>
      <trkpt lat="48.85312" lon="2.28133">
        <ele>105.2</ele>
        <time>2015-06-29T20:17:16.599Z</time>
      </trkpt>
      <trkpt lat="48.85317" lon="2.28141">
        <ele>105.1</ele>
        <time>2015-06-29T20:17:17.549Z</time>
      </trkpt>
      <trkpt lat="48.85323" lon="2.28149">
        <ele>105.4</ele>
        <time>2015-06-29T20:17:18.539Z</time>
      </trkpt>
      <trkpt lat="48.85327" lon="2.28157">
        <ele>105.7</ele>
        <time>2015-06-29T20:17:19.545Z</time>
      </trkpt>
      <trkpt lat="48.85332" lon="2.28164">
        <ele>106.4</ele>
        <time>2015-06-29T20:17:20.562Z</time>
      </trkpt>
      <trkpt lat="48.85337" lon="2.28173">
        <ele>106.9</ele>
        <time>2015-06-29T20:17:21.557Z</time>
      </trkpt>
      <trkpt lat="48.85341" lon="2.28179">
        <ele>107.2</ele>
        <time>2015-06-29T20:17:22.560Z</time>
      </trkpt>
      <trkpt lat="48.85345" lon="2.28185">
        <ele>107.1</ele>
        <time>2015-06-29T20:17:23.571Z</time>
      </trkpt>
      <trkpt lat="48.85348" lon="2.28192">
        <ele>107.2</ele>
        <time>2015-06-29T20:17:24.575Z</time>
      </trkpt>
      <trkpt lat="48.85352" lon="2.28198">
        <ele>106.7</ele>
        <time>2015-06-29T20:17:25.510Z</time>
      </trkpt>
      <trkpt lat="48.85357" lon="2.28206">
        <ele>106.3</ele>
        <time>2015-06-29T20:17:26.560Z</time>
      </trkpt>
      <trkpt lat="48.85362" lon="2.28214">
        <ele>106.3</ele>
        <time>2015-06-29T20:17:27.571Z</time>
      </trkpt>
      <trkpt lat="48.85367" lon="2.2822">
        <ele>106.7</ele>
        <time>2015-06-29T20:17:28.585Z</time>
      </trkpt>
      <trkpt lat="48.8537" lon="2.28225">
        <ele>106.8</ele>
        <time>2015-06-29T20:17:29.602Z</time>
      </trkpt>
      <trkpt lat="48.85374" lon="2.2823">
        <ele>106.7</ele>
        <time>2015-06-29T20:17:30.512Z</time>
      </trkpt>
      <trkpt lat="48.85378" lon="2.28236">
        <ele>106.6</ele>
        <time>2015-06-29T20:17:31.535Z</time>
      </trkpt>
      <trkpt lat="48.85382" lon="2.28242">
        <ele>106.4</ele>
        <time>2015-06-29T20:17:32.561Z</time>
      </trkpt>
      <trkpt lat="48.85385" lon="2.28248">
        <ele>106</ele>
        <time>2015-06-29T20:17:33.567Z</time>
      </trkpt>
      <trkpt lat="48.85388" lon="2.28254">
        <ele>105.8</ele>
        <time>2015-06-29T20:17:34.569Z</time>
      </trkpt>
      <trkpt lat="48.85391" lon="2.2826">
        <ele>105.5</ele>
        <time>2015-06-29T20:17:35.576Z</time>
      </trkpt>
      <trkpt lat="48.85394" lon="2.28266">
        <ele>105.5</ele>
        <time>2015-06-29T20:17:36.585Z</time>
      </trkpt>
      <trkpt lat="48.85397" lon="2.28271">
        <ele>104.7</ele>
        <time>2015-06-29T20:17:37.506Z</time>
      </trkpt>
      <trkpt lat="48.854" lon="2.28276">
        <ele>103.9</ele>
        <time>2015-06-29T20:17:38.604Z</time>
      </trkpt>
      <trkpt lat="48.85403" lon="2.28282">
        <ele>103.7</ele>
        <time>2015-06-29T20:17:39.485Z</time>
      </trkpt>
      <trkpt lat="48.85406" lon="2.28288">
        <ele>103.8</ele>
        <time>2015-06-29T20:17:40.490Z</time>
      </trkpt>
      <trkpt lat="48.85409" lon="2.28298">
        <ele>103.3</ele>
        <time>2015-06-29T20:17:42.540Z</time>
      </trkpt>
      <trkpt lat="48.85411" lon="2.28302">
        <ele>103.5</ele>
        <time>2015-06-29T20:17:43.543Z</time>
      </trkpt>
      <trkpt lat="48.85416" lon="2.28308">
        <ele>103.6</ele>
        <time>2015-06-29T20:17:45.545Z</time>
      </trkpt>
      <trkpt lat="48.85418" lon="2.28311">
        <ele>103.4</ele>
        <time>2015-06-29T20:17:46.555Z</time>
      </trkpt>
      <trkpt lat="48.85425" lon="2.28317">
        <ele>103</ele>
        <time>2015-06-29T20:17:48.514Z</time>
      </trkpt>
      <trkpt lat="48.8543" lon="2.28322">
        <ele>102.4</ele>
        <time>2015-06-29T20:17:49.516Z</time>
      </trkpt>
      <trkpt lat="48.85435" lon="2.28328">
        <ele>102.3</ele>
        <time>2015-06-29T20:17:50.573Z</time>
      </trkpt>
      <trkpt lat="48.85441" lon="2.28336">
        <ele>101.8</ele>
        <time>2015-06-29T20:17:51.522Z</time>
      </trkpt>
      <trkpt lat="48.85445" lon="2.28342">
        <ele>101.6</ele>
        <time>2015-06-29T20:17:52.532Z</time>
      </trkpt>
      <trkpt lat="48.8545" lon="2.2835">
        <ele>101.1</ele>
        <time>2015-06-29T20:17:53.542Z</time>
      </trkpt>
      <trkpt lat="48.85456" lon="2.28358">
        <ele>100.3</ele>
        <time>2015-06-29T20:17:54.558Z</time>
      </trkpt>
      <trkpt lat="48.85461" lon="2.28365">
        <ele>100</ele>
        <time>2015-06-29T20:17:55.573Z</time>
      </trkpt>
      <trkpt lat="48.85465" lon="2.28371">
        <ele>100.2</ele>
        <time>2015-06-29T20:17:56.578Z</time>
      </trkpt>
      <trkpt lat="48.8547" lon="2.28376">
        <ele>100.4</ele>
        <time>2015-06-29T20:17:57.579Z</time>
      </trkpt>
      <trkpt lat="48.85474" lon="2.28382">
        <ele>100.3</ele>
        <time>2015-06-29T20:17:58.591Z</time>
      </trkpt>
      <trkpt lat="48.85478" lon="2.28388">
        <ele>100.5</ele>
        <time>2015-06-29T20:17:59.537Z</time>
      </trkpt>
      <trkpt lat="48.85483" lon="2.28393">
        <ele>100.5</ele>
        <time>2015-06-29T20:18:00.538Z</time>
      </trkpt>
      <trkpt lat="48.85488" lon="2.28398">
        <ele>100.4</ele>
        <time>2015-06-29T20:18:01.539Z</time>
      </trkpt>
      <trkpt lat="48.85492" lon="2.28403">
        <ele>100.4</ele>
        <time>2015-06-29T20:18:02.554Z</time>
      </trkpt>
      <trkpt lat="48.85496" lon="2.28409">
        <ele>100.4</ele>
        <time>2015-06-29T20:18:03.556Z</time>
      </trkpt>
      <trkpt lat="48.855" lon="2.28414">
        <ele>100.5</ele>
        <time>2015-06-29T20:18:04.577Z</time>
      </trkpt>
      <trkpt lat="48.85504" lon="2.28419">
        <ele>100.9</ele>
        <time>2015-06-29T20:18:05.587Z</time>
      </trkpt>
      <trkpt lat="48.85509" lon="2.28425">
        <ele>100.9</ele>
        <time>2015-06-29T20:18:06.787Z</time>
      </trkpt>
      <trkpt lat="48.85513" lon="2.2843">
        <ele>100.9</ele>
        <time>2015-06-29T20:18:07.514Z</time>
      </trkpt>
      <trkpt lat="48.85517" lon="2.28434">
        <ele>100</ele>
        <time>2015-06-29T20:18:08.556Z</time>
      </trkpt>
      <trkpt lat="48.85521" lon="2.28438">
        <ele>99.2</ele>
        <time>2015-06-29T20:18:09.549Z</time>
      </trkpt>
      <trkpt lat="48.85524" lon="2.28443">
        <ele>99.4</ele>
        <time>2015-06-29T20:18:10.567Z</time>
      </trkpt>
      <trkpt lat="48.85528" lon="2.28448">
        <ele>99.5</ele>
        <time>2015-06-29T20:18:11.574Z</time>
      </trkpt>
      <trkpt lat="48.85533" lon="2.28454">
        <ele>99.8</ele>
        <time>2015-06-29T20:18:12.479Z</time>
      </trkpt>
      <trkpt lat="48.85539" lon="2.28462">
        <ele>100.1</ele>
        <time>2015-06-29T20:18:13.593Z</time>
      </trkpt>
      <trkpt lat="48.85544" lon="2.28469">
        <ele>100.3</ele>
        <time>2015-06-29T20:18:14.602Z</time>
      </trkpt>
      <trkpt lat="48.85549" lon="2.28475">
        <ele>100.4</ele>
        <time>2015-06-29T20:18:15.503Z</time>
      </trkpt>
      <trkpt lat="48.85553" lon="2.2848">
        <ele>99.6</ele>
        <time>2015-06-29T20:18:16.512Z</time>
      </trkpt>
      <trkpt lat="48.85557" lon="2.28485">
        <ele>99.5</ele>
        <time>2015-06-29T20:18:17.524Z</time>
      </trkpt>
      <trkpt lat="48.85563" lon="2.28493">
        <ele>99.8</ele>
        <time>2015-06-29T20:18:19.543Z</time>
      </trkpt>
      <trkpt lat="48.85566" lon="2.28497">
        <ele>99.7</ele>
        <time>2015-06-29T20:18:20.557Z</time>
      </trkpt>
      <trkpt lat="48.85571" lon="2.28503">
        <ele>99.4</ele>
        <time>2015-06-29T20:18:21.573Z</time>
      </trkpt>
      <trkpt lat="48.85576" lon="2.2851">
        <ele>99.1</ele>
        <time>2015-06-29T20:18:22.576Z</time>
      </trkpt>
      <trkpt lat="48.85581" lon="2.28516">
        <ele>98.7</ele>
        <time>2015-06-29T20:18:23.517Z</time>
      </trkpt>
      <trkpt lat="48.85586" lon="2.28521">
        <ele>98.3</ele>
        <time>2015-06-29T20:18:24.535Z</time>
      </trkpt>
      <trkpt lat="48.85591" lon="2.28527">
        <ele>97.9</ele>
        <time>2015-06-29T20:18:25.533Z</time>
      </trkpt>
      <trkpt lat="48.85596" lon="2.28532">
        <ele>97.9</ele>
        <time>2015-06-29T20:18:26.556Z</time>
      </trkpt>
      <trkpt lat="48.856" lon="2.28537">
        <ele>98</ele>
        <time>2015-06-29T20:18:27.550Z</time>
      </trkpt>
      <trkpt lat="48.85604" lon="2.28543">
        <ele>97.9</ele>
        <time>2015-06-29T20:18:28.562Z</time>
      </trkpt>
      <trkpt lat="48.85609" lon="2.28548">
        <ele>98.3</ele>
        <time>2015-06-29T20:18:29.592Z</time>
      </trkpt>
      <trkpt lat="48.85613" lon="2.28553">
        <ele>98.4</ele>
        <time>2015-06-29T20:18:30.509Z</time>
      </trkpt>
      <trkpt lat="48.85617" lon="2.2856">
        <ele>98.4</ele>
        <time>2015-06-29T20:18:31.507Z</time>
      </trkpt>
      <trkpt lat="48.85621" lon="2.28566">
        <ele>98.6</ele>
        <time>2015-06-29T20:18:32.541Z</time>
      </trkpt>
      <trkpt lat="48.85626" lon="2.2857">
        <ele>98</ele>
        <time>2015-06-29T20:18:33.559Z</time>
      </trkpt>
      <trkpt lat="48.85631" lon="2.28575">
        <ele>97.7</ele>
        <time>2015-06-29T20:18:34.572Z</time>
      </trkpt>
      <trkpt lat="48.85635" lon="2.2858">
        <ele>97.7</ele>
        <time>2015-06-29T20:18:35.587Z</time>
      </trkpt>
      <trkpt lat="48.85638" lon="2.28584">
        <ele>97.7</ele>
        <time>2015-06-29T20:18:36.595Z</time>
      </trkpt>
      <trkpt lat="48.85642" lon="2.28589">
        <ele>97.7</ele>
        <time>2015-06-29T20:18:37.517Z</time>
      </trkpt>
      <trkpt lat="48.85646" lon="2.28595">
        <ele>97.6</ele>
        <time>2015-06-29T20:18:38.552Z</time>
      </trkpt>
      <trkpt lat="48.85651" lon="2.286">
        <ele>97.7</ele>
        <time>2015-06-29T20:18:39.547Z</time>
      </trkpt>
      <trkpt lat="48.85655" lon="2.28605">
        <ele>97.7</ele>
        <time>2015-06-29T20:18:40.561Z</time>
      </trkpt>
      <trkpt lat="48.85658" lon="2.2861">
        <ele>97.7</ele>
        <time>2015-06-29T20:18:41.582Z</time>
      </trkpt>
      <trkpt lat="48.85663" lon="2.28613">
        <ele>97.1</ele>
        <time>2015-06-29T20:18:42.510Z</time>
      </trkpt>
      <trkpt lat="48.85667" lon="2.28623">
        <ele>96.8</ele>
        <time>2015-06-29T20:18:44.579Z</time>
      </trkpt>
      <trkpt lat="48.8567" lon="2.28628">
        <ele>96.9</ele>
        <time>2015-06-29T20:18:45.533Z</time>
      </trkpt>
      <trkpt lat="48.85674" lon="2.28636">
        <ele>96.9</ele>
        <time>2015-06-29T20:18:47.509Z</time>
      </trkpt>
      <trkpt lat="48.85677" lon="2.2864">
        <ele>96.7</ele>
        <time>2015-06-29T20:18:48.538Z</time>
      </trkpt>
      <trkpt lat="48.85682" lon="2.28644">
        <ele>96.7</ele>
        <time>2015-06-29T20:18:49.540Z</time>
      </trkpt>
      <trkpt lat="48.85687" lon="2.2865">
        <ele>96.3</ele>
        <time>2015-06-29T20:18:50.585Z</time>
      </trkpt>
      <trkpt lat="48.85691" lon="2.28655">
        <ele>96.6</ele>
        <time>2015-06-29T20:18:51.509Z</time>
      </trkpt>
      <trkpt lat="48.85696" lon="2.28663">
        <ele>96.8</ele>
        <time>2015-06-29T20:18:52.520Z</time>
      </trkpt>
      <trkpt lat="48.857" lon="2.2867">
        <ele>96.9</ele>
        <time>2015-06-29T20:18:53.533Z</time>
      </trkpt>
      <trkpt lat="48.85705" lon="2.28676">
        <ele>97</ele>
        <time>2015-06-29T20:18:54.549Z</time>
      </trkpt>
      <trkpt lat="48.85711" lon="2.28682">
        <ele>97</ele>
        <time>2015-06-29T20:18:55.553Z</time>
      </trkpt>
      <trkpt lat="48.85715" lon="2.28687">
        <ele>97</ele>
        <time>2015-06-29T20:18:56.563Z</time>
      </trkpt>
      <trkpt lat="48.8572" lon="2.28693">
        <ele>97</ele>
        <time>2015-06-29T20:18:57.576Z</time>
      </trkpt>
      <trkpt lat="48.85724" lon="2.28697">
        <ele>97.2</ele>
        <time>2015-06-29T20:18:58.587Z</time>
      </trkpt>
      <trkpt lat="48.85729" lon="2.28703">
        <ele>97.4</ele>
        <time>2015-06-29T20:18:59.509Z</time>
      </trkpt>
      <trkpt lat="48.85733" lon="2.28709">
        <ele>97.5</ele>
        <time>2015-06-29T20:19:00.518Z</time>
      </trkpt>
      <trkpt lat="48.85738" lon="2.28714">
        <ele>97.5</ele>
        <time>2015-06-29T20:19:01.534Z</time>
      </trkpt>
      <trkpt lat="48.85742" lon="2.2872">
        <ele>97.6</ele>
        <time>2015-06-29T20:19:02.637Z</time>
      </trkpt>
      <trkpt lat="48.85746" lon="2.28726">
        <ele>97.8</ele>
        <time>2015-06-29T20:19:03.503Z</time>
      </trkpt>
      <trkpt lat="48.85751" lon="2.28732">
        <ele>97.7</ele>
        <time>2015-06-29T20:19:04.499Z</time>
      </trkpt>
      <trkpt lat="48.85755" lon="2.28738">
        <ele>97.6</ele>
        <time>2015-06-29T20:19:05.519Z</time>
      </trkpt>
      <trkpt lat="48.8576" lon="2.28745">
        <ele>97.9</ele>
        <time>2015-06-29T20:19:06.570Z</time>
      </trkpt>
      <trkpt lat="48.85764" lon="2.28751">
        <ele>97.8</ele>
        <time>2015-06-29T20:19:07.618Z</time>
      </trkpt>
      <trkpt lat="48.85769" lon="2.28757">
        <ele>97.7</ele>
        <time>2015-06-29T20:19:08.600Z</time>
      </trkpt>
      <trkpt lat="48.85773" lon="2.28764">
        <ele>98</ele>
        <time>2015-06-29T20:19:09.499Z</time>
      </trkpt>
      <trkpt lat="48.85778" lon="2.2877">
        <ele>98.2</ele>
        <time>2015-06-29T20:19:10.504Z</time>
      </trkpt>
      <trkpt lat="48.85782" lon="2.28777">
        <ele>98.5</ele>
        <time>2015-06-29T20:19:11.537Z</time>
      </trkpt>
      <trkpt lat="48.85788" lon="2.28783">
        <ele>98.9</ele>
        <time>2015-06-29T20:19:12.570Z</time>
      </trkpt>
      <trkpt lat="48.85791" lon="2.28789">
        <ele>98.4</ele>
        <time>2015-06-29T20:19:13.581Z</time>
      </trkpt>
      <trkpt lat="48.85794" lon="2.28795">
        <ele>98</ele>
        <time>2015-06-29T20:19:14.586Z</time>
      </trkpt>
      <trkpt lat="48.85798" lon="2.288">
        <ele>97.4</ele>
        <time>2015-06-29T20:19:15.533Z</time>
      </trkpt>
      <trkpt lat="48.85802" lon="2.28806">
        <ele>96.9</ele>
        <time>2015-06-29T20:19:16.554Z</time>
      </trkpt>
      <trkpt lat="48.85805" lon="2.28812">
        <ele>96.3</ele>
        <time>2015-06-29T20:19:17.587Z</time>
      </trkpt>
      <trkpt lat="48.85809" lon="2.28818">
        <ele>96.4</ele>
        <time>2015-06-29T20:19:18.514Z</time>
      </trkpt>
      <trkpt lat="48.85815" lon="2.28827">
        <ele>96.8</ele>
        <time>2015-06-29T20:19:20.652Z</time>
      </trkpt>
      <trkpt lat="48.85817" lon="2.28832">
        <ele>97.1</ele>
        <time>2015-06-29T20:19:21.508Z</time>
      </trkpt>
      <trkpt lat="48.85821" lon="2.28841">
        <ele>97</ele>
        <time>2015-06-29T20:19:23.554Z</time>
      </trkpt>
      <trkpt lat="48.85823" lon="2.28846">
        <ele>97.1</ele>
        <time>2015-06-29T20:19:24.562Z</time>
      </trkpt>
      <trkpt lat="48.85828" lon="2.28855">
        <ele>97.5</ele>
        <time>2015-06-29T20:19:26.577Z</time>
      </trkpt>
      <trkpt lat="48.85831" lon="2.28859">
        <ele>97.6</ele>
        <time>2015-06-29T20:19:27.537Z</time>
      </trkpt>
      <trkpt lat="48.85835" lon="2.28864">
        <ele>98.3</ele>
        <time>2015-06-29T20:19:28.513Z</time>
      </trkpt>
      <trkpt lat="48.8584" lon="2.28868">
        <ele>99.4</ele>
        <time>2015-06-29T20:19:29.525Z</time>
      </trkpt>
      <trkpt lat="48.85845" lon="2.28872">
        <ele>100.2</ele>
        <time>2015-06-29T20:19:30.533Z</time>
      </trkpt>
      <trkpt lat="48.85851" lon="2.28878">
        <ele>100.9</ele>
        <time>2015-06-29T20:19:31.539Z</time>
      </trkpt>
      <trkpt lat="48.85854" lon="2.28881">
        <ele>101.3</ele>
        <time>2015-06-29T20:19:32.588Z</time>
      </trkpt>
      <trkpt lat="48.85858" lon="2.28885">
        <ele>101.9</ele>
        <time>2015-06-29T20:19:33.586Z</time>
      </trkpt>
      <trkpt lat="48.85862" lon="2.2889">
        <ele>101.9</ele>
        <time>2015-06-29T20:19:34.508Z</time>
      </trkpt>
      <trkpt lat="48.85866" lon="2.28895">
        <ele>102</ele>
        <time>2015-06-29T20:19:35.503Z</time>
      </trkpt>
      <trkpt lat="48.8587" lon="2.28899">
        <ele>102.2</ele>
        <time>2015-06-29T20:19:36.531Z</time>
      </trkpt>
      <trkpt lat="48.85874" lon="2.28902">
        <ele>101.1</ele>
        <time>2015-06-29T20:19:37.537Z</time>
      </trkpt>
      <trkpt lat="48.85879" lon="2.28906">
        <ele>100.7</ele>
        <time>2015-06-29T20:19:38.556Z</time>
      </trkpt>
      <trkpt lat="48.85883" lon="2.28912">
        <ele>100.6</ele>
        <time>2015-06-29T20:19:39.556Z</time>
      </trkpt>
      <trkpt lat="48.85887" lon="2.28918">
        <ele>100.4</ele>
        <time>2015-06-29T20:19:40.565Z</time>
      </trkpt>
      <trkpt lat="48.85892" lon="2.28924">
        <ele>100</ele>
        <time>2015-06-29T20:19:41.568Z</time>
      </trkpt>
      <trkpt lat="48.85898" lon="2.28932">
        <ele>99.5</ele>
        <time>2015-06-29T20:19:42.584Z</time>
      </trkpt>
      <trkpt lat="48.85904" lon="2.28939">
        <ele>99.3</ele>
        <time>2015-06-29T20:19:43.513Z</time>
      </trkpt>
      <trkpt lat="48.85909" lon="2.28946">
        <ele>99.3</ele>
        <time>2015-06-29T20:19:44.554Z</time>
      </trkpt>
      <trkpt lat="48.85912" lon="2.28951">
        <ele>99.4</ele>
        <time>2015-06-29T20:19:45.565Z</time>
      </trkpt>
      <trkpt lat="48.85915" lon="2.28956">
        <ele>99.3</ele>
        <time>2015-06-29T20:19:46.571Z</time>
      </trkpt>
      <trkpt lat="48.8592" lon="2.28961">
        <ele>99.5</ele>
        <time>2015-06-29T20:19:47.579Z</time>
      </trkpt>
      <trkpt lat="48.85924" lon="2.28965">
        <ele>99.4</ele>
        <time>2015-06-29T20:19:48.509Z</time>
      </trkpt>
      <trkpt lat="48.85928" lon="2.2897">
        <ele>99.4</ele>
        <time>2015-06-29T20:19:49.508Z</time>
      </trkpt>
      <trkpt lat="48.85931" lon="2.28975">
        <ele>99.2</ele>
        <time>2015-06-29T20:19:50.554Z</time>
      </trkpt>
      <trkpt lat="48.85934" lon="2.28981">
        <ele>98.9</ele>
        <time>2015-06-29T20:19:51.546Z</time>
      </trkpt>
      <trkpt lat="48.8594" lon="2.28989">
        <ele>98.2</ele>
        <time>2015-06-29T20:19:53.578Z</time>
      </trkpt>
      <trkpt lat="48.85941" lon="2.28992">
        <ele>97.9</ele>
        <time>2015-06-29T20:19:54.633Z</time>
      </trkpt>
      <trkpt lat="48.85947" lon="2.29001">
        <ele>97.4</ele>
        <time>2015-06-29T20:19:57.535Z</time>
      </trkpt>
      <trkpt lat="48.85949" lon="2.29006">
        <ele>97.1</ele>
        <time>2015-06-29T20:19:58.532Z</time>
      </trkpt>
      <trkpt lat="48.85953" lon="2.29014">
        <ele>96.2</ele>
        <time>2015-06-29T20:20:01.630Z</time>
      </trkpt>
      <trkpt lat="48.85954" lon="2.29018">
        <ele>95.9</ele>
        <time>2015-06-29T20:20:02.586Z</time>
      </trkpt>
      <trkpt lat="48.85958" lon="2.29025">
        <ele>95.7</ele>
        <time>2015-06-29T20:20:04.522Z</time>
      </trkpt>
      <trkpt lat="48.8596" lon="2.29029">
        <ele>95.6</ele>
        <time>2015-06-29T20:20:05.532Z</time>
      </trkpt>
      <trkpt lat="48.85963" lon="2.29036">
        <ele>95.3</ele>
        <time>2015-06-29T20:20:07.563Z</time>
      </trkpt>
      <trkpt lat="48.85966" lon="2.2904">
        <ele>95</ele>
        <time>2015-06-29T20:20:08.579Z</time>
      </trkpt>
      <trkpt lat="48.8597" lon="2.29047">
        <ele>94.1</ele>
        <time>2015-06-29T20:20:10.522Z</time>
      </trkpt>
      <trkpt lat="48.85972" lon="2.29049">
        <ele>93.6</ele>
        <time>2015-06-29T20:20:11.534Z</time>
      </trkpt>
      <trkpt lat="48.8598" lon="2.29057">
        <ele>93.5</ele>
        <time>2015-06-29T20:20:14.616Z</time>
      </trkpt>
      <trkpt lat="48.85982" lon="2.2906">
        <ele>93.9</ele>
        <time>2015-06-29T20:20:15.531Z</time>
      </trkpt>
      <trkpt lat="48.85988" lon="2.29069">
        <ele>94.1</ele>
        <time>2015-06-29T20:20:18.565Z</time>
      </trkpt>
      <trkpt lat="48.85989" lon="2.2907">
        <ele>94.4</ele>
        <time>2015-06-29T20:20:19.538Z</time>
      </trkpt>
      <trkpt lat="48.85995" lon="2.29074">
        <ele>94.4</ele>
        <time>2015-06-29T20:20:22.491Z</time>
      </trkpt>
      <trkpt lat="48.85998" lon="2.29076">
        <ele>94</ele>
        <time>2015-06-29T20:20:23.519Z</time>
      </trkpt>
      <trkpt lat="48.86004" lon="2.29084">
        <ele>92.9</ele>
        <time>2015-06-29T20:20:26.578Z</time>
      </trkpt>
      <trkpt lat="48.86006" lon="2.29088">
        <ele>92.1</ele>
        <time>2015-06-29T20:20:27.601Z</time>
      </trkpt>
      <trkpt lat="48.86012" lon="2.29096">
        <ele>90.7</ele>
        <time>2015-06-29T20:20:31.561Z</time>
      </trkpt>
      <trkpt lat="48.86014" lon="2.29097">
        <ele>90.2</ele>
        <time>2015-06-29T20:20:32.602Z</time>
      </trkpt>
      <trkpt lat="48.86019" lon="2.29103">
        <ele>89.6</ele>
        <time>2015-06-29T20:20:37.599Z</time>
      </trkpt>
      <trkpt lat="48.86021" lon="2.29106">
        <ele>89.1</ele>
        <time>2015-06-29T20:20:38.642Z</time>
      </trkpt>
      <trkpt lat="48.86023" lon="2.29118">
        <ele>87.5</ele>
        <time>2015-06-29T20:20:43.507Z</time>
      </trkpt>
      <trkpt lat="48.86024" lon="2.2912">
        <ele>87.4</ele>
        <time>2015-06-29T20:20:44.606Z</time>
      </trkpt>
      <trkpt lat="48.86031" lon="2.29128">
        <ele>82.6</ele>
        <time>2015-06-29T20:21:20.593Z</time>
      </trkpt>
      <trkpt lat="48.86033" lon="2.2913">
        <ele>82.8</ele>
        <time>2015-06-29T20:21:21.517Z</time>
      </trkpt>
      <trkpt lat="48.86041" lon="2.29135">
        <ele>84</ele>
        <time>2015-06-29T20:21:25.576Z</time>
      </trkpt>
      <trkpt lat="48.86042" lon="2.29136">
        <ele>83.8</ele>
        <time>2015-06-29T20:21:26.683Z</time>
      </trkpt>
      <trkpt lat="48.86048" lon="2.29144">
        <ele>83.3</ele>
        <time>2015-06-29T20:21:30.550Z</time>
      </trkpt>
      <trkpt lat="48.8605" lon="2.29148">
        <ele>83.3</ele>
        <time>2015-06-29T20:21:31.567Z</time>
      </trkpt>
      <trkpt lat="48.86055" lon="2.29154">
        <ele>82.5</ele>
        <time>2015-06-29T20:21:34.568Z</time>
      </trkpt>
      <trkpt lat="48.86058" lon="2.29156">
        <ele>82.9</ele>
        <time>2015-06-29T20:21:35.582Z</time>
      </trkpt>
      <trkpt lat="48.86061" lon="2.29161">
        <ele>82.7</ele>
        <time>2015-06-29T20:21:44.593Z</time>
      </trkpt>
      <trkpt lat="48.86068" lon="2.2917">
        <ele>83.8</ele>
        <time>2015-06-29T20:21:45.573Z</time>
      </trkpt>
      <trkpt lat="48.86073" lon="2.29176">
        <ele>84.2</ele>
        <time>2015-06-29T20:21:47.518Z</time>
      </trkpt>
      <trkpt lat="48.86076" lon="2.29179">
        <ele>84.5</ele>
        <time>2015-06-29T20:21:48.530Z</time>
      </trkpt>
      <trkpt lat="48.86081" lon="2.29186">
        <ele>84.6</ele>
        <time>2015-06-29T20:21:50.574Z</time>
      </trkpt>
      <trkpt lat="48.86085" lon="2.2919">
        <ele>84.5</ele>
        <time>2015-06-29T20:21:51.485Z</time>
      </trkpt>
      <trkpt lat="48.86091" lon="2.29198">
        <ele>84.8</ele>
        <time>2015-06-29T20:21:53.513Z</time>
      </trkpt>
      <trkpt lat="48.86093" lon="2.29201">
        <ele>84.8</ele>
        <time>2015-06-29T20:21:54.542Z</time>
      </trkpt>
      <trkpt lat="48.86098" lon="2.29207">
        <ele>84.7</ele>
        <time>2015-06-29T20:21:56.598Z</time>
      </trkpt>
      <trkpt lat="48.861" lon="2.2921">
        <ele>84.7</ele>
        <time>2015-06-29T20:21:57.532Z</time>
      </trkpt>
      <trkpt lat="48.86107" lon="2.29218">
        <ele>84.4</ele>
        <time>2015-06-29T20:22:00.545Z</time>
      </trkpt>
      <trkpt lat="48.8611" lon="2.29222">
        <ele>84.6</ele>
        <time>2015-06-29T20:22:01.562Z</time>
      </trkpt>
      <trkpt lat="48.86116" lon="2.29231">
        <ele>84.5</ele>
        <time>2015-06-29T20:22:03.535Z</time>
      </trkpt>
      <trkpt lat="48.8612" lon="2.29236">
        <ele>84.4</ele>
        <time>2015-06-29T20:22:04.522Z</time>
      </trkpt>
      <trkpt lat="48.86126" lon="2.29244">
        <ele>84.2</ele>
        <time>2015-06-29T20:22:06.551Z</time>
      </trkpt>
      <trkpt lat="48.86129" lon="2.29247">
        <ele>84.1</ele>
        <time>2015-06-29T20:22:07.563Z</time>
      </trkpt>
      <trkpt lat="48.86135" lon="2.29256">
        <ele>84.3</ele>
        <time>2015-06-29T20:22:09.576Z</time>
      </trkpt>
      <trkpt lat="48.86139" lon="2.29261">
        <ele>84.4</ele>
        <time>2015-06-29T20:22:10.587Z</time>
      </trkpt>
      <trkpt lat="48.86146" lon="2.29269">
        <ele>84.7</ele>
        <time>2015-06-29T20:22:12.479Z</time>
      </trkpt>
      <trkpt lat="48.86149" lon="2.29272">
        <ele>85</ele>
        <time>2015-06-29T20:22:13.513Z</time>
      </trkpt>
      <trkpt lat="48.86155" lon="2.2928">
        <ele>85.3</ele>
        <time>2015-06-29T20:22:15.507Z</time>
      </trkpt>
      <trkpt lat="48.8616" lon="2.29284">
        <ele>85.2</ele>
        <time>2015-06-29T20:22:16.512Z</time>
      </trkpt>
      <trkpt lat="48.86166" lon="2.29292">
        <ele>85.1</ele>
        <time>2015-06-29T20:22:18.573Z</time>
      </trkpt>
      <trkpt lat="48.86171" lon="2.29297">
        <ele>85.3</ele>
        <time>2015-06-29T20:22:19.607Z</time>
      </trkpt>
      <trkpt lat="48.86176" lon="2.29303">
        <ele>85.2</ele>
        <time>2015-06-29T20:22:20.593Z</time>
      </trkpt>
      <trkpt lat="48.86181" lon="2.29309">
        <ele>84.9</ele>
        <time>2015-06-29T20:22:21.504Z</time>
      </trkpt>
      <trkpt lat="48.86184" lon="2.29313">
        <ele>84.2</ele>
        <time>2015-06-29T20:22:22.510Z</time>
      </trkpt>
      <trkpt lat="48.86188" lon="2.29317">
        <ele>83.9</ele>
        <time>2015-06-29T20:22:23.512Z</time>
      </trkpt>
      <trkpt lat="48.8619" lon="2.29322">
        <ele>84.6</ele>
        <time>2015-06-29T20:22:24.531Z</time>
      </trkpt>
      <trkpt lat="48.86194" lon="2.29327">
        <ele>84.5</ele>
        <time>2015-06-29T20:22:25.535Z</time>
      </trkpt>
      <trkpt lat="48.862" lon="2.29332">
        <ele>84.2</ele>
        <time>2015-06-29T20:22:26.575Z</time>
      </trkpt>
      <trkpt lat="48.86204" lon="2.29337">
        <ele>84.3</ele>
        <time>2015-06-29T20:22:27.575Z</time>
      </trkpt>
      <trkpt lat="48.86208" lon="2.29343">
        <ele>84.2</ele>
        <time>2015-06-29T20:22:28.581Z</time>
      </trkpt>
      <trkpt lat="48.86212" lon="2.29347">
        <ele>84.1</ele>
        <time>2015-06-29T20:22:29.504Z</time>
      </trkpt>
      <trkpt lat="48.86215" lon="2.29352">
        <ele>84.3</ele>
        <time>2015-06-29T20:22:30.508Z</time>
      </trkpt>
      <trkpt lat="48.8622" lon="2.29356">
        <ele>84.5</ele>
        <time>2015-06-29T20:22:31.514Z</time>
      </trkpt>
      <trkpt lat="48.86224" lon="2.29359">
        <ele>84.7</ele>
        <time>2015-06-29T20:22:32.596Z</time>
      </trkpt>
      <trkpt lat="48.8623" lon="2.29364">
        <ele>85.3</ele>
        <time>2015-06-29T20:22:33.512Z</time>
      </trkpt>
      <trkpt lat="48.86234" lon="2.29369">
        <ele>85.7</ele>
        <time>2015-06-29T20:22:34.543Z</time>
      </trkpt>
      <trkpt lat="48.86239" lon="2.29373">
        <ele>86.1</ele>
        <time>2015-06-29T20:22:35.555Z</time>
      </trkpt>
      <trkpt lat="48.86242" lon="2.29378">
        <ele>86.4</ele>
        <time>2015-06-29T20:22:36.564Z</time>
      </trkpt>
      <trkpt lat="48.86245" lon="2.29384">
        <ele>86.4</ele>
        <time>2015-06-29T20:22:37.568Z</time>
      </trkpt>
      <trkpt lat="48.86248" lon="2.29389">
        <ele>86.6</ele>
        <time>2015-06-29T20:22:38.586Z</time>
      </trkpt>
      <trkpt lat="48.86251" lon="2.29394">
        <ele>86.6</ele>
        <time>2015-06-29T20:22:39.505Z</time>
      </trkpt>
      <trkpt lat="48.86258" lon="2.29403">
        <ele>86.9</ele>
        <time>2015-06-29T20:22:41.509Z</time>
      </trkpt>
      <trkpt lat="48.8626" lon="2.29408">
        <ele>87.5</ele>
        <time>2015-06-29T20:22:42.532Z</time>
      </trkpt>
      <trkpt lat="48.86263" lon="2.29414">
        <ele>88.1</ele>
        <time>2015-06-29T20:22:43.550Z</time>
      </trkpt>
      <trkpt lat="48.86267" lon="2.29418">
        <ele>88.3</ele>
        <time>2015-06-29T20:22:44.564Z</time>
      </trkpt>
      <trkpt lat="48.86271" lon="2.29429">
        <ele>88.4</ele>
        <time>2015-06-29T20:22:46.582Z</time>
      </trkpt>
      <trkpt lat="48.86274" lon="2.29438">
        <ele>88.2</ele>
        <time>2015-06-29T20:22:47.611Z</time>
      </trkpt>
      <trkpt lat="48.86276" lon="2.29445">
        <ele>88.2</ele>
        <time>2015-06-29T20:22:48.510Z</time>
      </trkpt>
      <trkpt lat="48.86279" lon="2.29452">
        <ele>87.7</ele>
        <time>2015-06-29T20:22:49.518Z</time>
      </trkpt>
      <trkpt lat="48.86283" lon="2.29464">
        <ele>88.2</ele>
        <time>2015-06-29T20:22:51.561Z</time>
      </trkpt>
      <trkpt lat="48.86285" lon="2.29471">
        <ele>88.2</ele>
        <time>2015-06-29T20:22:52.575Z</time>
      </trkpt>
      <trkpt lat="48.86287" lon="2.29478">
        <ele>88.2</ele>
        <time>2015-06-29T20:22:53.519Z</time>
      </trkpt>
      <trkpt lat="48.86288" lon="2.29485">
        <ele>88.5</ele>
        <time>2015-06-29T20:22:54.518Z</time>
      </trkpt>
      <trkpt lat="48.8629" lon="2.29493">
        <ele>88.7</ele>
        <time>2015-06-29T20:22:55.515Z</time>
      </trkpt>
      <trkpt lat="48.86292" lon="2.29499">
        <ele>89.1</ele>
        <time>2015-06-29T20:22:56.558Z</time>
      </trkpt>
      <trkpt lat="48.86297" lon="2.29505">
        <ele>90.1</ele>
        <time>2015-06-29T20:22:57.570Z</time>
      </trkpt>
      <trkpt lat="48.86299" lon="2.29511">
        <ele>90.6</ele>
        <time>2015-06-29T20:22:58.571Z</time>
      </trkpt>
      <trkpt lat="48.86301" lon="2.29523">
        <ele>90.7</ele>
        <time>2015-06-29T20:23:00.483Z</time>
      </trkpt>
      <trkpt lat="48.86303" lon="2.29529">
        <ele>90.7</ele>
        <time>2015-06-29T20:23:01.588Z</time>
      </trkpt>
      <trkpt lat="48.86306" lon="2.2954">
        <ele>89.9</ele>
        <time>2015-06-29T20:23:03.564Z</time>
      </trkpt>
      <trkpt lat="48.86307" lon="2.29545">
        <ele>89.7</ele>
        <time>2015-06-29T20:23:04.588Z</time>
      </trkpt>
      <trkpt lat="48.86307" lon="2.29556">
        <ele>88.7</ele>
        <time>2015-06-29T20:23:06.530Z</time>
      </trkpt>
      <trkpt lat="48.86309" lon="2.29561">
        <ele>88.7</ele>
        <time>2015-06-29T20:23:07.571Z</time>
      </trkpt>
      <trkpt lat="48.86311" lon="2.29567">
        <ele>88.9</ele>
        <time>2015-06-29T20:23:08.609Z</time>
      </trkpt>
      <trkpt lat="48.86314" lon="2.29573">
        <ele>88.8</ele>
        <time>2015-06-29T20:23:09.511Z</time>
      </trkpt>
      <trkpt lat="48.86317" lon="2.29578">
        <ele>89.3</ele>
        <time>2015-06-29T20:23:10.711Z</time>
      </trkpt>
      <trkpt lat="48.86319" lon="2.29585">
        <ele>88.9</ele>
        <time>2015-06-29T20:23:11.565Z</time>
      </trkpt>
      <trkpt lat="48.86323" lon="2.29596">
        <ele>89.1</ele>
        <time>2015-06-29T20:23:13.485Z</time>
      </trkpt>
      <trkpt lat="48.86325" lon="2.29602">
        <ele>89.3</ele>
        <time>2015-06-29T20:23:14.529Z</time>
      </trkpt>
      <trkpt lat="48.86328" lon="2.29614">
        <ele>89.9</ele>
        <time>2015-06-29T20:23:16.520Z</time>
      </trkpt>
      <trkpt lat="48.8633" lon="2.29619">
        <ele>90.4</ele>
        <time>2015-06-29T20:23:17.516Z</time>
      </trkpt>
      <trkpt lat="48.86334" lon="2.2963">
        <ele>89.8</ele>
        <time>2015-06-29T20:23:19.654Z</time>
      </trkpt>
      <trkpt lat="48.86337" lon="2.29636">
        <ele>89.3</ele>
        <time>2015-06-29T20:23:20.578Z</time>
      </trkpt>
      <trkpt lat="48.86339" lon="2.29646">
        <ele>89</ele>
        <time>2015-06-29T20:23:22.554Z</time>
      </trkpt>
      <trkpt lat="48.8634" lon="2.29652">
        <ele>88.9</ele>
        <time>2015-06-29T20:23:23.563Z</time>
      </trkpt>
      <trkpt lat="48.86344" lon="2.29663">
        <ele>89.4</ele>
        <time>2015-06-29T20:23:25.579Z</time>
      </trkpt>
      <trkpt lat="48.86346" lon="2.29667">
        <ele>90</ele>
        <time>2015-06-29T20:23:26.562Z</time>
      </trkpt>
      <trkpt lat="48.86351" lon="2.29677">
        <ele>89.9</ele>
        <time>2015-06-29T20:23:28.575Z</time>
      </trkpt>
      <trkpt lat="48.86353" lon="2.29683">
        <ele>89.5</ele>
        <time>2015-06-29T20:23:29.532Z</time>
      </trkpt>
      <trkpt lat="48.86355" lon="2.2969">
        <ele>89.2</ele>
        <time>2015-06-29T20:23:30.531Z</time>
      </trkpt>
      <trkpt lat="48.86357" lon="2.29697">
        <ele>89.6</ele>
        <time>2015-06-29T20:23:31.607Z</time>
      </trkpt>
      <trkpt lat="48.86359" lon="2.2971">
        <ele>89.6</ele>
        <time>2015-06-29T20:23:34.555Z</time>
      </trkpt>
      <trkpt lat="48.8636" lon="2.29713">
        <ele>89.6</ele>
        <time>2015-06-29T20:23:35.567Z</time>
      </trkpt>
      <trkpt lat="48.86361" lon="2.29722">
        <ele>90</ele>
        <time>2015-06-29T20:23:37.526Z</time>
      </trkpt>
      <trkpt lat="48.86362" lon="2.2973">
        <ele>90.1</ele>
        <time>2015-06-29T20:23:38.575Z</time>
      </trkpt>
      <trkpt lat="48.86364" lon="2.29737">
        <ele>89.9</ele>
        <time>2015-06-29T20:23:39.524Z</time>
      </trkpt>
      <trkpt lat="48.86365" lon="2.29743">
        <ele>89.8</ele>
        <time>2015-06-29T20:23:40.535Z</time>
      </trkpt>
      <trkpt lat="48.86366" lon="2.2975">
        <ele>89.9</ele>
        <time>2015-06-29T20:23:41.545Z</time>
      </trkpt>
      <trkpt lat="48.86369" lon="2.29757">
        <ele>90</ele>
        <time>2015-06-29T20:23:42.549Z</time>
      </trkpt>
      <trkpt lat="48.86371" lon="2.29769">
        <ele>89.8</ele>
        <time>2015-06-29T20:23:44.610Z</time>
      </trkpt>
      <trkpt lat="48.86373" lon="2.29776">
        <ele>89.8</ele>
        <time>2015-06-29T20:23:45.537Z</time>
      </trkpt>
      <trkpt lat="48.86375" lon="2.29783">
        <ele>89.8</ele>
        <time>2015-06-29T20:23:46.542Z</time>
      </trkpt>
      <trkpt lat="48.86376" lon="2.29789">
        <ele>89.7</ele>
        <time>2015-06-29T20:23:47.550Z</time>
      </trkpt>
      <trkpt lat="48.86379" lon="2.29801">
        <ele>89.5</ele>
        <time>2015-06-29T20:23:49.560Z</time>
      </trkpt>
      <trkpt lat="48.86379" lon="2.29806">
        <ele>89.5</ele>
        <time>2015-06-29T20:23:50.563Z</time>
      </trkpt>
      <trkpt lat="48.86381" lon="2.29818">
        <ele>89.2</ele>
        <time>2015-06-29T20:23:52.539Z</time>
      </trkpt>
      <trkpt lat="48.86381" lon="2.29825">
        <ele>88.9</ele>
        <time>2015-06-29T20:23:53.546Z</time>
      </trkpt>
      <trkpt lat="48.86381" lon="2.29832">
        <ele>88.5</ele>
        <time>2015-06-29T20:23:54.603Z</time>
      </trkpt>
      <trkpt lat="48.86383" lon="2.2984">
        <ele>88.4</ele>
        <time>2015-06-29T20:23:55.512Z</time>
      </trkpt>
      <trkpt lat="48.86385" lon="2.29847">
        <ele>88.5</ele>
        <time>2015-06-29T20:23:56.587Z</time>
      </trkpt>
      <trkpt lat="48.86387" lon="2.29853">
        <ele>88.8</ele>
        <time>2015-06-29T20:23:57.590Z</time>
      </trkpt>
      <trkpt lat="48.8639" lon="2.29859">
        <ele>89.2</ele>
        <time>2015-06-29T20:23:58.508Z</time>
      </trkpt>
      <trkpt lat="48.86392" lon="2.29864">
        <ele>89.2</ele>
        <time>2015-06-29T20:23:59.528Z</time>
      </trkpt>
      <trkpt lat="48.86395" lon="2.29871">
        <ele>89.7</ele>
        <time>2015-06-29T20:24:00.507Z</time>
      </trkpt>
      <trkpt lat="48.86397" lon="2.29878">
        <ele>89.7</ele>
        <time>2015-06-29T20:24:01.522Z</time>
      </trkpt>
      <trkpt lat="48.86398" lon="2.29885">
        <ele>89.6</ele>
        <time>2015-06-29T20:24:02.556Z</time>
      </trkpt>
      <trkpt lat="48.864" lon="2.29892">
        <ele>89.9</ele>
        <time>2015-06-29T20:24:03.551Z</time>
      </trkpt>
      <trkpt lat="48.86403" lon="2.29899">
        <ele>89.9</ele>
        <time>2015-06-29T20:24:04.556Z</time>
      </trkpt>
      <trkpt lat="48.86405" lon="2.29906">
        <ele>90.4</ele>
        <time>2015-06-29T20:24:05.564Z</time>
      </trkpt>
      <trkpt lat="48.86406" lon="2.29913">
        <ele>90.6</ele>
        <time>2015-06-29T20:24:06.574Z</time>
      </trkpt>
      <trkpt lat="48.86407" lon="2.2992">
        <ele>90.9</ele>
        <time>2015-06-29T20:24:07.480Z</time>
      </trkpt>
      <trkpt lat="48.86409" lon="2.29928">
        <ele>91.3</ele>
        <time>2015-06-29T20:24:08.552Z</time>
      </trkpt>
      <trkpt lat="48.8641" lon="2.29935">
        <ele>91.6</ele>
        <time>2015-06-29T20:24:09.542Z</time>
      </trkpt>
      <trkpt lat="48.86412" lon="2.29942">
        <ele>92</ele>
        <time>2015-06-29T20:24:10.549Z</time>
      </trkpt>
      <trkpt lat="48.86412" lon="2.29949">
        <ele>92.4</ele>
        <time>2015-06-29T20:24:11.563Z</time>
      </trkpt>
      <trkpt lat="48.86413" lon="2.29957">
        <ele>93</ele>
        <time>2015-06-29T20:24:12.581Z</time>
      </trkpt>
      <trkpt lat="48.86414" lon="2.29965">
        <ele>93.3</ele>
        <time>2015-06-29T20:24:13.603Z</time>
      </trkpt>
      <trkpt lat="48.86416" lon="2.29972">
        <ele>93.6</ele>
        <time>2015-06-29T20:24:14.603Z</time>
      </trkpt>
      <trkpt lat="48.86417" lon="2.2998">
        <ele>93.6</ele>
        <time>2015-06-29T20:24:15.530Z</time>
      </trkpt>
      <trkpt lat="48.8642" lon="2.29986">
        <ele>94.2</ele>
        <time>2015-06-29T20:24:16.504Z</time>
      </trkpt>
      <trkpt lat="48.86422" lon="2.29992">
        <ele>94.4</ele>
        <time>2015-06-29T20:24:17.505Z</time>
      </trkpt>
      <trkpt lat="48.86424" lon="2.29999">
        <ele>94.6</ele>
        <time>2015-06-29T20:24:18.516Z</time>
      </trkpt>
      <trkpt lat="48.86425" lon="2.30007">
        <ele>95</ele>
        <time>2015-06-29T20:24:19.539Z</time>
      </trkpt>
      <trkpt lat="48.86425" lon="2.30014">
        <ele>95.6</ele>
        <time>2015-06-29T20:24:20.565Z</time>
      </trkpt>
      <trkpt lat="48.86427" lon="2.30021">
        <ele>96</ele>
        <time>2015-06-29T20:24:21.577Z</time>
      </trkpt>
      <trkpt lat="48.86428" lon="2.30028">
        <ele>96.2</ele>
        <time>2015-06-29T20:24:22.589Z</time>
      </trkpt>
      <trkpt lat="48.86428" lon="2.30035">
        <ele>96.1</ele>
        <time>2015-06-29T20:24:23.508Z</time>
      </trkpt>
      <trkpt lat="48.8643" lon="2.30046">
        <ele>97</ele>
        <time>2015-06-29T20:24:25.518Z</time>
      </trkpt>
      <trkpt lat="48.86431" lon="2.30053">
        <ele>97.9</ele>
        <time>2015-06-29T20:24:26.589Z</time>
      </trkpt>
      <trkpt lat="48.86434" lon="2.30064">
        <ele>99.6</ele>
        <time>2015-06-29T20:24:28.515Z</time>
      </trkpt>
      <trkpt lat="48.86435" lon="2.30069">
        <ele>99.8</ele>
        <time>2015-06-29T20:24:29.527Z</time>
      </trkpt>
      <trkpt lat="48.86435" lon="2.30079">
        <ele>100.2</ele>
        <time>2015-06-29T20:24:31.544Z</time>
      </trkpt>
      <trkpt lat="48.86436" lon="2.30083">
        <ele>100.5</ele>
        <time>2015-06-29T20:24:32.581Z</time>
      </trkpt>
      <trkpt lat="48.86436" lon="2.30095">
        <ele>100.2</ele>
        <time>2015-06-29T20:24:35.580Z</time>
      </trkpt>
      <trkpt lat="48.86436" lon="2.30099">
        <ele>99.8</ele>
        <time>2015-06-29T20:24:36.509Z</time>
      </trkpt>
      <trkpt lat="48.86437" lon="2.30111">
        <ele>98.7</ele>
        <time>2015-06-29T20:24:39.587Z</time>
      </trkpt>
      <trkpt lat="48.86436" lon="2.30115">
        <ele>97.6</ele>
        <time>2015-06-29T20:24:40.526Z</time>
      </trkpt>
      <trkpt lat="48.86437" lon="2.30126">
        <ele>97</ele>
        <time>2015-06-29T20:24:43.638Z</time>
      </trkpt>
      <trkpt lat="48.86436" lon="2.3013">
        <ele>96.6</ele>
        <time>2015-06-29T20:24:44.575Z</time>
      </trkpt>
      <trkpt lat="48.86433" lon="2.3014">
        <ele>95.7</ele>
        <time>2015-06-29T20:24:47.530Z</time>
      </trkpt>
      <trkpt lat="48.86432" lon="2.30141">
        <ele>95.1</ele>
        <time>2015-06-29T20:24:48.565Z</time>
      </trkpt>
      <trkpt lat="48.86431" lon="2.30141">
        <ele>94.9</ele>
        <time>2015-06-29T20:25:15.535Z</time>
      </trkpt>
      <trkpt lat="48.86418" lon="2.30144">
        <ele>86.7</ele>
        <time>2015-06-29T20:25:16.538Z</time>
      </trkpt>
      <trkpt lat="48.86418" lon="2.30155">
        <ele>86.7</ele>
        <time>2015-06-29T20:25:19.612Z</time>
      </trkpt>
      <trkpt lat="48.86418" lon="2.3016">
        <ele>86.6</ele>
        <time>2015-06-29T20:25:20.619Z</time>
      </trkpt>
      <trkpt lat="48.86422" lon="2.30171">
        <ele>83.8</ele>
        <time>2015-06-29T20:25:42.589Z</time>
      </trkpt>
      <trkpt lat="48.86422" lon="2.30175">
        <ele>83.9</ele>
        <time>2015-06-29T20:25:43.527Z</time>
      </trkpt>
      <trkpt lat="48.86424" lon="2.30187">
        <ele>83.7</ele>
        <time>2015-06-29T20:25:46.496Z</time>
      </trkpt>
      <trkpt lat="48.86424" lon="2.30191">
        <ele>83.5</ele>
        <time>2015-06-29T20:25:47.537Z</time>
      </trkpt>
      <trkpt lat="48.86424" lon="2.30202">
        <ele>83</ele>
        <time>2015-06-29T20:25:50.573Z</time>
      </trkpt>
      <trkpt lat="48.86423" lon="2.30205">
        <ele>82.6</ele>
        <time>2015-06-29T20:25:51.586Z</time>
      </trkpt>
      <trkpt lat="48.86427" lon="2.30216">
        <ele>82.4</ele>
        <time>2015-06-29T20:25:54.495Z</time>
      </trkpt>
      <trkpt lat="48.86429" lon="2.30223">
        <ele>82.3</ele>
        <time>2015-06-29T20:25:55.532Z</time>
      </trkpt>
      <trkpt lat="48.8643" lon="2.30235">
        <ele>82</ele>
        <time>2015-06-29T20:25:57.564Z</time>
      </trkpt>
      <trkpt lat="48.86431" lon="2.30241">
        <ele>81.8</ele>
        <time>2015-06-29T20:25:58.488Z</time>
      </trkpt>
      <trkpt lat="48.86432" lon="2.30253">
        <ele>81.9</ele>
        <time>2015-06-29T20:26:00.512Z</time>
      </trkpt>
      <trkpt lat="48.86432" lon="2.30259">
        <ele>82</ele>
        <time>2015-06-29T20:26:01.526Z</time>
      </trkpt>
      <trkpt lat="48.86432" lon="2.30271">
        <ele>81.7</ele>
        <time>2015-06-29T20:26:03.517Z</time>
      </trkpt>
      <trkpt lat="48.86432" lon="2.30277">
        <ele>81.7</ele>
        <time>2015-06-29T20:26:04.529Z</time>
      </trkpt>
      <trkpt lat="48.86432" lon="2.30289">
        <ele>81.5</ele>
        <time>2015-06-29T20:26:06.570Z</time>
      </trkpt>
      <trkpt lat="48.86433" lon="2.30296">
        <ele>81.6</ele>
        <time>2015-06-29T20:26:07.580Z</time>
      </trkpt>
      <trkpt lat="48.86434" lon="2.30303">
        <ele>81.8</ele>
        <time>2015-06-29T20:26:08.618Z</time>
      </trkpt>
      <trkpt lat="48.86436" lon="2.3031">
        <ele>82.4</ele>
        <time>2015-06-29T20:26:09.505Z</time>
      </trkpt>
      <trkpt lat="48.86437" lon="2.30317">
        <ele>82.8</ele>
        <time>2015-06-29T20:26:10.513Z</time>
      </trkpt>
      <trkpt lat="48.86438" lon="2.30324">
        <ele>83.4</ele>
        <time>2015-06-29T20:26:11.521Z</time>
      </trkpt>
      <trkpt lat="48.8644" lon="2.30331">
        <ele>83.8</ele>
        <time>2015-06-29T20:26:12.540Z</time>
      </trkpt>
      <trkpt lat="48.8644" lon="2.30338">
        <ele>83.9</ele>
        <time>2015-06-29T20:26:13.545Z</time>
      </trkpt>
      <trkpt lat="48.86441" lon="2.30346">
        <ele>84.1</ele>
        <time>2015-06-29T20:26:14.610Z</time>
      </trkpt>
      <trkpt lat="48.86441" lon="2.30353">
        <ele>84.3</ele>
        <time>2015-06-29T20:26:15.479Z</time>
      </trkpt>
      <trkpt lat="48.86442" lon="2.30361">
        <ele>84.4</ele>
        <time>2015-06-29T20:26:16.499Z</time>
      </trkpt>
      <trkpt lat="48.86443" lon="2.30368">
        <ele>84.3</ele>
        <time>2015-06-29T20:26:17.504Z</time>
      </trkpt>
      <trkpt lat="48.86444" lon="2.30375">
        <ele>84.1</ele>
        <time>2015-06-29T20:26:18.542Z</time>
      </trkpt>
      <trkpt lat="48.86445" lon="2.30383">
        <ele>84.2</ele>
        <time>2015-06-29T20:26:19.547Z</time>
      </trkpt>
      <trkpt lat="48.86446" lon="2.3039">
        <ele>84.5</ele>
        <time>2015-06-29T20:26:20.569Z</time>
      </trkpt>
      <trkpt lat="48.86448" lon="2.30398">
        <ele>84.5</ele>
        <time>2015-06-29T20:26:21.578Z</time>
      </trkpt>
      <trkpt lat="48.8645" lon="2.30405">
        <ele>84.3</ele>
        <time>2015-06-29T20:26:22.582Z</time>
      </trkpt>
      <trkpt lat="48.86452" lon="2.30412">
        <ele>84.1</ele>
        <time>2015-06-29T20:26:23.528Z</time>
      </trkpt>
      <trkpt lat="48.86455" lon="2.30419">
        <ele>83.9</ele>
        <time>2015-06-29T20:26:24.530Z</time>
      </trkpt>
      <trkpt lat="48.86456" lon="2.30426">
        <ele>84.1</ele>
        <time>2015-06-29T20:26:25.534Z</time>
      </trkpt>
      <trkpt lat="48.86457" lon="2.30434">
        <ele>84</ele>
        <time>2015-06-29T20:26:26.553Z</time>
      </trkpt>
      <trkpt lat="48.86459" lon="2.30441">
        <ele>84.6</ele>
        <time>2015-06-29T20:26:27.554Z</time>
      </trkpt>
      <trkpt lat="48.8646" lon="2.30449">
        <ele>84.9</ele>
        <time>2015-06-29T20:26:28.572Z</time>
      </trkpt>
      <trkpt lat="48.86462" lon="2.30456">
        <ele>85.2</ele>
        <time>2015-06-29T20:26:29.588Z</time>
      </trkpt>
      <trkpt lat="48.86464" lon="2.30463">
        <ele>85.3</ele>
        <time>2015-06-29T20:26:30.506Z</time>
      </trkpt>
      <trkpt lat="48.86465" lon="2.30471">
        <ele>85.6</ele>
        <time>2015-06-29T20:26:31.519Z</time>
      </trkpt>
      <trkpt lat="48.86466" lon="2.30478">
        <ele>85.7</ele>
        <time>2015-06-29T20:26:32.578Z</time>
      </trkpt>
      <trkpt lat="48.86466" lon="2.30485">
        <ele>85.4</ele>
        <time>2015-06-29T20:26:33.595Z</time>
      </trkpt>
      <trkpt lat="48.86465" lon="2.30492">
        <ele>85.3</ele>
        <time>2015-06-29T20:26:34.548Z</time>
      </trkpt>
      <trkpt lat="48.86465" lon="2.30499">
        <ele>85.4</ele>
        <time>2015-06-29T20:26:35.556Z</time>
      </trkpt>
      <trkpt lat="48.86466" lon="2.30511">
        <ele>85.8</ele>
        <time>2015-06-29T20:26:37.490Z</time>
      </trkpt>
      <trkpt lat="48.86468" lon="2.30518">
        <ele>86.4</ele>
        <time>2015-06-29T20:26:38.573Z</time>
      </trkpt>
      <trkpt lat="48.86471" lon="2.30531">
        <ele>87.3</ele>
        <time>2015-06-29T20:26:40.502Z</time>
      </trkpt>
      <trkpt lat="48.86473" lon="2.30538">
        <ele>87.5</ele>
        <time>2015-06-29T20:26:41.524Z</time>
      </trkpt>
      <trkpt lat="48.86476" lon="2.30544">
        <ele>88.6</ele>
        <time>2015-06-29T20:26:42.597Z</time>
      </trkpt>
      <trkpt lat="48.86478" lon="2.30551">
        <ele>89.5</ele>
        <time>2015-06-29T20:26:43.552Z</time>
      </trkpt>
      <trkpt lat="48.8648" lon="2.30559">
        <ele>90.5</ele>
        <time>2015-06-29T20:26:44.558Z</time>
      </trkpt>
      <trkpt lat="48.86483" lon="2.30566">
        <ele>91.3</ele>
        <time>2015-06-29T20:26:45.569Z</time>
      </trkpt>
      <trkpt lat="48.86484" lon="2.30574">
        <ele>91.9</ele>
        <time>2015-06-29T20:26:46.573Z</time>
      </trkpt>
      <trkpt lat="48.86486" lon="2.3058">
        <ele>92.6</ele>
        <time>2015-06-29T20:26:47.587Z</time>
      </trkpt>
      <trkpt lat="48.86487" lon="2.30587">
        <ele>92.8</ele>
        <time>2015-06-29T20:26:48.526Z</time>
      </trkpt>
      <trkpt lat="48.86486" lon="2.30594">
        <ele>93</ele>
        <time>2015-06-29T20:26:49.532Z</time>
      </trkpt>
      <trkpt lat="48.86486" lon="2.30603">
        <ele>93.1</ele>
        <time>2015-06-29T20:26:50.564Z</time>
      </trkpt>
      <trkpt lat="48.86486" lon="2.30612">
        <ele>93.2</ele>
        <time>2015-06-29T20:26:51.616Z</time>
      </trkpt>
      <trkpt lat="48.86485" lon="2.3062">
        <ele>93.1</ele>
        <time>2015-06-29T20:26:52.516Z</time>
      </trkpt>
      <trkpt lat="48.86485" lon="2.30628">
        <ele>93</ele>
        <time>2015-06-29T20:26:53.512Z</time>
      </trkpt>
      <trkpt lat="48.86486" lon="2.30634">
        <ele>93</ele>
        <time>2015-06-29T20:26:54.516Z</time>
      </trkpt>
      <trkpt lat="48.86487" lon="2.30641">
        <ele>93.5</ele>
        <time>2015-06-29T20:26:55.524Z</time>
      </trkpt>
      <trkpt lat="48.86488" lon="2.30648">
        <ele>93.6</ele>
        <time>2015-06-29T20:26:56.548Z</time>
      </trkpt>
      <trkpt lat="48.8649" lon="2.30655">
        <ele>93.4</ele>
        <time>2015-06-29T20:26:57.542Z</time>
      </trkpt>
      <trkpt lat="48.86493" lon="2.30662">
        <ele>94.4</ele>
        <time>2015-06-29T20:26:58.559Z</time>
      </trkpt>
      <trkpt lat="48.86495" lon="2.30669">
        <ele>95.2</ele>
        <time>2015-06-29T20:26:59.570Z</time>
      </trkpt>
      <trkpt lat="48.86496" lon="2.30678">
        <ele>95.7</ele>
        <time>2015-06-29T20:27:00.478Z</time>
      </trkpt>
      <trkpt lat="48.86496" lon="2.30686">
        <ele>96.2</ele>
        <time>2015-06-29T20:27:01.505Z</time>
      </trkpt>
      <trkpt lat="48.86496" lon="2.30694">
        <ele>96.9</ele>
        <time>2015-06-29T20:27:02.555Z</time>
      </trkpt>
      <trkpt lat="48.86496" lon="2.30702">
        <ele>97.5</ele>
        <time>2015-06-29T20:27:03.551Z</time>
      </trkpt>
      <trkpt lat="48.86496" lon="2.30711">
        <ele>98.4</ele>
        <time>2015-06-29T20:27:04.558Z</time>
      </trkpt>
      <trkpt lat="48.86496" lon="2.30719">
        <ele>98.9</ele>
        <time>2015-06-29T20:27:05.555Z</time>
      </trkpt>
      <trkpt lat="48.86496" lon="2.30728">
        <ele>99.6</ele>
        <time>2015-06-29T20:27:06.575Z</time>
      </trkpt>
      <trkpt lat="48.86496" lon="2.30736">
        <ele>100.2</ele>
        <time>2015-06-29T20:27:07.581Z</time>
      </trkpt>
      <trkpt lat="48.86496" lon="2.30743">
        <ele>100.3</ele>
        <time>2015-06-29T20:27:08.593Z</time>
      </trkpt>
      <trkpt lat="48.86497" lon="2.30751">
        <ele>100.8</ele>
        <time>2015-06-29T20:27:09.499Z</time>
      </trkpt>
      <trkpt lat="48.86497" lon="2.30759">
        <ele>100.7</ele>
        <time>2015-06-29T20:27:10.503Z</time>
      </trkpt>
      <trkpt lat="48.86497" lon="2.30766">
        <ele>100.9</ele>
        <time>2015-06-29T20:27:11.509Z</time>
      </trkpt>
      <trkpt lat="48.86497" lon="2.30774">
        <ele>101.2</ele>
        <time>2015-06-29T20:27:12.521Z</time>
      </trkpt>
      <trkpt lat="48.86496" lon="2.30782">
        <ele>101.6</ele>
        <time>2015-06-29T20:27:13.528Z</time>
      </trkpt>
      <trkpt lat="48.86496" lon="2.3079">
        <ele>102.1</ele>
        <time>2015-06-29T20:27:14.555Z</time>
      </trkpt>
      <trkpt lat="48.86497" lon="2.30798">
        <ele>102</ele>
        <time>2015-06-29T20:27:15.563Z</time>
      </trkpt>
      <trkpt lat="48.86496" lon="2.30807">
        <ele>102.1</ele>
        <time>2015-06-29T20:27:16.578Z</time>
      </trkpt>
      <trkpt lat="48.86495" lon="2.30816">
        <ele>101.7</ele>
        <time>2015-06-29T20:27:17.583Z</time>
      </trkpt>
      <trkpt lat="48.86495" lon="2.30825">
        <ele>101.8</ele>
        <time>2015-06-29T20:27:18.502Z</time>
      </trkpt>
      <trkpt lat="48.86496" lon="2.30833">
        <ele>101.7</ele>
        <time>2015-06-29T20:27:19.501Z</time>
      </trkpt>
      <trkpt lat="48.86496" lon="2.30842">
        <ele>102.3</ele>
        <time>2015-06-29T20:27:20.555Z</time>
      </trkpt>
      <trkpt lat="48.86497" lon="2.30851">
        <ele>102.8</ele>
        <time>2015-06-29T20:27:21.551Z</time>
      </trkpt>
      <trkpt lat="48.86497" lon="2.30859">
        <ele>103.5</ele>
        <time>2015-06-29T20:27:22.591Z</time>
      </trkpt>
      <trkpt lat="48.86498" lon="2.30868">
        <ele>103.8</ele>
        <time>2015-06-29T20:27:23.505Z</time>
      </trkpt>
      <trkpt lat="48.86498" lon="2.30876">
        <ele>104.1</ele>
        <time>2015-06-29T20:27:24.536Z</time>
      </trkpt>
      <trkpt lat="48.86498" lon="2.30884">
        <ele>104.3</ele>
        <time>2015-06-29T20:27:25.574Z</time>
      </trkpt>
      <trkpt lat="48.86497" lon="2.30892">
        <ele>104.6</ele>
        <time>2015-06-29T20:27:26.686Z</time>
      </trkpt>
      <trkpt lat="48.86496" lon="2.30901">
        <ele>104.8</ele>
        <time>2015-06-29T20:27:27.510Z</time>
      </trkpt>
      <trkpt lat="48.86496" lon="2.30909">
        <ele>104.8</ele>
        <time>2015-06-29T20:27:28.505Z</time>
      </trkpt>
      <trkpt lat="48.86496" lon="2.30916">
        <ele>104.6</ele>
        <time>2015-06-29T20:27:29.511Z</time>
      </trkpt>
      <trkpt lat="48.86496" lon="2.30922">
        <ele>104.6</ele>
        <time>2015-06-29T20:27:30.516Z</time>
      </trkpt>
      <trkpt lat="48.86495" lon="2.3093">
        <ele>104.8</ele>
        <time>2015-06-29T20:27:31.526Z</time>
      </trkpt>
      <trkpt lat="48.86494" lon="2.30937">
        <ele>104.5</ele>
        <time>2015-06-29T20:27:32.627Z</time>
      </trkpt>
      <trkpt lat="48.86494" lon="2.30945">
        <ele>104.6</ele>
        <time>2015-06-29T20:27:33.533Z</time>
      </trkpt>
      <trkpt lat="48.86493" lon="2.30953">
        <ele>104.5</ele>
        <time>2015-06-29T20:27:34.520Z</time>
      </trkpt>
      <trkpt lat="48.86492" lon="2.3096">
        <ele>104.7</ele>
        <time>2015-06-29T20:27:35.530Z</time>
      </trkpt>
      <trkpt lat="48.86491" lon="2.30972">
        <ele>104.3</ele>
        <time>2015-06-29T20:27:37.547Z</time>
      </trkpt>
      <trkpt lat="48.86491" lon="2.30978">
        <ele>104.1</ele>
        <time>2015-06-29T20:27:38.553Z</time>
      </trkpt>
      <trkpt lat="48.8649" lon="2.30991">
        <ele>104.3</ele>
        <time>2015-06-29T20:27:40.587Z</time>
      </trkpt>
      <trkpt lat="48.86489" lon="2.30998">
        <ele>104.2</ele>
        <time>2015-06-29T20:27:41.524Z</time>
      </trkpt>
      <trkpt lat="48.86488" lon="2.31007">
        <ele>103.3</ele>
        <time>2015-06-29T20:27:43.543Z</time>
      </trkpt>
      <trkpt lat="48.86488" lon="2.31011">
        <ele>103.3</ele>
        <time>2015-06-29T20:27:44.595Z</time>
      </trkpt>
      <trkpt lat="48.86485" lon="2.31022">
        <ele>102.8</ele>
        <time>2015-06-29T20:27:47.551Z</time>
      </trkpt>
      <trkpt lat="48.86484" lon="2.31024">
        <ele>102.2</ele>
        <time>2015-06-29T20:27:48.566Z</time>
      </trkpt>
      <trkpt lat="48.86481" lon="2.31025">
        <ele>101.3</ele>
        <time>2015-06-29T20:27:49.501Z</time>
      </trkpt>
      <trkpt lat="48.86476" lon="2.31026">
        <ele>99</ele>
        <time>2015-06-29T20:27:50.613Z</time>
      </trkpt>
      <trkpt lat="48.86478" lon="2.31038">
        <ele>96.9</ele>
        <time>2015-06-29T20:27:57.594Z</time>
      </trkpt>
      <trkpt lat="48.86479" lon="2.31041">
        <ele>96.9</ele>
        <time>2015-06-29T20:27:58.485Z</time>
      </trkpt>
      <trkpt lat="48.86479" lon="2.31054">
        <ele>96.7</ele>
        <time>2015-06-29T20:28:01.486Z</time>
      </trkpt>
      <trkpt lat="48.86479" lon="2.3106">
        <ele>96.9</ele>
        <time>2015-06-29T20:28:02.635Z</time>
      </trkpt>
      <trkpt lat="48.86479" lon="2.31069">
        <ele>96.5</ele>
        <time>2015-06-29T20:28:04.576Z</time>
      </trkpt>
      <trkpt lat="48.86479" lon="2.31075">
        <ele>96.1</ele>
        <time>2015-06-29T20:28:05.482Z</time>
      </trkpt>
      <trkpt lat="48.86479" lon="2.31087">
        <ele>95.1</ele>
        <time>2015-06-29T20:28:07.489Z</time>
      </trkpt>
      <trkpt lat="48.8648" lon="2.31093">
        <ele>94.6</ele>
        <time>2015-06-29T20:28:08.517Z</time>
      </trkpt>
      <trkpt lat="48.86479" lon="2.31106">
        <ele>94.3</ele>
        <time>2015-06-29T20:28:10.529Z</time>
      </trkpt>
      <trkpt lat="48.86479" lon="2.31113">
        <ele>94.1</ele>
        <time>2015-06-29T20:28:11.535Z</time>
      </trkpt>
      <trkpt lat="48.8648" lon="2.31125">
        <ele>94.3</ele>
        <time>2015-06-29T20:28:13.570Z</time>
      </trkpt>
      <trkpt lat="48.8648" lon="2.31132">
        <ele>93.9</ele>
        <time>2015-06-29T20:28:14.582Z</time>
      </trkpt>
      <trkpt lat="48.8648" lon="2.31139">
        <ele>93.9</ele>
        <time>2015-06-29T20:28:15.498Z</time>
      </trkpt>
      <trkpt lat="48.8648" lon="2.31146">
        <ele>93.9</ele>
        <time>2015-06-29T20:28:16.569Z</time>
      </trkpt>
      <trkpt lat="48.8648" lon="2.31154">
        <ele>93.9</ele>
        <time>2015-06-29T20:28:17.513Z</time>
      </trkpt>
      <trkpt lat="48.8648" lon="2.31161">
        <ele>93.9</ele>
        <time>2015-06-29T20:28:18.519Z</time>
      </trkpt>
      <trkpt lat="48.8648" lon="2.31169">
        <ele>94</ele>
        <time>2015-06-29T20:28:19.536Z</time>
      </trkpt>
      <trkpt lat="48.8648" lon="2.31176">
        <ele>93.9</ele>
        <time>2015-06-29T20:28:20.674Z</time>
      </trkpt>
      <trkpt lat="48.8648" lon="2.3119">
        <ele>93.4</ele>
        <time>2015-06-29T20:28:22.538Z</time>
      </trkpt>
      <trkpt lat="48.8648" lon="2.31197">
        <ele>92.8</ele>
        <time>2015-06-29T20:28:23.603Z</time>
      </trkpt>
      <trkpt lat="48.8648" lon="2.31204">
        <ele>92.3</ele>
        <time>2015-06-29T20:28:24.504Z</time>
      </trkpt>
      <trkpt lat="48.86479" lon="2.31212">
        <ele>92.1</ele>
        <time>2015-06-29T20:28:25.501Z</time>
      </trkpt>
      <trkpt lat="48.86479" lon="2.31219">
        <ele>91.9</ele>
        <time>2015-06-29T20:28:26.581Z</time>
      </trkpt>
      <trkpt lat="48.86479" lon="2.31226">
        <ele>91.6</ele>
        <time>2015-06-29T20:28:27.535Z</time>
      </trkpt>
      <trkpt lat="48.86479" lon="2.31233">
        <ele>91.3</ele>
        <time>2015-06-29T20:28:28.507Z</time>
      </trkpt>
      <trkpt lat="48.86479" lon="2.3124">
        <ele>91.1</ele>
        <time>2015-06-29T20:28:29.513Z</time>
      </trkpt>
      <trkpt lat="48.86478" lon="2.31248">
        <ele>91</ele>
        <time>2015-06-29T20:28:30.536Z</time>
      </trkpt>
      <trkpt lat="48.86479" lon="2.31255">
        <ele>91</ele>
        <time>2015-06-29T20:28:31.584Z</time>
      </trkpt>
      <trkpt lat="48.8648" lon="2.31262">
        <ele>90.7</ele>
        <time>2015-06-29T20:28:32.660Z</time>
      </trkpt>
      <trkpt lat="48.8648" lon="2.31269">
        <ele>90.4</ele>
        <time>2015-06-29T20:28:33.497Z</time>
      </trkpt>
      <trkpt lat="48.86481" lon="2.31282">
        <ele>90.2</ele>
        <time>2015-06-29T20:28:35.578Z</time>
      </trkpt>
      <trkpt lat="48.86481" lon="2.31289">
        <ele>90</ele>
        <time>2015-06-29T20:28:36.497Z</time>
      </trkpt>
      <trkpt lat="48.86481" lon="2.31302">
        <ele>90.5</ele>
        <time>2015-06-29T20:28:38.579Z</time>
      </trkpt>
      <trkpt lat="48.86482" lon="2.31307">
        <ele>90.7</ele>
        <time>2015-06-29T20:28:39.604Z</time>
      </trkpt>
      <trkpt lat="48.86477" lon="2.31318">
        <ele>89</ele>
        <time>2015-06-29T20:28:41.500Z</time>
      </trkpt>
      <trkpt lat="48.86477" lon="2.31322">
        <ele>88.5</ele>
        <time>2015-06-29T20:28:42.500Z</time>
      </trkpt>
      <trkpt lat="48.86475" lon="2.31335">
        <ele>88.8</ele>
        <time>2015-06-29T20:28:45.552Z</time>
      </trkpt>
      <trkpt lat="48.86472" lon="2.31338">
        <ele>88.7</ele>
        <time>2015-06-29T20:28:46.565Z</time>
      </trkpt>
      <trkpt lat="48.86466" lon="2.31347">
        <ele>86.2</ele>
        <time>2015-06-29T20:28:50.518Z</time>
      </trkpt>
      <trkpt lat="48.86466" lon="2.31349">
        <ele>86.2</ele>
        <time>2015-06-29T20:28:51.534Z</time>
      </trkpt>
      <trkpt lat="48.86467" lon="2.31361">
        <ele>85.8</ele>
        <time>2015-06-29T20:28:55.589Z</time>
      </trkpt>
      <trkpt lat="48.86467" lon="2.31365">
        <ele>86</ele>
        <time>2015-06-29T20:28:56.625Z</time>
      </trkpt>
      <trkpt lat="48.86468" lon="2.31375">
        <ele>86.2</ele>
        <time>2015-06-29T20:28:59.530Z</time>
      </trkpt>
      <trkpt lat="48.86468" lon="2.31378">
        <ele>86.3</ele>
        <time>2015-06-29T20:29:00.549Z</time>
      </trkpt>
      <trkpt lat="48.86469" lon="2.31388">
        <ele>86.9</ele>
        <time>2015-06-29T20:29:02.616Z</time>
      </trkpt>
      <trkpt lat="48.8647" lon="2.31392">
        <ele>86.8</ele>
        <time>2015-06-29T20:29:03.525Z</time>
      </trkpt>
      <trkpt lat="48.86472" lon="2.31402">
        <ele>87.2</ele>
        <time>2015-06-29T20:29:05.518Z</time>
      </trkpt>
      <trkpt lat="48.86473" lon="2.31407">
        <ele>87.1</ele>
        <time>2015-06-29T20:29:06.531Z</time>
      </trkpt>
      <trkpt lat="48.86474" lon="2.31418">
        <ele>87.1</ele>
        <time>2015-06-29T20:29:08.555Z</time>
      </trkpt>
      <trkpt lat="48.86475" lon="2.31424">
        <ele>86.9</ele>
        <time>2015-06-29T20:29:09.568Z</time>
      </trkpt>
      <trkpt lat="48.86475" lon="2.31436">
        <ele>86.7</ele>
        <time>2015-06-29T20:29:11.589Z</time>
      </trkpt>
      <trkpt lat="48.86475" lon="2.31443">
        <ele>86.7</ele>
        <time>2015-06-29T20:29:12.602Z</time>
      </trkpt>
      <trkpt lat="48.86474" lon="2.3145">
        <ele>86.7</ele>
        <time>2015-06-29T20:29:13.515Z</time>
      </trkpt>
      <trkpt lat="48.86474" lon="2.31457">
        <ele>86.8</ele>
        <time>2015-06-29T20:29:14.550Z</time>
      </trkpt>
      <trkpt lat="48.86475" lon="2.31465">
        <ele>86.8</ele>
        <time>2015-06-29T20:29:15.567Z</time>
      </trkpt>
      <trkpt lat="48.86475" lon="2.31473">
        <ele>86.7</ele>
        <time>2015-06-29T20:29:16.576Z</time>
      </trkpt>
      <trkpt lat="48.86475" lon="2.31481">
        <ele>86.6</ele>
        <time>2015-06-29T20:29:17.491Z</time>
      </trkpt>
      <trkpt lat="48.86475" lon="2.31489">
        <ele>87.1</ele>
        <time>2015-06-29T20:29:18.497Z</time>
      </trkpt>
      <trkpt lat="48.86476" lon="2.31497">
        <ele>87.6</ele>
        <time>2015-06-29T20:29:19.500Z</time>
      </trkpt>
      <trkpt lat="48.86476" lon="2.31505">
        <ele>87.7</ele>
        <time>2015-06-29T20:29:20.544Z</time>
      </trkpt>
      <trkpt lat="48.86476" lon="2.31513">
        <ele>87.9</ele>
        <time>2015-06-29T20:29:21.546Z</time>
      </trkpt>
      <trkpt lat="48.86477" lon="2.31522">
        <ele>87.9</ele>
        <time>2015-06-29T20:29:22.595Z</time>
      </trkpt>
      <trkpt lat="48.86478" lon="2.3153">
        <ele>87.9</ele>
        <time>2015-06-29T20:29:23.510Z</time>
      </trkpt>
      <trkpt lat="48.8648" lon="2.31539">
        <ele>88</ele>
        <time>2015-06-29T20:29:24.515Z</time>
      </trkpt>
      <trkpt lat="48.86481" lon="2.31546">
        <ele>87.7</ele>
        <time>2015-06-29T20:29:25.532Z</time>
      </trkpt>
      <trkpt lat="48.86482" lon="2.31554">
        <ele>87.3</ele>
        <time>2015-06-29T20:29:26.545Z</time>
      </trkpt>
      <trkpt lat="48.86483" lon="2.31562">
        <ele>87.4</ele>
        <time>2015-06-29T20:29:27.560Z</time>
      </trkpt>
      <trkpt lat="48.86483" lon="2.31571">
        <ele>87.8</ele>
        <time>2015-06-29T20:29:28.568Z</time>
      </trkpt>
      <trkpt lat="48.86482" lon="2.3158">
        <ele>87.7</ele>
        <time>2015-06-29T20:29:29.494Z</time>
      </trkpt>
      <trkpt lat="48.86482" lon="2.31589">
        <ele>87.6</ele>
        <time>2015-06-29T20:29:30.505Z</time>
      </trkpt>
      <trkpt lat="48.86481" lon="2.31598">
        <ele>87.3</ele>
        <time>2015-06-29T20:29:31.515Z</time>
      </trkpt>
      <trkpt lat="48.86482" lon="2.31607">
        <ele>87.3</ele>
        <time>2015-06-29T20:29:32.549Z</time>
      </trkpt>
      <trkpt lat="48.86482" lon="2.31616">
        <ele>87.3</ele>
        <time>2015-06-29T20:29:33.558Z</time>
      </trkpt>
      <trkpt lat="48.86482" lon="2.31624">
        <ele>87.1</ele>
        <time>2015-06-29T20:29:34.578Z</time>
      </trkpt>
      <trkpt lat="48.86483" lon="2.31633">
        <ele>86.9</ele>
        <time>2015-06-29T20:29:35.596Z</time>
      </trkpt>
      <trkpt lat="48.86484" lon="2.31642">
        <ele>86.7</ele>
        <time>2015-06-29T20:29:36.505Z</time>
      </trkpt>
      <trkpt lat="48.86484" lon="2.31651">
        <ele>86.7</ele>
        <time>2015-06-29T20:29:37.516Z</time>
      </trkpt>
      <trkpt lat="48.86486" lon="2.31659">
        <ele>86.8</ele>
        <time>2015-06-29T20:29:38.547Z</time>
      </trkpt>
      <trkpt lat="48.86487" lon="2.31667">
        <ele>86.6</ele>
        <time>2015-06-29T20:29:39.547Z</time>
      </trkpt>
      <trkpt lat="48.86487" lon="2.31677">
        <ele>86.5</ele>
        <time>2015-06-29T20:29:40.558Z</time>
      </trkpt>
      <trkpt lat="48.86488" lon="2.31686">
        <ele>86.6</ele>
        <time>2015-06-29T20:29:41.569Z</time>
      </trkpt>
      <trkpt lat="48.86489" lon="2.31695">
        <ele>86.8</ele>
        <time>2015-06-29T20:29:42.584Z</time>
      </trkpt>
      <trkpt lat="48.8649" lon="2.31704">
        <ele>87</ele>
        <time>2015-06-29T20:29:43.677Z</time>
      </trkpt>
      <trkpt lat="48.8649" lon="2.31713">
        <ele>87.2</ele>
        <time>2015-06-29T20:29:44.555Z</time>
      </trkpt>
      <trkpt lat="48.86491" lon="2.31722">
        <ele>87.1</ele>
        <time>2015-06-29T20:29:45.560Z</time>
      </trkpt>
      <trkpt lat="48.8649" lon="2.31731">
        <ele>87.3</ele>
        <time>2015-06-29T20:29:46.573Z</time>
      </trkpt>
      <trkpt lat="48.8649" lon="2.3174">
        <ele>87.5</ele>
        <time>2015-06-29T20:29:47.509Z</time>
      </trkpt>
      <trkpt lat="48.86489" lon="2.31749">
        <ele>87.7</ele>
        <time>2015-06-29T20:29:48.499Z</time>
      </trkpt>
      <trkpt lat="48.86489" lon="2.31758">
        <ele>88.1</ele>
        <time>2015-06-29T20:29:49.521Z</time>
      </trkpt>
      <trkpt lat="48.8649" lon="2.31767">
        <ele>88.5</ele>
        <time>2015-06-29T20:29:50.567Z</time>
      </trkpt>
      <trkpt lat="48.8649" lon="2.31776">
        <ele>88.7</ele>
        <time>2015-06-29T20:29:51.592Z</time>
      </trkpt>
      <trkpt lat="48.8649" lon="2.31784">
        <ele>89</ele>
        <time>2015-06-29T20:29:52.524Z</time>
      </trkpt>
      <trkpt lat="48.86491" lon="2.31793">
        <ele>89.5</ele>
        <time>2015-06-29T20:29:53.503Z</time>
      </trkpt>
      <trkpt lat="48.86492" lon="2.31801">
        <ele>89.5</ele>
        <time>2015-06-29T20:29:54.503Z</time>
      </trkpt>
      <trkpt lat="48.86493" lon="2.31808">
        <ele>89.3</ele>
        <time>2015-06-29T20:29:55.521Z</time>
      </trkpt>
      <trkpt lat="48.86494" lon="2.31817">
        <ele>89.6</ele>
        <time>2015-06-29T20:29:56.548Z</time>
      </trkpt>
      <trkpt lat="48.86494" lon="2.31824">
        <ele>89.8</ele>
        <time>2015-06-29T20:29:57.560Z</time>
      </trkpt>
      <trkpt lat="48.8649" lon="2.31834">
        <ele>89.1</ele>
        <time>2015-06-29T20:29:58.507Z</time>
      </trkpt>
      <trkpt lat="48.86485" lon="2.31841">
        <ele>88.4</ele>
        <time>2015-06-29T20:29:59.507Z</time>
      </trkpt>
      <trkpt lat="48.8648" lon="2.31847">
        <ele>87.8</ele>
        <time>2015-06-29T20:30:00.528Z</time>
      </trkpt>
      <trkpt lat="48.86474" lon="2.31853">
        <ele>87</ele>
        <time>2015-06-29T20:30:01.557Z</time>
      </trkpt>
      <trkpt lat="48.86469" lon="2.31858">
        <ele>86.6</ele>
        <time>2015-06-29T20:30:02.560Z</time>
      </trkpt>
      <trkpt lat="48.86463" lon="2.31863">
        <ele>85.8</ele>
        <time>2015-06-29T20:30:03.570Z</time>
      </trkpt>
      <trkpt lat="48.86458" lon="2.31868">
        <ele>85.2</ele>
        <time>2015-06-29T20:30:04.576Z</time>
      </trkpt>
      <trkpt lat="48.86453" lon="2.31878">
        <ele>84.7</ele>
        <time>2015-06-29T20:30:06.497Z</time>
      </trkpt>
      <trkpt lat="48.86451" lon="2.31883">
        <ele>84.4</ele>
        <time>2015-06-29T20:30:07.524Z</time>
      </trkpt>
      <trkpt lat="48.86448" lon="2.31893">
        <ele>84</ele>
        <time>2015-06-29T20:30:09.555Z</time>
      </trkpt>
      <trkpt lat="48.86446" lon="2.31898">
        <ele>83.8</ele>
        <time>2015-06-29T20:30:10.568Z</time>
      </trkpt>
      <trkpt lat="48.86443" lon="2.31908">
        <ele>83.7</ele>
        <time>2015-06-29T20:30:12.498Z</time>
      </trkpt>
      <trkpt lat="48.86441" lon="2.31912">
        <ele>83.5</ele>
        <time>2015-06-29T20:30:13.566Z</time>
      </trkpt>
      <trkpt lat="48.86438" lon="2.31921">
        <ele>82.9</ele>
        <time>2015-06-29T20:30:15.499Z</time>
      </trkpt>
      <trkpt lat="48.86436" lon="2.31925">
        <ele>82.6</ele>
        <time>2015-06-29T20:30:16.529Z</time>
      </trkpt>
      <trkpt lat="48.86432" lon="2.31935">
        <ele>82.6</ele>
        <time>2015-06-29T20:30:18.555Z</time>
      </trkpt>
      <trkpt lat="48.8643" lon="2.3194">
        <ele>82.4</ele>
        <time>2015-06-29T20:30:19.631Z</time>
      </trkpt>
      <trkpt lat="48.86426" lon="2.3195">
        <ele>82.3</ele>
        <time>2015-06-29T20:30:21.722Z</time>
      </trkpt>
      <trkpt lat="48.86424" lon="2.31956">
        <ele>82.2</ele>
        <time>2015-06-29T20:30:22.478Z</time>
      </trkpt>
      <trkpt lat="48.86422" lon="2.31966">
        <ele>82.4</ele>
        <time>2015-06-29T20:30:25.025Z</time>
      </trkpt>
      <trkpt lat="48.86421" lon="2.3197">
        <ele>82.4</ele>
        <time>2015-06-29T20:30:25.713Z</time>
      </trkpt>
      <trkpt lat="48.86415" lon="2.31979">
        <ele>80.6</ele>
        <time>2015-06-29T20:30:30.114Z</time>
      </trkpt>
      <trkpt lat="48.86414" lon="2.3198">
        <ele>80.8</ele>
        <time>2015-06-29T20:30:30.584Z</time>
      </trkpt>
      <trkpt lat="48.86413" lon="2.31981">
        <ele>81</ele>
        <time>2015-06-29T20:31:24.822Z</time>
      </trkpt>
      <trkpt lat="48.86406" lon="2.31994">
        <ele>82.2</ele>
        <time>2015-06-29T20:31:25.527Z</time>
      </trkpt>
      <trkpt lat="48.86403" lon="2.32006">
        <ele>82.5</ele>
        <time>2015-06-29T20:31:31.518Z</time>
      </trkpt>
      <trkpt lat="48.86403" lon="2.32009">
        <ele>82.5</ele>
        <time>2015-06-29T20:31:32.647Z</time>
      </trkpt>
      <trkpt lat="48.86402" lon="2.32021">
        <ele>82.5</ele>
        <time>2015-06-29T20:31:36.521Z</time>
      </trkpt>
      <trkpt lat="48.86402" lon="2.32024">
        <ele>82.4</ele>
        <time>2015-06-29T20:31:37.558Z</time>
      </trkpt>
      <trkpt lat="48.864" lon="2.32035">
        <ele>82.4</ele>
        <time>2015-06-29T20:31:40.512Z</time>
      </trkpt>
      <trkpt lat="48.86399" lon="2.3204">
        <ele>82.1</ele>
        <time>2015-06-29T20:31:41.526Z</time>
      </trkpt>
      <trkpt lat="48.86396" lon="2.32049">
        <ele>81.8</ele>
        <time>2015-06-29T20:31:43.596Z</time>
      </trkpt>
      <trkpt lat="48.86395" lon="2.32055">
        <ele>81.8</ele>
        <time>2015-06-29T20:31:44.616Z</time>
      </trkpt>
      <trkpt lat="48.86391" lon="2.32065">
        <ele>81.7</ele>
        <time>2015-06-29T20:31:46.591Z</time>
      </trkpt>
      <trkpt lat="48.86389" lon="2.32069">
        <ele>81.5</ele>
        <time>2015-06-29T20:31:47.562Z</time>
      </trkpt>
      <trkpt lat="48.86386" lon="2.3208">
        <ele>81.6</ele>
        <time>2015-06-29T20:31:50.183Z</time>
      </trkpt>
      <trkpt lat="48.86384" lon="2.32086">
        <ele>81.7</ele>
        <time>2015-06-29T20:31:50.586Z</time>
      </trkpt>
      <trkpt lat="48.86382" lon="2.32097">
        <ele>81.6</ele>
        <time>2015-06-29T20:31:52.603Z</time>
      </trkpt>
      <trkpt lat="48.8638" lon="2.32103">
        <ele>81.5</ele>
        <time>2015-06-29T20:31:53.519Z</time>
      </trkpt>
      <trkpt lat="48.86377" lon="2.32115">
        <ele>81.6</ele>
        <time>2015-06-29T20:31:55.522Z</time>
      </trkpt>
      <trkpt lat="48.86375" lon="2.32121">
        <ele>81.6</ele>
        <time>2015-06-29T20:31:56.641Z</time>
      </trkpt>
      <trkpt lat="48.86374" lon="2.32127">
        <ele>81.7</ele>
        <time>2015-06-29T20:31:57.558Z</time>
      </trkpt>
      <trkpt lat="48.86373" lon="2.32134">
        <ele>81.7</ele>
        <time>2015-06-29T20:31:58.554Z</time>
      </trkpt>
      <trkpt lat="48.86371" lon="2.32147">
        <ele>81.8</ele>
        <time>2015-06-29T20:32:00.503Z</time>
      </trkpt>
      <trkpt lat="48.86369" lon="2.32155">
        <ele>81.7</ele>
        <time>2015-06-29T20:32:01.509Z</time>
      </trkpt>
      <trkpt lat="48.86368" lon="2.32163">
        <ele>81.7</ele>
        <time>2015-06-29T20:32:02.561Z</time>
      </trkpt>
      <trkpt lat="48.86366" lon="2.32172">
        <ele>81.9</ele>
        <time>2015-06-29T20:32:03.652Z</time>
      </trkpt>
      <trkpt lat="48.86364" lon="2.32182">
        <ele>81.8</ele>
        <time>2015-06-29T20:32:05.292Z</time>
      </trkpt>
      <trkpt lat="48.8636" lon="2.32193">
        <ele>82.1</ele>
        <time>2015-06-29T20:32:05.510Z</time>
      </trkpt>
      <trkpt lat="48.86355" lon="2.32205">
        <ele>82.7</ele>
        <time>2015-06-29T20:32:06.519Z</time>
      </trkpt>
      <trkpt lat="48.86351" lon="2.32217">
        <ele>82.7</ele>
        <time>2015-06-29T20:32:07.583Z</time>
      </trkpt>
      <trkpt lat="48.86348" lon="2.32229">
        <ele>82.6</ele>
        <time>2015-06-29T20:32:08.580Z</time>
      </trkpt>
      <trkpt lat="48.86345" lon="2.3224">
        <ele>82.3</ele>
        <time>2015-06-29T20:32:09.508Z</time>
      </trkpt>
      <trkpt lat="48.86341" lon="2.32252">
        <ele>82.2</ele>
        <time>2015-06-29T20:32:10.515Z</time>
      </trkpt>
      <trkpt lat="48.86337" lon="2.32263">
        <ele>82.1</ele>
        <time>2015-06-29T20:32:11.522Z</time>
      </trkpt>
      <trkpt lat="48.86332" lon="2.32275">
        <ele>82.4</ele>
        <time>2015-06-29T20:32:12.552Z</time>
      </trkpt>
      <trkpt lat="48.86328" lon="2.32287">
        <ele>82.8</ele>
        <time>2015-06-29T20:32:13.562Z</time>
      </trkpt>
      <trkpt lat="48.86323" lon="2.32299">
        <ele>83.2</ele>
        <time>2015-06-29T20:32:14.577Z</time>
      </trkpt>
      <trkpt lat="48.86319" lon="2.32312">
        <ele>83.1</ele>
        <time>2015-06-29T20:32:15.486Z</time>
      </trkpt>
      <trkpt lat="48.86314" lon="2.32324">
        <ele>83.1</ele>
        <time>2015-06-29T20:32:16.504Z</time>
      </trkpt>
      <trkpt lat="48.86311" lon="2.32335">
        <ele>82.9</ele>
        <time>2015-06-29T20:32:17.531Z</time>
      </trkpt>
      <trkpt lat="48.86307" lon="2.32347">
        <ele>82.7</ele>
        <time>2015-06-29T20:32:18.551Z</time>
      </trkpt>
      <trkpt lat="48.86304" lon="2.32359">
        <ele>82.7</ele>
        <time>2015-06-29T20:32:19.607Z</time>
      </trkpt>
      <trkpt lat="48.86301" lon="2.32371">
        <ele>83.4</ele>
        <time>2015-06-29T20:32:20.598Z</time>
      </trkpt>
      <trkpt lat="48.86298" lon="2.32383">
        <ele>83.2</ele>
        <time>2015-06-29T20:32:21.503Z</time>
      </trkpt>
      <trkpt lat="48.86294" lon="2.32395">
        <ele>83.1</ele>
        <time>2015-06-29T20:32:22.511Z</time>
      </trkpt>
      <trkpt lat="48.8629" lon="2.32406">
        <ele>83.5</ele>
        <time>2015-06-29T20:32:23.528Z</time>
      </trkpt>
      <trkpt lat="48.86286" lon="2.32418">
        <ele>82.9</ele>
        <time>2015-06-29T20:32:24.537Z</time>
      </trkpt>
      <trkpt lat="48.86282" lon="2.32431">
        <ele>83.3</ele>
        <time>2015-06-29T20:32:25.552Z</time>
      </trkpt>
      <trkpt lat="48.86277" lon="2.32443">
        <ele>83.2</ele>
        <time>2015-06-29T20:32:26.568Z</time>
      </trkpt>
      <trkpt lat="48.86272" lon="2.32455">
        <ele>83.1</ele>
        <time>2015-06-29T20:32:27.572Z</time>
      </trkpt>
      <trkpt lat="48.86268" lon="2.32467">
        <ele>82.5</ele>
        <time>2015-06-29T20:32:28.499Z</time>
      </trkpt>
      <trkpt lat="48.86264" lon="2.32479">
        <ele>82.8</ele>
        <time>2015-06-29T20:32:29.519Z</time>
      </trkpt>
      <trkpt lat="48.8626" lon="2.3249">
        <ele>83.1</ele>
        <time>2015-06-29T20:32:30.499Z</time>
      </trkpt>
      <trkpt lat="48.86257" lon="2.32501">
        <ele>82.7</ele>
        <time>2015-06-29T20:32:31.496Z</time>
      </trkpt>
      <trkpt lat="48.86254" lon="2.32512">
        <ele>82.7</ele>
        <time>2015-06-29T20:32:32.571Z</time>
      </trkpt>
      <trkpt lat="48.86251" lon="2.32523">
        <ele>81.9</ele>
        <time>2015-06-29T20:32:33.583Z</time>
      </trkpt>
      <trkpt lat="48.86248" lon="2.32533">
        <ele>81.4</ele>
        <time>2015-06-29T20:32:34.501Z</time>
      </trkpt>
      <trkpt lat="48.86244" lon="2.32544">
        <ele>81.5</ele>
        <time>2015-06-29T20:32:35.511Z</time>
      </trkpt>
      <trkpt lat="48.86241" lon="2.32554">
        <ele>81.7</ele>
        <time>2015-06-29T20:32:36.523Z</time>
      </trkpt>
      <trkpt lat="48.86237" lon="2.32565">
        <ele>81.5</ele>
        <time>2015-06-29T20:32:37.527Z</time>
      </trkpt>
      <trkpt lat="48.86233" lon="2.32576">
        <ele>81.4</ele>
        <time>2015-06-29T20:32:38.546Z</time>
      </trkpt>
      <trkpt lat="48.86228" lon="2.32587">
        <ele>81.5</ele>
        <time>2015-06-29T20:32:39.549Z</time>
      </trkpt>
      <trkpt lat="48.86223" lon="2.32599">
        <ele>81.3</ele>
        <time>2015-06-29T20:32:40.563Z</time>
      </trkpt>
      <trkpt lat="48.86219" lon="2.3261">
        <ele>81.1</ele>
        <time>2015-06-29T20:32:41.582Z</time>
      </trkpt>
      <trkpt lat="48.86214" lon="2.32621">
        <ele>81.1</ele>
        <time>2015-06-29T20:32:42.512Z</time>
      </trkpt>
      <trkpt lat="48.86211" lon="2.32632">
        <ele>81.2</ele>
        <time>2015-06-29T20:32:43.499Z</time>
      </trkpt>
      <trkpt lat="48.86208" lon="2.32643">
        <ele>81.4</ele>
        <time>2015-06-29T20:32:44.556Z</time>
      </trkpt>
      <trkpt lat="48.86204" lon="2.32654">
        <ele>81.5</ele>
        <time>2015-06-29T20:32:45.563Z</time>
      </trkpt>
      <trkpt lat="48.862" lon="2.32665">
        <ele>81.1</ele>
        <time>2015-06-29T20:32:46.573Z</time>
      </trkpt>
      <trkpt lat="48.86197" lon="2.32676">
        <ele>81.1</ele>
        <time>2015-06-29T20:32:47.493Z</time>
      </trkpt>
      <trkpt lat="48.86193" lon="2.32687">
        <ele>81.5</ele>
        <time>2015-06-29T20:32:48.494Z</time>
      </trkpt>
      <trkpt lat="48.86191" lon="2.32698">
        <ele>81.4</ele>
        <time>2015-06-29T20:32:49.502Z</time>
      </trkpt>
      <trkpt lat="48.86188" lon="2.32709">
        <ele>81.5</ele>
        <time>2015-06-29T20:32:50.546Z</time>
      </trkpt>
      <trkpt lat="48.86184" lon="2.3272">
        <ele>81.3</ele>
        <time>2015-06-29T20:32:51.540Z</time>
      </trkpt>
      <trkpt lat="48.8618" lon="2.32731">
        <ele>81.4</ele>
        <time>2015-06-29T20:32:52.552Z</time>
      </trkpt>
      <trkpt lat="48.86177" lon="2.32741">
        <ele>81.5</ele>
        <time>2015-06-29T20:32:53.557Z</time>
      </trkpt>
      <trkpt lat="48.86173" lon="2.32751">
        <ele>81.8</ele>
        <time>2015-06-29T20:32:54.571Z</time>
      </trkpt>
      <trkpt lat="48.8617" lon="2.32762">
        <ele>81.6</ele>
        <time>2015-06-29T20:32:55.574Z</time>
      </trkpt>
      <trkpt lat="48.86166" lon="2.32773">
        <ele>81.6</ele>
        <time>2015-06-29T20:32:56.593Z</time>
      </trkpt>
      <trkpt lat="48.86163" lon="2.32783">
        <ele>82</ele>
        <time>2015-06-29T20:32:57.498Z</time>
      </trkpt>
      <trkpt lat="48.8616" lon="2.32793">
        <ele>82.5</ele>
        <time>2015-06-29T20:32:58.520Z</time>
      </trkpt>
      <trkpt lat="48.86157" lon="2.32804">
        <ele>82.7</ele>
        <time>2015-06-29T20:32:59.529Z</time>
      </trkpt>
      <trkpt lat="48.86153" lon="2.32815">
        <ele>83.4</ele>
        <time>2015-06-29T20:33:00.554Z</time>
      </trkpt>
      <trkpt lat="48.86148" lon="2.32826">
        <ele>83.8</ele>
        <time>2015-06-29T20:33:01.585Z</time>
      </trkpt>
      <trkpt lat="48.86145" lon="2.32837">
        <ele>83.4</ele>
        <time>2015-06-29T20:33:02.623Z</time>
      </trkpt>
      <trkpt lat="48.86142" lon="2.32846">
        <ele>83.3</ele>
        <time>2015-06-29T20:33:03.498Z</time>
      </trkpt>
      <trkpt lat="48.86138" lon="2.32855">
        <ele>83.1</ele>
        <time>2015-06-29T20:33:04.538Z</time>
      </trkpt>
      <trkpt lat="48.86135" lon="2.32865">
        <ele>83</ele>
        <time>2015-06-29T20:33:05.533Z</time>
      </trkpt>
      <trkpt lat="48.86132" lon="2.32875">
        <ele>82.9</ele>
        <time>2015-06-29T20:33:06.543Z</time>
      </trkpt>
      <trkpt lat="48.86128" lon="2.32885">
        <ele>82.8</ele>
        <time>2015-06-29T20:33:07.547Z</time>
      </trkpt>
      <trkpt lat="48.86125" lon="2.32895">
        <ele>82.9</ele>
        <time>2015-06-29T20:33:08.578Z</time>
      </trkpt>
      <trkpt lat="48.86122" lon="2.32904">
        <ele>82.7</ele>
        <time>2015-06-29T20:33:09.470Z</time>
      </trkpt>
      <trkpt lat="48.8612" lon="2.32913">
        <ele>82.8</ele>
        <time>2015-06-29T20:33:10.499Z</time>
      </trkpt>
      <trkpt lat="48.86117" lon="2.32921">
        <ele>82.6</ele>
        <time>2015-06-29T20:33:11.518Z</time>
      </trkpt>
      <trkpt lat="48.86115" lon="2.32929">
        <ele>82.4</ele>
        <time>2015-06-29T20:33:12.541Z</time>
      </trkpt>
      <trkpt lat="48.86113" lon="2.32937">
        <ele>82.2</ele>
        <time>2015-06-29T20:33:13.567Z</time>
      </trkpt>
      <trkpt lat="48.8611" lon="2.32945">
        <ele>82.1</ele>
        <time>2015-06-29T20:33:14.588Z</time>
      </trkpt>
      <trkpt lat="48.86107" lon="2.32952">
        <ele>82.2</ele>
        <time>2015-06-29T20:33:15.518Z</time>
      </trkpt>
      <trkpt lat="48.86105" lon="2.3296">
        <ele>82.3</ele>
        <time>2015-06-29T20:33:16.485Z</time>
      </trkpt>
      <trkpt lat="48.86103" lon="2.32966">
        <ele>82.4</ele>
        <time>2015-06-29T20:33:17.482Z</time>
      </trkpt>
      <trkpt lat="48.861" lon="2.32978">
        <ele>81.7</ele>
        <time>2015-06-29T20:33:19.539Z</time>
      </trkpt>
      <trkpt lat="48.86098" lon="2.32984">
        <ele>81.6</ele>
        <time>2015-06-29T20:33:20.577Z</time>
      </trkpt>
      <trkpt lat="48.86093" lon="2.32995">
        <ele>81.7</ele>
        <time>2015-06-29T20:33:22.491Z</time>
      </trkpt>
      <trkpt lat="48.86092" lon="2.33001">
        <ele>81.7</ele>
        <time>2015-06-29T20:33:23.522Z</time>
      </trkpt>
      <trkpt lat="48.8609" lon="2.33011">
        <ele>81.9</ele>
        <time>2015-06-29T20:33:25.543Z</time>
      </trkpt>
      <trkpt lat="48.86089" lon="2.33015">
        <ele>82</ele>
        <time>2015-06-29T20:33:26.565Z</time>
      </trkpt>
      <trkpt lat="48.86081" lon="2.33019">
        <ele>80.6</ele>
        <time>2015-06-29T20:33:30.525Z</time>
      </trkpt>
      <trkpt lat="48.86079" lon="2.33018">
        <ele>80.4</ele>
        <time>2015-06-29T20:33:31.538Z</time>
      </trkpt>
      <trkpt lat="48.86079" lon="2.33018">
        <ele>80.4</ele>
        <time>2015-06-29T20:34:32.577Z</time>
      </trkpt>
      <trkpt lat="48.86079" lon="2.33004">
        <ele>83</ele>
        <time>2015-06-29T20:34:33.574Z</time>
      </trkpt>
      <trkpt lat="48.86086" lon="2.32998">
        <ele>82.3</ele>
        <time>2015-06-29T20:34:37.564Z</time>
      </trkpt>
      <trkpt lat="48.86088" lon="2.32996">
        <ele>82.4</ele>
        <time>2015-06-29T20:34:38.574Z</time>
      </trkpt>
      <trkpt lat="48.86096" lon="2.32993">
        <ele>81.9</ele>
        <time>2015-06-29T20:34:43.596Z</time>
      </trkpt>
      <trkpt lat="48.86099" lon="2.32996">
        <ele>81</ele>
        <time>2015-06-29T20:34:44.682Z</time>
      </trkpt>
      <trkpt lat="48.86105" lon="2.33004">
        <ele>80.7</ele>
        <time>2015-06-29T20:35:00.585Z</time>
      </trkpt>
      <trkpt lat="48.86107" lon="2.33007">
        <ele>80.9</ele>
        <time>2015-06-29T20:35:01.556Z</time>
      </trkpt>
      <trkpt lat="48.86114" lon="2.33014">
        <ele>81.1</ele>
        <time>2015-06-29T20:35:04.543Z</time>
      </trkpt>
      <trkpt lat="48.86117" lon="2.33016">
        <ele>81.1</ele>
        <time>2015-06-29T20:35:05.507Z</time>
      </trkpt>
      <trkpt lat="48.86125" lon="2.33021">
        <ele>81.3</ele>
        <time>2015-06-29T20:35:07.559Z</time>
      </trkpt>
      <trkpt lat="48.86128" lon="2.33024">
        <ele>81.4</ele>
        <time>2015-06-29T20:35:08.647Z</time>
      </trkpt>
      <trkpt lat="48.86132" lon="2.33027">
        <ele>81.5</ele>
        <time>2015-06-29T20:35:09.511Z</time>
      </trkpt>
      <trkpt lat="48.86137" lon="2.33032">
        <ele>81.6</ele>
        <time>2015-06-29T20:35:10.513Z</time>
      </trkpt>
      <trkpt lat="48.86142" lon="2.33036">
        <ele>81.4</ele>
        <time>2015-06-29T20:35:11.702Z</time>
      </trkpt>
      <trkpt lat="48.86148" lon="2.33042">
        <ele>80.7</ele>
        <time>2015-06-29T20:35:12.532Z</time>
      </trkpt>
      <trkpt lat="48.86154" lon="2.33047">
        <ele>80.1</ele>
        <time>2015-06-29T20:35:13.541Z</time>
      </trkpt>
      <trkpt lat="48.8616" lon="2.33051">
        <ele>79.9</ele>
        <time>2015-06-29T20:35:14.568Z</time>
      </trkpt>
      <trkpt lat="48.86167" lon="2.33056">
        <ele>79.8</ele>
        <time>2015-06-29T20:35:15.570Z</time>
      </trkpt>
      <trkpt lat="48.86315" lon="2.3318">
        <ele>75.7</ele>
        <time>2015-06-29T20:35:35.588Z</time>
      </trkpt>
      <trkpt lat="48.86319" lon="2.33172">
        <ele>72.1</ele>
        <time>2015-06-29T20:35:36.566Z</time>
      </trkpt>
      <trkpt lat="48.86323" lon="2.33172">
        <ele>74.8</ele>
        <time>2015-06-29T20:35:37.589Z</time>
      </trkpt>
      <trkpt lat="48.86331" lon="2.33178">
        <ele>77.2</ele>
        <time>2015-06-29T20:35:39.513Z</time>
      </trkpt>
      <trkpt lat="48.86335" lon="2.33179">
        <ele>78</ele>
        <time>2015-06-29T20:35:40.572Z</time>
      </trkpt>
      <trkpt lat="48.86343" lon="2.33185">
        <ele>78.3</ele>
        <time>2015-06-29T20:35:42.519Z</time>
      </trkpt>
      <trkpt lat="48.86345" lon="2.33186">
        <ele>80.3</ele>
        <time>2015-06-29T20:35:43.534Z</time>
      </trkpt>
      <trkpt lat="48.86352" lon="2.33186">
        <ele>88.7</ele>
        <time>2015-06-29T20:35:47.525Z</time>
      </trkpt>
      <trkpt lat="48.86355" lon="2.33187">
        <ele>89.5</ele>
        <time>2015-06-29T20:35:48.564Z</time>
      </trkpt>
      <trkpt lat="48.86362" lon="2.3319">
        <ele>92.2</ele>
        <time>2015-06-29T20:35:51.520Z</time>
      </trkpt>
      <trkpt lat="48.86364" lon="2.33191">
        <ele>92.6</ele>
        <time>2015-06-29T20:35:52.526Z</time>
      </trkpt>
      <trkpt lat="48.86372" lon="2.33189">
        <ele>100.8</ele>
        <time>2015-06-29T20:36:43.542Z</time>
      </trkpt>
      <trkpt lat="48.86374" lon="2.3319">
        <ele>100.7</ele>
        <time>2015-06-29T20:36:44.593Z</time>
      </trkpt>
      <trkpt lat="48.86381" lon="2.33193">
        <ele>101.7</ele>
        <time>2015-06-29T20:36:47.530Z</time>
      </trkpt>
      <trkpt lat="48.86384" lon="2.33194">
        <ele>102.5</ele>
        <time>2015-06-29T20:36:48.542Z</time>
      </trkpt>
      <trkpt lat="48.8639" lon="2.33198">
        <ele>103.1</ele>
        <time>2015-06-29T20:36:50.560Z</time>
      </trkpt>
      <trkpt lat="48.86394" lon="2.332">
        <ele>103.3</ele>
        <time>2015-06-29T20:36:51.477Z</time>
      </trkpt>
      <trkpt lat="48.86397" lon="2.33203">
        <ele>103.3</ele>
        <time>2015-06-29T20:36:52.536Z</time>
      </trkpt>
      <trkpt lat="48.86401" lon="2.33207">
        <ele>103.5</ele>
        <time>2015-06-29T20:36:53.541Z</time>
      </trkpt>
      <trkpt lat="48.86405" lon="2.33211">
        <ele>103.7</ele>
        <time>2015-06-29T20:36:54.493Z</time>
      </trkpt>
      <trkpt lat="48.86409" lon="2.33216">
        <ele>103.8</ele>
        <time>2015-06-29T20:36:55.498Z</time>
      </trkpt>
      <trkpt lat="48.86414" lon="2.3322">
        <ele>103.8</ele>
        <time>2015-06-29T20:36:56.597Z</time>
      </trkpt>
      <trkpt lat="48.86419" lon="2.33224">
        <ele>103.9</ele>
        <time>2015-06-29T20:36:57.494Z</time>
      </trkpt>
      <trkpt lat="48.86423" lon="2.33228">
        <ele>103.8</ele>
        <time>2015-06-29T20:36:58.533Z</time>
      </trkpt>
      <trkpt lat="48.86426" lon="2.33233">
        <ele>103.7</ele>
        <time>2015-06-29T20:36:59.540Z</time>
      </trkpt>
      <trkpt lat="48.86432" lon="2.3324">
        <ele>103.3</ele>
        <time>2015-06-29T20:37:01.565Z</time>
      </trkpt>
      <trkpt lat="48.86436" lon="2.33243">
        <ele>102.7</ele>
        <time>2015-06-29T20:37:02.563Z</time>
      </trkpt>
      <trkpt lat="48.86443" lon="2.33246">
        <ele>102.5</ele>
        <time>2015-06-29T20:37:04.491Z</time>
      </trkpt>
      <trkpt lat="48.86446" lon="2.3325">
        <ele>102.6</ele>
        <time>2015-06-29T20:37:05.527Z</time>
      </trkpt>
      <trkpt lat="48.86452" lon="2.33257">
        <ele>102.4</ele>
        <time>2015-06-29T20:37:07.561Z</time>
      </trkpt>
      <trkpt lat="48.86455" lon="2.33261">
        <ele>102.4</ele>
        <time>2015-06-29T20:37:08.564Z</time>
      </trkpt>
      <trkpt lat="48.8645" lon="2.33272">
        <ele>102.7</ele>
        <time>2015-06-29T20:37:12.497Z</time>
      </trkpt>
      <trkpt lat="48.86447" lon="2.33275">
        <ele>102.7</ele>
        <time>2015-06-29T20:37:13.524Z</time>
      </trkpt>
      <trkpt lat="48.86441" lon="2.33283">
        <ele>103.5</ele>
        <time>2015-06-29T20:37:15.544Z</time>
      </trkpt>
      <trkpt lat="48.86439" lon="2.33286">
        <ele>103.8</ele>
        <time>2015-06-29T20:37:16.547Z</time>
      </trkpt>
      <trkpt lat="48.86434" lon="2.33296">
        <ele>104.6</ele>
        <time>2015-06-29T20:37:18.590Z</time>
      </trkpt>
      <trkpt lat="48.86431" lon="2.33301">
        <ele>105</ele>
        <time>2015-06-29T20:37:19.490Z</time>
      </trkpt>
      <trkpt lat="48.86426" lon="2.33311">
        <ele>105.2</ele>
        <time>2015-06-29T20:37:21.541Z</time>
      </trkpt>
      <trkpt lat="48.86423" lon="2.33318">
        <ele>105.4</ele>
        <time>2015-06-29T20:37:22.554Z</time>
      </trkpt>
      <trkpt lat="48.8642" lon="2.33326">
        <ele>105.5</ele>
        <time>2015-06-29T20:37:23.497Z</time>
      </trkpt>
      <trkpt lat="48.86417" lon="2.33333">
        <ele>105.4</ele>
        <time>2015-06-29T20:37:24.506Z</time>
      </trkpt>
      <trkpt lat="48.86414" lon="2.3334">
        <ele>105.5</ele>
        <time>2015-06-29T20:37:25.507Z</time>
      </trkpt>
      <trkpt lat="48.86413" lon="2.33347">
        <ele>105.3</ele>
        <time>2015-06-29T20:37:26.567Z</time>
      </trkpt>
      <trkpt lat="48.86412" lon="2.33355">
        <ele>104.9</ele>
        <time>2015-06-29T20:37:27.541Z</time>
      </trkpt>
      <trkpt lat="48.8641" lon="2.33362">
        <ele>104.9</ele>
        <time>2015-06-29T20:37:28.555Z</time>
      </trkpt>
      <trkpt lat="48.86406" lon="2.33374">
        <ele>105</ele>
        <time>2015-06-29T20:37:30.489Z</time>
      </trkpt>
      <trkpt lat="48.86404" lon="2.33381">
        <ele>104.8</ele>
        <time>2015-06-29T20:37:31.492Z</time>
      </trkpt>
      <trkpt lat="48.86402" lon="2.33389">
        <ele>104.6</ele>
        <time>2015-06-29T20:37:32.614Z</time>
      </trkpt>
      <trkpt lat="48.864" lon="2.33395">
        <ele>104.4</ele>
        <time>2015-06-29T20:37:33.478Z</time>
      </trkpt>
      <trkpt lat="48.86399" lon="2.33407">
        <ele>103</ele>
        <time>2015-06-29T20:37:34.490Z</time>
      </trkpt>
      <trkpt lat="48.86397" lon="2.33414">
        <ele>102.9</ele>
        <time>2015-06-29T20:37:35.498Z</time>
      </trkpt>
      <trkpt lat="48.86397" lon="2.33422">
        <ele>103.1</ele>
        <time>2015-06-29T20:37:36.507Z</time>
      </trkpt>
      <trkpt lat="48.86394" lon="2.33426">
        <ele>103.1</ele>
        <time>2015-06-29T20:37:37.546Z</time>
      </trkpt>
      <trkpt lat="48.86386" lon="2.33432">
        <ele>103.6</ele>
        <time>2015-06-29T20:37:39.569Z</time>
      </trkpt>
      <trkpt lat="48.86382" lon="2.33438">
        <ele>103.6</ele>
        <time>2015-06-29T20:37:40.574Z</time>
      </trkpt>
      <trkpt lat="48.86377" lon="2.33448">
        <ele>103.4</ele>
        <time>2015-06-29T20:37:42.499Z</time>
      </trkpt>
      <trkpt lat="48.86377" lon="2.33457">
        <ele>101.7</ele>
        <time>2015-06-29T20:37:43.553Z</time>
      </trkpt>
      <trkpt lat="48.8638" lon="2.33465">
        <ele>99.6</ele>
        <time>2015-06-29T20:37:44.442Z</time>
      </trkpt>
      <trkpt lat="48.8638" lon="2.33471">
        <ele>99.8</ele>
        <time>2015-06-29T20:37:45.496Z</time>
      </trkpt>
      <trkpt lat="48.86379" lon="2.33477">
        <ele>99.5</ele>
        <time>2015-06-29T20:37:46.505Z</time>
      </trkpt>
      <trkpt lat="48.86376" lon="2.33484">
        <ele>98.8</ele>
        <time>2015-06-29T20:37:47.553Z</time>
      </trkpt>
      <trkpt lat="48.86373" lon="2.33491">
        <ele>98.3</ele>
        <time>2015-06-29T20:37:48.568Z</time>
      </trkpt>
      <trkpt lat="48.86371" lon="2.33497">
        <ele>98.3</ele>
        <time>2015-06-29T20:37:49.535Z</time>
      </trkpt>
      <trkpt lat="48.86368" lon="2.33504">
        <ele>97.7</ele>
        <time>2015-06-29T20:37:50.541Z</time>
      </trkpt>
      <trkpt lat="48.86366" lon="2.3351">
        <ele>97</ele>
        <time>2015-06-29T20:37:51.549Z</time>
      </trkpt>
      <trkpt lat="48.86363" lon="2.33515">
        <ele>96.4</ele>
        <time>2015-06-29T20:37:52.549Z</time>
      </trkpt>
      <trkpt lat="48.86361" lon="2.33521">
        <ele>96.2</ele>
        <time>2015-06-29T20:37:53.568Z</time>
      </trkpt>
      <trkpt lat="48.86358" lon="2.33526">
        <ele>96.1</ele>
        <time>2015-06-29T20:37:54.582Z</time>
      </trkpt>
      <trkpt lat="48.86354" lon="2.33533">
        <ele>96.2</ele>
        <time>2015-06-29T20:37:55.581Z</time>
      </trkpt>
      <trkpt lat="48.86349" lon="2.33539">
        <ele>96.3</ele>
        <time>2015-06-29T20:37:56.585Z</time>
      </trkpt>
      <trkpt lat="48.86346" lon="2.33544">
        <ele>96.2</ele>
        <time>2015-06-29T20:37:57.597Z</time>
      </trkpt>
      <trkpt lat="48.8634" lon="2.33554">
        <ele>96</ele>
        <time>2015-06-29T20:37:59.539Z</time>
      </trkpt>
      <trkpt lat="48.86338" lon="2.33559">
        <ele>95.7</ele>
        <time>2015-06-29T20:38:00.579Z</time>
      </trkpt>
      <trkpt lat="48.86334" lon="2.33568">
        <ele>95.8</ele>
        <time>2015-06-29T20:38:02.539Z</time>
      </trkpt>
      <trkpt lat="48.86333" lon="2.33572">
        <ele>96.3</ele>
        <time>2015-06-29T20:38:03.542Z</time>
      </trkpt>
      <trkpt lat="48.8633" lon="2.33581">
        <ele>96</ele>
        <time>2015-06-29T20:38:05.525Z</time>
      </trkpt>
      <trkpt lat="48.86329" lon="2.33585">
        <ele>95.6</ele>
        <time>2015-06-29T20:38:06.546Z</time>
      </trkpt>
      <trkpt lat="48.86329" lon="2.33595">
        <ele>96.1</ele>
        <time>2015-06-29T20:38:08.572Z</time>
      </trkpt>
      <trkpt lat="48.86328" lon="2.33601">
        <ele>97</ele>
        <time>2015-06-29T20:38:09.533Z</time>
      </trkpt>
      <trkpt lat="48.86324" lon="2.33611">
        <ele>97.5</ele>
        <time>2015-06-29T20:38:11.551Z</time>
      </trkpt>
      <trkpt lat="48.86322" lon="2.33616">
        <ele>97.8</ele>
        <time>2015-06-29T20:38:12.586Z</time>
      </trkpt>
      <trkpt lat="48.86317" lon="2.33626">
        <ele>97.9</ele>
        <time>2015-06-29T20:38:14.543Z</time>
      </trkpt>
      <trkpt lat="48.86314" lon="2.33631">
        <ele>97.7</ele>
        <time>2015-06-29T20:38:15.548Z</time>
      </trkpt>
      <trkpt lat="48.86309" lon="2.3364">
        <ele>97</ele>
        <time>2015-06-29T20:38:17.546Z</time>
      </trkpt>
      <trkpt lat="48.86307" lon="2.33644">
        <ele>97</ele>
        <time>2015-06-29T20:38:18.551Z</time>
      </trkpt>
      <trkpt lat="48.86304" lon="2.33653">
        <ele>95</ele>
        <time>2015-06-29T20:38:20.566Z</time>
      </trkpt>
      <trkpt lat="48.86303" lon="2.33657">
        <ele>94.4</ele>
        <time>2015-06-29T20:38:21.568Z</time>
      </trkpt>
      <trkpt lat="48.86301" lon="2.33667">
        <ele>92.8</ele>
        <time>2015-06-29T20:38:23.575Z</time>
      </trkpt>
      <trkpt lat="48.86299" lon="2.33673">
        <ele>92.7</ele>
        <time>2015-06-29T20:38:24.584Z</time>
      </trkpt>
      <trkpt lat="48.86296" lon="2.33682">
        <ele>92</ele>
        <time>2015-06-29T20:38:26.550Z</time>
      </trkpt>
      <trkpt lat="48.86294" lon="2.33688">
        <ele>91.5</ele>
        <time>2015-06-29T20:38:27.555Z</time>
      </trkpt>
      <trkpt lat="48.86291" lon="2.33699">
        <ele>91</ele>
        <time>2015-06-29T20:38:29.681Z</time>
      </trkpt>
      <trkpt lat="48.86289" lon="2.33704">
        <ele>90.6</ele>
        <time>2015-06-29T20:38:30.572Z</time>
      </trkpt>
      <trkpt lat="48.86286" lon="2.3371">
        <ele>90.7</ele>
        <time>2015-06-29T20:38:31.544Z</time>
      </trkpt>
      <trkpt lat="48.86283" lon="2.33716">
        <ele>90.6</ele>
        <time>2015-06-29T20:38:32.629Z</time>
      </trkpt>
      <trkpt lat="48.86281" lon="2.33722">
        <ele>90.8</ele>
        <time>2015-06-29T20:38:33.525Z</time>
      </trkpt>
      <trkpt lat="48.86279" lon="2.33729">
        <ele>90.8</ele>
        <time>2015-06-29T20:38:34.541Z</time>
      </trkpt>
      <trkpt lat="48.86278" lon="2.33736">
        <ele>90.9</ele>
        <time>2015-06-29T20:38:35.602Z</time>
      </trkpt>
      <trkpt lat="48.86276" lon="2.33742">
        <ele>91.2</ele>
        <time>2015-06-29T20:38:36.521Z</time>
      </trkpt>
      <trkpt lat="48.86272" lon="2.33754">
        <ele>91.9</ele>
        <time>2015-06-29T20:38:38.535Z</time>
      </trkpt>
      <trkpt lat="48.86271" lon="2.33761">
        <ele>92.3</ele>
        <time>2015-06-29T20:38:39.556Z</time>
      </trkpt>
      <trkpt lat="48.86266" lon="2.33773">
        <ele>93.2</ele>
        <time>2015-06-29T20:38:41.582Z</time>
      </trkpt>
      <trkpt lat="48.86264" lon="2.33779">
        <ele>93.5</ele>
        <time>2015-06-29T20:38:42.601Z</time>
      </trkpt>
      <trkpt lat="48.86263" lon="2.33786">
        <ele>94.2</ele>
        <time>2015-06-29T20:38:43.581Z</time>
      </trkpt>
      <trkpt lat="48.8626" lon="2.33792">
        <ele>95</ele>
        <time>2015-06-29T20:38:44.626Z</time>
      </trkpt>
      <trkpt lat="48.8626" lon="2.33801">
        <ele>95.7</ele>
        <time>2015-06-29T20:38:45.538Z</time>
      </trkpt>
      <trkpt lat="48.86259" lon="2.33807">
        <ele>96.1</ele>
        <time>2015-06-29T20:38:46.492Z</time>
      </trkpt>
      <trkpt lat="48.86256" lon="2.33812">
        <ele>96.8</ele>
        <time>2015-06-29T20:38:47.574Z</time>
      </trkpt>
      <trkpt lat="48.86253" lon="2.33818">
        <ele>97.7</ele>
        <time>2015-06-29T20:38:48.466Z</time>
      </trkpt>
      <trkpt lat="48.8625" lon="2.33824">
        <ele>97.8</ele>
        <time>2015-06-29T20:38:49.555Z</time>
      </trkpt>
      <trkpt lat="48.86248" lon="2.33831">
        <ele>98.2</ele>
        <time>2015-06-29T20:38:50.580Z</time>
      </trkpt>
      <trkpt lat="48.86244" lon="2.33838">
        <ele>98.5</ele>
        <time>2015-06-29T20:38:51.492Z</time>
      </trkpt>
      <trkpt lat="48.86242" lon="2.33845">
        <ele>98.9</ele>
        <time>2015-06-29T20:38:52.495Z</time>
      </trkpt>
      <trkpt lat="48.86239" lon="2.33853">
        <ele>99.3</ele>
        <time>2015-06-29T20:38:53.500Z</time>
      </trkpt>
      <trkpt lat="48.86237" lon="2.3386">
        <ele>99.9</ele>
        <time>2015-06-29T20:38:54.503Z</time>
      </trkpt>
      <trkpt lat="48.86236" lon="2.33869">
        <ele>100</ele>
        <time>2015-06-29T20:38:55.508Z</time>
      </trkpt>
      <trkpt lat="48.86236" lon="2.3388">
        <ele>99.1</ele>
        <time>2015-06-29T20:38:56.580Z</time>
      </trkpt>
      <trkpt lat="48.86237" lon="2.33891">
        <ele>98.3</ele>
        <time>2015-06-29T20:38:57.558Z</time>
      </trkpt>
      <trkpt lat="48.86236" lon="2.33898">
        <ele>98.7</ele>
        <time>2015-06-29T20:38:58.559Z</time>
      </trkpt>
      <trkpt lat="48.86235" lon="2.33904">
        <ele>100.1</ele>
        <time>2015-06-29T20:38:59.496Z</time>
      </trkpt>
      <trkpt lat="48.86233" lon="2.33911">
        <ele>100.7</ele>
        <time>2015-06-29T20:39:00.499Z</time>
      </trkpt>
      <trkpt lat="48.86231" lon="2.33919">
        <ele>101</ele>
        <time>2015-06-29T20:39:01.509Z</time>
      </trkpt>
      <trkpt lat="48.86228" lon="2.33925">
        <ele>101.3</ele>
        <time>2015-06-29T20:39:02.579Z</time>
      </trkpt>
      <trkpt lat="48.86223" lon="2.3393">
        <ele>102.1</ele>
        <time>2015-06-29T20:39:03.496Z</time>
      </trkpt>
      <trkpt lat="48.86221" lon="2.33936">
        <ele>102.7</ele>
        <time>2015-06-29T20:39:04.509Z</time>
      </trkpt>
      <trkpt lat="48.86219" lon="2.33943">
        <ele>103.2</ele>
        <time>2015-06-29T20:39:05.521Z</time>
      </trkpt>
      <trkpt lat="48.86219" lon="2.33953">
        <ele>103</ele>
        <time>2015-06-29T20:39:06.537Z</time>
      </trkpt>
      <trkpt lat="48.86216" lon="2.33962">
        <ele>102.8</ele>
        <time>2015-06-29T20:39:07.546Z</time>
      </trkpt>
      <trkpt lat="48.86213" lon="2.33971">
        <ele>102.9</ele>
        <time>2015-06-29T20:39:08.557Z</time>
      </trkpt>
      <trkpt lat="48.86209" lon="2.33978">
        <ele>102.7</ele>
        <time>2015-06-29T20:39:09.575Z</time>
      </trkpt>
      <trkpt lat="48.86206" lon="2.33986">
        <ele>102.4</ele>
        <time>2015-06-29T20:39:10.589Z</time>
      </trkpt>
      <trkpt lat="48.86204" lon="2.33993">
        <ele>102.1</ele>
        <time>2015-06-29T20:39:11.489Z</time>
      </trkpt>
      <trkpt lat="48.86203" lon="2.34002">
        <ele>102</ele>
        <time>2015-06-29T20:39:12.493Z</time>
      </trkpt>
      <trkpt lat="48.862" lon="2.3401">
        <ele>101.5</ele>
        <time>2015-06-29T20:39:13.511Z</time>
      </trkpt>
      <trkpt lat="48.86197" lon="2.34018">
        <ele>101.2</ele>
        <time>2015-06-29T20:39:14.564Z</time>
      </trkpt>
      <trkpt lat="48.86194" lon="2.34024">
        <ele>100.9</ele>
        <time>2015-06-29T20:39:15.602Z</time>
      </trkpt>
      <trkpt lat="48.86194" lon="2.34031">
        <ele>100.9</ele>
        <time>2015-06-29T20:39:16.503Z</time>
      </trkpt>
      <trkpt lat="48.8619" lon="2.34044">
        <ele>100.3</ele>
        <time>2015-06-29T20:39:18.493Z</time>
      </trkpt>
      <trkpt lat="48.86189" lon="2.34049">
        <ele>100.4</ele>
        <time>2015-06-29T20:39:19.498Z</time>
      </trkpt>
      <trkpt lat="48.86188" lon="2.34055">
        <ele>100.3</ele>
        <time>2015-06-29T20:39:20.598Z</time>
      </trkpt>
      <trkpt lat="48.86187" lon="2.34063">
        <ele>100</ele>
        <time>2015-06-29T20:39:21.560Z</time>
      </trkpt>
      <trkpt lat="48.86185" lon="2.34071">
        <ele>99.9</ele>
        <time>2015-06-29T20:39:22.579Z</time>
      </trkpt>
      <trkpt lat="48.86183" lon="2.34079">
        <ele>99.8</ele>
        <time>2015-06-29T20:39:23.486Z</time>
      </trkpt>
      <trkpt lat="48.86181" lon="2.34086">
        <ele>99.3</ele>
        <time>2015-06-29T20:39:24.495Z</time>
      </trkpt>
      <trkpt lat="48.8618" lon="2.34095">
        <ele>97.8</ele>
        <time>2015-06-29T20:39:25.522Z</time>
      </trkpt>
      <trkpt lat="48.86178" lon="2.34103">
        <ele>97.2</ele>
        <time>2015-06-29T20:39:26.579Z</time>
      </trkpt>
      <trkpt lat="48.86179" lon="2.34111">
        <ele>97.2</ele>
        <time>2015-06-29T20:39:27.499Z</time>
      </trkpt>
      <trkpt lat="48.86183" lon="2.34118">
        <ele>97.9</ele>
        <time>2015-06-29T20:39:28.492Z</time>
      </trkpt>
      <trkpt lat="48.86185" lon="2.34124">
        <ele>98.3</ele>
        <time>2015-06-29T20:39:29.507Z</time>
      </trkpt>
      <trkpt lat="48.86179" lon="2.34127">
        <ele>99.5</ele>
        <time>2015-06-29T20:39:30.528Z</time>
      </trkpt>
      <trkpt lat="48.86177" lon="2.34132">
        <ele>100</ele>
        <time>2015-06-29T20:39:31.538Z</time>
      </trkpt>
      <trkpt lat="48.86173" lon="2.34138">
        <ele>100.5</ele>
        <time>2015-06-29T20:39:32.543Z</time>
      </trkpt>
      <trkpt lat="48.86171" lon="2.34144">
        <ele>100.4</ele>
        <time>2015-06-29T20:39:33.554Z</time>
      </trkpt>
      <trkpt lat="48.86168" lon="2.34151">
        <ele>100.2</ele>
        <time>2015-06-29T20:39:34.484Z</time>
      </trkpt>
      <trkpt lat="48.86165" lon="2.34156">
        <ele>100.2</ele>
        <time>2015-06-29T20:39:35.482Z</time>
      </trkpt>
      <trkpt lat="48.86163" lon="2.34162">
        <ele>100.3</ele>
        <time>2015-06-29T20:39:36.512Z</time>
      </trkpt>
      <trkpt lat="48.86162" lon="2.3417">
        <ele>100.3</ele>
        <time>2015-06-29T20:39:37.516Z</time>
      </trkpt>
      <trkpt lat="48.8616" lon="2.34177">
        <ele>100.4</ele>
        <time>2015-06-29T20:39:38.555Z</time>
      </trkpt>
      <trkpt lat="48.86159" lon="2.34185">
        <ele>100.2</ele>
        <time>2015-06-29T20:39:39.558Z</time>
      </trkpt>
      <trkpt lat="48.86159" lon="2.34192">
        <ele>100</ele>
        <time>2015-06-29T20:39:40.487Z</time>
      </trkpt>
      <trkpt lat="48.86158" lon="2.34199">
        <ele>99.6</ele>
        <time>2015-06-29T20:39:41.480Z</time>
      </trkpt>
      <trkpt lat="48.86157" lon="2.34206">
        <ele>99.5</ele>
        <time>2015-06-29T20:39:42.483Z</time>
      </trkpt>
      <trkpt lat="48.86157" lon="2.34214">
        <ele>99.5</ele>
        <time>2015-06-29T20:39:43.488Z</time>
      </trkpt>
      <trkpt lat="48.86159" lon="2.34222">
        <ele>99.6</ele>
        <time>2015-06-29T20:39:44.536Z</time>
      </trkpt>
      <trkpt lat="48.86158" lon="2.3423">
        <ele>99.5</ele>
        <time>2015-06-29T20:39:45.520Z</time>
      </trkpt>
      <trkpt lat="48.86156" lon="2.34237">
        <ele>99.3</ele>
        <time>2015-06-29T20:39:46.531Z</time>
      </trkpt>
      <trkpt lat="48.86154" lon="2.34243">
        <ele>99.1</ele>
        <time>2015-06-29T20:39:47.539Z</time>
      </trkpt>
      <trkpt lat="48.86153" lon="2.34249">
        <ele>99.3</ele>
        <time>2015-06-29T20:39:48.553Z</time>
      </trkpt>
      <trkpt lat="48.86151" lon="2.34257">
        <ele>99.3</ele>
        <time>2015-06-29T20:39:49.577Z</time>
      </trkpt>
      <trkpt lat="48.8615" lon="2.34263">
        <ele>99.3</ele>
        <time>2015-06-29T20:39:50.576Z</time>
      </trkpt>
      <trkpt lat="48.86147" lon="2.3427">
        <ele>99.6</ele>
        <time>2015-06-29T20:39:51.499Z</time>
      </trkpt>
      <trkpt lat="48.86147" lon="2.34278">
        <ele>100</ele>
        <time>2015-06-29T20:39:52.493Z</time>
      </trkpt>
      <trkpt lat="48.86145" lon="2.34284">
        <ele>99.9</ele>
        <time>2015-06-29T20:39:53.502Z</time>
      </trkpt>
      <trkpt lat="48.86145" lon="2.34292">
        <ele>99.7</ele>
        <time>2015-06-29T20:39:54.508Z</time>
      </trkpt>
      <trkpt lat="48.86146" lon="2.343">
        <ele>99.6</ele>
        <time>2015-06-29T20:39:55.516Z</time>
      </trkpt>
      <trkpt lat="48.86148" lon="2.34309">
        <ele>99.2</ele>
        <time>2015-06-29T20:39:56.528Z</time>
      </trkpt>
      <trkpt lat="48.86149" lon="2.34316">
        <ele>99.1</ele>
        <time>2015-06-29T20:39:57.538Z</time>
      </trkpt>
      <trkpt lat="48.86149" lon="2.34324">
        <ele>99.2</ele>
        <time>2015-06-29T20:39:58.550Z</time>
      </trkpt>
      <trkpt lat="48.8615" lon="2.34332">
        <ele>99.2</ele>
        <time>2015-06-29T20:39:59.577Z</time>
      </trkpt>
      <trkpt lat="48.86149" lon="2.34339">
        <ele>99.5</ele>
        <time>2015-06-29T20:40:00.488Z</time>
      </trkpt>
      <trkpt lat="48.86147" lon="2.34346">
        <ele>99.3</ele>
        <time>2015-06-29T20:40:01.485Z</time>
      </trkpt>
      <trkpt lat="48.86145" lon="2.34354">
        <ele>99.2</ele>
        <time>2015-06-29T20:40:02.526Z</time>
      </trkpt>
      <trkpt lat="48.86143" lon="2.34361">
        <ele>98.9</ele>
        <time>2015-06-29T20:40:03.526Z</time>
      </trkpt>
      <trkpt lat="48.86141" lon="2.34368">
        <ele>98.7</ele>
        <time>2015-06-29T20:40:04.537Z</time>
      </trkpt>
      <trkpt lat="48.86139" lon="2.34376">
        <ele>98.7</ele>
        <time>2015-06-29T20:40:05.549Z</time>
      </trkpt>
      <trkpt lat="48.86136" lon="2.34383">
        <ele>98.3</ele>
        <time>2015-06-29T20:40:06.470Z</time>
      </trkpt>
      <trkpt lat="48.86131" lon="2.3439">
        <ele>97.9</ele>
        <time>2015-06-29T20:40:07.478Z</time>
      </trkpt>
      <trkpt lat="48.86132" lon="2.34398">
        <ele>98.3</ele>
        <time>2015-06-29T20:40:08.514Z</time>
      </trkpt>
      <trkpt lat="48.86131" lon="2.34404">
        <ele>98.3</ele>
        <time>2015-06-29T20:40:09.537Z</time>
      </trkpt>
      <trkpt lat="48.86132" lon="2.34412">
        <ele>98.6</ele>
        <time>2015-06-29T20:40:10.540Z</time>
      </trkpt>
      <trkpt lat="48.86133" lon="2.3442">
        <ele>99.1</ele>
        <time>2015-06-29T20:40:11.551Z</time>
      </trkpt>
      <trkpt lat="48.86132" lon="2.34427">
        <ele>99.8</ele>
        <time>2015-06-29T20:40:12.559Z</time>
      </trkpt>
      <trkpt lat="48.86129" lon="2.34434">
        <ele>100.3</ele>
        <time>2015-06-29T20:40:13.565Z</time>
      </trkpt>
      <trkpt lat="48.86124" lon="2.34442">
        <ele>100.2</ele>
        <time>2015-06-29T20:40:14.592Z</time>
      </trkpt>
      <trkpt lat="48.86121" lon="2.3445">
        <ele>100</ele>
        <time>2015-06-29T20:40:15.485Z</time>
      </trkpt>
      <trkpt lat="48.86119" lon="2.3446">
        <ele>99.3</ele>
        <time>2015-06-29T20:40:16.487Z</time>
      </trkpt>
      <trkpt lat="48.86117" lon="2.34469">
        <ele>99</ele>
        <time>2015-06-29T20:40:17.495Z</time>
      </trkpt>
      <trkpt lat="48.86114" lon="2.34478">
        <ele>99</ele>
        <time>2015-06-29T20:40:18.503Z</time>
      </trkpt>
      <trkpt lat="48.86113" lon="2.34486">
        <ele>99.5</ele>
        <time>2015-06-29T20:40:19.512Z</time>
      </trkpt>
      <trkpt lat="48.86109" lon="2.34498">
        <ele>100.6</ele>
        <time>2015-06-29T20:40:21.544Z</time>
      </trkpt>
      <trkpt lat="48.86107" lon="2.34505">
        <ele>100.5</ele>
        <time>2015-06-29T20:40:22.551Z</time>
      </trkpt>
      <trkpt lat="48.86105" lon="2.34511">
        <ele>100.1</ele>
        <time>2015-06-29T20:40:23.491Z</time>
      </trkpt>
      <trkpt lat="48.86103" lon="2.34518">
        <ele>100.2</ele>
        <time>2015-06-29T20:40:24.490Z</time>
      </trkpt>
      <trkpt lat="48.86102" lon="2.34526">
        <ele>100.5</ele>
        <time>2015-06-29T20:40:25.498Z</time>
      </trkpt>
      <trkpt lat="48.86101" lon="2.34533">
        <ele>100.7</ele>
        <time>2015-06-29T20:40:26.537Z</time>
      </trkpt>
      <trkpt lat="48.861" lon="2.34541">
        <ele>101</ele>
        <time>2015-06-29T20:40:27.547Z</time>
      </trkpt>
      <trkpt lat="48.86099" lon="2.34548">
        <ele>101.2</ele>
        <time>2015-06-29T20:40:28.555Z</time>
      </trkpt>
      <trkpt lat="48.86096" lon="2.34553">
        <ele>102.1</ele>
        <time>2015-06-29T20:40:29.567Z</time>
      </trkpt>
      <trkpt lat="48.86093" lon="2.3456">
        <ele>102.4</ele>
        <time>2015-06-29T20:40:30.575Z</time>
      </trkpt>
      <trkpt lat="48.8609" lon="2.34571">
        <ele>102.2</ele>
        <time>2015-06-29T20:40:31.501Z</time>
      </trkpt>
      <trkpt lat="48.86087" lon="2.34581">
        <ele>101.6</ele>
        <time>2015-06-29T20:40:32.610Z</time>
      </trkpt>
      <trkpt lat="48.86083" lon="2.34588">
        <ele>101.5</ele>
        <time>2015-06-29T20:40:33.491Z</time>
      </trkpt>
      <trkpt lat="48.86077" lon="2.34595">
        <ele>102.1</ele>
        <time>2015-06-29T20:40:34.680Z</time>
      </trkpt>
      <trkpt lat="48.8607" lon="2.346">
        <ele>102.2</ele>
        <time>2015-06-29T20:40:35.514Z</time>
      </trkpt>
      <trkpt lat="48.86064" lon="2.34605">
        <ele>102.1</ele>
        <time>2015-06-29T20:40:36.528Z</time>
      </trkpt>
      <trkpt lat="48.86058" lon="2.3461">
        <ele>102.2</ele>
        <time>2015-06-29T20:40:37.529Z</time>
      </trkpt>
      <trkpt lat="48.86051" lon="2.34614">
        <ele>101.8</ele>
        <time>2015-06-29T20:40:38.525Z</time>
      </trkpt>
      <trkpt lat="48.86044" lon="2.34618">
        <ele>101.4</ele>
        <time>2015-06-29T20:40:39.537Z</time>
      </trkpt>
      <trkpt lat="48.86037" lon="2.34622">
        <ele>101</ele>
        <time>2015-06-29T20:40:40.557Z</time>
      </trkpt>
      <trkpt lat="48.86031" lon="2.34626">
        <ele>100.7</ele>
        <time>2015-06-29T20:40:41.560Z</time>
      </trkpt>
      <trkpt lat="48.86025" lon="2.3463">
        <ele>100.5</ele>
        <time>2015-06-29T20:40:42.570Z</time>
      </trkpt>
      <trkpt lat="48.8602" lon="2.34634">
        <ele>100.6</ele>
        <time>2015-06-29T20:40:43.494Z</time>
      </trkpt>
      <trkpt lat="48.86016" lon="2.34638">
        <ele>100.9</ele>
        <time>2015-06-29T20:40:44.580Z</time>
      </trkpt>
      <trkpt lat="48.86011" lon="2.34641">
        <ele>101.1</ele>
        <time>2015-06-29T20:40:45.490Z</time>
      </trkpt>
      <trkpt lat="48.86006" lon="2.34645">
        <ele>101.5</ele>
        <time>2015-06-29T20:40:46.488Z</time>
      </trkpt>
      <trkpt lat="48.86002" lon="2.34651">
        <ele>102.6</ele>
        <time>2015-06-29T20:40:47.681Z</time>
      </trkpt>
      <trkpt lat="48.85998" lon="2.34654">
        <ele>103</ele>
        <time>2015-06-29T20:40:48.541Z</time>
      </trkpt>
      <trkpt lat="48.85991" lon="2.34663">
        <ele>104</ele>
        <time>2015-06-29T20:40:50.577Z</time>
      </trkpt>
      <trkpt lat="48.85988" lon="2.34665">
        <ele>103.8</ele>
        <time>2015-06-29T20:40:51.521Z</time>
      </trkpt>
      <trkpt lat="48.85981" lon="2.34672">
        <ele>104.6</ele>
        <time>2015-06-29T20:40:53.491Z</time>
      </trkpt>
      <trkpt lat="48.85977" lon="2.34676">
        <ele>104.6</ele>
        <time>2015-06-29T20:40:54.513Z</time>
      </trkpt>
      <trkpt lat="48.8597" lon="2.34683">
        <ele>104.3</ele>
        <time>2015-06-29T20:40:56.538Z</time>
      </trkpt>
      <trkpt lat="48.85967" lon="2.34688">
        <ele>103.9</ele>
        <time>2015-06-29T20:40:57.553Z</time>
      </trkpt>
      <trkpt lat="48.85961" lon="2.34693">
        <ele>103.5</ele>
        <time>2015-06-29T20:40:59.491Z</time>
      </trkpt>
      <trkpt lat="48.85959" lon="2.34696">
        <ele>103.1</ele>
        <time>2015-06-29T20:41:00.500Z</time>
      </trkpt>
      <trkpt lat="48.85956" lon="2.34708">
        <ele>102</ele>
        <time>2015-06-29T20:41:04.551Z</time>
      </trkpt>
      <trkpt lat="48.85954" lon="2.3471">
        <ele>102.4</ele>
        <time>2015-06-29T20:41:05.510Z</time>
      </trkpt>
      <trkpt lat="48.85948" lon="2.34717">
        <ele>102.6</ele>
        <time>2015-06-29T20:41:08.601Z</time>
      </trkpt>
      <trkpt lat="48.85947" lon="2.34718">
        <ele>102</ele>
        <time>2015-06-29T20:41:09.523Z</time>
      </trkpt>
      <trkpt lat="48.85955" lon="2.34718">
        <ele>106.3</ele>
        <time>2015-06-29T20:41:34.489Z</time>
      </trkpt>
      <trkpt lat="48.85956" lon="2.3472">
        <ele>106.5</ele>
        <time>2015-06-29T20:41:35.513Z</time>
      </trkpt>
      <trkpt lat="48.85959" lon="2.34724">
        <ele>106.6</ele>
        <time>2015-06-29T20:41:36.535Z</time>
      </trkpt>
      <trkpt lat="48.8596" lon="2.34725">
        <ele>106.6</ele>
        <time>2015-06-29T20:41:37.576Z</time>
      </trkpt>
      <trkpt lat="48.85961" lon="2.34727">
        <ele>106.7</ele>
        <time>2015-06-29T20:42:35.014Z</time>
      </trkpt>
    </trkseg>
  </trk>
</gpx>